<?xml version='1.0' encoding='UTF-8'?><gpx version="1.1" creator="JPX - https://github.com/jenetics/jpx" xmlns="http://www.topografix.com/GPX/1/1"><trk><trkseg><trkpt lat="39.8468348" lon="8.5559364"><ele>0.0</ele><time>2026-04-26T09:32:44.607Z</time></trkpt><trkpt lat="39.8468971" lon="8.556016"><ele>0.0</ele><time>2026-04-26T09:32:48.514Z</time></trkpt><trkpt lat="39.8469679" lon="8.5560346"><ele>0.0</ele><time>2026-04-26T09:32:50.607Z</time></trkpt><trkpt lat="39.8470647" lon="8.5560265"><ele>0.0</ele><time>2026-04-26T09:33:34.608Z</time></trkpt><trkpt lat="39.8471952" lon="8.5560315"><ele>0.0</ele><time>2026-04-26T09:33:37.64Z</time></trkpt><trkpt lat="39.8472689" lon="8.5560289"><ele>0.0</ele><time>2026-04-26T09:33:38.61Z</time></trkpt><trkpt lat="39.8473398" lon="8.5560256"><ele>0.0</ele><time>2026-04-26T09:33:39.61Z</time></trkpt><trkpt lat="39.8474125" lon="8.5560262"><ele>0.0</ele><time>2026-04-26T09:33:40.608Z</time></trkpt><trkpt lat="39.8474942" lon="8.556028"><ele>0.0</ele><time>2026-04-26T09:33:41.612Z</time></trkpt><trkpt lat="39.8475754" lon="8.5560297"><ele>0.0</ele><time>2026-04-26T09:33:42.605Z</time></trkpt><trkpt lat="39.8476521" lon="8.5560312"><ele>0.0</ele><time>2026-04-26T09:33:43.641Z</time></trkpt><trkpt lat="39.8477235" lon="8.5560314"><ele>0.14285714285714285</ele><time>2026-04-26T09:33:44.608Z</time></trkpt><trkpt lat="39.847793" lon="8.5560303"><ele>0.2857142857142857</ele><time>2026-04-26T09:33:45.609Z</time></trkpt><trkpt lat="39.8478614" lon="8.5560312"><ele>0.42857142857142855</ele><time>2026-04-26T09:33:46.606Z</time></trkpt><trkpt lat="39.8479298" lon="8.5560311"><ele>0.5714285714285714</ele><time>2026-04-26T09:33:47.618Z</time></trkpt><trkpt lat="39.8479977" lon="8.5560309"><ele>0.7142857142857142</ele><time>2026-04-26T09:33:48.616Z</time></trkpt><trkpt lat="39.8480652" lon="8.5560297"><ele>0.8571428571428571</ele><time>2026-04-26T09:33:49.64Z</time></trkpt><trkpt lat="39.8481322" lon="8.5560279"><ele>1.0</ele><time>2026-04-26T09:33:50.606Z</time></trkpt><trkpt lat="39.8482009" lon="8.5560262"><ele>1.0</ele><time>2026-04-26T09:33:51.607Z</time></trkpt><trkpt lat="39.8482679" lon="8.5560247"><ele>1.0</ele><time>2026-04-26T09:33:52.605Z</time></trkpt><trkpt lat="39.848392" lon="8.5560336"><ele>1.0</ele><time>2026-04-26T09:33:54.61Z</time></trkpt><trkpt lat="39.8485085" lon="8.5560494"><ele>1.0</ele><time>2026-04-26T09:33:56.605Z</time></trkpt><trkpt lat="39.8486189" lon="8.5560593"><ele>1.0</ele><time>2026-04-26T09:33:58.607Z</time></trkpt><trkpt lat="39.8487261" lon="8.5560651"><ele>0.9999999999999999</ele><time>2026-04-26T09:34:00.612Z</time></trkpt><trkpt lat="39.8488188" lon="8.5560735"><ele>1.0</ele><time>2026-04-26T09:34:02.608Z</time></trkpt><trkpt lat="39.8489002" lon="8.5560772"><ele>1.0</ele><time>2026-04-26T09:34:04.602Z</time></trkpt><trkpt lat="39.8489881" lon="8.5560767"><ele>1.0</ele><time>2026-04-26T09:34:06.613Z</time></trkpt><trkpt lat="39.8490808" lon="8.5560749"><ele>0.9999999999999999</ele><time>2026-04-26T09:34:08.603Z</time></trkpt><trkpt lat="39.849172" lon="8.5560617"><ele>1.0</ele><time>2026-04-26T09:34:10.605Z</time></trkpt><trkpt lat="39.8492759" lon="8.5560941"><ele>0.8333333333333333</ele><time>2026-04-26T09:34:13.646Z</time></trkpt><trkpt lat="39.8493329" lon="8.5561678"><ele>0.6666666666666666</ele><time>2026-04-26T09:34:15.606Z</time></trkpt><trkpt lat="39.849333" lon="8.556283"><ele>0.5</ele><time>2026-04-26T09:34:17.629Z</time></trkpt><trkpt lat="39.8492972" lon="8.5564029"><ele>0.3333333333333333</ele><time>2026-04-26T09:34:19.655Z</time></trkpt><trkpt lat="39.8492873" lon="8.5565118"><ele>0.16666666666666666</ele><time>2026-04-26T09:34:21.61Z</time></trkpt><trkpt lat="39.8493012" lon="8.5566197"><ele>0.0</ele><time>2026-04-26T09:34:23.612Z</time></trkpt><trkpt lat="39.8493207" lon="8.5567017"><ele>0.5</ele><time>2026-04-26T09:34:25.608Z</time></trkpt><trkpt lat="39.8493778" lon="8.5568089"><ele>1.0</ele><time>2026-04-26T09:34:28.61Z</time></trkpt><trkpt lat="39.8494636" lon="8.5568439"><ele>1.5</ele><time>2026-04-26T09:34:30.615Z</time></trkpt><trkpt lat="39.8495762" lon="8.5568255"><ele>2.0</ele><time>2026-04-26T09:34:32.608Z</time></trkpt><trkpt lat="39.8496405" lon="8.5568109"><ele>2.5</ele><time>2026-04-26T09:34:33.605Z</time></trkpt><trkpt lat="39.8497088" lon="8.5567943"><ele>3.0</ele><time>2026-04-26T09:34:34.605Z</time></trkpt><trkpt lat="39.8497812" lon="8.5567778"><ele>2.9999999999999996</ele><time>2026-04-26T09:34:35.612Z</time></trkpt><trkpt lat="39.8498514" lon="8.5567608"><ele>3.0</ele><time>2026-04-26T09:34:36.612Z</time></trkpt><trkpt lat="39.8499225" lon="8.5567436"><ele>3.0</ele><time>2026-04-26T09:34:37.66Z</time></trkpt><trkpt lat="39.84999" lon="8.5567283"><ele>3.0</ele><time>2026-04-26T09:34:38.615Z</time></trkpt><trkpt lat="39.8500615" lon="8.5567132"><ele>3.0</ele><time>2026-04-26T09:34:39.613Z</time></trkpt><trkpt lat="39.8501309" lon="8.5566997"><ele>2.9999999999999996</ele><time>2026-04-26T09:34:40.617Z</time></trkpt><trkpt lat="39.8501992" lon="8.5566875"><ele>3.0</ele><time>2026-04-26T09:34:41.614Z</time></trkpt><trkpt lat="39.8502686" lon="8.5566744"><ele>2.9999999999999996</ele><time>2026-04-26T09:34:42.61Z</time></trkpt><trkpt lat="39.8503382" lon="8.5566596"><ele>3.0</ele><time>2026-04-26T09:34:43.663Z</time></trkpt><trkpt lat="39.8504039" lon="8.5566437"><ele>3.0</ele><time>2026-04-26T09:34:44.612Z</time></trkpt><trkpt lat="39.8504752" lon="8.5566257"><ele>3.0</ele><time>2026-04-26T09:34:45.608Z</time></trkpt><trkpt lat="39.8505459" lon="8.5566111"><ele>3.0</ele><time>2026-04-26T09:34:46.607Z</time></trkpt><trkpt lat="39.8506187" lon="8.5565963"><ele>2.9999999999999996</ele><time>2026-04-26T09:34:47.608Z</time></trkpt><trkpt lat="39.8506921" lon="8.5565841"><ele>3.0</ele><time>2026-04-26T09:34:48.608Z</time></trkpt><trkpt lat="39.8507682" lon="8.5565724"><ele>3.0</ele><time>2026-04-26T09:34:49.656Z</time></trkpt><trkpt lat="39.8508447" lon="8.5565639"><ele>3.0</ele><time>2026-04-26T09:34:50.607Z</time></trkpt><trkpt lat="39.8509225" lon="8.5565585"><ele>3.0</ele><time>2026-04-26T09:34:51.605Z</time></trkpt><trkpt lat="39.8509985" lon="8.5565501"><ele>3.0</ele><time>2026-04-26T09:34:52.612Z</time></trkpt><trkpt lat="39.8510737" lon="8.5565404"><ele>3.0</ele><time>2026-04-26T09:34:53.609Z</time></trkpt><trkpt lat="39.8511512" lon="8.5565304"><ele>3.0</ele><time>2026-04-26T09:34:54.611Z</time></trkpt><trkpt lat="39.8512292" lon="8.5565199"><ele>2.8333333333333335</ele><time>2026-04-26T09:34:55.671Z</time></trkpt><trkpt lat="39.8513037" lon="8.5565127"><ele>2.6666666666666665</ele><time>2026-04-26T09:34:56.613Z</time></trkpt><trkpt lat="39.8513798" lon="8.5565103"><ele>2.5</ele><time>2026-04-26T09:34:57.607Z</time></trkpt><trkpt lat="39.8514563" lon="8.556509"><ele>2.333333333333333</ele><time>2026-04-26T09:34:58.604Z</time></trkpt><trkpt lat="39.8515318" lon="8.5565077"><ele>2.1666666666666665</ele><time>2026-04-26T09:34:59.608Z</time></trkpt><trkpt lat="39.8516094" lon="8.5565046"><ele>2.0</ele><time>2026-04-26T09:35:00.615Z</time></trkpt><trkpt lat="39.8516837" lon="8.5565007"><ele>1.9999999999999998</ele><time>2026-04-26T09:35:01.602Z</time></trkpt><trkpt lat="39.8517534" lon="8.5564955"><ele>2.0</ele><time>2026-04-26T09:35:02.611Z</time></trkpt><trkpt lat="39.8518207" lon="8.556489"><ele>2.0</ele><time>2026-04-26T09:35:03.608Z</time></trkpt><trkpt lat="39.8519399" lon="8.5564713"><ele>2.0</ele><time>2026-04-26T09:35:05.602Z</time></trkpt><trkpt lat="39.8520327" lon="8.5564582"><ele>1.9999999999999998</ele><time>2026-04-26T09:35:07.657Z</time></trkpt><trkpt lat="39.8521202" lon="8.5564511"><ele>2.0</ele><time>2026-04-26T09:35:09.608Z</time></trkpt><trkpt lat="39.852215" lon="8.5564767"><ele>2.0</ele><time>2026-04-26T09:35:11.62Z</time></trkpt><trkpt lat="39.8522933" lon="8.5565667"><ele>2.0</ele><time>2026-04-26T09:35:13.659Z</time></trkpt><trkpt lat="39.8523183" lon="8.556705"><ele>2.0</ele><time>2026-04-26T09:35:15.607Z</time></trkpt><trkpt lat="39.8523117" lon="8.5568533"><ele>2.0</ele><time>2026-04-26T09:35:17.614Z</time></trkpt><trkpt lat="39.8523317" lon="8.5569783"><ele>2.0</ele><time>2026-04-26T09:35:19.661Z</time></trkpt><trkpt lat="39.8523967" lon="8.5570617"><ele>1.9999999999999998</ele><time>2026-04-26T09:35:21.609Z</time></trkpt><trkpt lat="39.8525067" lon="8.5570967"><ele>2.0</ele><time>2026-04-26T09:35:23.605Z</time></trkpt><trkpt lat="39.8525733" lon="8.5570867"><ele>2.0</ele><time>2026-04-26T09:35:24.61Z</time></trkpt><trkpt lat="39.85264" lon="8.5570617"><ele>2.0</ele><time>2026-04-26T09:35:25.608Z</time></trkpt><trkpt lat="39.8527017" lon="8.55702"><ele>1.9999999999999998</ele><time>2026-04-26T09:35:26.606Z</time></trkpt><trkpt lat="39.85276" lon="8.55697"><ele>2.0</ele><time>2026-04-26T09:35:27.613Z</time></trkpt><trkpt lat="39.852815" lon="8.5569233"><ele>2.142857142857143</ele><time>2026-04-26T09:35:28.611Z</time></trkpt><trkpt lat="39.85287" lon="8.5568667"><ele>2.2857142857142856</ele><time>2026-04-26T09:35:29.609Z</time></trkpt><trkpt lat="39.8529217" lon="8.5568083"><ele>2.4285714285714284</ele><time>2026-04-26T09:35:30.606Z</time></trkpt><trkpt lat="39.85297" lon="8.5567483"><ele>2.571428571428571</ele><time>2026-04-26T09:35:31.611Z</time></trkpt><trkpt lat="39.85302" lon="8.5566867"><ele>2.7142857142857144</ele><time>2026-04-26T09:35:32.613Z</time></trkpt><trkpt lat="39.8530683" lon="8.5566317"><ele>2.8571428571428568</ele><time>2026-04-26T09:35:33.607Z</time></trkpt><trkpt lat="39.8531517" lon="8.5565617"><ele>3.0</ele><time>2026-04-26T09:35:35.613Z</time></trkpt><trkpt lat="39.8532367" lon="8.5565583"><ele>3.0</ele><time>2026-04-26T09:35:37.659Z</time></trkpt><trkpt lat="39.8533367" lon="8.5566367"><ele>3.0</ele><time>2026-04-26T09:35:39.615Z</time></trkpt><trkpt lat="39.853385" lon="8.5567017"><ele>3.0</ele><time>2026-04-26T09:35:40.609Z</time></trkpt><trkpt lat="39.8534267" lon="8.556775"><ele>3.0</ele><time>2026-04-26T09:35:41.61Z</time></trkpt><trkpt lat="39.8534633" lon="8.5568533"><ele>3.0</ele><time>2026-04-26T09:35:42.608Z</time></trkpt><trkpt lat="39.8534967" lon="8.556935"><ele>3.0</ele><time>2026-04-26T09:35:43.656Z</time></trkpt><trkpt lat="39.8535267" lon="8.5570183"><ele>3.1666666666666665</ele><time>2026-04-26T09:35:44.61Z</time></trkpt><trkpt lat="39.853555" lon="8.557095"><ele>3.333333333333333</ele><time>2026-04-26T09:35:45.611Z</time></trkpt><trkpt lat="39.8535867" lon="8.55717"><ele>3.5</ele><time>2026-04-26T09:35:46.605Z</time></trkpt><trkpt lat="39.85362" lon="8.55725"><ele>3.6666666666666665</ele><time>2026-04-26T09:35:47.611Z</time></trkpt><trkpt lat="39.853695" lon="8.5574183"><ele>3.833333333333333</ele><time>2026-04-26T09:35:49.657Z</time></trkpt><trkpt lat="39.85374" lon="8.5575017"><ele>4.0</ele><time>2026-04-26T09:35:50.611Z</time></trkpt><trkpt lat="39.8538383" lon="8.557665"><ele>4.0</ele><time>2026-04-26T09:35:52.609Z</time></trkpt><trkpt lat="39.853945" lon="8.5578133"><ele>4.0</ele><time>2026-04-26T09:35:54.6Z</time></trkpt><trkpt lat="39.8540033" lon="8.5578817"><ele>4.0</ele><time>2026-04-26T09:35:55.607Z</time></trkpt><trkpt lat="39.85406" lon="8.5579467"><ele>4.0</ele><time>2026-04-26T09:35:56.608Z</time></trkpt><trkpt lat="39.8541183" lon="8.5580067"><ele>4.0</ele><time>2026-04-26T09:35:57.601Z</time></trkpt><trkpt lat="39.8541817" lon="8.55806"><ele>3.833333333333333</ele><time>2026-04-26T09:35:58.608Z</time></trkpt><trkpt lat="39.8542467" lon="8.55811"><ele>3.6666666666666665</ele><time>2026-04-26T09:35:59.612Z</time></trkpt><trkpt lat="39.8543117" lon="8.55816"><ele>3.5</ele><time>2026-04-26T09:36:00.602Z</time></trkpt><trkpt lat="39.854375" lon="8.5582033"><ele>3.333333333333333</ele><time>2026-04-26T09:36:01.608Z</time></trkpt><trkpt lat="39.85444" lon="8.558245"><ele>3.1666666666666665</ele><time>2026-04-26T09:36:02.614Z</time></trkpt><trkpt lat="39.854505" lon="8.5582833"><ele>3.0</ele><time>2026-04-26T09:36:03.61Z</time></trkpt><trkpt lat="39.85463" lon="8.5583583"><ele>3.0</ele><time>2026-04-26T09:36:05.609Z</time></trkpt><trkpt lat="39.85469" lon="8.5583967"><ele>3.0</ele><time>2026-04-26T09:36:06.614Z</time></trkpt><trkpt lat="39.8547517" lon="8.55844"><ele>3.0</ele><time>2026-04-26T09:36:07.663Z</time></trkpt><trkpt lat="39.854885" lon="8.5585283"><ele>3.0</ele><time>2026-04-26T09:36:09.607Z</time></trkpt><trkpt lat="39.8549483" lon="8.5585683"><ele>3.0</ele><time>2026-04-26T09:36:10.607Z</time></trkpt><trkpt lat="39.8550083" lon="8.5586067"><ele>3.0</ele><time>2026-04-26T09:36:11.611Z</time></trkpt><trkpt lat="39.855065" lon="8.5586433"><ele>2.8</ele><time>2026-04-26T09:36:12.604Z</time></trkpt><trkpt lat="39.85516" lon="8.5587067"><ele>2.5999999999999996</ele><time>2026-04-26T09:36:14.605Z</time></trkpt><trkpt lat="39.8552317" lon="8.5587633"><ele>2.4000000000000004</ele><time>2026-04-26T09:36:17.605Z</time></trkpt><trkpt lat="39.8552767" lon="8.5588533"><ele>2.2</ele><time>2026-04-26T09:36:20.618Z</time></trkpt><trkpt lat="39.855235" lon="8.5589367"><ele>2.0</ele><time>2026-04-26T09:36:22.609Z</time></trkpt><trkpt lat="39.8551" lon="8.559045"><ele>2.0</ele><time>2026-04-26T09:36:24.609Z</time></trkpt><trkpt lat="39.8549033" lon="8.5591567"><ele>2.0</ele><time>2026-04-26T09:36:26.606Z</time></trkpt><trkpt lat="39.85479" lon="8.5592183"><ele>2.0</ele><time>2026-04-26T09:36:27.61Z</time></trkpt><trkpt lat="39.85456" lon="8.559365"><ele>2.0</ele><time>2026-04-26T09:36:29.607Z</time></trkpt><trkpt lat="39.854445" lon="8.5594483"><ele>2.0</ele><time>2026-04-26T09:36:30.614Z</time></trkpt><trkpt lat="39.85433" lon="8.5595317"><ele>2.0</ele><time>2026-04-26T09:36:31.613Z</time></trkpt><trkpt lat="39.8542133" lon="8.5596117"><ele>2.0</ele><time>2026-04-26T09:36:32.612Z</time></trkpt><trkpt lat="39.8539783" lon="8.55977"><ele>2.0</ele><time>2026-04-26T09:36:34.613Z</time></trkpt><trkpt lat="39.853865" lon="8.5598467"><ele>2.0</ele><time>2026-04-26T09:36:35.607Z</time></trkpt><trkpt lat="39.853755" lon="8.5599217"><ele>2.0</ele><time>2026-04-26T09:36:36.605Z</time></trkpt><trkpt lat="39.8536467" lon="8.559995"><ele>2.0</ele><time>2026-04-26T09:36:37.652Z</time></trkpt><trkpt lat="39.8535417" lon="8.560065"><ele>2.333333333333333</ele><time>2026-04-26T09:36:38.61Z</time></trkpt><trkpt lat="39.853345" lon="8.560205"><ele>2.6666666666666665</ele><time>2026-04-26T09:36:40.611Z</time></trkpt><trkpt lat="39.8532417" lon="8.56028"><ele>3.0</ele><time>2026-04-26T09:36:41.611Z</time></trkpt><trkpt lat="39.8530567" lon="8.5604083"><ele>3.0</ele><time>2026-04-26T09:36:43.651Z</time></trkpt><trkpt lat="39.8529767" lon="8.56047"><ele>3.0</ele><time>2026-04-26T09:36:44.599Z</time></trkpt><trkpt lat="39.8529017" lon="8.560535"><ele>3.0</ele><time>2026-04-26T09:36:45.608Z</time></trkpt><trkpt lat="39.8528283" lon="8.56061"><ele>3.0</ele><time>2026-04-26T09:36:46.601Z</time></trkpt><trkpt lat="39.8527483" lon="8.56069"><ele>3.0</ele><time>2026-04-26T09:36:47.607Z</time></trkpt><trkpt lat="39.852665" lon="8.560775"><ele>3.0</ele><time>2026-04-26T09:36:48.609Z</time></trkpt><trkpt lat="39.852585" lon="8.5608617"><ele>3.0</ele><time>2026-04-26T09:36:49.65Z</time></trkpt><trkpt lat="39.8525033" lon="8.560955"><ele>3.0</ele><time>2026-04-26T09:36:50.604Z</time></trkpt><trkpt lat="39.85242" lon="8.5610517"><ele>3.0</ele><time>2026-04-26T09:36:51.61Z</time></trkpt><trkpt lat="39.8523417" lon="8.561155"><ele>3.0</ele><time>2026-04-26T09:36:52.604Z</time></trkpt><trkpt lat="39.85227" lon="8.5612583"><ele>2.8333333333333335</ele><time>2026-04-26T09:36:53.616Z</time></trkpt><trkpt lat="39.8522117" lon="8.5613467"><ele>2.6666666666666665</ele><time>2026-04-26T09:36:54.612Z</time></trkpt><trkpt lat="39.85216" lon="8.5614367"><ele>2.5</ele><time>2026-04-26T09:36:56.628Z</time></trkpt><trkpt lat="39.8521233" lon="8.5615117"><ele>2.333333333333333</ele><time>2026-04-26T09:37:01.612Z</time></trkpt><trkpt lat="39.8521033" lon="8.5615967"><ele>2.1666666666666665</ele><time>2026-04-26T09:37:04.612Z</time></trkpt><trkpt lat="39.8521467" lon="8.5616833"><ele>2.0</ele><time>2026-04-26T09:37:06.601Z</time></trkpt><trkpt lat="39.85225" lon="8.5617133"><ele>1.9999999999999998</ele><time>2026-04-26T09:37:08.604Z</time></trkpt><trkpt lat="39.852345" lon="8.56174"><ele>2.0</ele><time>2026-04-26T09:37:10.614Z</time></trkpt><trkpt lat="39.852435" lon="8.5617833"><ele>2.0</ele><time>2026-04-26T09:37:12.61Z</time></trkpt><trkpt lat="39.8525217" lon="8.5618383"><ele>2.0</ele><time>2026-04-26T09:37:14.607Z</time></trkpt><trkpt lat="39.85259" lon="8.5618867"><ele>1.9999999999999998</ele><time>2026-04-26T09:37:16.606Z</time></trkpt><trkpt lat="39.8526583" lon="8.5619283"><ele>2.0</ele><time>2026-04-26T09:37:19.651Z</time></trkpt><trkpt lat="39.85274" lon="8.5619917"><ele>2.2</ele><time>2026-04-26T09:37:23.614Z</time></trkpt><trkpt lat="39.85284" lon="8.5620867"><ele>2.4000000000000004</ele><time>2026-04-26T09:37:25.675Z</time></trkpt><trkpt lat="39.8528967" lon="8.562145"><ele>2.5999999999999996</ele><time>2026-04-26T09:37:26.603Z</time></trkpt><trkpt lat="39.8529633" lon="8.56221"><ele>2.8</ele><time>2026-04-26T09:37:27.608Z</time></trkpt><trkpt lat="39.8530333" lon="8.56228"><ele>3.0</ele><time>2026-04-26T09:37:28.615Z</time></trkpt><trkpt lat="39.85311" lon="8.56235"><ele>3.0</ele><time>2026-04-26T09:37:29.607Z</time></trkpt><trkpt lat="39.8531833" lon="8.5624167"><ele>3.0</ele><time>2026-04-26T09:37:30.608Z</time></trkpt><trkpt lat="39.8532567" lon="8.56248"><ele>3.0</ele><time>2026-04-26T09:37:31.608Z</time></trkpt><trkpt lat="39.8533367" lon="8.5625483"><ele>3.0</ele><time>2026-04-26T09:37:32.613Z</time></trkpt><trkpt lat="39.8534233" lon="8.5626217"><ele>3.0</ele><time>2026-04-26T09:37:33.609Z</time></trkpt><trkpt lat="39.8535133" lon="8.5626967"><ele>3.2</ele><time>2026-04-26T09:37:34.605Z</time></trkpt><trkpt lat="39.8536067" lon="8.5627717"><ele>3.4</ele><time>2026-04-26T09:37:35.606Z</time></trkpt><trkpt lat="39.8536967" lon="8.562845"><ele>3.6000000000000005</ele><time>2026-04-26T09:37:36.608Z</time></trkpt><trkpt lat="39.8537883" lon="8.5629183"><ele>3.8000000000000003</ele><time>2026-04-26T09:37:37.668Z</time></trkpt><trkpt lat="39.8538833" lon="8.5629967"><ele>4.0</ele><time>2026-04-26T09:37:38.612Z</time></trkpt><trkpt lat="39.85398" lon="8.56308"><ele>4.0</ele><time>2026-04-26T09:37:39.61Z</time></trkpt><trkpt lat="39.8540817" lon="8.5631667"><ele>4.0</ele><time>2026-04-26T09:37:40.605Z</time></trkpt><trkpt lat="39.8541833" lon="8.56325"><ele>4.0</ele><time>2026-04-26T09:37:41.604Z</time></trkpt><trkpt lat="39.85429" lon="8.5633367"><ele>4.0</ele><time>2026-04-26T09:37:42.606Z</time></trkpt><trkpt lat="39.8543983" lon="8.5634217"><ele>3.75</ele><time>2026-04-26T09:37:43.657Z</time></trkpt><trkpt lat="39.8545033" lon="8.5635033"><ele>3.5</ele><time>2026-04-26T09:37:44.609Z</time></trkpt><trkpt lat="39.8546067" lon="8.5635867"><ele>3.25</ele><time>2026-04-26T09:37:45.61Z</time></trkpt><trkpt lat="39.8547083" lon="8.56367"><ele>3.0</ele><time>2026-04-26T09:37:46.604Z</time></trkpt><trkpt lat="39.85481" lon="8.5637517"><ele>2.75</ele><time>2026-04-26T09:37:47.61Z</time></trkpt><trkpt lat="39.8549117" lon="8.5638333"><ele>2.5</ele><time>2026-04-26T09:37:48.607Z</time></trkpt><trkpt lat="39.8550133" lon="8.563915"><ele>2.25</ele><time>2026-04-26T09:37:49.654Z</time></trkpt><trkpt lat="39.8551117" lon="8.5639983"><ele>2.0</ele><time>2026-04-26T09:37:50.603Z</time></trkpt><trkpt lat="39.85521" lon="8.56408"><ele>2.0</ele><time>2026-04-26T09:37:51.608Z</time></trkpt><trkpt lat="39.8553083" lon="8.56416"><ele>2.0</ele><time>2026-04-26T09:37:52.606Z</time></trkpt><trkpt lat="39.8554083" lon="8.5642383"><ele>2.0</ele><time>2026-04-26T09:37:53.608Z</time></trkpt><trkpt lat="39.855505" lon="8.5643117"><ele>2.0</ele><time>2026-04-26T09:37:54.611Z</time></trkpt><trkpt lat="39.8556" lon="8.564385"><ele>2.0</ele><time>2026-04-26T09:37:55.605Z</time></trkpt><trkpt lat="39.855695" lon="8.5644567"><ele>2.0</ele><time>2026-04-26T09:37:56.62Z</time></trkpt><trkpt lat="39.855785" lon="8.5645267"><ele>2.0</ele><time>2026-04-26T09:37:57.613Z</time></trkpt><trkpt lat="39.8558733" lon="8.564595"><ele>2.0</ele><time>2026-04-26T09:37:58.607Z</time></trkpt><trkpt lat="39.85596" lon="8.5646633"><ele>2.0</ele><time>2026-04-26T09:37:59.606Z</time></trkpt><trkpt lat="39.856045" lon="8.5647317"><ele>1.6666666666666665</ele><time>2026-04-26T09:38:00.612Z</time></trkpt><trkpt lat="39.8561233" lon="8.564795"><ele>1.3333333333333333</ele><time>2026-04-26T09:38:01.618Z</time></trkpt><trkpt lat="39.85619" lon="8.5648483"><ele>1.0</ele><time>2026-04-26T09:38:02.61Z</time></trkpt><trkpt lat="39.856245" lon="8.5648933"><ele>0.6666666666666666</ele><time>2026-04-26T09:38:03.605Z</time></trkpt><trkpt lat="39.85631" lon="8.5649467"><ele>0.3333333333333333</ele><time>2026-04-26T09:38:05.618Z</time></trkpt><trkpt lat="39.8563633" lon="8.5650033"><ele>0.0</ele><time>2026-04-26T09:38:11.616Z</time></trkpt><trkpt lat="39.85639" lon="8.5651033"><ele>0.0</ele><time>2026-04-26T09:38:15.61Z</time></trkpt><trkpt lat="39.8564033" lon="8.5651883"><ele>0.0</ele><time>2026-04-26T09:38:17.608Z</time></trkpt><trkpt lat="39.8564083" lon="8.565295"><ele>0.0</ele><time>2026-04-26T09:38:20.612Z</time></trkpt><trkpt lat="39.8563783" lon="8.5654117"><ele>0.0</ele><time>2026-04-26T09:38:23.61Z</time></trkpt><trkpt lat="39.8563317" lon="8.5654933"><ele>0.0</ele><time>2026-04-26T09:38:25.613Z</time></trkpt><trkpt lat="39.8562817" lon="8.5655567"><ele>0.0</ele><time>2026-04-26T09:38:27.604Z</time></trkpt><trkpt lat="39.8562167" lon="8.5656067"><ele>0.4</ele><time>2026-04-26T09:38:29.614Z</time></trkpt><trkpt lat="39.8561217" lon="8.5656483"><ele>0.8</ele><time>2026-04-26T09:38:31.614Z</time></trkpt><trkpt lat="39.8560483" lon="8.5657133"><ele>1.2000000000000002</ele><time>2026-04-26T09:38:33.61Z</time></trkpt><trkpt lat="39.8559817" lon="8.5657833"><ele>1.6</ele><time>2026-04-26T09:38:35.61Z</time></trkpt><trkpt lat="39.8559217" lon="8.5658667"><ele>2.0</ele><time>2026-04-26T09:38:37.671Z</time></trkpt><trkpt lat="39.8558883" lon="8.565985"><ele>2.2</ele><time>2026-04-26T09:38:39.61Z</time></trkpt><trkpt lat="39.8558983" lon="8.5661117"><ele>2.4000000000000004</ele><time>2026-04-26T09:38:41.611Z</time></trkpt><trkpt lat="39.85593" lon="8.5662383"><ele>2.5999999999999996</ele><time>2026-04-26T09:38:43.665Z</time></trkpt><trkpt lat="39.8559617" lon="8.5663733"><ele>2.8</ele><time>2026-04-26T09:38:45.605Z</time></trkpt><trkpt lat="39.8560067" lon="8.5665167"><ele>3.0</ele><time>2026-04-26T09:38:47.608Z</time></trkpt><trkpt lat="39.8560517" lon="8.56667"><ele>3.0</ele><time>2026-04-26T09:38:49.653Z</time></trkpt><trkpt lat="39.856075" lon="8.5667517"><ele>3.0</ele><time>2026-04-26T09:38:50.602Z</time></trkpt><trkpt lat="39.8560967" lon="8.5668367"><ele>3.0</ele><time>2026-04-26T09:38:51.613Z</time></trkpt><trkpt lat="39.8561167" lon="8.5669233"><ele>3.0</ele><time>2026-04-26T09:38:52.608Z</time></trkpt><trkpt lat="39.8561267" lon="8.5670067"><ele>3.0</ele><time>2026-04-26T09:38:53.613Z</time></trkpt><trkpt lat="39.856125" lon="8.56715"><ele>3.0</ele><time>2026-04-26T09:38:55.608Z</time></trkpt><trkpt lat="39.8561367" lon="8.5672433"><ele>3.2</ele><time>2026-04-26T09:38:57.61Z</time></trkpt><trkpt lat="39.85621" lon="8.5673333"><ele>3.4</ele><time>2026-04-26T09:38:59.608Z</time></trkpt><trkpt lat="39.8562883" lon="8.56744"><ele>3.6000000000000005</ele><time>2026-04-26T09:39:01.624Z</time></trkpt><trkpt lat="39.8563467" lon="8.5675583"><ele>3.8000000000000003</ele><time>2026-04-26T09:39:03.611Z</time></trkpt><trkpt lat="39.8563967" lon="8.5676883"><ele>4.0</ele><time>2026-04-26T09:39:05.607Z</time></trkpt><trkpt lat="39.8564367" lon="8.5678233"><ele>4.0</ele><time>2026-04-26T09:39:07.663Z</time></trkpt><trkpt lat="39.8564783" lon="8.5679433"><ele>4.0</ele><time>2026-04-26T09:39:09.61Z</time></trkpt><trkpt lat="39.8565233" lon="8.5680717"><ele>4.0</ele><time>2026-04-26T09:39:11.606Z</time></trkpt><trkpt lat="39.8565833" lon="8.568195"><ele>4.0</ele><time>2026-04-26T09:39:13.662Z</time></trkpt><trkpt lat="39.8566667" lon="8.5682533"><ele>4.0</ele><time>2026-04-26T09:39:15.612Z</time></trkpt><trkpt lat="39.856765" lon="8.5682183"><ele>4.0</ele><time>2026-04-26T09:39:17.61Z</time></trkpt><trkpt lat="39.8568717" lon="8.5681433"><ele>4.0</ele><time>2026-04-26T09:39:19.659Z</time></trkpt><trkpt lat="39.8569833" lon="8.5680733"><ele>4.0</ele><time>2026-04-26T09:39:21.611Z</time></trkpt><trkpt lat="39.8570833" lon="8.568"><ele>4.0</ele><time>2026-04-26T09:39:23.611Z</time></trkpt><trkpt lat="39.8571533" lon="8.5679033"><ele>4.0</ele><time>2026-04-26T09:39:25.606Z</time></trkpt><trkpt lat="39.8572433" lon="8.5677367"><ele>4.0</ele><time>2026-04-26T09:39:28.604Z</time></trkpt><trkpt lat="39.8572933" lon="8.5676733"><ele>4.0</ele><time>2026-04-26T09:39:30.614Z</time></trkpt><trkpt lat="39.8573883" lon="8.5676683"><ele>4.0</ele><time>2026-04-26T09:39:35.61Z</time></trkpt><trkpt lat="39.8574617" lon="8.5676367"><ele>4.0</ele><time>2026-04-26T09:39:41.604Z</time></trkpt><trkpt lat="39.8575217" lon="8.5676083"><ele>4.0</ele><time>2026-04-26T09:39:45.613Z</time></trkpt><trkpt lat="39.857595" lon="8.567545"><ele>4.0</ele><time>2026-04-26T09:39:48.608Z</time></trkpt><trkpt lat="39.85766" lon="8.56749"><ele>4.0</ele><time>2026-04-26T09:39:50.605Z</time></trkpt><trkpt lat="39.857735" lon="8.5674333"><ele>4.0</ele><time>2026-04-26T09:39:52.61Z</time></trkpt><trkpt lat="39.85782" lon="8.5673767"><ele>4.0</ele><time>2026-04-26T09:39:54.606Z</time></trkpt><trkpt lat="39.857915" lon="8.5673183"><ele>4.25</ele><time>2026-04-26T09:39:56.606Z</time></trkpt><trkpt lat="39.8580167" lon="8.567255"><ele>4.5</ele><time>2026-04-26T09:39:58.609Z</time></trkpt><trkpt lat="39.8581267" lon="8.567185"><ele>4.75</ele><time>2026-04-26T09:40:00.612Z</time></trkpt><trkpt lat="39.85823" lon="8.56712"><ele>5.0</ele><time>2026-04-26T09:40:02.614Z</time></trkpt><trkpt lat="39.858325" lon="8.5670567"><ele>4.8</ele><time>2026-04-26T09:40:04.61Z</time></trkpt><trkpt lat="39.8584217" lon="8.5670167"><ele>4.6</ele><time>2026-04-26T09:40:06.607Z</time></trkpt><trkpt lat="39.8585067" lon="8.5669817"><ele>4.4</ele><time>2026-04-26T09:40:08.61Z</time></trkpt><trkpt lat="39.8585783" lon="8.5669283"><ele>4.2</ele><time>2026-04-26T09:40:10.603Z</time></trkpt><trkpt lat="39.8586533" lon="8.5668583"><ele>4.0</ele><time>2026-04-26T09:40:12.608Z</time></trkpt><trkpt lat="39.85873" lon="8.5667817"><ele>3.8000000000000003</ele><time>2026-04-26T09:40:14.61Z</time></trkpt><trkpt lat="39.8588167" lon="8.5667217"><ele>3.6000000000000005</ele><time>2026-04-26T09:40:16.606Z</time></trkpt><trkpt lat="39.8589033" lon="8.5666717"><ele>3.4</ele><time>2026-04-26T09:40:18.603Z</time></trkpt><trkpt lat="39.8589833" lon="8.5666233"><ele>3.2</ele><time>2026-04-26T09:40:20.6Z</time></trkpt><trkpt lat="39.85906" lon="8.5665733"><ele>3.0</ele><time>2026-04-26T09:40:22.609Z</time></trkpt><trkpt lat="39.8591383" lon="8.5665167"><ele>3.0</ele><time>2026-04-26T09:40:24.61Z</time></trkpt><trkpt lat="39.8592183" lon="8.5664467"><ele>3.0</ele><time>2026-04-26T09:40:26.61Z</time></trkpt><trkpt lat="39.8593033" lon="8.5663767"><ele>3.0</ele><time>2026-04-26T09:40:28.602Z</time></trkpt><trkpt lat="39.859395" lon="8.5663217"><ele>3.0</ele><time>2026-04-26T09:40:30.611Z</time></trkpt><trkpt lat="39.8594833" lon="8.5662683"><ele>3.0</ele><time>2026-04-26T09:40:32.609Z</time></trkpt><trkpt lat="39.8595617" lon="8.5662083"><ele>2.6666666666666665</ele><time>2026-04-26T09:40:34.603Z</time></trkpt><trkpt lat="39.859635" lon="8.566165"><ele>2.3333333333333335</ele><time>2026-04-26T09:40:37.653Z</time></trkpt><trkpt lat="39.859725" lon="8.5661433"><ele>2.0</ele><time>2026-04-26T09:40:40.612Z</time></trkpt><trkpt lat="39.85979" lon="8.5661483"><ele>1.6666666666666665</ele><time>2026-04-26T09:40:42.61Z</time></trkpt><trkpt lat="39.859865" lon="8.5661467"><ele>1.3333333333333333</ele><time>2026-04-26T09:40:44.609Z</time></trkpt><trkpt lat="39.8599467" lon="8.5661517"><ele>1.0</ele><time>2026-04-26T09:40:46.606Z</time></trkpt><trkpt lat="39.860035" lon="8.5661367"><ele>0.8</ele><time>2026-04-26T09:40:48.609Z</time></trkpt><trkpt lat="39.86012" lon="8.566105"><ele>0.6000000000000001</ele><time>2026-04-26T09:40:50.606Z</time></trkpt><trkpt lat="39.8602033" lon="8.5661017"><ele>0.4</ele><time>2026-04-26T09:40:52.607Z</time></trkpt><trkpt lat="39.860295" lon="8.5661033"><ele>0.2</ele><time>2026-04-26T09:40:54.609Z</time></trkpt><trkpt lat="39.8603933" lon="8.5660717"><ele>0.0</ele><time>2026-04-26T09:40:56.606Z</time></trkpt><trkpt lat="39.8604817" lon="8.5660117"><ele>0.0</ele><time>2026-04-26T09:40:58.599Z</time></trkpt><trkpt lat="39.8605767" lon="8.5659383"><ele>0.0</ele><time>2026-04-26T09:41:00.607Z</time></trkpt><trkpt lat="39.86067" lon="8.5658633"><ele>0.0</ele><time>2026-04-26T09:41:02.609Z</time></trkpt><trkpt lat="39.8607533" lon="8.5657767"><ele>0.0</ele><time>2026-04-26T09:41:04.615Z</time></trkpt><trkpt lat="39.8608367" lon="8.565695"><ele>0.0</ele><time>2026-04-26T09:41:06.612Z</time></trkpt><trkpt lat="39.860915" lon="8.5656417"><ele>0.6</ele><time>2026-04-26T09:41:08.607Z</time></trkpt><trkpt lat="39.8610167" lon="8.5656017"><ele>1.2</ele><time>2026-04-26T09:41:10.611Z</time></trkpt><trkpt lat="39.861135" lon="8.5655667"><ele>1.7999999999999998</ele><time>2026-04-26T09:41:12.613Z</time></trkpt><trkpt lat="39.8612333" lon="8.565545"><ele>2.4</ele><time>2026-04-26T09:41:14.612Z</time></trkpt><trkpt lat="39.8613167" lon="8.56553"><ele>3.0</ele><time>2026-04-26T09:41:16.606Z</time></trkpt><trkpt lat="39.8614033" lon="8.565515"><ele>3.0</ele><time>2026-04-26T09:41:19.668Z</time></trkpt><trkpt lat="39.8614667" lon="8.5655083"><ele>3.0</ele><time>2026-04-26T09:41:21.609Z</time></trkpt><trkpt lat="39.8615367" lon="8.5655233"><ele>3.0</ele><time>2026-04-26T09:41:23.603Z</time></trkpt><trkpt lat="39.8616183" lon="8.5655417"><ele>3.0</ele><time>2026-04-26T09:41:25.605Z</time></trkpt><trkpt lat="39.8616917" lon="8.5655117"><ele>3.0</ele><time>2026-04-26T09:41:27.611Z</time></trkpt><trkpt lat="39.8617833" lon="8.5654617"><ele>3.0</ele><time>2026-04-26T09:41:30.608Z</time></trkpt><trkpt lat="39.86188" lon="8.565425"><ele>2.8</ele><time>2026-04-26T09:41:32.617Z</time></trkpt><trkpt lat="39.8619783" lon="8.5654067"><ele>2.5999999999999996</ele><time>2026-04-26T09:41:34.61Z</time></trkpt><trkpt lat="39.862075" lon="8.5653983"><ele>2.4000000000000004</ele><time>2026-04-26T09:41:36.603Z</time></trkpt><trkpt lat="39.8621767" lon="8.5654033"><ele>2.2</ele><time>2026-04-26T09:41:38.607Z</time></trkpt><trkpt lat="39.8622683" lon="8.5653883"><ele>2.0</ele><time>2026-04-26T09:41:40.607Z</time></trkpt><trkpt lat="39.8623617" lon="8.5653583"><ele>1.6666666666666665</ele><time>2026-04-26T09:41:42.611Z</time></trkpt><trkpt lat="39.8624417" lon="8.5653383"><ele>1.3333333333333333</ele><time>2026-04-26T09:41:44.607Z</time></trkpt><trkpt lat="39.8625333" lon="8.5653183"><ele>1.0</ele><time>2026-04-26T09:41:46.604Z</time></trkpt><trkpt lat="39.8626183" lon="8.56529"><ele>0.6666666666666666</ele><time>2026-04-26T09:41:48.612Z</time></trkpt><trkpt lat="39.8626983" lon="8.5652667"><ele>0.3333333333333333</ele><time>2026-04-26T09:41:50.612Z</time></trkpt><trkpt lat="39.862785" lon="8.5652533"><ele>0.0</ele><time>2026-04-26T09:41:52.615Z</time></trkpt><trkpt lat="39.8628783" lon="8.5652567"><ele>0.0</ele><time>2026-04-26T09:41:54.609Z</time></trkpt><trkpt lat="39.86296" lon="8.5652567"><ele>0.0</ele><time>2026-04-26T09:41:56.601Z</time></trkpt><trkpt lat="39.8630317" lon="8.5652717"><ele>0.0</ele><time>2026-04-26T09:41:58.603Z</time></trkpt><trkpt lat="39.8631" lon="8.5653283"><ele>0.0</ele><time>2026-04-26T09:42:00.612Z</time></trkpt><trkpt lat="39.8631533" lon="8.5654017"><ele>0.0</ele><time>2026-04-26T09:42:02.605Z</time></trkpt><trkpt lat="39.8631933" lon="8.56548"><ele>0.0</ele><time>2026-04-26T09:42:04.606Z</time></trkpt><trkpt lat="39.8632117" lon="8.565565"><ele>0.0</ele><time>2026-04-26T09:42:06.602Z</time></trkpt><trkpt lat="39.8632217" lon="8.56566"><ele>0.0</ele><time>2026-04-26T09:42:08.601Z</time></trkpt><trkpt lat="39.8632367" lon="8.5657583"><ele>0.0</ele><time>2026-04-26T09:42:10.609Z</time></trkpt><trkpt lat="39.863255" lon="8.5658617"><ele>0.0</ele><time>2026-04-26T09:42:12.615Z</time></trkpt><trkpt lat="39.8632683" lon="8.5659783"><ele>0.0</ele><time>2026-04-26T09:42:14.607Z</time></trkpt><trkpt lat="39.8632833" lon="8.5661133"><ele>0.0</ele><time>2026-04-26T09:42:16.608Z</time></trkpt><trkpt lat="39.86329" lon="8.5662533"><ele>0.0</ele><time>2026-04-26T09:42:19.658Z</time></trkpt><trkpt lat="39.8632783" lon="8.5663717"><ele>0.0</ele><time>2026-04-26T09:42:23.606Z</time></trkpt><trkpt lat="39.86325" lon="8.56645"><ele>0.0</ele><time>2026-04-26T09:42:25.671Z</time></trkpt><trkpt lat="39.8632583" lon="8.5665867"><ele>0.0</ele><time>2026-04-26T09:42:28.608Z</time></trkpt><trkpt lat="39.8633167" lon="8.5666683"><ele>0.0</ele><time>2026-04-26T09:42:30.611Z</time></trkpt><trkpt lat="39.8633633" lon="8.5667717"><ele>0.0</ele><time>2026-04-26T09:42:32.61Z</time></trkpt><trkpt lat="39.8633783" lon="8.566885"><ele>0.0</ele><time>2026-04-26T09:42:34.603Z</time></trkpt><trkpt lat="39.863385" lon="8.567015"><ele>0.0</ele><time>2026-04-26T09:42:36.608Z</time></trkpt><trkpt lat="39.8634" lon="8.567225"><ele>0.0</ele><time>2026-04-26T09:42:39.606Z</time></trkpt><trkpt lat="39.8634217" lon="8.5673583"><ele>0.0</ele><time>2026-04-26T09:42:41.602Z</time></trkpt><trkpt lat="39.86344" lon="8.5674933"><ele>0.0</ele><time>2026-04-26T09:42:43.668Z</time></trkpt><trkpt lat="39.8634467" lon="8.56762"><ele>0.0</ele><time>2026-04-26T09:42:45.605Z</time></trkpt><trkpt lat="39.86346" lon="8.5677433"><ele>0.0</ele><time>2026-04-26T09:42:47.605Z</time></trkpt><trkpt lat="39.8634717" lon="8.5679233"><ele>0.0</ele><time>2026-04-26T09:42:50.6Z</time></trkpt><trkpt lat="39.86348" lon="8.5680467"><ele>0.0</ele><time>2026-04-26T09:42:52.606Z</time></trkpt><trkpt lat="39.8634967" lon="8.5681617"><ele>0.0</ele><time>2026-04-26T09:42:54.611Z</time></trkpt><trkpt lat="39.86352" lon="8.5682817"><ele>0.0</ele><time>2026-04-26T09:42:56.614Z</time></trkpt><trkpt lat="39.8635283" lon="8.5683917"><ele>0.0</ele><time>2026-04-26T09:42:58.612Z</time></trkpt><trkpt lat="39.8635283" lon="8.5685417"><ele>0.0</ele><time>2026-04-26T09:43:01.605Z</time></trkpt><trkpt lat="39.8635217" lon="8.5686467"><ele>0.0</ele><time>2026-04-26T09:43:03.605Z</time></trkpt><trkpt lat="39.8635" lon="8.5687433"><ele>0.3333333333333333</ele><time>2026-04-26T09:43:05.611Z</time></trkpt><trkpt lat="39.8635033" lon="8.56884"><ele>0.6666666666666666</ele><time>2026-04-26T09:43:07.663Z</time></trkpt><trkpt lat="39.8635333" lon="8.568935"><ele>1.0</ele><time>2026-04-26T09:43:09.614Z</time></trkpt><trkpt lat="39.86356" lon="8.56904"><ele>1.3333333333333333</ele><time>2026-04-26T09:43:11.605Z</time></trkpt><trkpt lat="39.86356" lon="8.569145"><ele>1.6666666666666665</ele><time>2026-04-26T09:43:13.66Z</time></trkpt><trkpt lat="39.86355" lon="8.5692683"><ele>2.0</ele><time>2026-04-26T09:43:15.601Z</time></trkpt><trkpt lat="39.86356" lon="8.5693967"><ele>2.0</ele><time>2026-04-26T09:43:17.604Z</time></trkpt><trkpt lat="39.8635783" lon="8.5695133"><ele>2.0</ele><time>2026-04-26T09:43:19.661Z</time></trkpt><trkpt lat="39.863605" lon="8.5696317"><ele>2.0</ele><time>2026-04-26T09:43:21.607Z</time></trkpt><trkpt lat="39.863625" lon="8.569755"><ele>2.0</ele><time>2026-04-26T09:43:23.609Z</time></trkpt><trkpt lat="39.86364" lon="8.56988"><ele>2.0</ele><time>2026-04-26T09:43:25.607Z</time></trkpt><trkpt lat="39.86364" lon="8.5700067"><ele>2.25</ele><time>2026-04-26T09:43:27.602Z</time></trkpt><trkpt lat="39.863635" lon="8.5701883"><ele>2.5</ele><time>2026-04-26T09:43:30.606Z</time></trkpt><trkpt lat="39.8636333" lon="8.5703783"><ele>2.75</ele><time>2026-04-26T09:43:33.609Z</time></trkpt><trkpt lat="39.8636533" lon="8.5705733"><ele>3.0</ele><time>2026-04-26T09:43:36.605Z</time></trkpt><trkpt lat="39.8636767" lon="8.5707167"><ele>3.0</ele><time>2026-04-26T09:43:38.609Z</time></trkpt><trkpt lat="39.8636817" lon="8.5708633"><ele>3.0</ele><time>2026-04-26T09:43:40.609Z</time></trkpt><trkpt lat="39.8636917" lon="8.5710033"><ele>3.0</ele><time>2026-04-26T09:43:42.612Z</time></trkpt><trkpt lat="39.8637167" lon="8.5711417"><ele>3.0</ele><time>2026-04-26T09:43:44.607Z</time></trkpt><trkpt lat="39.8637283" lon="8.5712733"><ele>3.0</ele><time>2026-04-26T09:43:46.608Z</time></trkpt><trkpt lat="39.8637483" lon="8.5714017"><ele>3.2</ele><time>2026-04-26T09:43:48.606Z</time></trkpt><trkpt lat="39.8637783" lon="8.5715533"><ele>3.4</ele><time>2026-04-26T09:43:51.611Z</time></trkpt><trkpt lat="39.8637933" lon="8.571655"><ele>3.6000000000000005</ele><time>2026-04-26T09:43:54.606Z</time></trkpt><trkpt lat="39.86371" lon="8.5717533"><ele>3.8000000000000003</ele><time>2026-04-26T09:43:58.616Z</time></trkpt><trkpt lat="39.8636083" lon="8.5717983"><ele>4.0</ele><time>2026-04-26T09:44:00.614Z</time></trkpt><trkpt lat="39.8635083" lon="8.5718533"><ele>4.0</ele><time>2026-04-26T09:44:02.608Z</time></trkpt><trkpt lat="39.8634067" lon="8.5719133"><ele>4.0</ele><time>2026-04-26T09:44:04.607Z</time></trkpt><trkpt lat="39.8633033" lon="8.57196"><ele>4.0</ele><time>2026-04-26T09:44:06.606Z</time></trkpt><trkpt lat="39.8631933" lon="8.57202"><ele>4.0</ele><time>2026-04-26T09:44:08.601Z</time></trkpt><trkpt lat="39.8630867" lon="8.57209"><ele>4.166666666666666</ele><time>2026-04-26T09:44:10.608Z</time></trkpt><trkpt lat="39.8629933" lon="8.57215"><ele>4.333333333333333</ele><time>2026-04-26T09:44:12.611Z</time></trkpt><trkpt lat="39.8629233" lon="8.572195"><ele>4.5</ele><time>2026-04-26T09:44:14.604Z</time></trkpt><trkpt lat="39.862845" lon="8.5722517"><ele>4.666666666666667</ele><time>2026-04-26T09:44:17.614Z</time></trkpt><trkpt lat="39.8627767" lon="8.5722867"><ele>4.833333333333334</ele><time>2026-04-26T09:44:21.605Z</time></trkpt><trkpt lat="39.8627017" lon="8.5722967"><ele>5.0</ele><time>2026-04-26T09:44:25.601Z</time></trkpt><trkpt lat="39.8626333" lon="8.572295"><ele>4.833333333333334</ele><time>2026-04-26T09:44:27.606Z</time></trkpt><trkpt lat="39.86257" lon="8.5723067"><ele>4.666666666666667</ele><time>2026-04-26T09:44:29.607Z</time></trkpt><trkpt lat="39.86248" lon="8.5723217"><ele>4.5</ele><time>2026-04-26T09:44:33.606Z</time></trkpt><trkpt lat="39.8624017" lon="8.572335"><ele>4.333333333333333</ele><time>2026-04-26T09:44:36.604Z</time></trkpt><trkpt lat="39.862325" lon="8.572345"><ele>4.166666666666666</ele><time>2026-04-26T09:44:39.609Z</time></trkpt><trkpt lat="39.8622467" lon="8.5723583"><ele>4.0</ele><time>2026-04-26T09:44:42.609Z</time></trkpt><trkpt lat="39.8621367" lon="8.572385"><ele>3.9999999999999996</ele><time>2026-04-26T09:44:44.604Z</time></trkpt><trkpt lat="39.862065" lon="8.5723967"><ele>4.0</ele><time>2026-04-26T09:44:45.608Z</time></trkpt><trkpt lat="39.8619817" lon="8.5724117"><ele>4.0</ele><time>2026-04-26T09:44:46.604Z</time></trkpt><trkpt lat="39.8618917" lon="8.57243"><ele>4.0</ele><time>2026-04-26T09:44:47.61Z</time></trkpt><trkpt lat="39.861805" lon="8.572445"><ele>3.9999999999999996</ele><time>2026-04-26T09:44:48.608Z</time></trkpt><trkpt lat="39.8617133" lon="8.5724683"><ele>4.0</ele><time>2026-04-26T09:44:49.659Z</time></trkpt><trkpt lat="39.86162" lon="8.5724867"><ele>3.833333333333333</ele><time>2026-04-26T09:44:50.608Z</time></trkpt><trkpt lat="39.8615283" lon="8.5725033"><ele>3.6666666666666665</ele><time>2026-04-26T09:44:51.614Z</time></trkpt><trkpt lat="39.8614383" lon="8.57252"><ele>3.5</ele><time>2026-04-26T09:44:52.604Z</time></trkpt><trkpt lat="39.8613483" lon="8.5725367"><ele>3.333333333333333</ele><time>2026-04-26T09:44:53.608Z</time></trkpt><trkpt lat="39.8612667" lon="8.5725533"><ele>3.1666666666666665</ele><time>2026-04-26T09:44:54.612Z</time></trkpt><trkpt lat="39.8611817" lon="8.5725717"><ele>3.0</ele><time>2026-04-26T09:44:55.67Z</time></trkpt><trkpt lat="39.8610933" lon="8.572595"><ele>3.0</ele><time>2026-04-26T09:44:56.608Z</time></trkpt><trkpt lat="39.8610083" lon="8.57261"><ele>3.0</ele><time>2026-04-26T09:44:57.612Z</time></trkpt><trkpt lat="39.8609283" lon="8.5726283"><ele>3.0</ele><time>2026-04-26T09:44:58.603Z</time></trkpt><trkpt lat="39.8608517" lon="8.5726417"><ele>3.0</ele><time>2026-04-26T09:44:59.612Z</time></trkpt><trkpt lat="39.8607783" lon="8.5726567"><ele>3.0</ele><time>2026-04-26T09:45:00.61Z</time></trkpt><trkpt lat="39.8607117" lon="8.5726733"><ele>3.0</ele><time>2026-04-26T09:45:01.647Z</time></trkpt><trkpt lat="39.8606033" lon="8.572715"><ele>3.2</ele><time>2026-04-26T09:45:03.608Z</time></trkpt><trkpt lat="39.8605167" lon="8.5727483"><ele>3.4</ele><time>2026-04-26T09:45:05.602Z</time></trkpt><trkpt lat="39.8604217" lon="8.5727717"><ele>3.6000000000000005</ele><time>2026-04-26T09:45:07.651Z</time></trkpt><trkpt lat="39.8603217" lon="8.5727967"><ele>3.8000000000000003</ele><time>2026-04-26T09:45:09.606Z</time></trkpt><trkpt lat="39.8602217" lon="8.5728183"><ele>4.0</ele><time>2026-04-26T09:45:11.607Z</time></trkpt><trkpt lat="39.8601233" lon="8.5728367"><ele>4.0</ele><time>2026-04-26T09:45:13.65Z</time></trkpt><trkpt lat="39.8600433" lon="8.5728483"><ele>3.9999999999999996</ele><time>2026-04-26T09:45:16.605Z</time></trkpt><trkpt lat="39.8599767" lon="8.57286"><ele>4.0</ele><time>2026-04-26T09:45:20.611Z</time></trkpt><trkpt lat="39.859925" lon="8.5729117"><ele>4.0</ele><time>2026-04-26T09:45:24.604Z</time></trkpt><trkpt lat="39.85992" lon="8.57301"><ele>3.9999999999999996</ele><time>2026-04-26T09:45:27.608Z</time></trkpt><trkpt lat="39.859925" lon="8.5730967"><ele>4.0</ele><time>2026-04-26T09:45:30.617Z</time></trkpt><trkpt lat="39.8599433" lon="8.5730067"><ele>4.0</ele><time>2026-04-26T09:45:45.612Z</time></trkpt><trkpt lat="39.8599617" lon="8.57288"><ele>3.9999999999999996</ele><time>2026-04-26T09:46:36.609Z</time></trkpt><trkpt lat="39.86004" lon="8.5728533"><ele>4.0</ele><time>2026-04-26T09:46:38.609Z</time></trkpt><trkpt lat="39.8601083" lon="8.5728467"><ele>4.0</ele><time>2026-04-26T09:46:39.618Z</time></trkpt><trkpt lat="39.8601833" lon="8.5728367"><ele>4.0</ele><time>2026-04-26T09:46:40.61Z</time></trkpt><trkpt lat="39.8602617" lon="8.5728217"><ele>3.9999999999999996</ele><time>2026-04-26T09:46:41.61Z</time></trkpt><trkpt lat="39.86035" lon="8.5728"><ele>4.0</ele><time>2026-04-26T09:46:42.617Z</time></trkpt><trkpt lat="39.86045" lon="8.572775"><ele>4.0</ele><time>2026-04-26T09:46:43.651Z</time></trkpt><trkpt lat="39.8605567" lon="8.5727567"><ele>4.0</ele><time>2026-04-26T09:46:44.619Z</time></trkpt><trkpt lat="39.860665" lon="8.57273"><ele>4.0</ele><time>2026-04-26T09:46:45.607Z</time></trkpt><trkpt lat="39.86077" lon="8.5726933"><ele>4.0</ele><time>2026-04-26T09:46:46.61Z</time></trkpt><trkpt lat="39.8608767" lon="8.5726617"><ele>4.0</ele><time>2026-04-26T09:46:47.614Z</time></trkpt><trkpt lat="39.86098" lon="8.5726333"><ele>3.8000000000000003</ele><time>2026-04-26T09:46:48.608Z</time></trkpt><trkpt lat="39.8610917" lon="8.5726083"><ele>3.6000000000000005</ele><time>2026-04-26T09:46:49.653Z</time></trkpt><trkpt lat="39.8612" lon="8.57258"><ele>3.4</ele><time>2026-04-26T09:46:50.609Z</time></trkpt><trkpt lat="39.8613133" lon="8.57255"><ele>3.2</ele><time>2026-04-26T09:46:51.612Z</time></trkpt><trkpt lat="39.8614217" lon="8.572525"><ele>3.0</ele><time>2026-04-26T09:46:52.607Z</time></trkpt><trkpt lat="39.86153" lon="8.5724983"><ele>3.0</ele><time>2026-04-26T09:46:53.62Z</time></trkpt><trkpt lat="39.86164" lon="8.5724783"><ele>3.0</ele><time>2026-04-26T09:46:54.612Z</time></trkpt><trkpt lat="39.8617483" lon="8.5724583"><ele>3.0</ele><time>2026-04-26T09:46:55.673Z</time></trkpt><trkpt lat="39.8618567" lon="8.5724383"><ele>3.0</ele><time>2026-04-26T09:46:56.611Z</time></trkpt><trkpt lat="39.8619717" lon="8.572415"><ele>3.0</ele><time>2026-04-26T09:46:57.609Z</time></trkpt><trkpt lat="39.862085" lon="8.5723917"><ele>3.2</ele><time>2026-04-26T09:46:58.609Z</time></trkpt><trkpt lat="39.8622" lon="8.57237"><ele>3.4</ele><time>2026-04-26T09:46:59.609Z</time></trkpt><trkpt lat="39.8623117" lon="8.5723517"><ele>3.6000000000000005</ele><time>2026-04-26T09:47:00.605Z</time></trkpt><trkpt lat="39.8624167" lon="8.572335"><ele>3.8000000000000003</ele><time>2026-04-26T09:47:01.672Z</time></trkpt><trkpt lat="39.8625233" lon="8.572315"><ele>4.0</ele><time>2026-04-26T09:47:02.608Z</time></trkpt><trkpt lat="39.862625" lon="8.5723"><ele>4.2</ele><time>2026-04-26T09:47:03.602Z</time></trkpt><trkpt lat="39.8627183" lon="8.5722867"><ele>4.4</ele><time>2026-04-26T09:47:04.606Z</time></trkpt><trkpt lat="39.8628017" lon="8.5722683"><ele>4.6</ele><time>2026-04-26T09:47:05.612Z</time></trkpt><trkpt lat="39.8628833" lon="8.57224"><ele>4.8</ele><time>2026-04-26T09:47:06.611Z</time></trkpt><trkpt lat="39.8629683" lon="8.57219"><ele>5.0</ele><time>2026-04-26T09:47:07.661Z</time></trkpt><trkpt lat="39.8630567" lon="8.5721333"><ele>5.0</ele><time>2026-04-26T09:47:08.608Z</time></trkpt><trkpt lat="39.863145" lon="8.5720767"><ele>5.0</ele><time>2026-04-26T09:47:09.604Z</time></trkpt><trkpt lat="39.8632333" lon="8.5720233"><ele>5.0</ele><time>2026-04-26T09:47:10.613Z</time></trkpt><trkpt lat="39.8633183" lon="8.5719733"><ele>5.0</ele><time>2026-04-26T09:47:11.606Z</time></trkpt><trkpt lat="39.8634033" lon="8.571925"><ele>5.0</ele><time>2026-04-26T09:47:12.623Z</time></trkpt><trkpt lat="39.8634883" lon="8.571875"><ele>4.833333333333334</ele><time>2026-04-26T09:47:13.659Z</time></trkpt><trkpt lat="39.8635683" lon="8.5718217"><ele>4.666666666666667</ele><time>2026-04-26T09:47:14.613Z</time></trkpt><trkpt lat="39.8636483" lon="8.5717683"><ele>4.5</ele><time>2026-04-26T09:47:15.618Z</time></trkpt><trkpt lat="39.86372" lon="8.5717267"><ele>4.333333333333333</ele><time>2026-04-26T09:47:16.613Z</time></trkpt><trkpt lat="39.8637783" lon="8.571695"><ele>4.166666666666666</ele><time>2026-04-26T09:47:17.609Z</time></trkpt><trkpt lat="39.8638517" lon="8.57164"><ele>4.0</ele><time>2026-04-26T09:47:19.66Z</time></trkpt><trkpt lat="39.8638367" lon="8.57151"><ele>3.9999999999999996</ele><time>2026-04-26T09:47:22.611Z</time></trkpt><trkpt lat="39.8638067" lon="8.5713883"><ele>4.0</ele><time>2026-04-26T09:47:24.604Z</time></trkpt><trkpt lat="39.8637833" lon="8.5712633"><ele>4.0</ele><time>2026-04-26T09:47:26.61Z</time></trkpt><trkpt lat="39.86377" lon="8.571155"><ele>4.0</ele><time>2026-04-26T09:47:28.604Z</time></trkpt><trkpt lat="39.8638067" lon="8.57123"><ele>3.9999999999999996</ele><time>2026-04-26T09:47:49.667Z</time></trkpt><trkpt lat="39.86382" lon="8.5713417"><ele>4.0</ele><time>2026-04-26T09:47:51.614Z</time></trkpt><trkpt lat="39.8638433" lon="8.5714933"><ele>3.9999999999999996</ele><time>2026-04-26T09:47:53.606Z</time></trkpt><trkpt lat="39.863875" lon="8.5716267"><ele>4.0</ele><time>2026-04-26T09:47:55.661Z</time></trkpt><trkpt lat="39.8639117" lon="8.5717383"><ele>4.0</ele><time>2026-04-26T09:47:57.602Z</time></trkpt><trkpt lat="39.86391" lon="8.5718217"><ele>4.0</ele><time>2026-04-26T09:47:59.63Z</time></trkpt><trkpt lat="39.8638467" lon="8.5718767"><ele>3.9999999999999996</ele><time>2026-04-26T09:48:03.643Z</time></trkpt><trkpt lat="39.86377" lon="8.57189"><ele>4.0</ele><time>2026-04-26T09:48:06.606Z</time></trkpt><trkpt lat="39.8636783" lon="8.5719383"><ele>4.0</ele><time>2026-04-26T09:48:26.615Z</time></trkpt><trkpt lat="39.8635883" lon="8.5719967"><ele>4.0</ele><time>2026-04-26T09:48:28.609Z</time></trkpt><trkpt lat="39.8635267" lon="8.5720933"><ele>4.0</ele><time>2026-04-26T09:48:30.628Z</time></trkpt><trkpt lat="39.86351" lon="8.5722217"><ele>4.0</ele><time>2026-04-26T09:48:32.611Z</time></trkpt><trkpt lat="39.863535" lon="8.572375"><ele>4.0</ele><time>2026-04-26T09:48:34.61Z</time></trkpt><trkpt lat="39.8635633" lon="8.572515"><ele>3.8000000000000003</ele><time>2026-04-26T09:48:36.612Z</time></trkpt><trkpt lat="39.863595" lon="8.57264"><ele>3.6000000000000005</ele><time>2026-04-26T09:48:38.605Z</time></trkpt><trkpt lat="39.86363" lon="8.5727667"><ele>3.4</ele><time>2026-04-26T09:48:40.605Z</time></trkpt><trkpt lat="39.8636717" lon="8.57288"><ele>3.2</ele><time>2026-04-26T09:48:42.61Z</time></trkpt><trkpt lat="39.8637067" lon="8.5729683"><ele>3.0</ele><time>2026-04-26T09:48:45.613Z</time></trkpt><trkpt lat="39.8637667" lon="8.57305"><ele>2.9999999999999996</ele><time>2026-04-26T09:48:48.606Z</time></trkpt><trkpt lat="39.86382" lon="8.573125"><ele>3.0</ele><time>2026-04-26T09:48:50.605Z</time></trkpt><trkpt lat="39.8638817" lon="8.5731433"><ele>3.0</ele><time>2026-04-26T09:48:52.607Z</time></trkpt><trkpt lat="39.863955" lon="8.5731333"><ele>3.0</ele><time>2026-04-26T09:48:54.611Z</time></trkpt><trkpt lat="39.8640283" lon="8.5731533"><ele>3.0</ele><time>2026-04-26T09:48:56.608Z</time></trkpt><trkpt lat="39.8640567" lon="8.573235"><ele>2.9999999999999996</ele><time>2026-04-26T09:48:59.612Z</time></trkpt><trkpt lat="39.8640733" lon="8.5733267"><ele>3.0</ele><time>2026-04-26T09:49:01.619Z</time></trkpt><trkpt lat="39.864105" lon="8.573405"><ele>2.9999999999999996</ele><time>2026-04-26T09:49:03.606Z</time></trkpt><trkpt lat="39.8641533" lon="8.573465"><ele>3.0</ele><time>2026-04-26T09:49:05.611Z</time></trkpt><trkpt lat="39.8641983" lon="8.573525"><ele>3.0</ele><time>2026-04-26T09:49:07.659Z</time></trkpt><trkpt lat="39.8642217" lon="8.573635"><ele>3.0</ele><time>2026-04-26T09:49:10.62Z</time></trkpt><trkpt lat="39.864225" lon="8.5737217"><ele>3.0</ele><time>2026-04-26T09:49:12.605Z</time></trkpt><trkpt lat="39.86423" lon="8.57382"><ele>2.9999999999999996</ele><time>2026-04-26T09:49:14.613Z</time></trkpt><trkpt lat="39.8642617" lon="8.573905"><ele>3.0</ele><time>2026-04-26T09:49:16.623Z</time></trkpt><trkpt lat="39.864315" lon="8.5740017"><ele>2.8333333333333335</ele><time>2026-04-26T09:49:19.669Z</time></trkpt><trkpt lat="39.86435" lon="8.5740767"><ele>2.6666666666666665</ele><time>2026-04-26T09:49:21.604Z</time></trkpt><trkpt lat="39.8643783" lon="8.5741567"><ele>2.5</ele><time>2026-04-26T09:50:00.606Z</time></trkpt><trkpt lat="39.8643" lon="8.57423"><ele>2.333333333333333</ele><time>2026-04-26T09:55:48.61Z</time></trkpt><trkpt lat="39.864205" lon="8.5743167"><ele>2.1666666666666665</ele><time>2026-04-26T09:55:50.6Z</time></trkpt><trkpt lat="39.8641483" lon="8.5743533"><ele>2.0</ele><time>2026-04-26T09:55:51.613Z</time></trkpt><trkpt lat="39.8640883" lon="8.574385"><ele>1.9999999999999998</ele><time>2026-04-26T09:55:52.605Z</time></trkpt><trkpt lat="39.8640183" lon="8.57441"><ele>2.0</ele><time>2026-04-26T09:55:53.604Z</time></trkpt><trkpt lat="39.863935" lon="8.57443"><ele>2.0</ele><time>2026-04-26T09:55:54.604Z</time></trkpt><trkpt lat="39.8638483" lon="8.5744467"><ele>2.0</ele><time>2026-04-26T09:55:55.613Z</time></trkpt><trkpt lat="39.8637717" lon="8.57446"><ele>1.9999999999999998</ele><time>2026-04-26T09:55:56.599Z</time></trkpt><trkpt lat="39.863705" lon="8.5744733"><ele>2.0</ele><time>2026-04-26T09:55:57.608Z</time></trkpt><trkpt lat="39.86358" lon="8.574495"><ele>2.0</ele><time>2026-04-26T09:55:59.607Z</time></trkpt><trkpt lat="39.8634517" lon="8.574525"><ele>2.0</ele><time>2026-04-26T09:56:01.648Z</time></trkpt><trkpt lat="39.8633417" lon="8.5745683"><ele>2.0</ele><time>2026-04-26T09:56:03.608Z</time></trkpt><trkpt lat="39.8632417" lon="8.574635"><ele>2.0</ele><time>2026-04-26T09:56:05.602Z</time></trkpt><trkpt lat="39.86315" lon="8.5747017"><ele>2.333333333333333</ele><time>2026-04-26T09:56:07.662Z</time></trkpt><trkpt lat="39.8630617" lon="8.5747483"><ele>2.6666666666666665</ele><time>2026-04-26T09:56:09.603Z</time></trkpt><trkpt lat="39.8629633" lon="8.5747783"><ele>3.0</ele><time>2026-04-26T09:56:11.602Z</time></trkpt><trkpt lat="39.862845" lon="8.5747933"><ele>3.333333333333333</ele><time>2026-04-26T09:56:13.66Z</time></trkpt><trkpt lat="39.8627817" lon="8.57479"><ele>3.6666666666666665</ele><time>2026-04-26T09:56:14.602Z</time></trkpt><trkpt lat="39.8627167" lon="8.574785"><ele>4.0</ele><time>2026-04-26T09:56:15.608Z</time></trkpt><trkpt lat="39.8626517" lon="8.57477"><ele>4.142857142857142</ele><time>2026-04-26T09:56:16.603Z</time></trkpt><trkpt lat="39.8625867" lon="8.57475"><ele>4.285714285714286</ele><time>2026-04-26T09:56:17.602Z</time></trkpt><trkpt lat="39.8625183" lon="8.574725"><ele>4.428571428571429</ele><time>2026-04-26T09:56:18.613Z</time></trkpt><trkpt lat="39.8624533" lon="8.5746967"><ele>4.571428571428571</ele><time>2026-04-26T09:56:19.662Z</time></trkpt><trkpt lat="39.86239" lon="8.574665"><ele>4.714285714285714</ele><time>2026-04-26T09:56:20.605Z</time></trkpt><trkpt lat="39.86233" lon="8.5746283"><ele>4.857142857142857</ele><time>2026-04-26T09:56:21.604Z</time></trkpt><trkpt lat="39.8622733" lon="8.5745917"><ele>5.0</ele><time>2026-04-26T09:56:22.603Z</time></trkpt><trkpt lat="39.862215" lon="8.5745517"><ele>5.0</ele><time>2026-04-26T09:56:23.606Z</time></trkpt><trkpt lat="39.8621567" lon="8.5745083"><ele>5.0</ele><time>2026-04-26T09:56:24.605Z</time></trkpt><trkpt lat="39.862095" lon="8.5744683"><ele>5.0</ele><time>2026-04-26T09:56:25.673Z</time></trkpt><trkpt lat="39.8620317" lon="8.5744383"><ele>5.0</ele><time>2026-04-26T09:56:26.608Z</time></trkpt><trkpt lat="39.861965" lon="8.5744117"><ele>5.0</ele><time>2026-04-26T09:56:27.6Z</time></trkpt><trkpt lat="39.8619" lon="8.5743867"><ele>5.0</ele><time>2026-04-26T09:56:28.598Z</time></trkpt><trkpt lat="39.861835" lon="8.5743617"><ele>5.0</ele><time>2026-04-26T09:56:29.603Z</time></trkpt><trkpt lat="39.8617317" lon="8.5743033"><ele>5.0</ele><time>2026-04-26T09:56:31.663Z</time></trkpt><trkpt lat="39.86165" lon="8.5742467"><ele>5.0</ele><time>2026-04-26T09:56:33.608Z</time></trkpt><trkpt lat="39.86158" lon="8.5741733"><ele>5.0</ele><time>2026-04-26T09:56:35.603Z</time></trkpt><trkpt lat="39.86152" lon="8.5740417"><ele>5.0</ele><time>2026-04-26T09:56:38.602Z</time></trkpt><trkpt lat="39.8614683" lon="8.5739667"><ele>5.0</ele><time>2026-04-26T09:56:40.615Z</time></trkpt><trkpt lat="39.86141" lon="8.573925"><ele>5.0</ele><time>2026-04-26T09:56:42.608Z</time></trkpt><trkpt lat="39.8613467" lon="8.57388"><ele>5.0</ele><time>2026-04-26T09:56:45.609Z</time></trkpt><trkpt lat="39.86135" lon="8.5737683"><ele>5.0</ele><time>2026-04-26T09:56:48.603Z</time></trkpt><trkpt lat="39.8613967" lon="8.573655"><ele>5.0</ele><time>2026-04-26T09:56:51.6Z</time></trkpt><trkpt lat="39.8614" lon="8.5735433"><ele>5.0</ele><time>2026-04-26T09:56:53.609Z</time></trkpt><trkpt lat="39.861365" lon="8.5734467"><ele>5.0</ele><time>2026-04-26T09:56:55.665Z</time></trkpt><trkpt lat="39.8613083" lon="8.5733783"><ele>5.0</ele><time>2026-04-26T09:56:57.604Z</time></trkpt><trkpt lat="39.8612433" lon="8.5733083"><ele>4.8</ele><time>2026-04-26T09:57:00.612Z</time></trkpt><trkpt lat="39.8612833" lon="8.5732033"><ele>4.6</ele><time>2026-04-26T09:57:03.599Z</time></trkpt><trkpt lat="39.8613933" lon="8.573165"><ele>4.4</ele><time>2026-04-26T09:57:05.601Z</time></trkpt><trkpt lat="39.8614717" lon="8.573165"><ele>4.2</ele><time>2026-04-26T09:57:06.605Z</time></trkpt><trkpt lat="39.8615683" lon="8.5731667"><ele>4.0</ele><time>2026-04-26T09:57:07.661Z</time></trkpt><trkpt lat="39.8616867" lon="8.5731583"><ele>4.25</ele><time>2026-04-26T09:57:08.597Z</time></trkpt><trkpt lat="39.8618" lon="8.5731433"><ele>4.5</ele><time>2026-04-26T09:57:09.601Z</time></trkpt><trkpt lat="39.8619133" lon="8.5731267"><ele>4.75</ele><time>2026-04-26T09:57:10.604Z</time></trkpt><trkpt lat="39.8620283" lon="8.57311"><ele>5.0</ele><time>2026-04-26T09:57:11.598Z</time></trkpt><trkpt lat="39.86214" lon="8.5730933"><ele>5.0</ele><time>2026-04-26T09:57:12.6Z</time></trkpt><trkpt lat="39.8622567" lon="8.573075"><ele>5.0</ele><time>2026-04-26T09:57:13.662Z</time></trkpt><trkpt lat="39.8623683" lon="8.5730567"><ele>5.0</ele><time>2026-04-26T09:57:14.6Z</time></trkpt><trkpt lat="39.8624833" lon="8.57304"><ele>5.0</ele><time>2026-04-26T09:57:15.6Z</time></trkpt><trkpt lat="39.8625967" lon="8.57302"><ele>5.0</ele><time>2026-04-26T09:57:16.599Z</time></trkpt><trkpt lat="39.8627067" lon="8.573"><ele>5.0</ele><time>2026-04-26T09:57:17.601Z</time></trkpt><trkpt lat="39.8628133" lon="8.5729817"><ele>5.0</ele><time>2026-04-26T09:57:18.599Z</time></trkpt><trkpt lat="39.86292" lon="8.5729617"><ele>5.0</ele><time>2026-04-26T09:57:19.66Z</time></trkpt><trkpt lat="39.8630283" lon="8.5729417"><ele>5.0</ele><time>2026-04-26T09:57:20.6Z</time></trkpt><trkpt lat="39.8631433" lon="8.5729233"><ele>5.0</ele><time>2026-04-26T09:57:21.6Z</time></trkpt><trkpt lat="39.8632533" lon="8.5729083"><ele>5.0</ele><time>2026-04-26T09:57:22.603Z</time></trkpt><trkpt lat="39.86336" lon="8.572895"><ele>5.0</ele><time>2026-04-26T09:57:23.607Z</time></trkpt><trkpt lat="39.863465" lon="8.5728817"><ele>5.0</ele><time>2026-04-26T09:57:24.6Z</time></trkpt><trkpt lat="39.86357" lon="8.5728683"><ele>5.0</ele><time>2026-04-26T09:57:25.671Z</time></trkpt><trkpt lat="39.86367" lon="8.5728567"><ele>4.6</ele><time>2026-04-26T09:57:26.598Z</time></trkpt><trkpt lat="39.8637717" lon="8.5728433"><ele>4.2</ele><time>2026-04-26T09:57:27.598Z</time></trkpt><trkpt lat="39.8638733" lon="8.57283"><ele>3.8</ele><time>2026-04-26T09:57:28.603Z</time></trkpt><trkpt lat="39.863975" lon="8.5728167"><ele>3.4</ele><time>2026-04-26T09:57:29.6Z</time></trkpt><trkpt lat="39.8640767" lon="8.572805"><ele>3.0</ele><time>2026-04-26T09:57:30.602Z</time></trkpt><trkpt lat="39.8641783" lon="8.5727933"><ele>3.2</ele><time>2026-04-26T09:57:31.671Z</time></trkpt><trkpt lat="39.8642817" lon="8.5727783"><ele>3.4</ele><time>2026-04-26T09:57:32.598Z</time></trkpt><trkpt lat="39.8643833" lon="8.5727633"><ele>3.6000000000000005</ele><time>2026-04-26T09:57:33.605Z</time></trkpt><trkpt lat="39.86448" lon="8.5727483"><ele>3.8000000000000003</ele><time>2026-04-26T09:57:34.603Z</time></trkpt><trkpt lat="39.8645717" lon="8.572735"><ele>4.0</ele><time>2026-04-26T09:57:35.607Z</time></trkpt><trkpt lat="39.86466" lon="8.57272"><ele>3.9999999999999996</ele><time>2026-04-26T09:57:36.606Z</time></trkpt><trkpt lat="39.8647483" lon="8.572705"><ele>4.0</ele><time>2026-04-26T09:57:37.66Z</time></trkpt><trkpt lat="39.8648383" lon="8.5726867"><ele>4.0</ele><time>2026-04-26T09:57:38.607Z</time></trkpt><trkpt lat="39.864925" lon="8.5726633"><ele>4.0</ele><time>2026-04-26T09:57:39.603Z</time></trkpt><trkpt lat="39.8650067" lon="8.5726333"><ele>3.9999999999999996</ele><time>2026-04-26T09:57:40.601Z</time></trkpt><trkpt lat="39.8650867" lon="8.5725983"><ele>4.0</ele><time>2026-04-26T09:57:41.598Z</time></trkpt><trkpt lat="39.86517" lon="8.5725567"><ele>4.0</ele><time>2026-04-26T09:57:42.606Z</time></trkpt><trkpt lat="39.8652517" lon="8.5725067"><ele>4.0</ele><time>2026-04-26T09:57:43.661Z</time></trkpt><trkpt lat="39.8653333" lon="8.5724533"><ele>4.0</ele><time>2026-04-26T09:57:44.61Z</time></trkpt><trkpt lat="39.8654133" lon="8.572395"><ele>4.0</ele><time>2026-04-26T09:57:45.606Z</time></trkpt><trkpt lat="39.865495" lon="8.5723317"><ele>4.0</ele><time>2026-04-26T09:57:46.605Z</time></trkpt><trkpt lat="39.8655733" lon="8.5722617"><ele>4.0</ele><time>2026-04-26T09:57:47.608Z</time></trkpt><trkpt lat="39.86565" lon="8.5721883"><ele>4.0</ele><time>2026-04-26T09:57:48.597Z</time></trkpt><trkpt lat="39.865725" lon="8.5721083"><ele>4.0</ele><time>2026-04-26T09:57:49.667Z</time></trkpt><trkpt lat="39.8657983" lon="8.572025"><ele>4.0</ele><time>2026-04-26T09:57:50.605Z</time></trkpt><trkpt lat="39.8658683" lon="8.5719383"><ele>4.0</ele><time>2026-04-26T09:57:51.599Z</time></trkpt><trkpt lat="39.8659333" lon="8.5718483"><ele>3.8000000000000003</ele><time>2026-04-26T09:57:52.605Z</time></trkpt><trkpt lat="39.865995" lon="8.5717583"><ele>3.6000000000000005</ele><time>2026-04-26T09:57:53.603Z</time></trkpt><trkpt lat="39.8660567" lon="8.5716717"><ele>3.4</ele><time>2026-04-26T09:57:54.606Z</time></trkpt><trkpt lat="39.8661167" lon="8.571585"><ele>3.2</ele><time>2026-04-26T09:57:55.664Z</time></trkpt><trkpt lat="39.86618" lon="8.5714983"><ele>3.0</ele><time>2026-04-26T09:57:56.6Z</time></trkpt><trkpt lat="39.8662433" lon="8.57141"><ele>3.0</ele><time>2026-04-26T09:57:57.599Z</time></trkpt><trkpt lat="39.8663083" lon="8.57132"><ele>3.0</ele><time>2026-04-26T09:57:58.601Z</time></trkpt><trkpt lat="39.8663733" lon="8.5712317"><ele>3.0</ele><time>2026-04-26T09:57:59.602Z</time></trkpt><trkpt lat="39.8664383" lon="8.5711433"><ele>3.0</ele><time>2026-04-26T09:58:00.603Z</time></trkpt><trkpt lat="39.8665033" lon="8.5710517"><ele>3.0</ele><time>2026-04-26T09:58:01.665Z</time></trkpt><trkpt lat="39.8665717" lon="8.57096"><ele>3.2</ele><time>2026-04-26T09:58:02.6Z</time></trkpt><trkpt lat="39.86664" lon="8.5708667"><ele>3.4</ele><time>2026-04-26T09:58:03.603Z</time></trkpt><trkpt lat="39.8667083" lon="8.570775"><ele>3.6000000000000005</ele><time>2026-04-26T09:58:04.599Z</time></trkpt><trkpt lat="39.866775" lon="8.5706833"><ele>3.8000000000000003</ele><time>2026-04-26T09:58:05.608Z</time></trkpt><trkpt lat="39.8668433" lon="8.5705917"><ele>4.0</ele><time>2026-04-26T09:58:06.602Z</time></trkpt><trkpt lat="39.86691" lon="8.5705017"><ele>4.0</ele><time>2026-04-26T09:58:07.659Z</time></trkpt><trkpt lat="39.8669767" lon="8.5704167"><ele>4.0</ele><time>2026-04-26T09:58:08.602Z</time></trkpt><trkpt lat="39.867045" lon="8.5703367"><ele>4.0</ele><time>2026-04-26T09:58:09.605Z</time></trkpt><trkpt lat="39.867115" lon="8.570255"><ele>4.0</ele><time>2026-04-26T09:58:10.598Z</time></trkpt><trkpt lat="39.8671833" lon="8.570175"><ele>4.0</ele><time>2026-04-26T09:58:11.609Z</time></trkpt><trkpt lat="39.86725" lon="8.5700933"><ele>4.166666666666666</ele><time>2026-04-26T09:58:12.603Z</time></trkpt><trkpt lat="39.8673117" lon="8.57001"><ele>4.333333333333333</ele><time>2026-04-26T09:58:13.66Z</time></trkpt><trkpt lat="39.86737" lon="8.5699267"><ele>4.5</ele><time>2026-04-26T09:58:14.607Z</time></trkpt><trkpt lat="39.8674283" lon="8.569845"><ele>4.666666666666667</ele><time>2026-04-26T09:58:15.607Z</time></trkpt><trkpt lat="39.86749" lon="8.569765"><ele>4.833333333333334</ele><time>2026-04-26T09:58:16.605Z</time></trkpt><trkpt lat="39.86755" lon="8.5696917"><ele>5.0</ele><time>2026-04-26T09:58:17.607Z</time></trkpt><trkpt lat="39.8676133" lon="8.5696217"><ele>4.8</ele><time>2026-04-26T09:58:18.604Z</time></trkpt><trkpt lat="39.8676833" lon="8.5695517"><ele>4.6</ele><time>2026-04-26T09:58:19.658Z</time></trkpt><trkpt lat="39.86776" lon="8.5694867"><ele>4.4</ele><time>2026-04-26T09:58:20.602Z</time></trkpt><trkpt lat="39.8678417" lon="8.5694283"><ele>4.2</ele><time>2026-04-26T09:58:21.604Z</time></trkpt><trkpt lat="39.86793" lon="8.569375"><ele>4.0</ele><time>2026-04-26T09:58:22.6Z</time></trkpt><trkpt lat="39.8680233" lon="8.5693283"><ele>4.0</ele><time>2026-04-26T09:58:23.598Z</time></trkpt><trkpt lat="39.8681217" lon="8.5692833"><ele>4.0</ele><time>2026-04-26T09:58:24.609Z</time></trkpt><trkpt lat="39.8682233" lon="8.569245"><ele>4.0</ele><time>2026-04-26T09:58:25.672Z</time></trkpt><trkpt lat="39.8683233" lon="8.5692117"><ele>4.0</ele><time>2026-04-26T09:58:26.601Z</time></trkpt><trkpt lat="39.868425" lon="8.5691817"><ele>4.0</ele><time>2026-04-26T09:58:27.603Z</time></trkpt><trkpt lat="39.8685233" lon="8.5691583"><ele>3.4000000000000004</ele><time>2026-04-26T09:58:28.604Z</time></trkpt><trkpt lat="39.8686133" lon="8.5691417"><ele>2.8000000000000003</ele><time>2026-04-26T09:58:29.601Z</time></trkpt><trkpt lat="39.868705" lon="8.56913"><ele>2.2</ele><time>2026-04-26T09:58:30.622Z</time></trkpt><trkpt lat="39.8687917" lon="8.5691167"><ele>1.6</ele><time>2026-04-26T09:58:31.66Z</time></trkpt><trkpt lat="39.86888" lon="8.569105"><ele>1.0</ele><time>2026-04-26T09:58:32.602Z</time></trkpt><trkpt lat="39.8689717" lon="8.5690917"><ele>1.0</ele><time>2026-04-26T09:58:33.599Z</time></trkpt><trkpt lat="39.8690683" lon="8.5690767"><ele>1.0</ele><time>2026-04-26T09:58:34.609Z</time></trkpt><trkpt lat="39.869165" lon="8.569065"><ele>1.0</ele><time>2026-04-26T09:58:35.599Z</time></trkpt><trkpt lat="39.86926" lon="8.5690533"><ele>1.0</ele><time>2026-04-26T09:58:36.601Z</time></trkpt><trkpt lat="39.86935" lon="8.5690467"><ele>1.0</ele><time>2026-04-26T09:58:37.672Z</time></trkpt><trkpt lat="39.8694417" lon="8.56904"><ele>1.0</ele><time>2026-04-26T09:58:38.604Z</time></trkpt><trkpt lat="39.8695367" lon="8.56903"><ele>1.0</ele><time>2026-04-26T09:58:39.601Z</time></trkpt><trkpt lat="39.8696383" lon="8.5690183"><ele>1.0</ele><time>2026-04-26T09:58:40.606Z</time></trkpt><trkpt lat="39.8697417" lon="8.56901"><ele>1.0</ele><time>2026-04-26T09:58:41.603Z</time></trkpt><trkpt lat="39.86984" lon="8.5690033"><ele>1.0</ele><time>2026-04-26T09:58:42.609Z</time></trkpt><trkpt lat="39.8699417" lon="8.568995"><ele>1.0</ele><time>2026-04-26T09:58:43.662Z</time></trkpt><trkpt lat="39.870045" lon="8.5689833"><ele>1.0</ele><time>2026-04-26T09:58:44.599Z</time></trkpt><trkpt lat="39.8701483" lon="8.568975"><ele>1.0</ele><time>2026-04-26T09:58:45.603Z</time></trkpt><trkpt lat="39.8702533" lon="8.5689633"><ele>1.0</ele><time>2026-04-26T09:58:46.597Z</time></trkpt><trkpt lat="39.87036" lon="8.56895"><ele>1.0</ele><time>2026-04-26T09:58:47.602Z</time></trkpt><trkpt lat="39.8704667" lon="8.56894"><ele>1.2000000000000002</ele><time>2026-04-26T09:58:48.608Z</time></trkpt><trkpt lat="39.8705733" lon="8.5689333"><ele>1.4000000000000001</ele><time>2026-04-26T09:58:49.661Z</time></trkpt><trkpt lat="39.87068" lon="8.5689233"><ele>1.6</ele><time>2026-04-26T09:58:50.602Z</time></trkpt><trkpt lat="39.8707917" lon="8.5689133"><ele>1.8</ele><time>2026-04-26T09:58:51.602Z</time></trkpt><trkpt lat="39.8709067" lon="8.5689017"><ele>2.0</ele><time>2026-04-26T09:58:52.609Z</time></trkpt><trkpt lat="39.8710217" lon="8.56889"><ele>2.0</ele><time>2026-04-26T09:58:53.604Z</time></trkpt><trkpt lat="39.8711317" lon="8.56888"><ele>2.0</ele><time>2026-04-26T09:58:54.602Z</time></trkpt><trkpt lat="39.8712367" lon="8.5688667"><ele>2.0</ele><time>2026-04-26T09:58:55.667Z</time></trkpt><trkpt lat="39.8713433" lon="8.568855"><ele>2.0</ele><time>2026-04-26T09:58:56.607Z</time></trkpt><trkpt lat="39.87145" lon="8.5688417"><ele>2.0</ele><time>2026-04-26T09:58:57.603Z</time></trkpt><trkpt lat="39.87156" lon="8.56883"><ele>2.0</ele><time>2026-04-26T09:58:58.61Z</time></trkpt><trkpt lat="39.87167" lon="8.5688233"><ele>2.0</ele><time>2026-04-26T09:58:59.601Z</time></trkpt><trkpt lat="39.8717783" lon="8.568825"><ele>2.0</ele><time>2026-04-26T09:59:00.609Z</time></trkpt><trkpt lat="39.8718867" lon="8.568835"><ele>2.0</ele><time>2026-04-26T09:59:01.654Z</time></trkpt><trkpt lat="39.8719933" lon="8.5688567"><ele>2.0</ele><time>2026-04-26T09:59:02.602Z</time></trkpt><trkpt lat="39.8721" lon="8.5688883"><ele>2.5</ele><time>2026-04-26T09:59:03.605Z</time></trkpt><trkpt lat="39.8722033" lon="8.56894"><ele>3.0</ele><time>2026-04-26T09:59:04.603Z</time></trkpt><trkpt lat="39.872305" lon="8.569005"><ele>3.5</ele><time>2026-04-26T09:59:05.603Z</time></trkpt><trkpt lat="39.872405" lon="8.5690833"><ele>4.0</ele><time>2026-04-26T09:59:06.599Z</time></trkpt><trkpt lat="39.8725" lon="8.5691717"><ele>4.0</ele><time>2026-04-26T09:59:07.662Z</time></trkpt><trkpt lat="39.8725883" lon="8.5692717"><ele>4.0</ele><time>2026-04-26T09:59:08.598Z</time></trkpt><trkpt lat="39.8726717" lon="8.5693817"><ele>4.0</ele><time>2026-04-26T09:59:09.596Z</time></trkpt><trkpt lat="39.87275" lon="8.5695"><ele>4.0</ele><time>2026-04-26T09:59:10.6Z</time></trkpt><trkpt lat="39.8728283" lon="8.5696217"><ele>3.75</ele><time>2026-04-26T09:59:11.602Z</time></trkpt><trkpt lat="39.8729083" lon="8.569745"><ele>3.5</ele><time>2026-04-26T09:59:12.603Z</time></trkpt><trkpt lat="39.87299" lon="8.5698683"><ele>3.25</ele><time>2026-04-26T09:59:13.662Z</time></trkpt><trkpt lat="39.873075" lon="8.57"><ele>3.0</ele><time>2026-04-26T09:59:14.602Z</time></trkpt><trkpt lat="39.87316" lon="8.5701367"><ele>3.0</ele><time>2026-04-26T09:59:15.604Z</time></trkpt><trkpt lat="39.8732467" lon="8.5702733"><ele>3.0</ele><time>2026-04-26T09:59:16.605Z</time></trkpt><trkpt lat="39.8733333" lon="8.57041"><ele>3.0</ele><time>2026-04-26T09:59:17.607Z</time></trkpt><trkpt lat="39.8734217" lon="8.5705383"><ele>3.0</ele><time>2026-04-26T09:59:18.608Z</time></trkpt><trkpt lat="39.87351" lon="8.5706683"><ele>2.75</ele><time>2026-04-26T09:59:19.664Z</time></trkpt><trkpt lat="39.8736" lon="8.5708033"><ele>2.5</ele><time>2026-04-26T09:59:20.608Z</time></trkpt><trkpt lat="39.87369" lon="8.5709367"><ele>2.25</ele><time>2026-04-26T09:59:21.603Z</time></trkpt><trkpt lat="39.8737783" lon="8.5710667"><ele>2.0</ele><time>2026-04-26T09:59:22.604Z</time></trkpt><trkpt lat="39.8738667" lon="8.5711983"><ele>2.0</ele><time>2026-04-26T09:59:23.599Z</time></trkpt><trkpt lat="39.8739533" lon="8.5713317"><ele>2.0</ele><time>2026-04-26T09:59:24.614Z</time></trkpt><trkpt lat="39.8740433" lon="8.5714633"><ele>2.0</ele><time>2026-04-26T09:59:25.668Z</time></trkpt><trkpt lat="39.87413" lon="8.5715983"><ele>2.0</ele><time>2026-04-26T09:59:26.597Z</time></trkpt><trkpt lat="39.8742217" lon="8.57173"><ele>1.75</ele><time>2026-04-26T09:59:27.602Z</time></trkpt><trkpt lat="39.8743117" lon="8.57186"><ele>1.5</ele><time>2026-04-26T09:59:28.605Z</time></trkpt><trkpt lat="39.8744" lon="8.5719917"><ele>1.25</ele><time>2026-04-26T09:59:29.604Z</time></trkpt><trkpt lat="39.8744883" lon="8.5721233"><ele>1.0</ele><time>2026-04-26T09:59:30.608Z</time></trkpt><trkpt lat="39.874575" lon="8.5722617"><ele>1.75</ele><time>2026-04-26T09:59:31.671Z</time></trkpt><trkpt lat="39.87466" lon="8.5724017"><ele>2.5</ele><time>2026-04-26T09:59:32.598Z</time></trkpt><trkpt lat="39.8747483" lon="8.57254"><ele>3.25</ele><time>2026-04-26T09:59:33.602Z</time></trkpt><trkpt lat="39.8748383" lon="8.5726767"><ele>4.0</ele><time>2026-04-26T09:59:34.6Z</time></trkpt><trkpt lat="39.87493" lon="8.5728133"><ele>4.0</ele><time>2026-04-26T09:59:35.6Z</time></trkpt><trkpt lat="39.8750217" lon="8.5729467"><ele>4.0</ele><time>2026-04-26T09:59:36.603Z</time></trkpt><trkpt lat="39.8751133" lon="8.5730767"><ele>4.0</ele><time>2026-04-26T09:59:37.606Z</time></trkpt><trkpt lat="39.8752033" lon="8.57321"><ele>4.0</ele><time>2026-04-26T09:59:38.601Z</time></trkpt><trkpt lat="39.8752967" lon="8.5733367"><ele>3.75</ele><time>2026-04-26T09:59:39.607Z</time></trkpt><trkpt lat="39.875385" lon="8.5734717"><ele>3.5</ele><time>2026-04-26T09:59:40.604Z</time></trkpt><trkpt lat="39.8754767" lon="8.5736033"><ele>3.25</ele><time>2026-04-26T09:59:41.612Z</time></trkpt><trkpt lat="39.8755683" lon="8.5737367"><ele>3.0</ele><time>2026-04-26T09:59:42.603Z</time></trkpt><trkpt lat="39.8756617" lon="8.5738733"><ele>3.0</ele><time>2026-04-26T09:59:43.606Z</time></trkpt><trkpt lat="39.8757533" lon="8.57401"><ele>3.0</ele><time>2026-04-26T09:59:44.612Z</time></trkpt><trkpt lat="39.8758467" lon="8.5741483"><ele>3.0</ele><time>2026-04-26T09:59:45.605Z</time></trkpt><trkpt lat="39.87594" lon="8.5742883"><ele>3.0</ele><time>2026-04-26T09:59:46.609Z</time></trkpt><trkpt lat="39.8760317" lon="8.574425"><ele>2.5</ele><time>2026-04-26T09:59:47.605Z</time></trkpt><trkpt lat="39.87612" lon="8.5745583"><ele>2.0</ele><time>2026-04-26T09:59:48.603Z</time></trkpt><trkpt lat="39.8762017" lon="8.57469"><ele>1.5</ele><time>2026-04-26T09:59:49.601Z</time></trkpt><trkpt lat="39.876285" lon="8.5748117"><ele>1.0</ele><time>2026-04-26T09:59:50.602Z</time></trkpt><trkpt lat="39.876375" lon="8.574935"><ele>1.0</ele><time>2026-04-26T09:59:51.606Z</time></trkpt><trkpt lat="39.87647" lon="8.575055"><ele>1.0</ele><time>2026-04-26T09:59:52.596Z</time></trkpt><trkpt lat="39.87657" lon="8.5751733"><ele>1.0</ele><time>2026-04-26T09:59:53.606Z</time></trkpt><trkpt lat="39.8766733" lon="8.5752817"><ele>1.0</ele><time>2026-04-26T09:59:54.608Z</time></trkpt><trkpt lat="39.87678" lon="8.5753833"><ele>1.25</ele><time>2026-04-26T09:59:55.669Z</time></trkpt><trkpt lat="39.8768933" lon="8.575475"><ele>1.5</ele><time>2026-04-26T09:59:56.599Z</time></trkpt><trkpt lat="39.87701" lon="8.5755533"><ele>1.75</ele><time>2026-04-26T09:59:57.606Z</time></trkpt><trkpt lat="39.87713" lon="8.5756217"><ele>2.0</ele><time>2026-04-26T09:59:58.601Z</time></trkpt><trkpt lat="39.8772567" lon="8.5756883"><ele>2.0</ele><time>2026-04-26T09:59:59.606Z</time></trkpt><trkpt lat="39.8773833" lon="8.5757567"><ele>2.0</ele><time>2026-04-26T10:00:00.601Z</time></trkpt><trkpt lat="39.877515" lon="8.5758267"><ele>2.0</ele><time>2026-04-26T10:00:01.659Z</time></trkpt><trkpt lat="39.8776533" lon="8.5758983"><ele>2.0</ele><time>2026-04-26T10:00:02.601Z</time></trkpt><trkpt lat="39.8777983" lon="8.5759717"><ele>1.6666666666666665</ele><time>2026-04-26T10:00:03.602Z</time></trkpt><trkpt lat="39.877945" lon="8.5760483"><ele>1.3333333333333333</ele><time>2026-04-26T10:00:04.608Z</time></trkpt><trkpt lat="39.8780917" lon="8.5761267"><ele>1.0</ele><time>2026-04-26T10:00:05.607Z</time></trkpt><trkpt lat="39.8782317" lon="8.5762067"><ele>1.0</ele><time>2026-04-26T10:00:06.605Z</time></trkpt><trkpt lat="39.8783667" lon="8.5762833"><ele>1.0</ele><time>2026-04-26T10:00:07.601Z</time></trkpt><trkpt lat="39.8784967" lon="8.5763583"><ele>1.0</ele><time>2026-04-26T10:00:08.609Z</time></trkpt><trkpt lat="39.8786233" lon="8.5764317"><ele>1.0</ele><time>2026-04-26T10:00:09.609Z</time></trkpt><trkpt lat="39.8787483" lon="8.576505"><ele>1.0</ele><time>2026-04-26T10:00:10.601Z</time></trkpt><trkpt lat="39.8788733" lon="8.57658"><ele>1.0</ele><time>2026-04-26T10:00:11.602Z</time></trkpt><trkpt lat="39.878995" lon="8.57665"><ele>1.0</ele><time>2026-04-26T10:00:12.603Z</time></trkpt><trkpt lat="39.8791067" lon="8.57671"><ele>1.0</ele><time>2026-04-26T10:00:13.597Z</time></trkpt><trkpt lat="39.87921" lon="8.5767717"><ele>1.0</ele><time>2026-04-26T10:00:14.601Z</time></trkpt><trkpt lat="39.8793133" lon="8.5768367"><ele>1.0</ele><time>2026-04-26T10:00:15.607Z</time></trkpt><trkpt lat="39.879415" lon="8.5769017"><ele>1.0</ele><time>2026-04-26T10:00:16.603Z</time></trkpt><trkpt lat="39.8795167" lon="8.57697"><ele>1.0</ele><time>2026-04-26T10:00:17.609Z</time></trkpt><trkpt lat="39.87962" lon="8.5770383"><ele>0.75</ele><time>2026-04-26T10:00:18.613Z</time></trkpt><trkpt lat="39.8797217" lon="8.5771033"><ele>0.5</ele><time>2026-04-26T10:00:19.602Z</time></trkpt><trkpt lat="39.8798267" lon="8.57717"><ele>0.25</ele><time>2026-04-26T10:00:20.604Z</time></trkpt><trkpt lat="39.8799333" lon="8.5772333"><ele>0.0</ele><time>2026-04-26T10:00:21.601Z</time></trkpt><trkpt lat="39.88004" lon="8.5772967"><ele>0.0</ele><time>2026-04-26T10:00:22.602Z</time></trkpt><trkpt lat="39.8801483" lon="8.5773583"><ele>0.0</ele><time>2026-04-26T10:00:23.605Z</time></trkpt><trkpt lat="39.8802617" lon="8.5774167"><ele>0.0</ele><time>2026-04-26T10:00:24.601Z</time></trkpt><trkpt lat="39.8803783" lon="8.57748"><ele>0.0</ele><time>2026-04-26T10:00:25.659Z</time></trkpt><trkpt lat="39.8804933" lon="8.5775467"><ele>0.0</ele><time>2026-04-26T10:00:26.599Z</time></trkpt><trkpt lat="39.88061" lon="8.5776133"><ele>0.0</ele><time>2026-04-26T10:00:27.601Z</time></trkpt><trkpt lat="39.88073" lon="8.5776817"><ele>0.0</ele><time>2026-04-26T10:00:28.606Z</time></trkpt><trkpt lat="39.88085" lon="8.5777483"><ele>0.0</ele><time>2026-04-26T10:00:29.604Z</time></trkpt><trkpt lat="39.88097" lon="8.5778167"><ele>0.25</ele><time>2026-04-26T10:00:30.611Z</time></trkpt><trkpt lat="39.8810917" lon="8.5778833"><ele>0.5</ele><time>2026-04-26T10:00:31.664Z</time></trkpt><trkpt lat="39.8812133" lon="8.5779517"><ele>0.75</ele><time>2026-04-26T10:00:32.601Z</time></trkpt><trkpt lat="39.8813383" lon="8.57802"><ele>1.0</ele><time>2026-04-26T10:00:33.601Z</time></trkpt><trkpt lat="39.8814617" lon="8.5780883"><ele>1.0</ele><time>2026-04-26T10:00:34.599Z</time></trkpt><trkpt lat="39.8815883" lon="8.5781583"><ele>1.0</ele><time>2026-04-26T10:00:35.603Z</time></trkpt><trkpt lat="39.8817133" lon="8.5782283"><ele>1.0</ele><time>2026-04-26T10:00:36.601Z</time></trkpt><trkpt lat="39.8818367" lon="8.5782983"><ele>1.0</ele><time>2026-04-26T10:00:37.625Z</time></trkpt><trkpt lat="39.8819567" lon="8.5783683"><ele>1.25</ele><time>2026-04-26T10:00:38.606Z</time></trkpt><trkpt lat="39.8820783" lon="8.57844"><ele>1.5</ele><time>2026-04-26T10:00:39.6Z</time></trkpt><trkpt lat="39.8821983" lon="8.5785083"><ele>1.75</ele><time>2026-04-26T10:00:40.601Z</time></trkpt><trkpt lat="39.8823183" lon="8.578575"><ele>2.0</ele><time>2026-04-26T10:00:41.604Z</time></trkpt><trkpt lat="39.8824383" lon="8.5786433"><ele>2.0</ele><time>2026-04-26T10:00:42.603Z</time></trkpt><trkpt lat="39.88256" lon="8.5787117"><ele>2.0</ele><time>2026-04-26T10:00:43.621Z</time></trkpt><trkpt lat="39.8826817" lon="8.57878"><ele>2.0</ele><time>2026-04-26T10:00:44.597Z</time></trkpt><trkpt lat="39.8828033" lon="8.57885"><ele>2.0</ele><time>2026-04-26T10:00:45.598Z</time></trkpt><trkpt lat="39.8829267" lon="8.5789217"><ele>2.0</ele><time>2026-04-26T10:00:46.6Z</time></trkpt><trkpt lat="39.8830483" lon="8.5789933"><ele>2.0</ele><time>2026-04-26T10:00:47.603Z</time></trkpt><trkpt lat="39.8831683" lon="8.57906"><ele>2.0</ele><time>2026-04-26T10:00:48.6Z</time></trkpt><trkpt lat="39.8832833" lon="8.579125"><ele>2.0</ele><time>2026-04-26T10:00:49.619Z</time></trkpt><trkpt lat="39.8834" lon="8.5791917"><ele>2.0</ele><time>2026-04-26T10:00:50.602Z</time></trkpt><trkpt lat="39.8835167" lon="8.5792567"><ele>2.0</ele><time>2026-04-26T10:00:51.606Z</time></trkpt><trkpt lat="39.8836333" lon="8.5793233"><ele>2.0</ele><time>2026-04-26T10:00:52.605Z</time></trkpt><trkpt lat="39.88375" lon="8.5793917"><ele>2.0</ele><time>2026-04-26T10:00:53.606Z</time></trkpt><trkpt lat="39.8838717" lon="8.5794617"><ele>2.25</ele><time>2026-04-26T10:00:54.61Z</time></trkpt><trkpt lat="39.8839967" lon="8.579535"><ele>2.5</ele><time>2026-04-26T10:00:55.65Z</time></trkpt><trkpt lat="39.884125" lon="8.579605"><ele>2.75</ele><time>2026-04-26T10:00:56.597Z</time></trkpt><trkpt lat="39.8842517" lon="8.5796767"><ele>3.0</ele><time>2026-04-26T10:00:57.6Z</time></trkpt><trkpt lat="39.88438" lon="8.579745"><ele>2.5</ele><time>2026-04-26T10:00:58.609Z</time></trkpt><trkpt lat="39.8845083" lon="8.5798083"><ele>2.0</ele><time>2026-04-26T10:00:59.604Z</time></trkpt><trkpt lat="39.8846367" lon="8.5798667"><ele>1.5</ele><time>2026-04-26T10:01:00.602Z</time></trkpt><trkpt lat="39.8847667" lon="8.5799233"><ele>1.0</ele><time>2026-04-26T10:01:01.65Z</time></trkpt><trkpt lat="39.8848983" lon="8.5799767"><ele>1.0</ele><time>2026-04-26T10:01:02.592Z</time></trkpt><trkpt lat="39.8850333" lon="8.5800267"><ele>1.0</ele><time>2026-04-26T10:01:03.605Z</time></trkpt><trkpt lat="39.88517" lon="8.580075"><ele>1.0</ele><time>2026-04-26T10:01:04.609Z</time></trkpt><trkpt lat="39.8853083" lon="8.5801217"><ele>1.0</ele><time>2026-04-26T10:01:05.605Z</time></trkpt><trkpt lat="39.8854467" lon="8.5801667"><ele>1.0</ele><time>2026-04-26T10:01:06.6Z</time></trkpt><trkpt lat="39.885585" lon="8.5802117"><ele>1.0</ele><time>2026-04-26T10:01:07.634Z</time></trkpt><trkpt lat="39.8857217" lon="8.5802533"><ele>1.0</ele><time>2026-04-26T10:01:08.603Z</time></trkpt><trkpt lat="39.885855" lon="8.580295"><ele>1.0</ele><time>2026-04-26T10:01:09.601Z</time></trkpt><trkpt lat="39.8859883" lon="8.580335"><ele>1.0</ele><time>2026-04-26T10:01:10.611Z</time></trkpt><trkpt lat="39.8861183" lon="8.580375"><ele>1.0</ele><time>2026-04-26T10:01:11.609Z</time></trkpt><trkpt lat="39.886245" lon="8.5804167"><ele>1.0</ele><time>2026-04-26T10:01:12.601Z</time></trkpt><trkpt lat="39.8863717" lon="8.5804583"><ele>1.0</ele><time>2026-04-26T10:01:13.63Z</time></trkpt><trkpt lat="39.8865017" lon="8.5805"><ele>1.0</ele><time>2026-04-26T10:01:14.602Z</time></trkpt><trkpt lat="39.8866317" lon="8.5805433"><ele>1.0</ele><time>2026-04-26T10:01:15.604Z</time></trkpt><trkpt lat="39.8867617" lon="8.5805883"><ele>1.0</ele><time>2026-04-26T10:01:16.606Z</time></trkpt><trkpt lat="39.8868933" lon="8.58063"><ele>1.0</ele><time>2026-04-26T10:01:17.616Z</time></trkpt><trkpt lat="39.8870267" lon="8.58067"><ele>1.25</ele><time>2026-04-26T10:01:18.604Z</time></trkpt><trkpt lat="39.8871617" lon="8.5807083"><ele>1.5</ele><time>2026-04-26T10:01:19.632Z</time></trkpt><trkpt lat="39.8873" lon="8.58074"><ele>1.75</ele><time>2026-04-26T10:01:20.601Z</time></trkpt><trkpt lat="39.8874383" lon="8.580765"><ele>2.0</ele><time>2026-04-26T10:01:21.606Z</time></trkpt><trkpt lat="39.8875767" lon="8.5807833"><ele>1.25</ele><time>2026-04-26T10:01:22.596Z</time></trkpt><trkpt lat="39.88771" lon="8.5808"><ele>0.5</ele><time>2026-04-26T10:01:23.601Z</time></trkpt><trkpt lat="39.8878367" lon="8.58081"><ele>-0.25</ele><time>2026-04-26T10:01:24.604Z</time></trkpt><trkpt lat="39.8879533" lon="8.5808183"><ele>-1.0</ele><time>2026-04-26T10:01:25.656Z</time></trkpt><trkpt lat="39.888065" lon="8.5808233"><ele>-1.0</ele><time>2026-04-26T10:01:26.601Z</time></trkpt><trkpt lat="39.8881683" lon="8.580835"><ele>-1.0</ele><time>2026-04-26T10:01:27.604Z</time></trkpt><trkpt lat="39.888265" lon="8.5808633"><ele>-1.0</ele><time>2026-04-26T10:01:28.6Z</time></trkpt><trkpt lat="39.8883517" lon="8.5809067"><ele>-1.0</ele><time>2026-04-26T10:01:29.602Z</time></trkpt><trkpt lat="39.8884233" lon="8.58097"><ele>-1.0</ele><time>2026-04-26T10:01:30.605Z</time></trkpt><trkpt lat="39.8884667" lon="8.5810783"><ele>-0.6000000000000001</ele><time>2026-04-26T10:01:31.649Z</time></trkpt><trkpt lat="39.8884983" lon="8.5811967"><ele>-0.20000000000000007</ele><time>2026-04-26T10:01:32.592Z</time></trkpt><trkpt lat="39.888515" lon="8.5813367"><ele>0.20000000000000007</ele><time>2026-04-26T10:01:33.611Z</time></trkpt><trkpt lat="39.888525" lon="8.5814867"><ele>0.6000000000000001</ele><time>2026-04-26T10:01:34.602Z</time></trkpt><trkpt lat="39.888535" lon="8.58164"><ele>1.0</ele><time>2026-04-26T10:01:35.599Z</time></trkpt><trkpt lat="39.8885467" lon="8.58179"><ele>1.0</ele><time>2026-04-26T10:01:36.602Z</time></trkpt><trkpt lat="39.88856" lon="8.5819333"><ele>1.0</ele><time>2026-04-26T10:01:37.633Z</time></trkpt><trkpt lat="39.8885783" lon="8.5820717"><ele>1.0</ele><time>2026-04-26T10:01:38.592Z</time></trkpt><trkpt lat="39.8885967" lon="8.5822067"><ele>1.0</ele><time>2026-04-26T10:01:39.594Z</time></trkpt><trkpt lat="39.888635" lon="8.5824767"><ele>1.0</ele><time>2026-04-26T10:01:41.599Z</time></trkpt><trkpt lat="39.8886533" lon="8.5826083"><ele>1.0</ele><time>2026-04-26T10:01:42.595Z</time></trkpt><trkpt lat="39.88867" lon="8.5827383"><ele>1.0</ele><time>2026-04-26T10:01:43.631Z</time></trkpt><trkpt lat="39.8886867" lon="8.5828667"><ele>1.0</ele><time>2026-04-26T10:01:44.599Z</time></trkpt><trkpt lat="39.8887067" lon="8.5829967"><ele>1.0</ele><time>2026-04-26T10:01:45.601Z</time></trkpt><trkpt lat="39.8887267" lon="8.5831317"><ele>1.0</ele><time>2026-04-26T10:01:46.603Z</time></trkpt><trkpt lat="39.8887483" lon="8.5832717"><ele>1.0</ele><time>2026-04-26T10:01:47.596Z</time></trkpt><trkpt lat="39.8887683" lon="8.583415"><ele>1.0</ele><time>2026-04-26T10:01:48.612Z</time></trkpt><trkpt lat="39.8887867" lon="8.5835517"><ele>1.0</ele><time>2026-04-26T10:01:49.635Z</time></trkpt><trkpt lat="39.8888067" lon="8.5836817"><ele>1.0</ele><time>2026-04-26T10:01:50.595Z</time></trkpt><trkpt lat="39.888825" lon="8.5838017"><ele>1.0</ele><time>2026-04-26T10:01:51.605Z</time></trkpt><trkpt lat="39.8888433" lon="8.5839083"><ele>1.0</ele><time>2026-04-26T10:01:52.602Z</time></trkpt><trkpt lat="39.888855" lon="8.584005"><ele>1.0</ele><time>2026-04-26T10:01:53.6Z</time></trkpt><trkpt lat="39.8888583" lon="8.58409"><ele>1.0</ele><time>2026-04-26T10:01:54.606Z</time></trkpt><trkpt lat="39.888845" lon="8.5842517"><ele>1.0</ele><time>2026-04-26T10:01:56.597Z</time></trkpt><trkpt lat="39.88883" lon="8.5844067"><ele>0.9999999999999999</ele><time>2026-04-26T10:01:58.606Z</time></trkpt><trkpt lat="39.8888617" lon="8.58455"><ele>1.0</ele><time>2026-04-26T10:02:00.612Z</time></trkpt><trkpt lat="39.8888983" lon="8.58463"><ele>1.0</ele><time>2026-04-26T10:02:01.659Z</time></trkpt><trkpt lat="39.8889367" lon="8.5847233"><ele>1.0</ele><time>2026-04-26T10:02:02.601Z</time></trkpt><trkpt lat="39.8889683" lon="8.5848283"><ele>0.9999999999999999</ele><time>2026-04-26T10:02:03.599Z</time></trkpt><trkpt lat="39.88899" lon="8.5849383"><ele>1.0</ele><time>2026-04-26T10:02:04.599Z</time></trkpt><trkpt lat="39.889005" lon="8.5850533"><ele>1.0</ele><time>2026-04-26T10:02:05.6Z</time></trkpt><trkpt lat="39.8890183" lon="8.5851767"><ele>1.0</ele><time>2026-04-26T10:02:06.596Z</time></trkpt><trkpt lat="39.889035" lon="8.5853067"><ele>1.0</ele><time>2026-04-26T10:02:07.641Z</time></trkpt><trkpt lat="39.889055" lon="8.58544"><ele>1.0</ele><time>2026-04-26T10:02:08.598Z</time></trkpt><trkpt lat="39.8890767" lon="8.585575"><ele>1.0</ele><time>2026-04-26T10:02:09.596Z</time></trkpt><trkpt lat="39.8890983" lon="8.585705"><ele>2.2</ele><time>2026-04-26T10:02:10.598Z</time></trkpt><trkpt lat="39.8891167" lon="8.5858283"><ele>3.4</ele><time>2026-04-26T10:02:11.598Z</time></trkpt><trkpt lat="39.8891317" lon="8.5859517"><ele>4.6</ele><time>2026-04-26T10:02:12.597Z</time></trkpt><trkpt lat="39.88915" lon="8.5860767"><ele>5.8</ele><time>2026-04-26T10:02:13.637Z</time></trkpt><trkpt lat="39.8891683" lon="8.5862017"><ele>7.0</ele><time>2026-04-26T10:02:14.594Z</time></trkpt><trkpt lat="39.8891867" lon="8.5863267"><ele>7.0</ele><time>2026-04-26T10:02:15.599Z</time></trkpt><trkpt lat="39.8892033" lon="8.5864567"><ele>6.999999999999999</ele><time>2026-04-26T10:02:16.592Z</time></trkpt><trkpt lat="39.8892233" lon="8.58658"><ele>6.999999999999999</ele><time>2026-04-26T10:02:17.597Z</time></trkpt><trkpt lat="39.8892383" lon="8.5867017"><ele>7.0</ele><time>2026-04-26T10:02:18.592Z</time></trkpt><trkpt lat="39.889255" lon="8.5868167"><ele>7.0</ele><time>2026-04-26T10:02:19.637Z</time></trkpt><trkpt lat="39.8892733" lon="8.58693"><ele>7.0</ele><time>2026-04-26T10:02:20.603Z</time></trkpt><trkpt lat="39.8892917" lon="8.5870417"><ele>6.999999999999999</ele><time>2026-04-26T10:02:21.597Z</time></trkpt><trkpt lat="39.8893117" lon="8.5871567"><ele>6.999999999999999</ele><time>2026-04-26T10:02:22.59Z</time></trkpt><trkpt lat="39.8893283" lon="8.58728"><ele>7.0</ele><time>2026-04-26T10:02:23.61Z</time></trkpt><trkpt lat="39.889345" lon="8.587415"><ele>7.0</ele><time>2026-04-26T10:02:24.594Z</time></trkpt><trkpt lat="39.8893583" lon="8.587555"><ele>7.0</ele><time>2026-04-26T10:02:25.663Z</time></trkpt><trkpt lat="39.8893733" lon="8.58769"><ele>6.999999999999999</ele><time>2026-04-26T10:02:26.598Z</time></trkpt><trkpt lat="39.8893917" lon="8.5878167"><ele>6.999999999999999</ele><time>2026-04-26T10:02:27.605Z</time></trkpt><trkpt lat="39.88941" lon="8.5879417"><ele>7.0</ele><time>2026-04-26T10:02:28.609Z</time></trkpt><trkpt lat="39.88943" lon="8.5880683"><ele>7.0</ele><time>2026-04-26T10:02:29.603Z</time></trkpt><trkpt lat="39.8894483" lon="8.5881983"><ele>7.199999999999999</ele><time>2026-04-26T10:02:30.599Z</time></trkpt><trkpt lat="39.8894667" lon="8.5883317"><ele>7.3999999999999995</ele><time>2026-04-26T10:02:31.662Z</time></trkpt><trkpt lat="39.889485" lon="8.588465"><ele>7.6000000000000005</ele><time>2026-04-26T10:02:32.598Z</time></trkpt><trkpt lat="39.8895033" lon="8.5885967"><ele>7.800000000000001</ele><time>2026-04-26T10:02:33.602Z</time></trkpt><trkpt lat="39.8895233" lon="8.5887283"><ele>8.0</ele><time>2026-04-26T10:02:34.595Z</time></trkpt><trkpt lat="39.8895417" lon="8.5888567"><ele>8.0</ele><time>2026-04-26T10:02:35.597Z</time></trkpt><trkpt lat="39.8895617" lon="8.5889867"><ele>8.0</ele><time>2026-04-26T10:02:36.612Z</time></trkpt><trkpt lat="39.8895817" lon="8.5891183"><ele>8.0</ele><time>2026-04-26T10:02:37.641Z</time></trkpt><trkpt lat="39.8896033" lon="8.5892533"><ele>8.0</ele><time>2026-04-26T10:02:38.59Z</time></trkpt><trkpt lat="39.889625" lon="8.5893883"><ele>8.0</ele><time>2026-04-26T10:02:39.601Z</time></trkpt><trkpt lat="39.889645" lon="8.5895233"><ele>8.0</ele><time>2026-04-26T10:02:40.599Z</time></trkpt><trkpt lat="39.8896667" lon="8.5896617"><ele>8.0</ele><time>2026-04-26T10:02:41.604Z</time></trkpt><trkpt lat="39.8896883" lon="8.5898017"><ele>8.0</ele><time>2026-04-26T10:02:42.603Z</time></trkpt><trkpt lat="39.88971" lon="8.589945"><ele>8.0</ele><time>2026-04-26T10:02:43.641Z</time></trkpt><trkpt lat="39.8897283" lon="8.5900883"><ele>8.0</ele><time>2026-04-26T10:02:44.599Z</time></trkpt><trkpt lat="39.8897483" lon="8.5902317"><ele>7.800000000000001</ele><time>2026-04-26T10:02:45.607Z</time></trkpt><trkpt lat="39.8897683" lon="8.5903817"><ele>7.6000000000000005</ele><time>2026-04-26T10:02:46.598Z</time></trkpt><trkpt lat="39.8897883" lon="8.5905217"><ele>7.3999999999999995</ele><time>2026-04-26T10:02:47.594Z</time></trkpt><trkpt lat="39.8898067" lon="8.59066"><ele>7.199999999999999</ele><time>2026-04-26T10:02:48.598Z</time></trkpt><trkpt lat="39.889825" lon="8.5907983"><ele>7.0</ele><time>2026-04-26T10:02:49.638Z</time></trkpt><trkpt lat="39.889845" lon="8.5909367"><ele>7.0</ele><time>2026-04-26T10:02:50.597Z</time></trkpt><trkpt lat="39.8898633" lon="8.5910783"><ele>6.999999999999999</ele><time>2026-04-26T10:02:51.593Z</time></trkpt><trkpt lat="39.8898817" lon="8.5912217"><ele>6.999999999999999</ele><time>2026-04-26T10:02:52.602Z</time></trkpt><trkpt lat="39.8899017" lon="8.5913667"><ele>7.0</ele><time>2026-04-26T10:02:53.599Z</time></trkpt><trkpt lat="39.8899217" lon="8.5915117"><ele>7.0</ele><time>2026-04-26T10:02:54.6Z</time></trkpt><trkpt lat="39.88994" lon="8.5916583"><ele>7.3999999999999995</ele><time>2026-04-26T10:02:55.658Z</time></trkpt><trkpt lat="39.88996" lon="8.591805"><ele>7.799999999999999</ele><time>2026-04-26T10:02:56.598Z</time></trkpt><trkpt lat="39.8899783" lon="8.59195"><ele>8.2</ele><time>2026-04-26T10:02:57.593Z</time></trkpt><trkpt lat="39.8899967" lon="8.5920917"><ele>8.6</ele><time>2026-04-26T10:02:58.595Z</time></trkpt><trkpt lat="39.8900183" lon="8.5922333"><ele>9.0</ele><time>2026-04-26T10:02:59.6Z</time></trkpt><trkpt lat="39.89004" lon="8.5923717"><ele>9.4</ele><time>2026-04-26T10:03:00.597Z</time></trkpt><trkpt lat="39.8900617" lon="8.5925067"><ele>9.8</ele><time>2026-04-26T10:03:01.658Z</time></trkpt><trkpt lat="39.8900817" lon="8.5926467"><ele>10.200000000000001</ele><time>2026-04-26T10:03:02.598Z</time></trkpt><trkpt lat="39.8901017" lon="8.5927867"><ele>10.600000000000001</ele><time>2026-04-26T10:03:03.596Z</time></trkpt><trkpt lat="39.8901233" lon="8.592935"><ele>11.0</ele><time>2026-04-26T10:03:04.6Z</time></trkpt><trkpt lat="39.8901433" lon="8.5930817"><ele>11.0</ele><time>2026-04-26T10:03:05.596Z</time></trkpt><trkpt lat="39.890165" lon="8.5932317"><ele>11.0</ele><time>2026-04-26T10:03:06.595Z</time></trkpt><trkpt lat="39.8901883" lon="8.5933833"><ele>11.0</ele><time>2026-04-26T10:03:07.655Z</time></trkpt><trkpt lat="39.8902083" lon="8.59353"><ele>11.0</ele><time>2026-04-26T10:03:08.6Z</time></trkpt><trkpt lat="39.89023" lon="8.5936783"><ele>10.25</ele><time>2026-04-26T10:03:09.598Z</time></trkpt><trkpt lat="39.8902517" lon="8.5938317"><ele>9.5</ele><time>2026-04-26T10:03:10.593Z</time></trkpt><trkpt lat="39.8902733" lon="8.5939867"><ele>8.75</ele><time>2026-04-26T10:03:11.6Z</time></trkpt><trkpt lat="39.890295" lon="8.5941417"><ele>8.0</ele><time>2026-04-26T10:03:12.593Z</time></trkpt><trkpt lat="39.8903183" lon="8.5942967"><ele>8.0</ele><time>2026-04-26T10:03:13.651Z</time></trkpt><trkpt lat="39.8903383" lon="8.5944533"><ele>8.0</ele><time>2026-04-26T10:03:14.591Z</time></trkpt><trkpt lat="39.8903617" lon="8.5946083"><ele>8.0</ele><time>2026-04-26T10:03:15.602Z</time></trkpt><trkpt lat="39.890385" lon="8.59476"><ele>8.0</ele><time>2026-04-26T10:03:16.609Z</time></trkpt><trkpt lat="39.8904067" lon="8.5949133"><ele>8.0</ele><time>2026-04-26T10:03:17.606Z</time></trkpt><trkpt lat="39.8904267" lon="8.595065"><ele>8.0</ele><time>2026-04-26T10:03:18.6Z</time></trkpt><trkpt lat="39.8904483" lon="8.5952117"><ele>8.0</ele><time>2026-04-26T10:03:19.655Z</time></trkpt><trkpt lat="39.8904683" lon="8.5953533"><ele>8.0</ele><time>2026-04-26T10:03:20.602Z</time></trkpt><trkpt lat="39.89049" lon="8.595485"><ele>8.0</ele><time>2026-04-26T10:03:21.608Z</time></trkpt><trkpt lat="39.8905117" lon="8.5956"><ele>7.800000000000001</ele><time>2026-04-26T10:03:22.601Z</time></trkpt><trkpt lat="39.8905333" lon="8.5957033"><ele>7.6000000000000005</ele><time>2026-04-26T10:03:23.6Z</time></trkpt><trkpt lat="39.8905533" lon="8.5957967"><ele>7.3999999999999995</ele><time>2026-04-26T10:03:24.599Z</time></trkpt><trkpt lat="39.8905717" lon="8.5958817"><ele>7.199999999999999</ele><time>2026-04-26T10:03:25.661Z</time></trkpt><trkpt lat="39.8905967" lon="8.596025"><ele>7.0</ele><time>2026-04-26T10:03:27.602Z</time></trkpt><trkpt lat="39.8905983" lon="8.5961733"><ele>7.000000000000001</ele><time>2026-04-26T10:03:29.6Z</time></trkpt><trkpt lat="39.8905967" lon="8.5962567"><ele>7.0</ele><time>2026-04-26T10:03:30.599Z</time></trkpt><trkpt lat="39.8906317" lon="8.5964067"><ele>7.0</ele><time>2026-04-26T10:03:32.597Z</time></trkpt><trkpt lat="39.8906767" lon="8.5964667"><ele>7.0</ele><time>2026-04-26T10:03:33.595Z</time></trkpt><trkpt lat="39.8907333" lon="8.5965367"><ele>7.000000000000001</ele><time>2026-04-26T10:03:34.589Z</time></trkpt><trkpt lat="39.8907917" lon="8.5966167"><ele>7.0</ele><time>2026-04-26T10:03:35.604Z</time></trkpt><trkpt lat="39.8908483" lon="8.5967133"><ele>7.0</ele><time>2026-04-26T10:03:36.599Z</time></trkpt><trkpt lat="39.8908967" lon="8.5968183"><ele>6.999999999999999</ele><time>2026-04-26T10:03:37.653Z</time></trkpt><trkpt lat="39.8909383" lon="8.5969267"><ele>6.999999999999999</ele><time>2026-04-26T10:03:38.602Z</time></trkpt><trkpt lat="39.89098" lon="8.597035"><ele>7.0</ele><time>2026-04-26T10:03:39.598Z</time></trkpt><trkpt lat="39.891025" lon="8.5971417"><ele>7.0</ele><time>2026-04-26T10:03:40.602Z</time></trkpt><trkpt lat="39.8910683" lon="8.5972433"><ele>7.166666666666667</ele><time>2026-04-26T10:03:41.603Z</time></trkpt><trkpt lat="39.8911117" lon="8.59734"><ele>7.333333333333334</ele><time>2026-04-26T10:03:42.599Z</time></trkpt><trkpt lat="39.8911533" lon="8.59744"><ele>7.5</ele><time>2026-04-26T10:03:43.651Z</time></trkpt><trkpt lat="39.8911933" lon="8.59754"><ele>7.666666666666666</ele><time>2026-04-26T10:03:44.604Z</time></trkpt><trkpt lat="39.8912317" lon="8.5976417"><ele>7.833333333333333</ele><time>2026-04-26T10:03:45.601Z</time></trkpt><trkpt lat="39.89127" lon="8.597735"><ele>8.0</ele><time>2026-04-26T10:03:46.603Z</time></trkpt><trkpt lat="39.8913083" lon="8.5978283"><ele>8.0</ele><time>2026-04-26T10:03:47.603Z</time></trkpt><trkpt lat="39.8913467" lon="8.5979233"><ele>8.0</ele><time>2026-04-26T10:03:48.598Z</time></trkpt><trkpt lat="39.8913817" lon="8.598015"><ele>8.0</ele><time>2026-04-26T10:03:49.65Z</time></trkpt><trkpt lat="39.891415" lon="8.5980967"><ele>8.0</ele><time>2026-04-26T10:03:50.594Z</time></trkpt><trkpt lat="39.8914733" lon="8.5982267"><ele>8.0</ele><time>2026-04-26T10:03:52.605Z</time></trkpt><trkpt lat="39.891525" lon="8.5983583"><ele>7.999999999999999</ele><time>2026-04-26T10:03:54.6Z</time></trkpt><trkpt lat="39.89155" lon="8.598435"><ele>8.0</ele><time>2026-04-26T10:03:55.655Z</time></trkpt><trkpt lat="39.8915667" lon="8.59852"><ele>8.0</ele><time>2026-04-26T10:03:56.593Z</time></trkpt><trkpt lat="39.891575" lon="8.598605"><ele>8.0</ele><time>2026-04-26T10:03:57.595Z</time></trkpt><trkpt lat="39.8915767" lon="8.5987633"><ele>7.999999999999999</ele><time>2026-04-26T10:03:59.606Z</time></trkpt><trkpt lat="39.8915833" lon="8.5988817"><ele>8.0</ele><time>2026-04-26T10:04:01.649Z</time></trkpt><trkpt lat="39.891625" lon="8.5989633"><ele>8.333333333333332</ele><time>2026-04-26T10:04:04.597Z</time></trkpt><trkpt lat="39.89169" lon="8.5990217"><ele>8.666666666666666</ele><time>2026-04-26T10:04:06.602Z</time></trkpt><trkpt lat="39.89178" lon="8.59904"><ele>9.0</ele><time>2026-04-26T10:04:08.601Z</time></trkpt><trkpt lat="39.8919" lon="8.5989983"><ele>9.333333333333334</ele><time>2026-04-26T10:04:10.596Z</time></trkpt><trkpt lat="39.8919667" lon="8.5989533"><ele>9.666666666666668</ele><time>2026-04-26T10:04:11.601Z</time></trkpt><trkpt lat="39.8920367" lon="8.5989033"><ele>10.0</ele><time>2026-04-26T10:04:12.598Z</time></trkpt><trkpt lat="39.8921017" lon="8.5988567"><ele>10.0</ele><time>2026-04-26T10:04:13.651Z</time></trkpt><trkpt lat="39.8921633" lon="8.5988167"><ele>10.0</ele><time>2026-04-26T10:04:14.598Z</time></trkpt><trkpt lat="39.8922233" lon="8.5987783"><ele>10.0</ele><time>2026-04-26T10:04:15.599Z</time></trkpt><trkpt lat="39.89228" lon="8.5987383"><ele>10.0</ele><time>2026-04-26T10:04:16.6Z</time></trkpt><trkpt lat="39.89237" lon="8.5986783"><ele>10.0</ele><time>2026-04-26T10:04:18.601Z</time></trkpt><trkpt lat="39.8924467" lon="8.59863"><ele>10.0</ele><time>2026-04-26T10:04:21.6Z</time></trkpt><trkpt lat="39.8925533" lon="8.5985717"><ele>10.333333333333334</ele><time>2026-04-26T10:04:35.6Z</time></trkpt><trkpt lat="39.8926167" lon="8.5985717"><ele>10.666666666666668</ele><time>2026-04-26T10:04:37.657Z</time></trkpt><trkpt lat="39.8926783" lon="8.598645"><ele>11.0</ele><time>2026-04-26T10:04:39.601Z</time></trkpt><trkpt lat="39.89271" lon="8.5987217"><ele>11.333333333333334</ele><time>2026-04-26T10:04:40.605Z</time></trkpt><trkpt lat="39.892745" lon="8.59881"><ele>11.666666666666666</ele><time>2026-04-26T10:04:41.593Z</time></trkpt><trkpt lat="39.8927883" lon="8.5989017"><ele>12.0</ele><time>2026-04-26T10:04:42.597Z</time></trkpt><trkpt lat="39.892835" lon="8.5989983"><ele>12.0</ele><time>2026-04-26T10:04:43.647Z</time></trkpt><trkpt lat="39.89288" lon="8.5990983"><ele>12.0</ele><time>2026-04-26T10:04:44.589Z</time></trkpt><trkpt lat="39.892925" lon="8.59919"><ele>12.0</ele><time>2026-04-26T10:04:45.601Z</time></trkpt><trkpt lat="39.8929733" lon="8.5992783"><ele>12.0</ele><time>2026-04-26T10:04:46.594Z</time></trkpt><trkpt lat="39.8930217" lon="8.59937"><ele>12.0</ele><time>2026-04-26T10:04:47.6Z</time></trkpt><trkpt lat="39.8930683" lon="8.5994667"><ele>12.0</ele><time>2026-04-26T10:04:48.6Z</time></trkpt><trkpt lat="39.8931117" lon="8.5995567"><ele>12.0</ele><time>2026-04-26T10:04:49.649Z</time></trkpt><trkpt lat="39.89315" lon="8.59964"><ele>12.0</ele><time>2026-04-26T10:04:50.592Z</time></trkpt><trkpt lat="39.8931983" lon="8.5997133"><ele>12.0</ele><time>2026-04-26T10:04:51.599Z</time></trkpt><trkpt lat="39.8932517" lon="8.599775"><ele>12.0</ele><time>2026-04-26T10:04:52.592Z</time></trkpt><trkpt lat="39.89331" lon="8.5998367"><ele>12.0</ele><time>2026-04-26T10:04:53.596Z</time></trkpt><trkpt lat="39.8933717" lon="8.599895"><ele>12.0</ele><time>2026-04-26T10:04:54.601Z</time></trkpt><trkpt lat="39.8934433" lon="8.5999517"><ele>11.833333333333334</ele><time>2026-04-26T10:04:55.661Z</time></trkpt><trkpt lat="39.8935217" lon="8.6000033"><ele>11.666666666666666</ele><time>2026-04-26T10:04:56.595Z</time></trkpt><trkpt lat="39.8935967" lon="8.60005"><ele>11.5</ele><time>2026-04-26T10:04:57.595Z</time></trkpt><trkpt lat="39.8936733" lon="8.600095"><ele>11.333333333333332</ele><time>2026-04-26T10:04:58.598Z</time></trkpt><trkpt lat="39.893755" lon="8.6001383"><ele>11.166666666666666</ele><time>2026-04-26T10:04:59.595Z</time></trkpt><trkpt lat="39.893835" lon="8.6001833"><ele>11.0</ele><time>2026-04-26T10:05:00.595Z</time></trkpt><trkpt lat="39.8939067" lon="8.6002283"><ele>11.0</ele><time>2026-04-26T10:05:01.653Z</time></trkpt><trkpt lat="39.8939717" lon="8.6002717"><ele>11.0</ele><time>2026-04-26T10:05:02.595Z</time></trkpt><trkpt lat="39.8940333" lon="8.600305"><ele>11.0</ele><time>2026-04-26T10:05:03.602Z</time></trkpt><trkpt lat="39.8940933" lon="8.6003333"><ele>11.0</ele><time>2026-04-26T10:05:04.592Z</time></trkpt><trkpt lat="39.8941567" lon="8.6003667"><ele>11.0</ele><time>2026-04-26T10:05:05.6Z</time></trkpt><trkpt lat="39.8942167" lon="8.600405"><ele>11.0</ele><time>2026-04-26T10:05:06.596Z</time></trkpt><trkpt lat="39.8942833" lon="8.6004517"><ele>11.0</ele><time>2026-04-26T10:05:07.649Z</time></trkpt><trkpt lat="39.8943583" lon="8.6005017"><ele>11.0</ele><time>2026-04-26T10:05:08.593Z</time></trkpt><trkpt lat="39.8944383" lon="8.600555"><ele>11.0</ele><time>2026-04-26T10:05:09.594Z</time></trkpt><trkpt lat="39.8945133" lon="8.600605"><ele>11.0</ele><time>2026-04-26T10:05:10.6Z</time></trkpt><trkpt lat="39.8945917" lon="8.60065"><ele>11.0</ele><time>2026-04-26T10:05:11.597Z</time></trkpt><trkpt lat="39.894675" lon="8.6006967"><ele>11.0</ele><time>2026-04-26T10:05:12.598Z</time></trkpt><trkpt lat="39.89475" lon="8.6007433"><ele>11.0</ele><time>2026-04-26T10:05:13.647Z</time></trkpt><trkpt lat="39.894825" lon="8.60079"><ele>11.0</ele><time>2026-04-26T10:05:14.595Z</time></trkpt><trkpt lat="39.8949" lon="8.6008367"><ele>11.0</ele><time>2026-04-26T10:05:15.592Z</time></trkpt><trkpt lat="39.89497" lon="8.60088"><ele>11.0</ele><time>2026-04-26T10:05:16.587Z</time></trkpt><trkpt lat="39.89504" lon="8.60092"><ele>11.0</ele><time>2026-04-26T10:05:17.6Z</time></trkpt><trkpt lat="39.8951083" lon="8.6009667"><ele>11.0</ele><time>2026-04-26T10:05:18.595Z</time></trkpt><trkpt lat="39.895175" lon="8.6010133"><ele>11.0</ele><time>2026-04-26T10:05:19.648Z</time></trkpt><trkpt lat="39.895245" lon="8.60106"><ele>11.142857142857142</ele><time>2026-04-26T10:05:20.598Z</time></trkpt><trkpt lat="39.8953133" lon="8.6011083"><ele>11.285714285714285</ele><time>2026-04-26T10:05:21.598Z</time></trkpt><trkpt lat="39.8953817" lon="8.60116"><ele>11.428571428571427</ele><time>2026-04-26T10:05:22.6Z</time></trkpt><trkpt lat="39.89545" lon="8.6012083"><ele>11.571428571428571</ele><time>2026-04-26T10:05:23.603Z</time></trkpt><trkpt lat="39.89551" lon="8.601245"><ele>11.714285714285714</ele><time>2026-04-26T10:05:24.601Z</time></trkpt><trkpt lat="39.89557" lon="8.6012817"><ele>11.857142857142856</ele><time>2026-04-26T10:05:25.663Z</time></trkpt><trkpt lat="39.89563" lon="8.601325"><ele>12.0</ele><time>2026-04-26T10:05:26.595Z</time></trkpt><trkpt lat="39.8956917" lon="8.60138"><ele>12.166666666666666</ele><time>2026-04-26T10:05:27.6Z</time></trkpt><trkpt lat="39.8957517" lon="8.60145"><ele>12.333333333333332</ele><time>2026-04-26T10:05:28.598Z</time></trkpt><trkpt lat="39.89581" lon="8.6015267"><ele>12.5</ele><time>2026-04-26T10:05:29.598Z</time></trkpt><trkpt lat="39.89586" lon="8.601615"><ele>12.666666666666666</ele><time>2026-04-26T10:05:30.602Z</time></trkpt><trkpt lat="39.8959017" lon="8.6017067"><ele>12.833333333333332</ele><time>2026-04-26T10:05:31.659Z</time></trkpt><trkpt lat="39.89594" lon="8.6018"><ele>13.0</ele><time>2026-04-26T10:05:32.603Z</time></trkpt><trkpt lat="39.8959767" lon="8.60189"><ele>12.999999999999998</ele><time>2026-04-26T10:05:33.6Z</time></trkpt><trkpt lat="39.896015" lon="8.6019783"><ele>13.0</ele><time>2026-04-26T10:05:34.605Z</time></trkpt><trkpt lat="39.89605" lon="8.60207"><ele>13.0</ele><time>2026-04-26T10:05:35.605Z</time></trkpt><trkpt lat="39.896085" lon="8.6021617"><ele>13.0</ele><time>2026-04-26T10:05:36.591Z</time></trkpt><trkpt lat="39.8961267" lon="8.6022483"><ele>12.999999999999998</ele><time>2026-04-26T10:05:37.652Z</time></trkpt><trkpt lat="39.8961783" lon="8.6023283"><ele>13.0</ele><time>2026-04-26T10:05:38.594Z</time></trkpt><trkpt lat="39.8962383" lon="8.6024033"><ele>12.999999999999998</ele><time>2026-04-26T10:05:39.597Z</time></trkpt><trkpt lat="39.896305" lon="8.602475"><ele>13.0</ele><time>2026-04-26T10:05:40.602Z</time></trkpt><trkpt lat="39.8963733" lon="8.6025483"><ele>13.0</ele><time>2026-04-26T10:05:41.598Z</time></trkpt><trkpt lat="39.89644" lon="8.6026233"><ele>13.0</ele><time>2026-04-26T10:05:42.6Z</time></trkpt><trkpt lat="39.89651" lon="8.6027017"><ele>12.999999999999998</ele><time>2026-04-26T10:05:43.655Z</time></trkpt><trkpt lat="39.89658" lon="8.6027783"><ele>13.0</ele><time>2026-04-26T10:05:44.592Z</time></trkpt><trkpt lat="39.89665" lon="8.60286"><ele>13.166666666666666</ele><time>2026-04-26T10:05:45.593Z</time></trkpt><trkpt lat="39.896715" lon="8.602935"><ele>13.333333333333332</ele><time>2026-04-26T10:05:46.59Z</time></trkpt><trkpt lat="39.8967767" lon="8.6030117"><ele>13.5</ele><time>2026-04-26T10:05:47.604Z</time></trkpt><trkpt lat="39.89684" lon="8.6030867"><ele>13.666666666666668</ele><time>2026-04-26T10:05:48.596Z</time></trkpt><trkpt lat="39.8969017" lon="8.603165"><ele>13.833333333333334</ele><time>2026-04-26T10:05:49.644Z</time></trkpt><trkpt lat="39.8969583" lon="8.6032483"><ele>14.0</ele><time>2026-04-26T10:05:50.597Z</time></trkpt><trkpt lat="39.8970183" lon="8.603325"><ele>13.714285714285714</ele><time>2026-04-26T10:05:51.598Z</time></trkpt><trkpt lat="39.8970767" lon="8.60339"><ele>13.428571428571429</ele><time>2026-04-26T10:05:52.601Z</time></trkpt><trkpt lat="39.897125" lon="8.6034533"><ele>13.142857142857142</ele><time>2026-04-26T10:05:53.597Z</time></trkpt><trkpt lat="39.897175" lon="8.6035117"><ele>12.857142857142858</ele><time>2026-04-26T10:05:54.591Z</time></trkpt><trkpt lat="39.897225" lon="8.6035617"><ele>12.571428571428571</ele><time>2026-04-26T10:05:55.646Z</time></trkpt><trkpt lat="39.8972783" lon="8.6036067"><ele>12.285714285714285</ele><time>2026-04-26T10:05:56.59Z</time></trkpt><trkpt lat="39.8973417" lon="8.6036383"><ele>12.0</ele><time>2026-04-26T10:05:57.599Z</time></trkpt><trkpt lat="39.8974067" lon="8.6036567"><ele>12.0</ele><time>2026-04-26T10:05:58.597Z</time></trkpt><trkpt lat="39.8974767" lon="8.6036483"><ele>12.0</ele><time>2026-04-26T10:05:59.599Z</time></trkpt><trkpt lat="39.8975467" lon="8.603615"><ele>12.0</ele><time>2026-04-26T10:06:00.602Z</time></trkpt><trkpt lat="39.8976067" lon="8.6035783"><ele>12.0</ele><time>2026-04-26T10:06:01.646Z</time></trkpt><trkpt lat="39.8977083" lon="8.6035083"><ele>12.0</ele><time>2026-04-26T10:06:03.594Z</time></trkpt><trkpt lat="39.8978017" lon="8.6034283"><ele>12.0</ele><time>2026-04-26T10:06:05.603Z</time></trkpt><trkpt lat="39.89791" lon="8.6033667"><ele>12.0</ele><time>2026-04-26T10:06:07.651Z</time></trkpt><trkpt lat="39.8980117" lon="8.6033133"><ele>12.0</ele><time>2026-04-26T10:06:09.59Z</time></trkpt><trkpt lat="39.8981067" lon="8.603285"><ele>12.0</ele><time>2026-04-26T10:06:11.594Z</time></trkpt><trkpt lat="39.8982167" lon="8.6032417"><ele>12.0</ele><time>2026-04-26T10:06:13.66Z</time></trkpt><trkpt lat="39.8982717" lon="8.60319"><ele>12.0</ele><time>2026-04-26T10:06:14.597Z</time></trkpt><trkpt lat="39.89832" lon="8.6031233"><ele>12.0</ele><time>2026-04-26T10:06:15.604Z</time></trkpt><trkpt lat="39.8983667" lon="8.6030567"><ele>12.0</ele><time>2026-04-26T10:06:16.595Z</time></trkpt><trkpt lat="39.8984167" lon="8.602995"><ele>12.0</ele><time>2026-04-26T10:06:17.603Z</time></trkpt><trkpt lat="39.898475" lon="8.60293"><ele>12.0</ele><time>2026-04-26T10:06:18.597Z</time></trkpt><trkpt lat="39.898545" lon="8.6028567"><ele>12.0</ele><time>2026-04-26T10:06:19.649Z</time></trkpt><trkpt lat="39.89862" lon="8.6027817"><ele>12.0</ele><time>2026-04-26T10:06:20.594Z</time></trkpt><trkpt lat="39.8986933" lon="8.6027083"><ele>12.166666666666666</ele><time>2026-04-26T10:06:21.597Z</time></trkpt><trkpt lat="39.8987667" lon="8.6026433"><ele>12.333333333333332</ele><time>2026-04-26T10:06:22.603Z</time></trkpt><trkpt lat="39.8988333" lon="8.6025833"><ele>12.5</ele><time>2026-04-26T10:06:23.591Z</time></trkpt><trkpt lat="39.8988967" lon="8.602515"><ele>12.666666666666666</ele><time>2026-04-26T10:06:24.598Z</time></trkpt><trkpt lat="39.8989633" lon="8.60245"><ele>12.833333333333332</ele><time>2026-04-26T10:06:25.663Z</time></trkpt><trkpt lat="39.8990283" lon="8.602385"><ele>13.0</ele><time>2026-04-26T10:06:26.605Z</time></trkpt><trkpt lat="39.899095" lon="8.60232"><ele>12.999999999999998</ele><time>2026-04-26T10:06:27.599Z</time></trkpt><trkpt lat="39.8991617" lon="8.6022533"><ele>13.0</ele><time>2026-04-26T10:06:28.593Z</time></trkpt><trkpt lat="39.8992317" lon="8.6021967"><ele>13.0</ele><time>2026-04-26T10:06:29.598Z</time></trkpt><trkpt lat="39.8993017" lon="8.60214"><ele>13.0</ele><time>2026-04-26T10:06:30.597Z</time></trkpt><trkpt lat="39.89937" lon="8.602085"><ele>12.999999999999998</ele><time>2026-04-26T10:06:31.646Z</time></trkpt><trkpt lat="39.899435" lon="8.6020333"><ele>13.0</ele><time>2026-04-26T10:06:32.589Z</time></trkpt><trkpt lat="39.8995" lon="8.6019817"><ele>13.0</ele><time>2026-04-26T10:06:33.595Z</time></trkpt><trkpt lat="39.8995633" lon="8.6019267"><ele>13.0</ele><time>2026-04-26T10:06:34.601Z</time></trkpt><trkpt lat="39.8996267" lon="8.6018683"><ele>13.0</ele><time>2026-04-26T10:06:35.592Z</time></trkpt><trkpt lat="39.8996883" lon="8.6018083"><ele>13.0</ele><time>2026-04-26T10:06:36.603Z</time></trkpt><trkpt lat="39.899745" lon="8.6017533"><ele>13.0</ele><time>2026-04-26T10:06:37.647Z</time></trkpt><trkpt lat="39.8998017" lon="8.6016967"><ele>13.0</ele><time>2026-04-26T10:06:38.594Z</time></trkpt><trkpt lat="39.8998583" lon="8.6016383"><ele>13.0</ele><time>2026-04-26T10:06:39.607Z</time></trkpt><trkpt lat="39.8999217" lon="8.6015767"><ele>12.999999999999998</ele><time>2026-04-26T10:06:40.603Z</time></trkpt><trkpt lat="39.89999" lon="8.60151"><ele>13.0</ele><time>2026-04-26T10:06:41.601Z</time></trkpt><trkpt lat="39.9000583" lon="8.6014417"><ele>13.0</ele><time>2026-04-26T10:06:42.597Z</time></trkpt><trkpt lat="39.900125" lon="8.6013783"><ele>13.0</ele><time>2026-04-26T10:06:43.664Z</time></trkpt><trkpt lat="39.90019" lon="8.6013167"><ele>12.999999999999998</ele><time>2026-04-26T10:06:44.596Z</time></trkpt><trkpt lat="39.9002533" lon="8.6012467"><ele>13.0</ele><time>2026-04-26T10:06:45.604Z</time></trkpt><trkpt lat="39.9003183" lon="8.6011717"><ele>12.999999999999998</ele><time>2026-04-26T10:06:46.607Z</time></trkpt><trkpt lat="39.9003833" lon="8.6011017"><ele>13.0</ele><time>2026-04-26T10:06:47.602Z</time></trkpt><trkpt lat="39.9004517" lon="8.601035"><ele>13.0</ele><time>2026-04-26T10:06:48.594Z</time></trkpt><trkpt lat="39.900515" lon="8.60097"><ele>13.0</ele><time>2026-04-26T10:06:49.652Z</time></trkpt><trkpt lat="39.9005833" lon="8.60091"><ele>12.999999999999998</ele><time>2026-04-26T10:06:50.592Z</time></trkpt><trkpt lat="39.9006583" lon="8.6008517"><ele>13.0</ele><time>2026-04-26T10:06:51.592Z</time></trkpt><trkpt lat="39.9007367" lon="8.6007917"><ele>12.999999999999998</ele><time>2026-04-26T10:06:52.593Z</time></trkpt><trkpt lat="39.900815" lon="8.6007267"><ele>13.0</ele><time>2026-04-26T10:06:53.594Z</time></trkpt><trkpt lat="39.9008867" lon="8.6006667"><ele>13.0</ele><time>2026-04-26T10:06:54.599Z</time></trkpt><trkpt lat="39.9009583" lon="8.6006133"><ele>13.0</ele><time>2026-04-26T10:06:55.661Z</time></trkpt><trkpt lat="39.901025" lon="8.6005583"><ele>12.999999999999998</ele><time>2026-04-26T10:06:56.601Z</time></trkpt><trkpt lat="39.9010867" lon="8.6005033"><ele>13.0</ele><time>2026-04-26T10:06:57.595Z</time></trkpt><trkpt lat="39.9011417" lon="8.6004417"><ele>12.833333333333332</ele><time>2026-04-26T10:06:58.606Z</time></trkpt><trkpt lat="39.9012" lon="8.6003867"><ele>12.666666666666666</ele><time>2026-04-26T10:06:59.595Z</time></trkpt><trkpt lat="39.9012633" lon="8.600335"><ele>12.5</ele><time>2026-04-26T10:07:00.601Z</time></trkpt><trkpt lat="39.9013333" lon="8.6002833"><ele>12.333333333333332</ele><time>2026-04-26T10:07:01.649Z</time></trkpt><trkpt lat="39.9014117" lon="8.6002367"><ele>12.166666666666666</ele><time>2026-04-26T10:07:02.594Z</time></trkpt><trkpt lat="39.9014917" lon="8.600195"><ele>12.0</ele><time>2026-04-26T10:07:03.596Z</time></trkpt><trkpt lat="39.9015733" lon="8.6001483"><ele>12.0</ele><time>2026-04-26T10:07:04.598Z</time></trkpt><trkpt lat="39.901655" lon="8.6001017"><ele>12.0</ele><time>2026-04-26T10:07:05.601Z</time></trkpt><trkpt lat="39.9017333" lon="8.600055"><ele>12.0</ele><time>2026-04-26T10:07:06.598Z</time></trkpt><trkpt lat="39.9018" lon="8.5999983"><ele>12.0</ele><time>2026-04-26T10:07:07.651Z</time></trkpt><trkpt lat="39.9018583" lon="8.5999517"><ele>12.0</ele><time>2026-04-26T10:07:08.6Z</time></trkpt><trkpt lat="39.90194" lon="8.599895"><ele>12.0</ele><time>2026-04-26T10:07:10.595Z</time></trkpt><trkpt lat="39.9020083" lon="8.5998333"><ele>11.8</ele><time>2026-04-26T10:07:13.653Z</time></trkpt><trkpt lat="39.9020733" lon="8.59977"><ele>11.6</ele><time>2026-04-26T10:07:16.607Z</time></trkpt><trkpt lat="39.9021583" lon="8.59977"><ele>11.4</ele><time>2026-04-26T10:07:19.647Z</time></trkpt><trkpt lat="39.9022267" lon="8.5998683"><ele>11.200000000000001</ele><time>2026-04-26T10:07:21.598Z</time></trkpt><trkpt lat="39.9022783" lon="8.5999883"><ele>11.0</ele><time>2026-04-26T10:07:23.604Z</time></trkpt><trkpt lat="39.9023317" lon="8.6001133"><ele>11.0</ele><time>2026-04-26T10:07:25.658Z</time></trkpt><trkpt lat="39.902385" lon="8.6002167"><ele>11.0</ele><time>2026-04-26T10:07:27.594Z</time></trkpt><trkpt lat="39.902445" lon="8.6002867"><ele>11.0</ele><time>2026-04-26T10:07:30.595Z</time></trkpt><trkpt lat="39.9025117" lon="8.60037"><ele>11.0</ele><time>2026-04-26T10:07:32.596Z</time></trkpt><trkpt lat="39.9025917" lon="8.6004733"><ele>11.0</ele><time>2026-04-26T10:07:34.602Z</time></trkpt><trkpt lat="39.9026283" lon="8.6005467"><ele>11.0</ele><time>2026-04-26T10:07:35.6Z</time></trkpt><trkpt lat="39.9026683" lon="8.6006367"><ele>11.4</ele><time>2026-04-26T10:07:36.603Z</time></trkpt><trkpt lat="39.902715" lon="8.60073"><ele>11.8</ele><time>2026-04-26T10:07:37.652Z</time></trkpt><trkpt lat="39.9027667" lon="8.60083"><ele>12.200000000000001</ele><time>2026-04-26T10:07:38.598Z</time></trkpt><trkpt lat="39.902815" lon="8.60094"><ele>12.600000000000001</ele><time>2026-04-26T10:07:39.602Z</time></trkpt><trkpt lat="39.9028583" lon="8.601055"><ele>13.0</ele><time>2026-04-26T10:07:40.594Z</time></trkpt><trkpt lat="39.9028983" lon="8.6011833"><ele>13.0</ele><time>2026-04-26T10:07:41.598Z</time></trkpt><trkpt lat="39.9029367" lon="8.6013083"><ele>13.0</ele><time>2026-04-26T10:07:42.602Z</time></trkpt><trkpt lat="39.9029733" lon="8.6014317"><ele>13.0</ele><time>2026-04-26T10:07:43.646Z</time></trkpt><trkpt lat="39.9030117" lon="8.60155"><ele>13.0</ele><time>2026-04-26T10:07:44.592Z</time></trkpt><trkpt lat="39.9030467" lon="8.6016667"><ele>13.0</ele><time>2026-04-26T10:07:45.596Z</time></trkpt><trkpt lat="39.9030833" lon="8.6017767"><ele>13.0</ele><time>2026-04-26T10:07:46.59Z</time></trkpt><trkpt lat="39.9031183" lon="8.6018883"><ele>13.0</ele><time>2026-04-26T10:07:47.591Z</time></trkpt><trkpt lat="39.9031633" lon="8.6019933"><ele>13.0</ele><time>2026-04-26T10:07:48.592Z</time></trkpt><trkpt lat="39.90321" lon="8.6020983"><ele>13.0</ele><time>2026-04-26T10:07:49.655Z</time></trkpt><trkpt lat="39.9032567" lon="8.6022"><ele>13.0</ele><time>2026-04-26T10:07:50.594Z</time></trkpt><trkpt lat="39.9033067" lon="8.6023"><ele>12.833333333333332</ele><time>2026-04-26T10:07:51.613Z</time></trkpt><trkpt lat="39.9033533" lon="8.602395"><ele>12.666666666666666</ele><time>2026-04-26T10:07:52.595Z</time></trkpt><trkpt lat="39.9033983" lon="8.6024883"><ele>12.5</ele><time>2026-04-26T10:07:53.595Z</time></trkpt><trkpt lat="39.9034517" lon="8.6025767"><ele>12.333333333333332</ele><time>2026-04-26T10:07:54.599Z</time></trkpt><trkpt lat="39.90351" lon="8.6026617"><ele>12.166666666666666</ele><time>2026-04-26T10:07:55.663Z</time></trkpt><trkpt lat="39.9035717" lon="8.602745"><ele>12.0</ele><time>2026-04-26T10:07:56.601Z</time></trkpt><trkpt lat="39.9036283" lon="8.6028133"><ele>11.666666666666666</ele><time>2026-04-26T10:07:57.598Z</time></trkpt><trkpt lat="39.9036883" lon="8.6028733"><ele>11.333333333333334</ele><time>2026-04-26T10:07:58.596Z</time></trkpt><trkpt lat="39.9037367" lon="8.6029317"><ele>11.0</ele><time>2026-04-26T10:07:59.597Z</time></trkpt><trkpt lat="39.9038167" lon="8.6030167"><ele>10.666666666666668</ele><time>2026-04-26T10:08:01.65Z</time></trkpt><trkpt lat="39.9039133" lon="8.6030767"><ele>10.333333333333334</ele><time>2026-04-26T10:08:03.599Z</time></trkpt><trkpt lat="39.9039783" lon="8.6030817"><ele>10.0</ele><time>2026-04-26T10:08:04.599Z</time></trkpt><trkpt lat="39.9040567" lon="8.603065"><ele>10.0</ele><time>2026-04-26T10:08:05.601Z</time></trkpt><trkpt lat="39.9041417" lon="8.60302"><ele>10.0</ele><time>2026-04-26T10:08:06.599Z</time></trkpt><trkpt lat="39.904235" lon="8.6029717"><ele>10.0</ele><time>2026-04-26T10:08:07.648Z</time></trkpt><trkpt lat="39.9043317" lon="8.6029217"><ele>10.0</ele><time>2026-04-26T10:08:08.59Z</time></trkpt><trkpt lat="39.9044283" lon="8.6028767"><ele>10.0</ele><time>2026-04-26T10:08:09.597Z</time></trkpt><trkpt lat="39.9045233" lon="8.6028333"><ele>10.4</ele><time>2026-04-26T10:08:10.589Z</time></trkpt><trkpt lat="39.9046183" lon="8.60279"><ele>10.8</ele><time>2026-04-26T10:08:11.601Z</time></trkpt><trkpt lat="39.904715" lon="8.6027467"><ele>11.2</ele><time>2026-04-26T10:08:12.597Z</time></trkpt><trkpt lat="39.9048067" lon="8.602705"><ele>11.6</ele><time>2026-04-26T10:08:13.649Z</time></trkpt><trkpt lat="39.9048883" lon="8.602665"><ele>12.0</ele><time>2026-04-26T10:08:14.598Z</time></trkpt><trkpt lat="39.904965" lon="8.6026267"><ele>12.0</ele><time>2026-04-26T10:08:15.599Z</time></trkpt><trkpt lat="39.905035" lon="8.60259"><ele>12.0</ele><time>2026-04-26T10:08:16.594Z</time></trkpt><trkpt lat="39.9050967" lon="8.6025617"><ele>12.0</ele><time>2026-04-26T10:08:17.597Z</time></trkpt><trkpt lat="39.9051867" lon="8.6025317"><ele>12.0</ele><time>2026-04-26T10:08:19.65Z</time></trkpt><trkpt lat="39.9052617" lon="8.6025483"><ele>12.0</ele><time>2026-04-26T10:08:22.588Z</time></trkpt><trkpt lat="39.9052833" lon="8.6026583"><ele>12.0</ele><time>2026-04-26T10:08:24.606Z</time></trkpt><trkpt lat="39.9052617" lon="8.6027567"><ele>11.833333333333334</ele><time>2026-04-26T10:08:25.619Z</time></trkpt><trkpt lat="39.9052417" lon="8.6028717"><ele>11.666666666666666</ele><time>2026-04-26T10:08:26.593Z</time></trkpt><trkpt lat="39.9052183" lon="8.6029733"><ele>11.5</ele><time>2026-04-26T10:08:27.599Z</time></trkpt><trkpt lat="39.905195" lon="8.60309"><ele>11.333333333333332</ele><time>2026-04-26T10:08:28.594Z</time></trkpt><trkpt lat="39.9051717" lon="8.6032067"><ele>11.166666666666666</ele><time>2026-04-26T10:08:29.594Z</time></trkpt><trkpt lat="39.905145" lon="8.60332"><ele>11.0</ele><time>2026-04-26T10:08:30.599Z</time></trkpt><trkpt lat="39.9051117" lon="8.60344"><ele>11.0</ele><time>2026-04-26T10:08:31.644Z</time></trkpt><trkpt lat="39.9050783" lon="8.6035583"><ele>11.0</ele><time>2026-04-26T10:08:32.597Z</time></trkpt><trkpt lat="39.9050467" lon="8.603665"><ele>11.0</ele><time>2026-04-26T10:08:33.598Z</time></trkpt><trkpt lat="39.905015" lon="8.6037667"><ele>11.0</ele><time>2026-04-26T10:08:34.596Z</time></trkpt><trkpt lat="39.9049817" lon="8.60387"><ele>11.0</ele><time>2026-04-26T10:08:35.601Z</time></trkpt><trkpt lat="39.9049483" lon="8.6039817"><ele>11.0</ele><time>2026-04-26T10:08:36.599Z</time></trkpt><trkpt lat="39.9049117" lon="8.6041"><ele>11.0</ele><time>2026-04-26T10:08:37.649Z</time></trkpt><trkpt lat="39.9048733" lon="8.604225"><ele>11.0</ele><time>2026-04-26T10:08:38.597Z</time></trkpt><trkpt lat="39.9048383" lon="8.6043483"><ele>11.0</ele><time>2026-04-26T10:08:39.603Z</time></trkpt><trkpt lat="39.9048033" lon="8.6044717"><ele>11.0</ele><time>2026-04-26T10:08:40.601Z</time></trkpt><trkpt lat="39.904765" lon="8.6045983"><ele>11.0</ele><time>2026-04-26T10:08:41.61Z</time></trkpt><trkpt lat="39.9047233" lon="8.6047283"><ele>11.0</ele><time>2026-04-26T10:08:42.605Z</time></trkpt><trkpt lat="39.90468" lon="8.6048617"><ele>11.0</ele><time>2026-04-26T10:08:43.651Z</time></trkpt><trkpt lat="39.90464" lon="8.604995"><ele>11.0</ele><time>2026-04-26T10:08:44.596Z</time></trkpt><trkpt lat="39.9046067" lon="8.6051217"><ele>11.0</ele><time>2026-04-26T10:08:45.603Z</time></trkpt><trkpt lat="39.9045717" lon="8.6052383"><ele>11.0</ele><time>2026-04-26T10:08:46.601Z</time></trkpt><trkpt lat="39.904545" lon="8.6053467"><ele>11.333333333333332</ele><time>2026-04-26T10:08:47.597Z</time></trkpt><trkpt lat="39.904525" lon="8.6054433"><ele>11.666666666666666</ele><time>2026-04-26T10:08:48.601Z</time></trkpt><trkpt lat="39.9045033" lon="8.6055267"><ele>12.0</ele><time>2026-04-26T10:08:49.653Z</time></trkpt><trkpt lat="39.9044533" lon="8.60565"><ele>12.333333333333332</ele><time>2026-04-26T10:08:51.603Z</time></trkpt><trkpt lat="39.9044017" lon="8.6057117"><ele>12.666666666666666</ele><time>2026-04-26T10:08:53.604Z</time></trkpt><trkpt lat="39.9043383" lon="8.6057533"><ele>13.0</ele><time>2026-04-26T10:08:55.661Z</time></trkpt><trkpt lat="39.9042683" lon="8.6058117"><ele>13.0</ele><time>2026-04-26T10:08:57.598Z</time></trkpt><trkpt lat="39.904225" lon="8.6059133"><ele>13.0</ele><time>2026-04-26T10:08:59.604Z</time></trkpt><trkpt lat="39.9042483" lon="8.6060367"><ele>13.0</ele><time>2026-04-26T10:09:01.65Z</time></trkpt><trkpt lat="39.90432" lon="8.6061783"><ele>13.0</ele><time>2026-04-26T10:09:03.601Z</time></trkpt><trkpt lat="39.904355" lon="8.6062617"><ele>13.0</ele><time>2026-04-26T10:09:04.601Z</time></trkpt><trkpt lat="39.90438" lon="8.60636"><ele>12.8</ele><time>2026-04-26T10:09:05.602Z</time></trkpt><trkpt lat="39.90439" lon="8.6064733"><ele>12.600000000000001</ele><time>2026-04-26T10:09:06.601Z</time></trkpt><trkpt lat="39.9043917" lon="8.6065967"><ele>12.399999999999999</ele><time>2026-04-26T10:09:07.659Z</time></trkpt><trkpt lat="39.9043883" lon="8.6067283"><ele>12.2</ele><time>2026-04-26T10:09:08.6Z</time></trkpt><trkpt lat="39.904385" lon="8.60687"><ele>12.0</ele><time>2026-04-26T10:09:09.602Z</time></trkpt><trkpt lat="39.904375" lon="8.6070217"><ele>11.5</ele><time>2026-04-26T10:09:10.595Z</time></trkpt><trkpt lat="39.9043583" lon="8.6071817"><ele>11.0</ele><time>2026-04-26T10:09:11.598Z</time></trkpt><trkpt lat="39.90434" lon="8.6073517"><ele>10.5</ele><time>2026-04-26T10:09:12.601Z</time></trkpt><trkpt lat="39.904325" lon="8.6075333"><ele>10.0</ele><time>2026-04-26T10:09:13.654Z</time></trkpt><trkpt lat="39.9043117" lon="8.607725"><ele>10.333333333333334</ele><time>2026-04-26T10:09:14.591Z</time></trkpt><trkpt lat="39.9042983" lon="8.6079267"><ele>10.666666666666666</ele><time>2026-04-26T10:09:15.603Z</time></trkpt><trkpt lat="39.904285" lon="8.6081317"><ele>11.0</ele><time>2026-04-26T10:09:16.598Z</time></trkpt><trkpt lat="39.9042717" lon="8.6083317"><ele>11.0</ele><time>2026-04-26T10:09:17.601Z</time></trkpt><trkpt lat="39.9042617" lon="8.6085267"><ele>11.0</ele><time>2026-04-26T10:09:18.597Z</time></trkpt><trkpt lat="39.904255" lon="8.6087217"><ele>11.0</ele><time>2026-04-26T10:09:19.648Z</time></trkpt><trkpt lat="39.90425" lon="8.6089167"><ele>11.0</ele><time>2026-04-26T10:09:20.595Z</time></trkpt><trkpt lat="39.9042483" lon="8.60911"><ele>11.25</ele><time>2026-04-26T10:09:21.598Z</time></trkpt><trkpt lat="39.9042483" lon="8.6093"><ele>11.5</ele><time>2026-04-26T10:09:22.604Z</time></trkpt><trkpt lat="39.9042533" lon="8.6094917"><ele>11.75</ele><time>2026-04-26T10:09:23.593Z</time></trkpt><trkpt lat="39.9042633" lon="8.60968"><ele>12.0</ele><time>2026-04-26T10:09:24.6Z</time></trkpt><trkpt lat="39.904275" lon="8.60987"><ele>12.0</ele><time>2026-04-26T10:09:25.667Z</time></trkpt><trkpt lat="39.9042917" lon="8.6100633"><ele>12.0</ele><time>2026-04-26T10:09:26.591Z</time></trkpt><trkpt lat="39.9043133" lon="8.61026"><ele>12.0</ele><time>2026-04-26T10:09:27.603Z</time></trkpt><trkpt lat="39.904335" lon="8.6104567"><ele>12.666666666666668</ele><time>2026-04-26T10:09:28.599Z</time></trkpt><trkpt lat="39.90436" lon="8.610655"><ele>13.333333333333334</ele><time>2026-04-26T10:09:29.594Z</time></trkpt><trkpt lat="39.904385" lon="8.610855"><ele>14.0</ele><time>2026-04-26T10:09:30.596Z</time></trkpt><trkpt lat="39.90441" lon="8.611055"><ele>14.0</ele><time>2026-04-26T10:09:31.652Z</time></trkpt><trkpt lat="39.9044367" lon="8.61125"><ele>14.0</ele><time>2026-04-26T10:09:32.596Z</time></trkpt><trkpt lat="39.9044617" lon="8.6114433"><ele>14.0</ele><time>2026-04-26T10:09:33.593Z</time></trkpt><trkpt lat="39.904485" lon="8.6116383"><ele>14.0</ele><time>2026-04-26T10:09:34.59Z</time></trkpt><trkpt lat="39.9045083" lon="8.6118333"><ele>14.0</ele><time>2026-04-26T10:09:35.6Z</time></trkpt><trkpt lat="39.9045317" lon="8.6120267"><ele>14.0</ele><time>2026-04-26T10:09:36.597Z</time></trkpt><trkpt lat="39.9045567" lon="8.6122167"><ele>14.0</ele><time>2026-04-26T10:09:37.653Z</time></trkpt><trkpt lat="39.9045817" lon="8.6124033"><ele>14.25</ele><time>2026-04-26T10:09:38.596Z</time></trkpt><trkpt lat="39.9046067" lon="8.6125883"><ele>14.5</ele><time>2026-04-26T10:09:39.599Z</time></trkpt><trkpt lat="39.9046317" lon="8.6127717"><ele>14.75</ele><time>2026-04-26T10:09:40.601Z</time></trkpt><trkpt lat="39.9046583" lon="8.612955"><ele>15.0</ele><time>2026-04-26T10:09:41.595Z</time></trkpt><trkpt lat="39.9046833" lon="8.6131433"><ele>15.25</ele><time>2026-04-26T10:09:42.598Z</time></trkpt><trkpt lat="39.904705" lon="8.6133317"><ele>15.5</ele><time>2026-04-26T10:09:43.648Z</time></trkpt><trkpt lat="39.90473" lon="8.6135183"><ele>15.75</ele><time>2026-04-26T10:09:44.592Z</time></trkpt><trkpt lat="39.9047517" lon="8.6137083"><ele>16.0</ele><time>2026-04-26T10:09:45.599Z</time></trkpt><trkpt lat="39.9047733" lon="8.6138983"><ele>16.0</ele><time>2026-04-26T10:09:46.601Z</time></trkpt><trkpt lat="39.904795" lon="8.614085"><ele>16.0</ele><time>2026-04-26T10:09:47.603Z</time></trkpt><trkpt lat="39.9048183" lon="8.61427"><ele>16.0</ele><time>2026-04-26T10:09:48.604Z</time></trkpt><trkpt lat="39.9048433" lon="8.61445"><ele>16.0</ele><time>2026-04-26T10:09:49.651Z</time></trkpt><trkpt lat="39.904865" lon="8.6146333"><ele>16.0</ele><time>2026-04-26T10:09:50.598Z</time></trkpt><trkpt lat="39.904885" lon="8.6148167"><ele>16.0</ele><time>2026-04-26T10:09:51.609Z</time></trkpt><trkpt lat="39.9049083" lon="8.6149983"><ele>16.0</ele><time>2026-04-26T10:09:52.599Z</time></trkpt><trkpt lat="39.90493" lon="8.6151833"><ele>16.0</ele><time>2026-04-26T10:09:53.597Z</time></trkpt><trkpt lat="39.90495" lon="8.6153717"><ele>15.75</ele><time>2026-04-26T10:09:54.605Z</time></trkpt><trkpt lat="39.904965" lon="8.6155617"><ele>15.5</ele><time>2026-04-26T10:09:55.662Z</time></trkpt><trkpt lat="39.904975" lon="8.61575"><ele>15.25</ele><time>2026-04-26T10:09:56.594Z</time></trkpt><trkpt lat="39.90498" lon="8.6159367"><ele>15.0</ele><time>2026-04-26T10:09:57.606Z</time></trkpt><trkpt lat="39.904975" lon="8.61613"><ele>15.25</ele><time>2026-04-26T10:09:58.601Z</time></trkpt><trkpt lat="39.9049683" lon="8.6163233"><ele>15.5</ele><time>2026-04-26T10:09:59.604Z</time></trkpt><trkpt lat="39.904955" lon="8.6165183"><ele>15.75</ele><time>2026-04-26T10:10:00.599Z</time></trkpt><trkpt lat="39.90494" lon="8.6167133"><ele>16.0</ele><time>2026-04-26T10:10:01.647Z</time></trkpt><trkpt lat="39.90492" lon="8.6169083"><ele>16.0</ele><time>2026-04-26T10:10:02.597Z</time></trkpt><trkpt lat="39.9048983" lon="8.617105"><ele>16.0</ele><time>2026-04-26T10:10:03.601Z</time></trkpt><trkpt lat="39.9048733" lon="8.6172967"><ele>16.0</ele><time>2026-04-26T10:10:04.593Z</time></trkpt><trkpt lat="39.904845" lon="8.61749"><ele>16.0</ele><time>2026-04-26T10:10:05.599Z</time></trkpt><trkpt lat="39.90482" lon="8.6176833"><ele>16.0</ele><time>2026-04-26T10:10:06.595Z</time></trkpt><trkpt lat="39.9047917" lon="8.6178767"><ele>16.0</ele><time>2026-04-26T10:10:07.652Z</time></trkpt><trkpt lat="39.9047633" lon="8.6180683"><ele>15.75</ele><time>2026-04-26T10:10:08.594Z</time></trkpt><trkpt lat="39.904735" lon="8.6182583"><ele>15.5</ele><time>2026-04-26T10:10:09.592Z</time></trkpt><trkpt lat="39.9047083" lon="8.6184417"><ele>15.25</ele><time>2026-04-26T10:10:10.602Z</time></trkpt><trkpt lat="39.9046883" lon="8.61861"><ele>15.0</ele><time>2026-04-26T10:10:11.593Z</time></trkpt><trkpt lat="39.9046717" lon="8.6187583"><ele>15.0</ele><time>2026-04-26T10:10:12.599Z</time></trkpt><trkpt lat="39.9046583" lon="8.6188917"><ele>15.0</ele><time>2026-04-26T10:10:13.647Z</time></trkpt><trkpt lat="39.9046483" lon="8.6190133"><ele>15.0</ele><time>2026-04-26T10:10:14.597Z</time></trkpt><trkpt lat="39.9046383" lon="8.6191233"><ele>15.0</ele><time>2026-04-26T10:10:15.605Z</time></trkpt><trkpt lat="39.90463" lon="8.6192267"><ele>15.0</ele><time>2026-04-26T10:10:16.598Z</time></trkpt><trkpt lat="39.90462" lon="8.61933"><ele>15.0</ele><time>2026-04-26T10:10:17.59Z</time></trkpt><trkpt lat="39.9046083" lon="8.6194267"><ele>15.0</ele><time>2026-04-26T10:10:18.602Z</time></trkpt><trkpt lat="39.9045983" lon="8.6195133"><ele>15.0</ele><time>2026-04-26T10:10:19.648Z</time></trkpt><trkpt lat="39.9045667" lon="8.619645"><ele>15.0</ele><time>2026-04-26T10:10:21.596Z</time></trkpt><trkpt lat="39.904495" lon="8.6197217"><ele>15.0</ele><time>2026-04-26T10:10:24.6Z</time></trkpt><trkpt lat="39.9044333" lon="8.619755"><ele>15.0</ele><time>2026-04-26T10:10:27.588Z</time></trkpt><trkpt lat="39.9043567" lon="8.6198317"><ele>15.0</ele><time>2026-04-26T10:10:34.599Z</time></trkpt><trkpt lat="39.9043733" lon="8.619965"><ele>15.0</ele><time>2026-04-26T10:15:00.601Z</time></trkpt><trkpt lat="39.9043733" lon="8.62009"><ele>15.0</ele><time>2026-04-26T10:15:02.589Z</time></trkpt><trkpt lat="39.9044117" lon="8.62018"><ele>15.0</ele><time>2026-04-26T10:15:05.594Z</time></trkpt><trkpt lat="39.9044817" lon="8.6202033"><ele>15.0</ele><time>2026-04-26T10:15:08.592Z</time></trkpt><trkpt lat="39.90457" lon="8.6201267"><ele>15.0</ele><time>2026-04-26T10:15:11.594Z</time></trkpt><trkpt lat="39.9046" lon="8.619965"><ele>15.0</ele><time>2026-04-26T10:15:13.642Z</time></trkpt><trkpt lat="39.904605" lon="8.619855"><ele>15.0</ele><time>2026-04-26T10:15:14.587Z</time></trkpt><trkpt lat="39.9046117" lon="8.61973"><ele>15.0</ele><time>2026-04-26T10:15:15.595Z</time></trkpt><trkpt lat="39.9046267" lon="8.6196017"><ele>15.0</ele><time>2026-04-26T10:15:16.593Z</time></trkpt><trkpt lat="39.9046383" lon="8.6194633"><ele>15.0</ele><time>2026-04-26T10:15:17.594Z</time></trkpt><trkpt lat="39.904645" lon="8.6193167"><ele>15.0</ele><time>2026-04-26T10:15:18.602Z</time></trkpt><trkpt lat="39.9046517" lon="8.61917"><ele>15.0</ele><time>2026-04-26T10:15:19.65Z</time></trkpt><trkpt lat="39.9046583" lon="8.6190283"><ele>15.0</ele><time>2026-04-26T10:15:20.593Z</time></trkpt><trkpt lat="39.9046683" lon="8.6189017"><ele>15.0</ele><time>2026-04-26T10:15:21.598Z</time></trkpt><trkpt lat="39.90468" lon="8.6187867"><ele>15.0</ele><time>2026-04-26T10:15:22.606Z</time></trkpt><trkpt lat="39.9046933" lon="8.6186783"><ele>15.0</ele><time>2026-04-26T10:15:23.591Z</time></trkpt><trkpt lat="39.904705" lon="8.61857"><ele>15.0</ele><time>2026-04-26T10:15:24.598Z</time></trkpt><trkpt lat="39.9047167" lon="8.6184583"><ele>15.0</ele><time>2026-04-26T10:15:25.663Z</time></trkpt><trkpt lat="39.9047267" lon="8.6183417"><ele>15.0</ele><time>2026-04-26T10:15:26.593Z</time></trkpt><trkpt lat="39.9047367" lon="8.6182217"><ele>15.0</ele><time>2026-04-26T10:15:27.602Z</time></trkpt><trkpt lat="39.9047483" lon="8.6180983"><ele>15.0</ele><time>2026-04-26T10:15:28.597Z</time></trkpt><trkpt lat="39.9047617" lon="8.6179717"><ele>15.0</ele><time>2026-04-26T10:15:29.599Z</time></trkpt><trkpt lat="39.9047767" lon="8.6178467"><ele>15.0</ele><time>2026-04-26T10:15:30.588Z</time></trkpt><trkpt lat="39.9048083" lon="8.6176283"><ele>15.0</ele><time>2026-04-26T10:15:32.591Z</time></trkpt><trkpt lat="39.9048183" lon="8.617535"><ele>15.0</ele><time>2026-04-26T10:15:33.592Z</time></trkpt><trkpt lat="39.9048517" lon="8.6173317"><ele>15.333333333333332</ele><time>2026-04-26T10:15:36.596Z</time></trkpt><trkpt lat="39.9049517" lon="8.61722"><ele>15.666666666666666</ele><time>2026-04-26T10:15:39.595Z</time></trkpt><trkpt lat="39.9052033" lon="8.6171017"><ele>16.0</ele><time>2026-04-26T10:15:43.651Z</time></trkpt><trkpt lat="39.90527" lon="8.61706"><ele>15.666666666666666</ele><time>2026-04-26T10:15:44.589Z</time></trkpt><trkpt lat="39.90547" lon="8.6169467"><ele>15.333333333333332</ele><time>2026-04-26T10:15:47.594Z</time></trkpt><trkpt lat="39.90554" lon="8.6169117"><ele>15.0</ele><time>2026-04-26T10:15:48.593Z</time></trkpt><trkpt lat="39.9059783" lon="8.6166783"><ele>15.0</ele><time>2026-04-26T10:15:54.6Z</time></trkpt><trkpt lat="39.9060483" lon="8.6166383"><ele>15.0</ele><time>2026-04-26T10:15:55.655Z</time></trkpt><trkpt lat="39.9061167" lon="8.6166017"><ele>15.0</ele><time>2026-04-26T10:15:56.598Z</time></trkpt><trkpt lat="39.9061883" lon="8.616565"><ele>15.0</ele><time>2026-04-26T10:15:57.598Z</time></trkpt><trkpt lat="39.90626" lon="8.6165333"><ele>15.0</ele><time>2026-04-26T10:15:58.601Z</time></trkpt><trkpt lat="39.9063333" lon="8.6165017"><ele>15.0</ele><time>2026-04-26T10:15:59.596Z</time></trkpt><trkpt lat="39.9064067" lon="8.61647"><ele>15.0</ele><time>2026-04-26T10:16:00.597Z</time></trkpt><trkpt lat="39.90648" lon="8.6164433"><ele>15.0</ele><time>2026-04-26T10:16:01.655Z</time></trkpt><trkpt lat="39.906555" lon="8.6164217"><ele>15.0</ele><time>2026-04-26T10:16:02.607Z</time></trkpt><trkpt lat="39.9066267" lon="8.6164033"><ele>15.0</ele><time>2026-04-26T10:16:03.598Z</time></trkpt><trkpt lat="39.9066967" lon="8.6163917"><ele>15.0</ele><time>2026-04-26T10:16:04.598Z</time></trkpt><trkpt lat="39.906765" lon="8.61639"><ele>15.0</ele><time>2026-04-26T10:16:05.595Z</time></trkpt><trkpt lat="39.9068367" lon="8.61639"><ele>15.0</ele><time>2026-04-26T10:16:06.599Z</time></trkpt><trkpt lat="39.90691" lon="8.61639"><ele>14.5</ele><time>2026-04-26T10:16:07.645Z</time></trkpt><trkpt lat="39.9071217" lon="8.6163967"><ele>14.0</ele><time>2026-04-26T10:16:10.593Z</time></trkpt><trkpt lat="39.9074317" lon="8.616425"><ele>14.0</ele><time>2026-04-26T10:16:14.593Z</time></trkpt><trkpt lat="39.9075183" lon="8.616425"><ele>13.999999999999998</ele><time>2026-04-26T10:16:15.594Z</time></trkpt><trkpt lat="39.9076067" lon="8.6164217"><ele>13.999999999999998</ele><time>2026-04-26T10:16:16.59Z</time></trkpt><trkpt lat="39.9076983" lon="8.6164183"><ele>14.0</ele><time>2026-04-26T10:16:17.595Z</time></trkpt><trkpt lat="39.907795" lon="8.6164167"><ele>14.0</ele><time>2026-04-26T10:16:18.596Z</time></trkpt><trkpt lat="39.9078933" lon="8.6164167"><ele>13.799999999999999</ele><time>2026-04-26T10:16:19.65Z</time></trkpt><trkpt lat="39.9079883" lon="8.61642"><ele>13.599999999999998</ele><time>2026-04-26T10:16:20.589Z</time></trkpt><trkpt lat="39.9080833" lon="8.61642"><ele>13.4</ele><time>2026-04-26T10:16:21.601Z</time></trkpt><trkpt lat="39.9081733" lon="8.6164183"><ele>13.2</ele><time>2026-04-26T10:16:22.598Z</time></trkpt><trkpt lat="39.9082633" lon="8.6164167"><ele>13.0</ele><time>2026-04-26T10:16:23.599Z</time></trkpt><trkpt lat="39.9083517" lon="8.6164167"><ele>13.166666666666666</ele><time>2026-04-26T10:16:24.599Z</time></trkpt><trkpt lat="39.9084367" lon="8.61642"><ele>13.333333333333332</ele><time>2026-04-26T10:16:25.651Z</time></trkpt><trkpt lat="39.9085167" lon="8.616425"><ele>13.5</ele><time>2026-04-26T10:16:26.594Z</time></trkpt><trkpt lat="39.9085917" lon="8.6164333"><ele>13.666666666666668</ele><time>2026-04-26T10:16:27.595Z</time></trkpt><trkpt lat="39.90866" lon="8.616435"><ele>13.833333333333334</ele><time>2026-04-26T10:16:28.598Z</time></trkpt><trkpt lat="39.9087833" lon="8.616445"><ele>14.0</ele><time>2026-04-26T10:16:30.59Z</time></trkpt><trkpt lat="39.9089117" lon="8.616455"><ele>14.000000000000002</ele><time>2026-04-26T10:16:32.598Z</time></trkpt><trkpt lat="39.90898" lon="8.6164533"><ele>14.0</ele><time>2026-04-26T10:16:33.594Z</time></trkpt><trkpt lat="39.909045" lon="8.6164417"><ele>14.0</ele><time>2026-04-26T10:16:34.602Z</time></trkpt><trkpt lat="39.9091467" lon="8.6163967"><ele>14.0</ele><time>2026-04-26T10:16:36.593Z</time></trkpt><trkpt lat="39.9092367" lon="8.616315"><ele>14.000000000000002</ele><time>2026-04-26T10:16:38.592Z</time></trkpt><trkpt lat="39.9092783" lon="8.6162533"><ele>14.0</ele><time>2026-04-26T10:16:39.593Z</time></trkpt><trkpt lat="39.90932" lon="8.6161767"><ele>13.833333333333334</ele><time>2026-04-26T10:16:40.597Z</time></trkpt><trkpt lat="39.9093567" lon="8.61609"><ele>13.666666666666668</ele><time>2026-04-26T10:16:41.587Z</time></trkpt><trkpt lat="39.9093917" lon="8.616"><ele>13.5</ele><time>2026-04-26T10:16:42.597Z</time></trkpt><trkpt lat="39.9094233" lon="8.6159033"><ele>13.333333333333332</ele><time>2026-04-26T10:16:43.649Z</time></trkpt><trkpt lat="39.9094567" lon="8.615805"><ele>13.166666666666666</ele><time>2026-04-26T10:16:44.589Z</time></trkpt><trkpt lat="39.9094933" lon="8.615705"><ele>13.0</ele><time>2026-04-26T10:16:45.6Z</time></trkpt><trkpt lat="39.9095333" lon="8.615605"><ele>13.0</ele><time>2026-04-26T10:16:46.601Z</time></trkpt><trkpt lat="39.90957" lon="8.61551"><ele>13.0</ele><time>2026-04-26T10:16:47.592Z</time></trkpt><trkpt lat="39.9096067" lon="8.6154167"><ele>13.0</ele><time>2026-04-26T10:16:48.593Z</time></trkpt><trkpt lat="39.9096783" lon="8.6152417"><ele>13.0</ele><time>2026-04-26T10:16:50.597Z</time></trkpt><trkpt lat="39.9097383" lon="8.615065"><ele>13.2</ele><time>2026-04-26T10:16:52.591Z</time></trkpt><trkpt lat="39.9097883" lon="8.6149233"><ele>13.4</ele><time>2026-04-26T10:16:54.599Z</time></trkpt><trkpt lat="39.9098233" lon="8.6148317"><ele>13.599999999999998</ele><time>2026-04-26T10:16:56.588Z</time></trkpt><trkpt lat="39.9099133" lon="8.61475"><ele>13.799999999999999</ele><time>2026-04-26T10:17:00.596Z</time></trkpt><trkpt lat="39.9099783" lon="8.6147567"><ele>14.0</ele><time>2026-04-26T10:17:02.597Z</time></trkpt><trkpt lat="39.9100767" lon="8.6149433"><ele>13.799999999999999</ele><time>2026-04-26T10:17:06.602Z</time></trkpt><trkpt lat="39.910125" lon="8.6150617"><ele>13.599999999999998</ele><time>2026-04-26T10:17:08.593Z</time></trkpt><trkpt lat="39.9101883" lon="8.61516"><ele>13.4</ele><time>2026-04-26T10:17:10.599Z</time></trkpt><trkpt lat="39.9102583" lon="8.6152583"><ele>13.2</ele><time>2026-04-26T10:17:12.589Z</time></trkpt><trkpt lat="39.9103433" lon="8.615365"><ele>13.0</ele><time>2026-04-26T10:17:14.592Z</time></trkpt><trkpt lat="39.9104367" lon="8.6154833"><ele>13.0</ele><time>2026-04-26T10:17:16.589Z</time></trkpt><trkpt lat="39.9105033" lon="8.615595"><ele>13.0</ele><time>2026-04-26T10:17:18.596Z</time></trkpt><trkpt lat="39.9106133" lon="8.61578"><ele>13.0</ele><time>2026-04-26T10:17:21.588Z</time></trkpt><trkpt lat="39.9106583" lon="8.6158433"><ele>13.0</ele><time>2026-04-26T10:17:22.589Z</time></trkpt><trkpt lat="39.9107033" lon="8.615905"><ele>13.0</ele><time>2026-04-26T10:17:23.596Z</time></trkpt><trkpt lat="39.9107783" lon="8.616015"><ele>13.0</ele><time>2026-04-26T10:17:25.664Z</time></trkpt><trkpt lat="39.9108417" lon="8.6161217"><ele>13.0</ele><time>2026-04-26T10:17:27.594Z</time></trkpt><trkpt lat="39.9109133" lon="8.61623"><ele>13.0</ele><time>2026-04-26T10:17:29.593Z</time></trkpt><trkpt lat="39.9109833" lon="8.616345"><ele>13.0</ele><time>2026-04-26T10:17:31.66Z</time></trkpt><trkpt lat="39.9110733" lon="8.6165067"><ele>13.333333333333332</ele><time>2026-04-26T10:17:34.589Z</time></trkpt><trkpt lat="39.9111267" lon="8.6166333"><ele>13.666666666666668</ele><time>2026-04-26T10:17:36.592Z</time></trkpt><trkpt lat="39.911205" lon="8.6167867"><ele>14.0</ele><time>2026-04-26T10:17:39.59Z</time></trkpt><trkpt lat="39.9113183" lon="8.61704"><ele>14.000000000000002</ele><time>2026-04-26T10:17:46.599Z</time></trkpt><trkpt lat="39.9113617" lon="8.617105"><ele>14.0</ele><time>2026-04-26T10:17:48.598Z</time></trkpt><trkpt lat="39.9114033" lon="8.61718"><ele>14.0</ele><time>2026-04-26T10:17:51.598Z</time></trkpt><trkpt lat="39.9114567" lon="8.6172783"><ele>14.0</ele><time>2026-04-26T10:17:54.596Z</time></trkpt><trkpt lat="39.91149" lon="8.61737"><ele>14.000000000000002</ele><time>2026-04-26T10:17:56.588Z</time></trkpt><trkpt lat="39.9115233" lon="8.6174767"><ele>14.0</ele><time>2026-04-26T10:17:58.588Z</time></trkpt><trkpt lat="39.9115667" lon="8.6176067"><ele>14.000000000000002</ele><time>2026-04-26T10:18:00.594Z</time></trkpt><trkpt lat="39.91161" lon="8.6177567"><ele>14.0</ele><time>2026-04-26T10:18:02.597Z</time></trkpt><trkpt lat="39.91163" lon="8.61784"><ele>14.0</ele><time>2026-04-26T10:18:03.598Z</time></trkpt><trkpt lat="39.91165" lon="8.6179267"><ele>14.0</ele><time>2026-04-26T10:18:04.595Z</time></trkpt><trkpt lat="39.9116717" lon="8.6180117"><ele>14.000000000000002</ele><time>2026-04-26T10:18:05.605Z</time></trkpt><trkpt lat="39.9116917" lon="8.618095"><ele>14.0</ele><time>2026-04-26T10:18:06.596Z</time></trkpt><trkpt lat="39.911735" lon="8.618245"><ele>13.833333333333334</ele><time>2026-04-26T10:18:08.59Z</time></trkpt><trkpt lat="39.9117583" lon="8.6183217"><ele>13.666666666666668</ele><time>2026-04-26T10:18:09.597Z</time></trkpt><trkpt lat="39.9117833" lon="8.6184"><ele>13.5</ele><time>2026-04-26T10:18:10.593Z</time></trkpt><trkpt lat="39.911805" lon="8.61848"><ele>13.333333333333332</ele><time>2026-04-26T10:18:11.59Z</time></trkpt><trkpt lat="39.911825" lon="8.6185633"><ele>13.166666666666666</ele><time>2026-04-26T10:18:12.591Z</time></trkpt><trkpt lat="39.9118417" lon="8.6186467"><ele>13.0</ele><time>2026-04-26T10:18:13.646Z</time></trkpt><trkpt lat="39.9118683" lon="8.6188083"><ele>13.0</ele><time>2026-04-26T10:18:15.595Z</time></trkpt><trkpt lat="39.9118817" lon="8.6188917"><ele>13.0</ele><time>2026-04-26T10:18:16.592Z</time></trkpt><trkpt lat="39.9119133" lon="8.619045"><ele>13.0</ele><time>2026-04-26T10:18:18.597Z</time></trkpt><trkpt lat="39.911945" lon="8.6191833"><ele>13.0</ele><time>2026-04-26T10:18:20.588Z</time></trkpt><trkpt lat="39.91196" lon="8.6193233"><ele>13.0</ele><time>2026-04-26T10:18:22.586Z</time></trkpt><trkpt lat="39.9119917" lon="8.6194467"><ele>12.666666666666666</ele><time>2026-04-26T10:18:24.589Z</time></trkpt><trkpt lat="39.9120283" lon="8.6195667"><ele>12.333333333333332</ele><time>2026-04-26T10:18:26.595Z</time></trkpt><trkpt lat="39.9120367" lon="8.6196667"><ele>12.0</ele><time>2026-04-26T10:18:28.6Z</time></trkpt><trkpt lat="39.9120483" lon="8.6197533"><ele>11.666666666666666</ele><time>2026-04-26T10:18:31.653Z</time></trkpt><trkpt lat="39.91206" lon="8.6198483"><ele>11.333333333333332</ele><time>2026-04-26T10:18:35.588Z</time></trkpt><trkpt lat="39.9120683" lon="8.6199383"><ele>11.0</ele><time>2026-04-26T10:18:37.643Z</time></trkpt><trkpt lat="39.9121067" lon="8.6200417"><ele>11.0</ele><time>2026-04-26T10:18:39.597Z</time></trkpt><trkpt lat="39.9121617" lon="8.6201917"><ele>11.0</ele><time>2026-04-26T10:18:41.602Z</time></trkpt><trkpt lat="39.9121967" lon="8.6202817"><ele>11.0</ele><time>2026-04-26T10:18:42.589Z</time></trkpt><trkpt lat="39.912235" lon="8.620375"><ele>11.0</ele><time>2026-04-26T10:18:43.648Z</time></trkpt><trkpt lat="39.9122733" lon="8.6204683"><ele>11.0</ele><time>2026-04-26T10:18:44.588Z</time></trkpt><trkpt lat="39.9123117" lon="8.620565"><ele>11.142857142857142</ele><time>2026-04-26T10:18:45.589Z</time></trkpt><trkpt lat="39.91235" lon="8.6206583"><ele>11.285714285714285</ele><time>2026-04-26T10:18:46.592Z</time></trkpt><trkpt lat="39.9123867" lon="8.6207483"><ele>11.428571428571427</ele><time>2026-04-26T10:18:47.587Z</time></trkpt><trkpt lat="39.9124233" lon="8.6208333"><ele>11.571428571428571</ele><time>2026-04-26T10:18:48.589Z</time></trkpt><trkpt lat="39.9124617" lon="8.620915"><ele>11.714285714285714</ele><time>2026-04-26T10:18:49.651Z</time></trkpt><trkpt lat="39.9124983" lon="8.62099"><ele>11.857142857142856</ele><time>2026-04-26T10:18:50.591Z</time></trkpt><trkpt lat="39.9125383" lon="8.6210667"><ele>12.0</ele><time>2026-04-26T10:18:51.595Z</time></trkpt><trkpt lat="39.91258" lon="8.6211433"><ele>11.833333333333334</ele><time>2026-04-26T10:18:52.596Z</time></trkpt><trkpt lat="39.9126267" lon="8.62122"><ele>11.666666666666666</ele><time>2026-04-26T10:18:53.59Z</time></trkpt><trkpt lat="39.9126717" lon="8.6212917"><ele>11.5</ele><time>2026-04-26T10:18:54.597Z</time></trkpt><trkpt lat="39.91271" lon="8.62136"><ele>11.333333333333332</ele><time>2026-04-26T10:18:55.664Z</time></trkpt><trkpt lat="39.9127733" lon="8.6214883"><ele>11.166666666666666</ele><time>2026-04-26T10:18:57.598Z</time></trkpt><trkpt lat="39.9128133" lon="8.6216167"><ele>11.0</ele><time>2026-04-26T10:18:59.593Z</time></trkpt><trkpt lat="39.9128267" lon="8.6217"><ele>11.0</ele><time>2026-04-26T10:19:00.585Z</time></trkpt><trkpt lat="39.91284" lon="8.6217817"><ele>11.0</ele><time>2026-04-26T10:19:01.649Z</time></trkpt><trkpt lat="39.9128683" lon="8.62194"><ele>11.0</ele><time>2026-04-26T10:19:03.589Z</time></trkpt><trkpt lat="39.9128733" lon="8.6220983"><ele>11.0</ele><time>2026-04-26T10:19:05.591Z</time></trkpt><trkpt lat="39.9128617" lon="8.6222583"><ele>11.0</ele><time>2026-04-26T10:19:07.647Z</time></trkpt><trkpt lat="39.912855" lon="8.6224083"><ele>11.4</ele><time>2026-04-26T10:19:09.59Z</time></trkpt><trkpt lat="39.9128567" lon="8.6225767"><ele>11.8</ele><time>2026-04-26T10:19:11.597Z</time></trkpt><trkpt lat="39.91286" lon="8.6226767"><ele>12.200000000000001</ele><time>2026-04-26T10:19:12.602Z</time></trkpt><trkpt lat="39.912865" lon="8.6227833"><ele>12.600000000000001</ele><time>2026-04-26T10:19:13.645Z</time></trkpt><trkpt lat="39.912875" lon="8.6228983"><ele>13.0</ele><time>2026-04-26T10:19:14.589Z</time></trkpt><trkpt lat="39.9128833" lon="8.6230217"><ele>13.0</ele><time>2026-04-26T10:19:15.591Z</time></trkpt><trkpt lat="39.9128933" lon="8.6231483"><ele>13.0</ele><time>2026-04-26T10:19:16.589Z</time></trkpt><trkpt lat="39.9129067" lon="8.6232717"><ele>13.0</ele><time>2026-04-26T10:19:17.596Z</time></trkpt><trkpt lat="39.9129217" lon="8.6233883"><ele>13.0</ele><time>2026-04-26T10:19:18.589Z</time></trkpt><trkpt lat="39.912935" lon="8.6235067"><ele>13.0</ele><time>2026-04-26T10:19:19.644Z</time></trkpt><trkpt lat="39.91295" lon="8.623625"><ele>12.666666666666666</ele><time>2026-04-26T10:19:20.59Z</time></trkpt><trkpt lat="39.9129667" lon="8.6237417"><ele>12.333333333333332</ele><time>2026-04-26T10:19:21.598Z</time></trkpt><trkpt lat="39.9129783" lon="8.6238533"><ele>12.0</ele><time>2026-04-26T10:19:22.59Z</time></trkpt><trkpt lat="39.9129883" lon="8.62396"><ele>11.666666666666666</ele><time>2026-04-26T10:19:23.592Z</time></trkpt><trkpt lat="39.9129983" lon="8.62407"><ele>11.333333333333332</ele><time>2026-04-26T10:19:24.595Z</time></trkpt><trkpt lat="39.913005" lon="8.6241733"><ele>11.0</ele><time>2026-04-26T10:19:25.66Z</time></trkpt><trkpt lat="39.9130083" lon="8.6242767"><ele>11.0</ele><time>2026-04-26T10:19:26.589Z</time></trkpt><trkpt lat="39.9130067" lon="8.62438"><ele>11.0</ele><time>2026-04-26T10:19:27.585Z</time></trkpt><trkpt lat="39.9130117" lon="8.6244867"><ele>11.0</ele><time>2026-04-26T10:19:28.587Z</time></trkpt><trkpt lat="39.9130233" lon="8.6245883"><ele>11.0</ele><time>2026-04-26T10:19:29.598Z</time></trkpt><trkpt lat="39.9130317" lon="8.6246933"><ele>11.0</ele><time>2026-04-26T10:19:30.595Z</time></trkpt><trkpt lat="39.9130417" lon="8.6247967"><ele>11.0</ele><time>2026-04-26T10:19:31.655Z</time></trkpt><trkpt lat="39.9130567" lon="8.624895"><ele>11.0</ele><time>2026-04-26T10:19:32.588Z</time></trkpt><trkpt lat="39.9130667" lon="8.624995"><ele>11.0</ele><time>2026-04-26T10:19:33.597Z</time></trkpt><trkpt lat="39.91308" lon="8.62509"><ele>11.0</ele><time>2026-04-26T10:19:34.594Z</time></trkpt><trkpt lat="39.9130933" lon="8.6251817"><ele>11.0</ele><time>2026-04-26T10:19:35.595Z</time></trkpt><trkpt lat="39.91311" lon="8.625265"><ele>11.0</ele><time>2026-04-26T10:19:36.595Z</time></trkpt><trkpt lat="39.9131333" lon="8.6254"><ele>11.0</ele><time>2026-04-26T10:19:38.59Z</time></trkpt><trkpt lat="39.91315" lon="8.6255233"><ele>11.0</ele><time>2026-04-26T10:19:40.598Z</time></trkpt><trkpt lat="39.91317" lon="8.6256533"><ele>11.0</ele><time>2026-04-26T10:19:42.588Z</time></trkpt><trkpt lat="39.9132217" lon="8.6257917"><ele>11.0</ele><time>2026-04-26T10:19:44.592Z</time></trkpt><trkpt lat="39.9132667" lon="8.625855"><ele>11.0</ele><time>2026-04-26T10:19:45.593Z</time></trkpt><trkpt lat="39.9133117" lon="8.6259233"><ele>11.0</ele><time>2026-04-26T10:19:46.598Z</time></trkpt><trkpt lat="39.913355" lon="8.6259933"><ele>11.0</ele><time>2026-04-26T10:19:47.596Z</time></trkpt><trkpt lat="39.9133983" lon="8.6260633"><ele>11.333333333333332</ele><time>2026-04-26T10:19:48.593Z</time></trkpt><trkpt lat="39.91344" lon="8.6261317"><ele>11.666666666666666</ele><time>2026-04-26T10:19:49.65Z</time></trkpt><trkpt lat="39.9135217" lon="8.626255"><ele>12.0</ele><time>2026-04-26T10:19:51.589Z</time></trkpt><trkpt lat="39.9135667" lon="8.62632"><ele>12.333333333333332</ele><time>2026-04-26T10:19:52.599Z</time></trkpt><trkpt lat="39.91361" lon="8.626385"><ele>12.666666666666666</ele><time>2026-04-26T10:19:53.595Z</time></trkpt><trkpt lat="39.9136517" lon="8.6264533"><ele>13.0</ele><time>2026-04-26T10:19:54.597Z</time></trkpt><trkpt lat="39.9136933" lon="8.6265267"><ele>12.999999999999998</ele><time>2026-04-26T10:19:55.665Z</time></trkpt><trkpt lat="39.913735" lon="8.626595"><ele>13.0</ele><time>2026-04-26T10:19:56.592Z</time></trkpt><trkpt lat="39.9138" lon="8.6267217"><ele>13.0</ele><time>2026-04-26T10:19:58.586Z</time></trkpt><trkpt lat="39.91386" lon="8.626815"><ele>13.0</ele><time>2026-04-26T10:20:00.594Z</time></trkpt><trkpt lat="39.9139017" lon="8.6268833"><ele>12.999999999999998</ele><time>2026-04-26T10:20:02.597Z</time></trkpt><trkpt lat="39.9139533" lon="8.626975"><ele>13.0</ele><time>2026-04-26T10:20:05.597Z</time></trkpt><trkpt lat="39.9140167" lon="8.6269867"><ele>13.0</ele><time>2026-04-26T10:20:07.652Z</time></trkpt><trkpt lat="39.9140833" lon="8.627025"><ele>13.0</ele><time>2026-04-26T10:20:09.59Z</time></trkpt><trkpt lat="39.9141333" lon="8.6271183"><ele>13.0</ele><time>2026-04-26T10:20:11.589Z</time></trkpt><trkpt lat="39.91418" lon="8.6272383"><ele>13.0</ele><time>2026-04-26T10:20:13.646Z</time></trkpt><trkpt lat="39.9142517" lon="8.627385"><ele>13.0</ele><time>2026-04-26T10:20:15.591Z</time></trkpt><trkpt lat="39.9142917" lon="8.6274667"><ele>12.857142857142856</ele><time>2026-04-26T10:20:16.592Z</time></trkpt><trkpt lat="39.9143283" lon="8.627545"><ele>12.714285714285715</ele><time>2026-04-26T10:20:17.593Z</time></trkpt><trkpt lat="39.914365" lon="8.6276183"><ele>12.571428571428571</ele><time>2026-04-26T10:20:18.593Z</time></trkpt><trkpt lat="39.9144" lon="8.6276883"><ele>12.428571428571427</ele><time>2026-04-26T10:20:19.655Z</time></trkpt><trkpt lat="39.914435" lon="8.62776"><ele>12.285714285714285</ele><time>2026-04-26T10:20:20.6Z</time></trkpt><trkpt lat="39.9144717" lon="8.6278383"><ele>12.142857142857142</ele><time>2026-04-26T10:20:21.591Z</time></trkpt><trkpt lat="39.91451" lon="8.62792"><ele>12.0</ele><time>2026-04-26T10:20:22.588Z</time></trkpt><trkpt lat="39.9145467" lon="8.6279983"><ele>12.0</ele><time>2026-04-26T10:20:23.589Z</time></trkpt><trkpt lat="39.91458" lon="8.62808"><ele>12.0</ele><time>2026-04-26T10:20:24.588Z</time></trkpt><trkpt lat="39.9146133" lon="8.62816"><ele>12.0</ele><time>2026-04-26T10:20:25.657Z</time></trkpt><trkpt lat="39.9146467" lon="8.6282333"><ele>12.0</ele><time>2026-04-26T10:20:26.594Z</time></trkpt><trkpt lat="39.9146833" lon="8.6283017"><ele>12.0</ele><time>2026-04-26T10:20:27.583Z</time></trkpt><trkpt lat="39.9147383" lon="8.62842"><ele>12.0</ele><time>2026-04-26T10:20:29.599Z</time></trkpt><trkpt lat="39.914775" lon="8.6285217"><ele>12.0</ele><time>2026-04-26T10:20:31.666Z</time></trkpt><trkpt lat="39.91483" lon="8.628635"><ele>12.0</ele><time>2026-04-26T10:20:33.59Z</time></trkpt><trkpt lat="39.91492" lon="8.6287383"><ele>12.0</ele><time>2026-04-26T10:20:35.591Z</time></trkpt><trkpt lat="39.9150283" lon="8.6288233"><ele>12.0</ele><time>2026-04-26T10:20:37.64Z</time></trkpt><trkpt lat="39.9150833" lon="8.628875"><ele>12.0</ele><time>2026-04-26T10:20:38.592Z</time></trkpt><trkpt lat="39.9151383" lon="8.6289333"><ele>12.142857142857142</ele><time>2026-04-26T10:20:39.6Z</time></trkpt><trkpt lat="39.9151917" lon="8.629"><ele>12.285714285714285</ele><time>2026-04-26T10:20:40.594Z</time></trkpt><trkpt lat="39.9152417" lon="8.6290717"><ele>12.428571428571427</ele><time>2026-04-26T10:20:41.592Z</time></trkpt><trkpt lat="39.9152967" lon="8.6291417"><ele>12.571428571428571</ele><time>2026-04-26T10:20:42.598Z</time></trkpt><trkpt lat="39.9153483" lon="8.6292133"><ele>12.714285714285715</ele><time>2026-04-26T10:20:43.647Z</time></trkpt><trkpt lat="39.9153983" lon="8.6292833"><ele>12.857142857142856</ele><time>2026-04-26T10:20:44.597Z</time></trkpt><trkpt lat="39.9154467" lon="8.6293533"><ele>13.0</ele><time>2026-04-26T10:20:45.596Z</time></trkpt><trkpt lat="39.9154967" lon="8.62942"><ele>13.142857142857142</ele><time>2026-04-26T10:20:46.6Z</time></trkpt><trkpt lat="39.9155467" lon="8.629485"><ele>13.285714285714286</ele><time>2026-04-26T10:20:47.596Z</time></trkpt><trkpt lat="39.915595" lon="8.62955"><ele>13.428571428571429</ele><time>2026-04-26T10:20:48.593Z</time></trkpt><trkpt lat="39.9156417" lon="8.62962"><ele>13.571428571428571</ele><time>2026-04-26T10:20:49.649Z</time></trkpt><trkpt lat="39.9156883" lon="8.62969"><ele>13.714285714285715</ele><time>2026-04-26T10:20:50.595Z</time></trkpt><trkpt lat="39.915735" lon="8.6297617"><ele>13.857142857142858</ele><time>2026-04-26T10:20:51.599Z</time></trkpt><trkpt lat="39.915785" lon="8.629835"><ele>14.0</ele><time>2026-04-26T10:20:52.596Z</time></trkpt><trkpt lat="39.915835" lon="8.62991"><ele>14.000000000000002</ele><time>2026-04-26T10:20:53.601Z</time></trkpt><trkpt lat="39.91589" lon="8.62999"><ele>14.0</ele><time>2026-04-26T10:20:54.598Z</time></trkpt><trkpt lat="39.915945" lon="8.6300767"><ele>14.0</ele><time>2026-04-26T10:20:55.636Z</time></trkpt><trkpt lat="39.9160033" lon="8.63017"><ele>14.0</ele><time>2026-04-26T10:20:56.603Z</time></trkpt><trkpt lat="39.9160583" lon="8.6302667"><ele>14.000000000000002</ele><time>2026-04-26T10:20:57.595Z</time></trkpt><trkpt lat="39.9161133" lon="8.6303633"><ele>14.0</ele><time>2026-04-26T10:20:58.597Z</time></trkpt><trkpt lat="39.9161667" lon="8.6304583"><ele>13.666666666666668</ele><time>2026-04-26T10:20:59.603Z</time></trkpt><trkpt lat="39.9162167" lon="8.6305517"><ele>13.333333333333334</ele><time>2026-04-26T10:21:00.595Z</time></trkpt><trkpt lat="39.916255" lon="8.6306433"><ele>13.0</ele><time>2026-04-26T10:21:01.662Z</time></trkpt><trkpt lat="39.9162917" lon="8.6307317"><ele>12.666666666666668</ele><time>2026-04-26T10:21:02.596Z</time></trkpt><trkpt lat="39.9163283" lon="8.6308083"><ele>12.333333333333334</ele><time>2026-04-26T10:21:03.594Z</time></trkpt><trkpt lat="39.9163983" lon="8.6309317"><ele>12.0</ele><time>2026-04-26T10:21:05.59Z</time></trkpt><trkpt lat="39.9164633" lon="8.6310467"><ele>12.0</ele><time>2026-04-26T10:21:07.651Z</time></trkpt><trkpt lat="39.9165067" lon="8.631155"><ele>12.0</ele><time>2026-04-26T10:21:09.596Z</time></trkpt><trkpt lat="39.91651" lon="8.631275"><ele>12.0</ele><time>2026-04-26T10:21:11.59Z</time></trkpt><trkpt lat="39.9164767" lon="8.6313917"><ele>12.0</ele><time>2026-04-26T10:21:13.643Z</time></trkpt><trkpt lat="39.9164367" lon="8.6314717"><ele>12.0</ele><time>2026-04-26T10:21:15.6Z</time></trkpt><trkpt lat="39.9164167" lon="8.63156"><ele>12.0</ele><time>2026-04-26T10:21:17.59Z</time></trkpt><trkpt lat="39.9164467" lon="8.6316617"><ele>12.0</ele><time>2026-04-26T10:21:19.65Z</time></trkpt><trkpt lat="39.91654" lon="8.6317733"><ele>12.0</ele><time>2026-04-26T10:21:21.599Z</time></trkpt><trkpt lat="39.9166067" lon="8.631835"><ele>12.0</ele><time>2026-04-26T10:21:22.596Z</time></trkpt><trkpt lat="39.916675" lon="8.6319"><ele>12.0</ele><time>2026-04-26T10:21:23.598Z</time></trkpt><trkpt lat="39.9167417" lon="8.6319717"><ele>12.0</ele><time>2026-04-26T10:21:24.593Z</time></trkpt><trkpt lat="39.91681" lon="8.6320433"><ele>11.666666666666666</ele><time>2026-04-26T10:21:25.658Z</time></trkpt><trkpt lat="39.916875" lon="8.632115"><ele>11.333333333333334</ele><time>2026-04-26T10:21:26.591Z</time></trkpt><trkpt lat="39.9169417" lon="8.6321883"><ele>11.0</ele><time>2026-04-26T10:21:27.59Z</time></trkpt><trkpt lat="39.9170083" lon="8.6322617"><ele>10.666666666666668</ele><time>2026-04-26T10:21:28.591Z</time></trkpt><trkpt lat="39.9170767" lon="8.6323317"><ele>10.333333333333334</ele><time>2026-04-26T10:21:29.59Z</time></trkpt><trkpt lat="39.9171367" lon="8.6324067"><ele>10.0</ele><time>2026-04-26T10:21:30.592Z</time></trkpt><trkpt lat="39.9172" lon="8.6324817"><ele>10.0</ele><time>2026-04-26T10:21:31.656Z</time></trkpt><trkpt lat="39.9172617" lon="8.632555"><ele>10.0</ele><time>2026-04-26T10:21:32.59Z</time></trkpt><trkpt lat="39.9173183" lon="8.6326217"><ele>10.0</ele><time>2026-04-26T10:21:33.591Z</time></trkpt><trkpt lat="39.91737" lon="8.632695"><ele>10.0</ele><time>2026-04-26T10:21:34.589Z</time></trkpt><trkpt lat="39.91742" lon="8.632775"><ele>10.0</ele><time>2026-04-26T10:21:35.598Z</time></trkpt><trkpt lat="39.917465" lon="8.6328633"><ele>10.0</ele><time>2026-04-26T10:21:36.593Z</time></trkpt><trkpt lat="39.9175067" lon="8.6329617"><ele>10.0</ele><time>2026-04-26T10:21:37.647Z</time></trkpt><trkpt lat="39.9175433" lon="8.63307"><ele>10.0</ele><time>2026-04-26T10:21:38.593Z</time></trkpt><trkpt lat="39.91758" lon="8.63318"><ele>10.0</ele><time>2026-04-26T10:21:39.588Z</time></trkpt><trkpt lat="39.9176133" lon="8.6332883"><ele>10.0</ele><time>2026-04-26T10:21:40.587Z</time></trkpt><trkpt lat="39.9176667" lon="8.6334983"><ele>10.0</ele><time>2026-04-26T10:21:42.596Z</time></trkpt><trkpt lat="39.9177417" lon="8.6337567"><ele>10.5</ele><time>2026-04-26T10:21:45.594Z</time></trkpt><trkpt lat="39.9178417" lon="8.634025"><ele>11.0</ele><time>2026-04-26T10:21:49.645Z</time></trkpt><trkpt lat="39.9179033" lon="8.634195"><ele>11.5</ele><time>2026-04-26T10:21:52.598Z</time></trkpt><trkpt lat="39.9179383" lon="8.6342783"><ele>12.0</ele><time>2026-04-26T10:21:54.589Z</time></trkpt><trkpt lat="39.9179983" lon="8.634365"><ele>12.333333333333332</ele><time>2026-04-26T10:21:57.6Z</time></trkpt><trkpt lat="39.9179983" lon="8.634575"><ele>12.666666666666666</ele><time>2026-04-26T10:22:01.654Z</time></trkpt><trkpt lat="39.91794" lon="8.6346483"><ele>13.0</ele><time>2026-04-26T10:22:02.594Z</time></trkpt><trkpt lat="39.9176833" lon="8.635165"><ele>12.5</ele><time>2026-04-26T10:22:07.638Z</time></trkpt><trkpt lat="39.9174833" lon="8.6355417"><ele>12.0</ele><time>2026-04-26T10:22:10.588Z</time></trkpt><trkpt lat="39.9172883" lon="8.6359467"><ele>11.666666666666666</ele><time>2026-04-26T10:22:13.652Z</time></trkpt><trkpt lat="39.9171783" lon="8.6361933"><ele>11.333333333333332</ele><time>2026-04-26T10:22:15.591Z</time></trkpt><trkpt lat="39.9171217" lon="8.63631"><ele>11.0</ele><time>2026-04-26T10:22:16.588Z</time></trkpt><trkpt lat="39.9169683" lon="8.63662"><ele>11.0</ele><time>2026-04-26T10:22:19.642Z</time></trkpt><trkpt lat="39.9169133" lon="8.6367183"><ele>11.0</ele><time>2026-04-26T10:22:20.586Z</time></trkpt><trkpt lat="39.9166983" lon="8.6371217"><ele>11.333333333333332</ele><time>2026-04-26T10:22:24.588Z</time></trkpt><trkpt lat="39.9166483" lon="8.6372183"><ele>11.666666666666666</ele><time>2026-04-26T10:22:25.663Z</time></trkpt><trkpt lat="39.9164817" lon="8.6375067"><ele>12.0</ele><time>2026-04-26T10:22:28.589Z</time></trkpt><trkpt lat="39.9164233" lon="8.6376033"><ele>12.0</ele><time>2026-04-26T10:22:29.595Z</time></trkpt><trkpt lat="39.916195" lon="8.6379567"><ele>12.0</ele><time>2026-04-26T10:22:33.588Z</time></trkpt><trkpt lat="39.9159167" lon="8.6383717"><ele>14.0</ele><time>2026-04-26T10:22:38.594Z</time></trkpt><trkpt lat="39.9157583" lon="8.638655"><ele>16.0</ele><time>2026-04-26T10:22:41.593Z</time></trkpt><trkpt lat="39.915635" lon="8.6389883"><ele>16.0</ele><time>2026-04-26T10:22:44.592Z</time></trkpt><trkpt lat="39.9155983" lon="8.6391133"><ele>16.0</ele><time>2026-04-26T10:22:45.593Z</time></trkpt><trkpt lat="39.9154817" lon="8.639625"><ele>16.0</ele><time>2026-04-26T10:22:49.638Z</time></trkpt><trkpt lat="39.9154533" lon="8.6397567"><ele>16.0</ele><time>2026-04-26T10:22:50.587Z</time></trkpt><trkpt lat="39.915395" lon="8.6401667"><ele>16.0</ele><time>2026-04-26T10:22:53.593Z</time></trkpt><trkpt lat="39.9153817" lon="8.6403067"><ele>16.0</ele><time>2026-04-26T10:22:54.604Z</time></trkpt><trkpt lat="39.9152883" lon="8.6408517"><ele>16.0</ele><time>2026-04-26T10:22:58.589Z</time></trkpt><trkpt lat="39.9152633" lon="8.6409883"><ele>16.0</ele><time>2026-04-26T10:22:59.587Z</time></trkpt><trkpt lat="39.9151333" lon="8.6415133"><ele>16.0</ele><time>2026-04-26T10:23:03.604Z</time></trkpt><trkpt lat="39.9149867" lon="8.6420067"><ele>16.0</ele><time>2026-04-26T10:23:07.643Z</time></trkpt><trkpt lat="39.914865" lon="8.642395"><ele>16.0</ele><time>2026-04-26T10:23:10.596Z</time></trkpt><trkpt lat="39.9148183" lon="8.64253"><ele>16.0</ele><time>2026-04-26T10:23:11.591Z</time></trkpt><trkpt lat="39.9146317" lon="8.6430467"><ele>15.0</ele><time>2026-04-26T10:23:15.586Z</time></trkpt><trkpt lat="39.91443" lon="8.6435417"><ele>14.0</ele><time>2026-04-26T10:23:19.641Z</time></trkpt><trkpt lat="39.91426" lon="8.6439217"><ele>14.0</ele><time>2026-04-26T10:23:22.59Z</time></trkpt><trkpt lat="39.914195" lon="8.644045"><ele>14.0</ele><time>2026-04-26T10:23:23.598Z</time></trkpt><trkpt lat="39.9139983" lon="8.6444083"><ele>14.0</ele><time>2026-04-26T10:23:26.593Z</time></trkpt><trkpt lat="39.9137617" lon="8.6448433"><ele>14.0</ele><time>2026-04-26T10:23:30.588Z</time></trkpt><trkpt lat="39.9137083" lon="8.644935"><ele>12.0</ele><time>2026-04-26T10:23:31.648Z</time></trkpt><trkpt lat="39.9131283" lon="8.64587"><ele>12.0</ele><time>2026-04-26T10:23:40.593Z</time></trkpt><trkpt lat="39.9130767" lon="8.6459683"><ele>12.0</ele><time>2026-04-26T10:23:41.588Z</time></trkpt><trkpt lat="39.9130317" lon="8.646075"><ele>12.0</ele><time>2026-04-26T10:23:42.593Z</time></trkpt><trkpt lat="39.9129933" lon="8.64619"><ele>12.0</ele><time>2026-04-26T10:23:43.646Z</time></trkpt><trkpt lat="39.91296" lon="8.6463183"><ele>12.0</ele><time>2026-04-26T10:23:44.591Z</time></trkpt><trkpt lat="39.91293" lon="8.6464533"><ele>12.2</ele><time>2026-04-26T10:23:45.587Z</time></trkpt><trkpt lat="39.9129033" lon="8.646595"><ele>12.399999999999999</ele><time>2026-04-26T10:23:46.588Z</time></trkpt><trkpt lat="39.9128817" lon="8.64674"><ele>12.600000000000001</ele><time>2026-04-26T10:23:47.593Z</time></trkpt><trkpt lat="39.91286" lon="8.64688"><ele>12.8</ele><time>2026-04-26T10:23:48.59Z</time></trkpt><trkpt lat="39.9128383" lon="8.6470167"><ele>13.0</ele><time>2026-04-26T10:23:49.643Z</time></trkpt><trkpt lat="39.912815" lon="8.6471533"><ele>13.0</ele><time>2026-04-26T10:23:50.589Z</time></trkpt><trkpt lat="39.912795" lon="8.64729"><ele>13.0</ele><time>2026-04-26T10:23:51.585Z</time></trkpt><trkpt lat="39.9127767" lon="8.6474283"><ele>13.0</ele><time>2026-04-26T10:23:52.585Z</time></trkpt><trkpt lat="39.9127533" lon="8.6475683"><ele>13.0</ele><time>2026-04-26T10:23:53.589Z</time></trkpt><trkpt lat="39.9127267" lon="8.6477133"><ele>13.0</ele><time>2026-04-26T10:23:54.592Z</time></trkpt><trkpt lat="39.9127" lon="8.6478633"><ele>12.75</ele><time>2026-04-26T10:23:55.652Z</time></trkpt><trkpt lat="39.9126733" lon="8.6480167"><ele>12.5</ele><time>2026-04-26T10:23:56.588Z</time></trkpt><trkpt lat="39.9126467" lon="8.64817"><ele>12.25</ele><time>2026-04-26T10:23:57.589Z</time></trkpt><trkpt lat="39.91262" lon="8.6483217"><ele>12.0</ele><time>2026-04-26T10:23:58.592Z</time></trkpt><trkpt lat="39.9125967" lon="8.6484717"><ele>12.0</ele><time>2026-04-26T10:23:59.592Z</time></trkpt><trkpt lat="39.9125733" lon="8.6486217"><ele>12.0</ele><time>2026-04-26T10:24:00.586Z</time></trkpt><trkpt lat="39.9125467" lon="8.6487683"><ele>12.0</ele><time>2026-04-26T10:24:01.649Z</time></trkpt><trkpt lat="39.91252" lon="8.6489133"><ele>12.0</ele><time>2026-04-26T10:24:02.596Z</time></trkpt><trkpt lat="39.912495" lon="8.6490567"><ele>12.2</ele><time>2026-04-26T10:24:03.592Z</time></trkpt><trkpt lat="39.91247" lon="8.6491983"><ele>12.399999999999999</ele><time>2026-04-26T10:24:04.599Z</time></trkpt><trkpt lat="39.912445" lon="8.6493383"><ele>12.600000000000001</ele><time>2026-04-26T10:24:05.594Z</time></trkpt><trkpt lat="39.9124233" lon="8.6494817"><ele>12.8</ele><time>2026-04-26T10:24:06.588Z</time></trkpt><trkpt lat="39.9124017" lon="8.649625"><ele>13.0</ele><time>2026-04-26T10:24:07.644Z</time></trkpt><trkpt lat="39.91238" lon="8.6497717"><ele>13.0</ele><time>2026-04-26T10:24:08.595Z</time></trkpt><trkpt lat="39.9123567" lon="8.64992"><ele>13.0</ele><time>2026-04-26T10:24:09.595Z</time></trkpt><trkpt lat="39.912335" lon="8.6500683"><ele>13.0</ele><time>2026-04-26T10:24:10.587Z</time></trkpt><trkpt lat="39.9123117" lon="8.650215"><ele>13.0</ele><time>2026-04-26T10:24:11.588Z</time></trkpt><trkpt lat="39.9122883" lon="8.6503633"><ele>13.75</ele><time>2026-04-26T10:24:12.599Z</time></trkpt><trkpt lat="39.91226" lon="8.6505117"><ele>14.5</ele><time>2026-04-26T10:24:13.644Z</time></trkpt><trkpt lat="39.9122317" lon="8.65066"><ele>15.25</ele><time>2026-04-26T10:24:14.593Z</time></trkpt><trkpt lat="39.9122033" lon="8.6508117"><ele>16.0</ele><time>2026-04-26T10:24:15.601Z</time></trkpt><trkpt lat="39.912175" lon="8.6509617"><ele>16.0</ele><time>2026-04-26T10:24:16.59Z</time></trkpt><trkpt lat="39.9121433" lon="8.65111"><ele>16.0</ele><time>2026-04-26T10:24:17.585Z</time></trkpt><trkpt lat="39.9121133" lon="8.651255"><ele>16.0</ele><time>2026-04-26T10:24:18.59Z</time></trkpt><trkpt lat="39.912085" lon="8.6513983"><ele>16.0</ele><time>2026-04-26T10:24:19.64Z</time></trkpt><trkpt lat="39.91206" lon="8.6515417"><ele>16.0</ele><time>2026-04-26T10:24:20.59Z</time></trkpt><trkpt lat="39.9120317" lon="8.651685"><ele>16.0</ele><time>2026-04-26T10:24:21.599Z</time></trkpt><trkpt lat="39.9120033" lon="8.6518233"><ele>16.0</ele><time>2026-04-26T10:24:22.592Z</time></trkpt><trkpt lat="39.9119783" lon="8.6519583"><ele>16.0</ele><time>2026-04-26T10:24:23.592Z</time></trkpt><trkpt lat="39.9119567" lon="8.652095"><ele>16.0</ele><time>2026-04-26T10:24:24.593Z</time></trkpt><trkpt lat="39.911935" lon="8.6522317"><ele>16.0</ele><time>2026-04-26T10:24:25.66Z</time></trkpt><trkpt lat="39.911905" lon="8.6523667"><ele>16.0</ele><time>2026-04-26T10:24:26.584Z</time></trkpt><trkpt lat="39.9118783" lon="8.6525017"><ele>16.0</ele><time>2026-04-26T10:24:27.598Z</time></trkpt><trkpt lat="39.9118517" lon="8.6526383"><ele>16.0</ele><time>2026-04-26T10:24:28.588Z</time></trkpt><trkpt lat="39.9118267" lon="8.6527667"><ele>16.0</ele><time>2026-04-26T10:24:29.587Z</time></trkpt><trkpt lat="39.9117833" lon="8.6529933"><ele>15.8</ele><time>2026-04-26T10:24:31.655Z</time></trkpt><trkpt lat="39.911745" lon="8.6531917"><ele>15.600000000000001</ele><time>2026-04-26T10:24:33.594Z</time></trkpt><trkpt lat="39.9117267" lon="8.6532883"><ele>15.4</ele><time>2026-04-26T10:24:34.592Z</time></trkpt><trkpt lat="39.91169" lon="8.6534733"><ele>15.2</ele><time>2026-04-26T10:24:36.592Z</time></trkpt><trkpt lat="39.9116683" lon="8.6535567"><ele>15.0</ele><time>2026-04-26T10:24:37.645Z</time></trkpt><trkpt lat="39.9116067" lon="8.6536983"><ele>14.75</ele><time>2026-04-26T10:24:39.588Z</time></trkpt><trkpt lat="39.91142" lon="8.6539383"><ele>14.5</ele><time>2026-04-26T10:24:43.64Z</time></trkpt><trkpt lat="39.9113633" lon="8.65402"><ele>14.25</ele><time>2026-04-26T10:24:44.586Z</time></trkpt><trkpt lat="39.9113117" lon="8.6541167"><ele>14.0</ele><time>2026-04-26T10:24:45.585Z</time></trkpt><trkpt lat="39.9112583" lon="8.6542267"><ele>14.000000000000002</ele><time>2026-04-26T10:24:46.586Z</time></trkpt><trkpt lat="39.9112067" lon="8.6543333"><ele>14.0</ele><time>2026-04-26T10:24:47.592Z</time></trkpt><trkpt lat="39.9111517" lon="8.654435"><ele>14.0</ele><time>2026-04-26T10:24:48.602Z</time></trkpt><trkpt lat="39.9111017" lon="8.65453"><ele>14.0</ele><time>2026-04-26T10:24:49.645Z</time></trkpt><trkpt lat="39.9110583" lon="8.654615"><ele>14.000000000000002</ele><time>2026-04-26T10:24:50.593Z</time></trkpt><trkpt lat="39.9110217" lon="8.6546917"><ele>14.0</ele><time>2026-04-26T10:24:51.59Z</time></trkpt><trkpt lat="39.910985" lon="8.6547833"><ele>14.0</ele><time>2026-04-26T10:24:53.592Z</time></trkpt><trkpt lat="39.9107367" lon="8.6552517"><ele>14.0</ele><time>2026-04-26T10:25:44.59Z</time></trkpt><trkpt lat="39.9106483" lon="8.65542"><ele>14.0</ele><time>2026-04-26T10:25:46.591Z</time></trkpt><trkpt lat="39.91058" lon="8.6555633"><ele>14.0</ele><time>2026-04-26T10:25:48.598Z</time></trkpt><trkpt lat="39.9104733" lon="8.6557533"><ele>14.0</ele><time>2026-04-26T10:25:51.591Z</time></trkpt><trkpt lat="39.910445" lon="8.6558283"><ele>14.0</ele><time>2026-04-26T10:25:52.6Z</time></trkpt><trkpt lat="39.9103917" lon="8.6559883"><ele>13.75</ele><time>2026-04-26T10:25:54.593Z</time></trkpt><trkpt lat="39.9103283" lon="8.6561467"><ele>13.5</ele><time>2026-04-26T10:25:56.589Z</time></trkpt><trkpt lat="39.9102783" lon="8.656295"><ele>13.25</ele><time>2026-04-26T10:25:58.59Z</time></trkpt><trkpt lat="39.910225" lon="8.6564133"><ele>13.0</ele><time>2026-04-26T10:26:00.592Z</time></trkpt><trkpt lat="39.910175" lon="8.6565117"><ele>12.999999999999998</ele><time>2026-04-26T10:26:02.591Z</time></trkpt><trkpt lat="39.9101167" lon="8.6566133"><ele>13.0</ele><time>2026-04-26T10:26:05.59Z</time></trkpt><trkpt lat="39.9100967" lon="8.656695"><ele>13.0</ele><time>2026-04-26T10:26:08.587Z</time></trkpt><trkpt lat="39.9101033" lon="8.656795"><ele>13.0</ele><time>2026-04-26T10:26:51.587Z</time></trkpt><trkpt lat="39.9101883" lon="8.65684"><ele>12.999999999999998</ele><time>2026-04-26T10:26:55.652Z</time></trkpt><trkpt lat="39.910275" lon="8.6569167"><ele>13.0</ele><time>2026-04-26T10:26:57.595Z</time></trkpt><trkpt lat="39.9103267" lon="8.6569717"><ele>12.999999999999998</ele><time>2026-04-26T10:26:58.591Z</time></trkpt><trkpt lat="39.91038" lon="8.657035"><ele>13.0</ele><time>2026-04-26T10:26:59.586Z</time></trkpt><trkpt lat="39.9104383" lon="8.657105"><ele>13.0</ele><time>2026-04-26T10:27:00.593Z</time></trkpt><trkpt lat="39.9105017" lon="8.657175"><ele>13.0</ele><time>2026-04-26T10:27:01.651Z</time></trkpt><trkpt lat="39.910565" lon="8.6572383"><ele>12.999999999999998</ele><time>2026-04-26T10:27:02.593Z</time></trkpt><trkpt lat="39.9106367" lon="8.6572983"><ele>13.0</ele><time>2026-04-26T10:27:03.592Z</time></trkpt><trkpt lat="39.9107083" lon="8.657355"><ele>12.999999999999998</ele><time>2026-04-26T10:27:04.587Z</time></trkpt><trkpt lat="39.9107783" lon="8.6574133"><ele>13.0</ele><time>2026-04-26T10:27:05.595Z</time></trkpt><trkpt lat="39.91085" lon="8.6574667"><ele>13.0</ele><time>2026-04-26T10:27:06.591Z</time></trkpt><trkpt lat="39.910915" lon="8.6575117"><ele>13.0</ele><time>2026-04-26T10:27:07.644Z</time></trkpt><trkpt lat="39.9109833" lon="8.657565"><ele>12.999999999999998</ele><time>2026-04-26T10:27:08.588Z</time></trkpt><trkpt lat="39.91105" lon="8.6576183"><ele>13.0</ele><time>2026-04-26T10:27:09.591Z</time></trkpt><trkpt lat="39.911115" lon="8.6576733"><ele>12.999999999999998</ele><time>2026-04-26T10:27:10.59Z</time></trkpt><trkpt lat="39.91118" lon="8.6577283"><ele>13.0</ele><time>2026-04-26T10:27:11.596Z</time></trkpt><trkpt lat="39.9112467" lon="8.6577833"><ele>13.0</ele><time>2026-04-26T10:27:12.594Z</time></trkpt><trkpt lat="39.9113083" lon="8.6578383"><ele>13.0</ele><time>2026-04-26T10:27:13.637Z</time></trkpt><trkpt lat="39.9113667" lon="8.6578883"><ele>12.999999999999998</ele><time>2026-04-26T10:27:14.58Z</time></trkpt><trkpt lat="39.9114267" lon="8.6579383"><ele>13.0</ele><time>2026-04-26T10:27:15.589Z</time></trkpt><trkpt lat="39.9115433" lon="8.6580467"><ele>13.0</ele><time>2026-04-26T10:27:17.595Z</time></trkpt><trkpt lat="39.9116017" lon="8.6580983"><ele>13.0</ele><time>2026-04-26T10:27:18.59Z</time></trkpt><trkpt lat="39.9117917" lon="8.6582633"><ele>13.0</ele><time>2026-04-26T10:27:21.597Z</time></trkpt><trkpt lat="39.911855" lon="8.6583217"><ele>13.0</ele><time>2026-04-26T10:27:22.587Z</time></trkpt><trkpt lat="39.9121133" lon="8.65855"><ele>13.0</ele><time>2026-04-26T10:27:26.587Z</time></trkpt><trkpt lat="39.9122967" lon="8.6587083"><ele>13.0</ele><time>2026-04-26T10:27:29.594Z</time></trkpt><trkpt lat="39.9124117" lon="8.6588083"><ele>13.0</ele><time>2026-04-26T10:27:31.657Z</time></trkpt><trkpt lat="39.91247" lon="8.6588583"><ele>13.0</ele><time>2026-04-26T10:27:32.594Z</time></trkpt><trkpt lat="39.91263" lon="8.6589983"><ele>13.0</ele><time>2026-04-26T10:27:35.595Z</time></trkpt><trkpt lat="39.9128567" lon="8.6591917"><ele>13.0</ele><time>2026-04-26T10:27:39.593Z</time></trkpt><trkpt lat="39.9130217" lon="8.6593317"><ele>13.0</ele><time>2026-04-26T10:27:42.591Z</time></trkpt><trkpt lat="39.9130767" lon="8.65938"><ele>13.0</ele><time>2026-04-26T10:27:43.643Z</time></trkpt><trkpt lat="39.9131283" lon="8.6594283"><ele>13.0</ele><time>2026-04-26T10:27:44.587Z</time></trkpt><trkpt lat="39.9132267" lon="8.6595133"><ele>13.0</ele><time>2026-04-26T10:27:46.59Z</time></trkpt><trkpt lat="39.9133817" lon="8.65965"><ele>13.0</ele><time>2026-04-26T10:27:49.639Z</time></trkpt><trkpt lat="39.9134867" lon="8.65974"><ele>12.5</ele><time>2026-04-26T10:27:51.59Z</time></trkpt><trkpt lat="39.9135717" lon="8.659815"><ele>12.0</ele><time>2026-04-26T10:27:53.592Z</time></trkpt><trkpt lat="39.9136333" lon="8.659865"><ele>11.5</ele><time>2026-04-26T10:27:55.66Z</time></trkpt><trkpt lat="39.9136917" lon="8.659915"><ele>11.0</ele><time>2026-04-26T10:27:57.587Z</time></trkpt><trkpt lat="39.9138717" lon="8.6600667"><ele>11.0</ele><time>2026-04-26T10:28:02.585Z</time></trkpt><trkpt lat="39.9139433" lon="8.6601317"><ele>11.0</ele><time>2026-04-26T10:28:04.592Z</time></trkpt><trkpt lat="39.9140117" lon="8.6602033"><ele>11.0</ele><time>2026-04-26T10:28:06.59Z</time></trkpt><trkpt lat="39.9141183" lon="8.6602967"><ele>11.0</ele><time>2026-04-26T10:28:09.597Z</time></trkpt><trkpt lat="39.914175" lon="8.6603483"><ele>11.0</ele><time>2026-04-26T10:28:11.59Z</time></trkpt><trkpt lat="39.9143633" lon="8.66053"><ele>11.200000000000001</ele><time>2026-04-26T10:28:16.59Z</time></trkpt><trkpt lat="39.914415" lon="8.6605783"><ele>11.4</ele><time>2026-04-26T10:28:17.59Z</time></trkpt><trkpt lat="39.91447" lon="8.6606267"><ele>11.6</ele><time>2026-04-26T10:28:18.584Z</time></trkpt><trkpt lat="39.9145267" lon="8.660675"><ele>11.8</ele><time>2026-04-26T10:28:19.642Z</time></trkpt><trkpt lat="39.9146533" lon="8.66078"><ele>12.0</ele><time>2026-04-26T10:28:21.59Z</time></trkpt><trkpt lat="39.9147867" lon="8.660885"><ele>12.0</ele><time>2026-04-26T10:28:23.591Z</time></trkpt><trkpt lat="39.9149117" lon="8.66099"><ele>12.0</ele><time>2026-04-26T10:28:25.653Z</time></trkpt><trkpt lat="39.9150283" lon="8.6610967"><ele>12.0</ele><time>2026-04-26T10:28:27.584Z</time></trkpt><trkpt lat="39.9151433" lon="8.6611983"><ele>12.0</ele><time>2026-04-26T10:28:29.591Z</time></trkpt><trkpt lat="39.9152017" lon="8.6612483"><ele>12.0</ele><time>2026-04-26T10:28:30.595Z</time></trkpt><trkpt lat="39.91532" lon="8.6613567"><ele>12.0</ele><time>2026-04-26T10:28:32.595Z</time></trkpt><trkpt lat="39.915445" lon="8.66147"><ele>12.0</ele><time>2026-04-26T10:28:34.591Z</time></trkpt><trkpt lat="39.9155033" lon="8.6615233"><ele>12.0</ele><time>2026-04-26T10:28:35.601Z</time></trkpt><trkpt lat="39.9155583" lon="8.661575"><ele>12.0</ele><time>2026-04-26T10:28:36.593Z</time></trkpt><trkpt lat="39.91567" lon="8.6616717"><ele>12.0</ele><time>2026-04-26T10:28:38.585Z</time></trkpt><trkpt lat="39.91573" lon="8.6617233"><ele>12.0</ele><time>2026-04-26T10:28:39.593Z</time></trkpt><trkpt lat="39.9157883" lon="8.6617767"><ele>12.0</ele><time>2026-04-26T10:28:40.595Z</time></trkpt><trkpt lat="39.9158483" lon="8.6618283"><ele>12.0</ele><time>2026-04-26T10:28:41.591Z</time></trkpt><trkpt lat="39.9159083" lon="8.6618783"><ele>12.0</ele><time>2026-04-26T10:28:42.589Z</time></trkpt><trkpt lat="39.9160167" lon="8.6619767"><ele>12.0</ele><time>2026-04-26T10:28:44.587Z</time></trkpt><trkpt lat="39.9160717" lon="8.66202"><ele>12.0</ele><time>2026-04-26T10:28:45.587Z</time></trkpt><trkpt lat="39.9161667" lon="8.66209"><ele>12.0</ele><time>2026-04-26T10:28:47.59Z</time></trkpt><trkpt lat="39.916235" lon="8.6621483"><ele>12.0</ele><time>2026-04-26T10:28:49.639Z</time></trkpt><trkpt lat="39.9162733" lon="8.6622283"><ele>12.0</ele><time>2026-04-26T10:28:51.586Z</time></trkpt><trkpt lat="39.9162483" lon="8.6623317"><ele>12.0</ele><time>2026-04-26T10:28:53.59Z</time></trkpt><trkpt lat="39.9161867" lon="8.6624467"><ele>12.0</ele><time>2026-04-26T10:28:55.647Z</time></trkpt><trkpt lat="39.9161267" lon="8.662565"><ele>12.0</ele><time>2026-04-26T10:28:57.594Z</time></trkpt><trkpt lat="39.9160367" lon="8.66274"><ele>12.0</ele><time>2026-04-26T10:29:00.59Z</time></trkpt><trkpt lat="39.9159833" lon="8.6628383"><ele>12.0</ele><time>2026-04-26T10:29:03.591Z</time></trkpt><trkpt lat="39.9159933" lon="8.6629567"><ele>12.2</ele><time>2026-04-26T10:29:06.591Z</time></trkpt><trkpt lat="39.9160417" lon="8.6630433"><ele>12.399999999999999</ele><time>2026-04-26T10:29:08.586Z</time></trkpt><trkpt lat="39.916055" lon="8.663165"><ele>12.600000000000001</ele><time>2026-04-26T10:29:10.594Z</time></trkpt><trkpt lat="39.9160083" lon="8.66329"><ele>12.8</ele><time>2026-04-26T10:29:12.596Z</time></trkpt><trkpt lat="39.91593" lon="8.663425"><ele>13.0</ele><time>2026-04-26T10:29:14.598Z</time></trkpt><trkpt lat="39.9158817" lon="8.6635033"><ele>13.0</ele><time>2026-04-26T10:29:15.592Z</time></trkpt><trkpt lat="39.9158383" lon="8.66358"><ele>13.0</ele><time>2026-04-26T10:29:16.589Z</time></trkpt><trkpt lat="39.91576" lon="8.6637217"><ele>13.0</ele><time>2026-04-26T10:29:18.586Z</time></trkpt><trkpt lat="39.9156917" lon="8.6638367"><ele>13.0</ele><time>2026-04-26T10:29:20.589Z</time></trkpt><trkpt lat="39.9156267" lon="8.66394"><ele>13.0</ele><time>2026-04-26T10:29:22.592Z</time></trkpt><trkpt lat="39.9155617" lon="8.6640733"><ele>13.333333333333332</ele><time>2026-04-26T10:29:24.59Z</time></trkpt><trkpt lat="39.915505" lon="8.66419"><ele>13.666666666666666</ele><time>2026-04-26T10:29:26.59Z</time></trkpt><trkpt lat="39.915455" lon="8.66428"><ele>14.0</ele><time>2026-04-26T10:29:28.594Z</time></trkpt><trkpt lat="39.9154367" lon="8.664375"><ele>14.333333333333332</ele><time>2026-04-26T10:29:30.595Z</time></trkpt><trkpt lat="39.9154717" lon="8.6644633"><ele>14.666666666666666</ele><time>2026-04-26T10:29:32.598Z</time></trkpt><trkpt lat="39.915545" lon="8.6645433"><ele>15.0</ele><time>2026-04-26T10:29:34.593Z</time></trkpt><trkpt lat="39.9156283" lon="8.6646117"><ele>15.0</ele><time>2026-04-26T10:29:36.587Z</time></trkpt><trkpt lat="39.9157283" lon="8.664685"><ele>15.0</ele><time>2026-04-26T10:29:38.594Z</time></trkpt><trkpt lat="39.9158383" lon="8.66477"><ele>15.0</ele><time>2026-04-26T10:29:40.588Z</time></trkpt><trkpt lat="39.91593" lon="8.6648467"><ele>15.0</ele><time>2026-04-26T10:29:42.596Z</time></trkpt><trkpt lat="39.9160183" lon="8.6649233"><ele>14.8</ele><time>2026-04-26T10:29:44.595Z</time></trkpt><trkpt lat="39.9160933" lon="8.66499"><ele>14.6</ele><time>2026-04-26T10:29:46.594Z</time></trkpt><trkpt lat="39.9161783" lon="8.6650667"><ele>14.399999999999999</ele><time>2026-04-26T10:29:48.592Z</time></trkpt><trkpt lat="39.916255" lon="8.6651517"><ele>14.2</ele><time>2026-04-26T10:29:50.594Z</time></trkpt><trkpt lat="39.9163167" lon="8.6652383"><ele>14.0</ele><time>2026-04-26T10:29:52.585Z</time></trkpt><trkpt lat="39.916315" lon="8.6654083"><ele>14.000000000000002</ele><time>2026-04-26T10:29:55.66Z</time></trkpt><trkpt lat="39.9162233" lon="8.66558"><ele>14.0</ele><time>2026-04-26T10:29:58.587Z</time></trkpt><trkpt lat="39.9161833" lon="8.665645"><ele>14.0</ele><time>2026-04-26T10:29:59.59Z</time></trkpt><trkpt lat="39.916145" lon="8.6657167"><ele>14.0</ele><time>2026-04-26T10:30:00.588Z</time></trkpt><trkpt lat="39.9161017" lon="8.6658"><ele>14.000000000000002</ele><time>2026-04-26T10:30:01.66Z</time></trkpt><trkpt lat="39.91606" lon="8.6658867"><ele>14.0</ele><time>2026-04-26T10:30:02.591Z</time></trkpt><trkpt lat="39.9160267" lon="8.6659667"><ele>14.0</ele><time>2026-04-26T10:30:03.593Z</time></trkpt><trkpt lat="39.9159383" lon="8.666175"><ele>14.0</ele><time>2026-04-26T10:30:06.6Z</time></trkpt><trkpt lat="39.9159017" lon="8.6662483"><ele>14.0</ele><time>2026-04-26T10:30:07.642Z</time></trkpt><trkpt lat="39.9157917" lon="8.66647"><ele>14.5</ele><time>2026-04-26T10:30:10.593Z</time></trkpt><trkpt lat="39.9157383" lon="8.6665983"><ele>15.0</ele><time>2026-04-26T10:30:12.588Z</time></trkpt><trkpt lat="39.9156717" lon="8.66675"><ele>15.5</ele><time>2026-04-26T10:30:15.588Z</time></trkpt><trkpt lat="39.915635" lon="8.666885"><ele>16.0</ele><time>2026-04-26T10:30:17.588Z</time></trkpt><trkpt lat="39.9155983" lon="8.6671133"><ele>15.999999999999998</ele><time>2026-04-26T10:30:20.591Z</time></trkpt><trkpt lat="39.9155767" lon="8.6672583"><ele>16.0</ele><time>2026-04-26T10:30:22.6Z</time></trkpt><trkpt lat="39.9155583" lon="8.6673533"><ele>16.0</ele><time>2026-04-26T10:30:24.593Z</time></trkpt><trkpt lat="39.91554" lon="8.6674433"><ele>16.0</ele><time>2026-04-26T10:30:27.595Z</time></trkpt><trkpt lat="39.9155467" lon="8.6675283"><ele>15.999999999999998</ele><time>2026-04-26T10:30:29.592Z</time></trkpt><trkpt lat="39.9155917" lon="8.6676233"><ele>16.0</ele><time>2026-04-26T10:30:31.654Z</time></trkpt><trkpt lat="39.915625" lon="8.667755"><ele>15.8</ele><time>2026-04-26T10:30:33.584Z</time></trkpt><trkpt lat="39.9156317" lon="8.6679033"><ele>15.600000000000001</ele><time>2026-04-26T10:30:35.592Z</time></trkpt><trkpt lat="39.915625" lon="8.6680167"><ele>15.4</ele><time>2026-04-26T10:30:37.642Z</time></trkpt><trkpt lat="39.9156217" lon="8.6681283"><ele>15.2</ele><time>2026-04-26T10:30:39.581Z</time></trkpt><trkpt lat="39.9156183" lon="8.6683067"><ele>15.0</ele><time>2026-04-26T10:30:42.586Z</time></trkpt><trkpt lat="39.9156083" lon="8.668425"><ele>15.0</ele><time>2026-04-26T10:30:44.583Z</time></trkpt><trkpt lat="39.9156033" lon="8.6685433"><ele>15.0</ele><time>2026-04-26T10:30:46.595Z</time></trkpt><trkpt lat="39.915595" lon="8.66866"><ele>15.0</ele><time>2026-04-26T10:30:48.583Z</time></trkpt><trkpt lat="39.9155867" lon="8.6687683"><ele>15.0</ele><time>2026-04-26T10:30:50.593Z</time></trkpt><trkpt lat="39.9155967" lon="8.668985"><ele>15.0</ele><time>2026-04-26T10:30:53.586Z</time></trkpt><trkpt lat="39.9155983" lon="8.6690733"><ele>15.0</ele><time>2026-04-26T10:30:54.594Z</time></trkpt><trkpt lat="39.91562" lon="8.6693567"><ele>15.0</ele><time>2026-04-26T10:30:57.592Z</time></trkpt><trkpt lat="39.915645" lon="8.6695833"><ele>15.0</ele><time>2026-04-26T10:30:59.596Z</time></trkpt><trkpt lat="39.9156583" lon="8.6697083"><ele>15.0</ele><time>2026-04-26T10:31:00.591Z</time></trkpt><trkpt lat="39.91567" lon="8.66984"><ele>15.0</ele><time>2026-04-26T10:31:01.652Z</time></trkpt><trkpt lat="39.9156817" lon="8.6699683"><ele>15.0</ele><time>2026-04-26T10:31:02.583Z</time></trkpt><trkpt lat="39.9157067" lon="8.6702967"><ele>15.0</ele><time>2026-04-26T10:31:05.596Z</time></trkpt><trkpt lat="39.9157133" lon="8.670405"><ele>15.0</ele><time>2026-04-26T10:31:06.588Z</time></trkpt><trkpt lat="39.91572" lon="8.6705167"><ele>15.0</ele><time>2026-04-26T10:31:07.645Z</time></trkpt><trkpt lat="39.9157317" lon="8.6706317"><ele>15.0</ele><time>2026-04-26T10:31:08.581Z</time></trkpt><trkpt lat="39.9157617" lon="8.67087"><ele>15.0</ele><time>2026-04-26T10:31:10.589Z</time></trkpt><trkpt lat="39.915815" lon="8.6711083"><ele>15.0</ele><time>2026-04-26T10:31:12.593Z</time></trkpt><trkpt lat="39.91585" lon="8.671225"><ele>15.0</ele><time>2026-04-26T10:31:13.644Z</time></trkpt><trkpt lat="39.9161583" lon="8.672005"><ele>15.0</ele><time>2026-04-26T10:31:20.592Z</time></trkpt><trkpt lat="39.9163733" lon="8.6726267"><ele>15.0</ele><time>2026-04-26T10:31:25.66Z</time></trkpt><trkpt lat="39.9164217" lon="8.6727533"><ele>15.0</ele><time>2026-04-26T10:31:26.591Z</time></trkpt><trkpt lat="39.9164683" lon="8.6728767"><ele>15.0</ele><time>2026-04-26T10:31:27.582Z</time></trkpt><trkpt lat="39.9165133" lon="8.6729983"><ele>15.0</ele><time>2026-04-26T10:31:28.588Z</time></trkpt><trkpt lat="39.9167267" lon="8.6734767"><ele>15.5</ele><time>2026-04-26T10:31:32.588Z</time></trkpt><trkpt lat="39.9168533" lon="8.6737033"><ele>16.0</ele><time>2026-04-26T10:31:34.582Z</time></trkpt><trkpt lat="39.9170367" lon="8.6740333"><ele>16.0</ele><time>2026-04-26T10:31:37.639Z</time></trkpt><trkpt lat="39.9172333" lon="8.67437"><ele>16.0</ele><time>2026-04-26T10:31:40.589Z</time></trkpt><trkpt lat="39.9174333" lon="8.6747083"><ele>16.0</ele><time>2026-04-26T10:31:43.637Z</time></trkpt><trkpt lat="39.917565" lon="8.6749283"><ele>16.0</ele><time>2026-04-26T10:31:45.587Z</time></trkpt><trkpt lat="39.9176833" lon="8.6751133"><ele>16.0</ele><time>2026-04-26T10:31:47.591Z</time></trkpt><trkpt lat="39.9177383" lon="8.6751917"><ele>15.5</ele><time>2026-04-26T10:31:48.585Z</time></trkpt><trkpt lat="39.917925" lon="8.675405"><ele>15.0</ele><time>2026-04-26T10:31:51.586Z</time></trkpt><trkpt lat="39.9181483" lon="8.6756067"><ele>15.0</ele><time>2026-04-26T10:31:54.585Z</time></trkpt><trkpt lat="39.9182167" lon="8.675685"><ele>15.0</ele><time>2026-04-26T10:31:55.654Z</time></trkpt><trkpt lat="39.91828" lon="8.6757783"><ele>15.0</ele><time>2026-04-26T10:31:56.586Z</time></trkpt><trkpt lat="39.9183917" lon="8.6759933"><ele>15.0</ele><time>2026-04-26T10:31:58.59Z</time></trkpt><trkpt lat="39.9184483" lon="8.6760983"><ele>15.25</ele><time>2026-04-26T10:31:59.585Z</time></trkpt><trkpt lat="39.9185067" lon="8.676195"><ele>15.5</ele><time>2026-04-26T10:32:00.591Z</time></trkpt><trkpt lat="39.9185633" lon="8.676285"><ele>15.75</ele><time>2026-04-26T10:32:01.643Z</time></trkpt><trkpt lat="39.9186617" lon="8.6764667"><ele>16.0</ele><time>2026-04-26T10:32:03.587Z</time></trkpt><trkpt lat="39.91881" lon="8.676755"><ele>16.25</ele><time>2026-04-26T10:32:06.588Z</time></trkpt><trkpt lat="39.918925" lon="8.6769433"><ele>16.5</ele><time>2026-04-26T10:32:08.585Z</time></trkpt><trkpt lat="39.9189817" lon="8.6770317"><ele>16.75</ele><time>2026-04-26T10:32:09.585Z</time></trkpt><trkpt lat="39.9190383" lon="8.6771233"><ele>17.0</ele><time>2026-04-26T10:32:10.587Z</time></trkpt><trkpt lat="39.9190933" lon="8.6772133"><ele>17.0</ele><time>2026-04-26T10:32:11.586Z</time></trkpt><trkpt lat="39.9191467" lon="8.677295"><ele>17.0</ele><time>2026-04-26T10:32:12.592Z</time></trkpt><trkpt lat="39.9192933" lon="8.6774983"><ele>17.0</ele><time>2026-04-26T10:32:15.584Z</time></trkpt><trkpt lat="39.9193517" lon="8.6775567"><ele>17.0</ele><time>2026-04-26T10:32:16.581Z</time></trkpt><trkpt lat="39.919415" lon="8.6776133"><ele>17.0</ele><time>2026-04-26T10:32:17.593Z</time></trkpt><trkpt lat="39.9195417" lon="8.6777233"><ele>17.0</ele><time>2026-04-26T10:32:19.633Z</time></trkpt><trkpt lat="39.9197533" lon="8.677915"><ele>17.0</ele><time>2026-04-26T10:32:22.586Z</time></trkpt><trkpt lat="39.9199533" lon="8.6781033"><ele>16.0</ele><time>2026-04-26T10:32:25.648Z</time></trkpt><trkpt lat="39.92008" lon="8.6782333"><ele>15.0</ele><time>2026-04-26T10:32:27.593Z</time></trkpt><trkpt lat="39.920145" lon="8.6783017"><ele>14.0</ele><time>2026-04-26T10:32:28.594Z</time></trkpt><trkpt lat="39.9203533" lon="8.678515"><ele>14.0</ele><time>2026-04-26T10:32:31.65Z</time></trkpt><trkpt lat="39.9204167" lon="8.67858"><ele>14.0</ele><time>2026-04-26T10:32:32.593Z</time></trkpt><trkpt lat="39.920525" lon="8.6786933"><ele>14.0</ele><time>2026-04-26T10:32:34.592Z</time></trkpt><trkpt lat="39.9207417" lon="8.6789267"><ele>14.5</ele><time>2026-04-26T10:32:39.591Z</time></trkpt><trkpt lat="39.9208417" lon="8.6790417"><ele>15.0</ele><time>2026-04-26T10:32:42.598Z</time></trkpt><trkpt lat="39.9208717" lon="8.679215"><ele>15.5</ele><time>2026-04-26T10:32:45.585Z</time></trkpt><trkpt lat="39.92076" lon="8.6793667"><ele>16.0</ele><time>2026-04-26T10:32:48.59Z</time></trkpt><trkpt lat="39.9206967" lon="8.6794067"><ele>16.25</ele><time>2026-04-26T10:32:49.63Z</time></trkpt><trkpt lat="39.9205583" lon="8.67948"><ele>16.5</ele><time>2026-04-26T10:32:51.586Z</time></trkpt><trkpt lat="39.9204917" lon="8.6795167"><ele>16.75</ele><time>2026-04-26T10:32:52.592Z</time></trkpt><trkpt lat="39.920375" lon="8.6796067"><ele>17.0</ele><time>2026-04-26T10:32:54.583Z</time></trkpt><trkpt lat="39.9202117" lon="8.6797933"><ele>17.0</ele><time>2026-04-26T10:32:57.588Z</time></trkpt><trkpt lat="39.92016" lon="8.679865"><ele>17.0</ele><time>2026-04-26T10:32:58.586Z</time></trkpt><trkpt lat="39.9200533" lon="8.6800083"><ele>17.0</ele><time>2026-04-26T10:33:00.59Z</time></trkpt><trkpt lat="39.9199067" lon="8.6802217"><ele>17.0</ele><time>2026-04-26T10:33:04.586Z</time></trkpt><trkpt lat="39.9198483" lon="8.6803317"><ele>16.75</ele><time>2026-04-26T10:33:06.59Z</time></trkpt><trkpt lat="39.9198" lon="8.680485"><ele>16.5</ele><time>2026-04-26T10:33:08.594Z</time></trkpt><trkpt lat="39.919725" lon="8.6807533"><ele>16.25</ele><time>2026-04-26T10:33:11.589Z</time></trkpt><trkpt lat="39.9197" lon="8.68085"><ele>16.0</ele><time>2026-04-26T10:33:12.588Z</time></trkpt><trkpt lat="39.919675" lon="8.6809483"><ele>16.0</ele><time>2026-04-26T10:33:13.635Z</time></trkpt><trkpt lat="39.91963" lon="8.68115"><ele>16.0</ele><time>2026-04-26T10:33:15.584Z</time></trkpt><trkpt lat="39.919615" lon="8.6812517"><ele>16.0</ele><time>2026-04-26T10:33:16.585Z</time></trkpt><trkpt lat="39.9195933" lon="8.68144"><ele>16.0</ele><time>2026-04-26T10:33:18.589Z</time></trkpt><trkpt lat="39.9195967" lon="8.68161"><ele>16.0</ele><time>2026-04-26T10:33:20.591Z</time></trkpt><trkpt lat="39.9196183" lon="8.6816933"><ele>16.0</ele><time>2026-04-26T10:33:21.593Z</time></trkpt><trkpt lat="39.9196567" lon="8.6818667"><ele>16.0</ele><time>2026-04-26T10:33:23.588Z</time></trkpt><trkpt lat="39.919665" lon="8.6819667"><ele>16.0</ele><time>2026-04-26T10:33:24.589Z</time></trkpt><trkpt lat="39.91967" lon="8.6820683"><ele>16.0</ele><time>2026-04-26T10:33:25.631Z</time></trkpt><trkpt lat="39.9196567" lon="8.682275"><ele>16.5</ele><time>2026-04-26T10:33:27.582Z</time></trkpt><trkpt lat="39.9196233" lon="8.68259"><ele>17.0</ele><time>2026-04-26T10:33:30.587Z</time></trkpt><trkpt lat="39.9196083" lon="8.682695"><ele>17.5</ele><time>2026-04-26T10:33:31.646Z</time></trkpt><trkpt lat="39.9195933" lon="8.6827983"><ele>18.0</ele><time>2026-04-26T10:33:32.595Z</time></trkpt><trkpt lat="39.9195733" lon="8.6828983"><ele>18.25</ele><time>2026-04-26T10:33:33.584Z</time></trkpt><trkpt lat="39.91951" lon="8.6830933"><ele>18.5</ele><time>2026-04-26T10:33:35.583Z</time></trkpt><trkpt lat="39.9194633" lon="8.6831767"><ele>18.75</ele><time>2026-04-26T10:33:36.593Z</time></trkpt><trkpt lat="39.91941" lon="8.6832483"><ele>19.0</ele><time>2026-04-26T10:33:37.636Z</time></trkpt><trkpt lat="39.9192183" lon="8.6834283"><ele>19.0</ele><time>2026-04-26T10:33:40.596Z</time></trkpt><trkpt lat="39.9190517" lon="8.6836533"><ele>19.0</ele><time>2026-04-26T10:33:43.647Z</time></trkpt><trkpt lat="39.9190183" lon="8.6837433"><ele>19.0</ele><time>2026-04-26T10:33:44.584Z</time></trkpt><trkpt lat="39.91895" lon="8.6839317"><ele>19.0</ele><time>2026-04-26T10:33:46.598Z</time></trkpt><trkpt lat="39.918915" lon="8.6840317"><ele>19.0</ele><time>2026-04-26T10:33:47.587Z</time></trkpt><trkpt lat="39.918885" lon="8.6841383"><ele>19.0</ele><time>2026-04-26T10:33:48.601Z</time></trkpt><trkpt lat="39.9188633" lon="8.6842517"><ele>19.0</ele><time>2026-04-26T10:33:49.645Z</time></trkpt><trkpt lat="39.918845" lon="8.6843683"><ele>19.0</ele><time>2026-04-26T10:33:50.586Z</time></trkpt><trkpt lat="39.9188233" lon="8.6844783"><ele>19.0</ele><time>2026-04-26T10:33:51.587Z</time></trkpt><trkpt lat="39.918795" lon="8.68458"><ele>19.0</ele><time>2026-04-26T10:33:52.595Z</time></trkpt><trkpt lat="39.9187617" lon="8.6846767"><ele>19.0</ele><time>2026-04-26T10:33:53.593Z</time></trkpt><trkpt lat="39.91866" lon="8.684945"><ele>19.0</ele><time>2026-04-26T10:33:56.588Z</time></trkpt><trkpt lat="39.9185717" lon="8.685205"><ele>19.0</ele><time>2026-04-26T10:33:59.591Z</time></trkpt><trkpt lat="39.918495" lon="8.6854283"><ele>19.0</ele><time>2026-04-26T10:34:02.592Z</time></trkpt><trkpt lat="39.9184667" lon="8.6855567"><ele>19.0</ele><time>2026-04-26T10:34:04.59Z</time></trkpt><trkpt lat="39.9187" lon="8.6865317"><ele>18.0</ele><time>2026-04-26T10:34:14.585Z</time></trkpt><trkpt lat="39.9188033" lon="8.6867433"><ele>17.0</ele><time>2026-04-26T10:34:16.585Z</time></trkpt><trkpt lat="39.9189483" lon="8.6870217"><ele>17.0</ele><time>2026-04-26T10:34:19.644Z</time></trkpt><trkpt lat="39.919135" lon="8.6872617"><ele>17.0</ele><time>2026-04-26T10:34:22.59Z</time></trkpt><trkpt lat="39.919325" lon="8.6874717"><ele>17.0</ele><time>2026-04-26T10:34:25.655Z</time></trkpt><trkpt lat="39.9195233" lon="8.68765"><ele>17.0</ele><time>2026-04-26T10:34:28.597Z</time></trkpt><trkpt lat="39.919585" lon="8.687705"><ele>17.0</ele><time>2026-04-26T10:34:29.594Z</time></trkpt><trkpt lat="39.9197083" lon="8.6878267"><ele>17.0</ele><time>2026-04-26T10:34:32.59Z</time></trkpt><trkpt lat="39.9197617" lon="8.68788"><ele>17.0</ele><time>2026-04-26T10:34:34.586Z</time></trkpt><trkpt lat="39.9198167" lon="8.6879417"><ele>17.0</ele><time>2026-04-26T10:34:37.631Z</time></trkpt><trkpt lat="39.9198883" lon="8.6879883"><ele>17.0</ele><time>2026-04-26T10:34:41.586Z</time></trkpt><trkpt lat="39.9200283" lon="8.688"><ele>17.0</ele><time>2026-04-26T10:34:44.589Z</time></trkpt><trkpt lat="39.9201833" lon="8.6880633"><ele>17.0</ele><time>2026-04-26T10:34:47.585Z</time></trkpt><trkpt lat="39.9204" lon="8.6882267"><ele>17.0</ele><time>2026-04-26T10:34:51.589Z</time></trkpt><trkpt lat="39.920535" lon="8.6883733"><ele>17.0</ele><time>2026-04-26T10:34:54.583Z</time></trkpt><trkpt lat="39.9206333" lon="8.6884817"><ele>17.0</ele><time>2026-04-26T10:34:57.59Z</time></trkpt><trkpt lat="39.9207" lon="8.6885767"><ele>17.0</ele><time>2026-04-26T10:35:00.585Z</time></trkpt><trkpt lat="39.9207567" lon="8.6887833"><ele>17.0</ele><time>2026-04-26T10:35:04.587Z</time></trkpt><trkpt lat="39.920855" lon="8.689055"><ele>16.5</ele><time>2026-04-26T10:35:08.59Z</time></trkpt><trkpt lat="39.920945" lon="8.68921"><ele>16.0</ele><time>2026-04-26T10:35:10.588Z</time></trkpt><trkpt lat="39.920995" lon="8.6892933"><ele>15.5</ele><time>2026-04-26T10:35:11.593Z</time></trkpt><trkpt lat="39.9211083" lon="8.68945"><ele>15.0</ele><time>2026-04-26T10:35:13.636Z</time></trkpt><trkpt lat="39.9212383" lon="8.6896617"><ele>15.0</ele><time>2026-04-26T10:35:16.585Z</time></trkpt><trkpt lat="39.9213817" lon="8.6898883"><ele>15.0</ele><time>2026-04-26T10:35:20.582Z</time></trkpt><trkpt lat="39.921525" lon="8.6901067"><ele>15.0</ele><time>2026-04-26T10:35:23.581Z</time></trkpt><trkpt lat="39.9216183" lon="8.690255"><ele>15.25</ele><time>2026-04-26T10:35:25.653Z</time></trkpt><trkpt lat="39.9217117" lon="8.6904067"><ele>15.5</ele><time>2026-04-26T10:35:27.594Z</time></trkpt><trkpt lat="39.921755" lon="8.690475"><ele>15.75</ele><time>2026-04-26T10:35:28.587Z</time></trkpt><trkpt lat="39.921825" lon="8.690585"><ele>16.0</ele><time>2026-04-26T10:35:30.588Z</time></trkpt><trkpt lat="39.9219117" lon="8.6907133"><ele>16.0</ele><time>2026-04-26T10:35:33.591Z</time></trkpt><trkpt lat="39.922015" lon="8.69084"><ele>16.0</ele><time>2026-04-26T10:35:36.593Z</time></trkpt><trkpt lat="39.9221467" lon="8.691025"><ele>16.0</ele><time>2026-04-26T10:35:42.589Z</time></trkpt><trkpt lat="39.92211" lon="8.6911333"><ele>16.0</ele><time>2026-04-26T10:35:44.582Z</time></trkpt><trkpt lat="39.922065" lon="8.691195"><ele>15.999999999999998</ele><time>2026-04-26T10:35:45.581Z</time></trkpt><trkpt lat="39.922005" lon="8.6912567"><ele>16.0</ele><time>2026-04-26T10:35:46.587Z</time></trkpt><trkpt lat="39.92194" lon="8.6913117"><ele>16.0</ele><time>2026-04-26T10:35:47.586Z</time></trkpt><trkpt lat="39.92188" lon="8.6913567"><ele>16.0</ele><time>2026-04-26T10:35:48.583Z</time></trkpt><trkpt lat="39.921785" lon="8.69142"><ele>15.999999999999998</ele><time>2026-04-26T10:35:50.583Z</time></trkpt><trkpt lat="39.921705" lon="8.6914567"><ele>16.0</ele><time>2026-04-26T10:35:52.588Z</time></trkpt><trkpt lat="39.9216067" lon="8.6915067"><ele>16.0</ele><time>2026-04-26T10:35:54.585Z</time></trkpt><trkpt lat="39.921495" lon="8.691585"><ele>16.0</ele><time>2026-04-26T10:35:56.585Z</time></trkpt><trkpt lat="39.921425" lon="8.6916267"><ele>16.0</ele><time>2026-04-26T10:35:57.585Z</time></trkpt><trkpt lat="39.9213467" lon="8.6916633"><ele>16.0</ele><time>2026-04-26T10:35:58.583Z</time></trkpt><trkpt lat="39.9212667" lon="8.6917"><ele>16.0</ele><time>2026-04-26T10:35:59.584Z</time></trkpt><trkpt lat="39.921185" lon="8.691735"><ele>15.999999999999998</ele><time>2026-04-26T10:36:00.591Z</time></trkpt><trkpt lat="39.9211017" lon="8.6917683"><ele>16.0</ele><time>2026-04-26T10:36:01.645Z</time></trkpt><trkpt lat="39.9210217" lon="8.6918067"><ele>16.0</ele><time>2026-04-26T10:36:02.587Z</time></trkpt><trkpt lat="39.920945" lon="8.6918467"><ele>16.0</ele><time>2026-04-26T10:36:03.596Z</time></trkpt><trkpt lat="39.92087" lon="8.6918867"><ele>15.999999999999998</ele><time>2026-04-26T10:36:04.585Z</time></trkpt><trkpt lat="39.9207967" lon="8.6919233"><ele>16.0</ele><time>2026-04-26T10:36:05.586Z</time></trkpt><trkpt lat="39.9207267" lon="8.69196"><ele>15.714285714285714</ele><time>2026-04-26T10:36:06.589Z</time></trkpt><trkpt lat="39.9206617" lon="8.692"><ele>15.428571428571427</ele><time>2026-04-26T10:36:07.635Z</time></trkpt><trkpt lat="39.920595" lon="8.69204"><ele>15.142857142857142</ele><time>2026-04-26T10:36:08.581Z</time></trkpt><trkpt lat="39.9205317" lon="8.6920767"><ele>14.857142857142858</ele><time>2026-04-26T10:36:09.591Z</time></trkpt><trkpt lat="39.92047" lon="8.69212"><ele>14.571428571428571</ele><time>2026-04-26T10:36:10.588Z</time></trkpt><trkpt lat="39.9204067" lon="8.692165"><ele>14.285714285714285</ele><time>2026-04-26T10:36:11.583Z</time></trkpt><trkpt lat="39.9203383" lon="8.6922133"><ele>14.0</ele><time>2026-04-26T10:36:12.588Z</time></trkpt><trkpt lat="39.92027" lon="8.6922667"><ele>14.000000000000002</ele><time>2026-04-26T10:36:13.634Z</time></trkpt><trkpt lat="39.9202033" lon="8.6923217"><ele>14.0</ele><time>2026-04-26T10:36:14.584Z</time></trkpt><trkpt lat="39.920135" lon="8.6923733"><ele>14.0</ele><time>2026-04-26T10:36:15.586Z</time></trkpt><trkpt lat="39.920065" lon="8.6924233"><ele>14.0</ele><time>2026-04-26T10:36:16.586Z</time></trkpt><trkpt lat="39.9199933" lon="8.692475"><ele>14.000000000000002</ele><time>2026-04-26T10:36:17.588Z</time></trkpt><trkpt lat="39.9199233" lon="8.692525"><ele>14.0</ele><time>2026-04-26T10:36:18.589Z</time></trkpt><trkpt lat="39.91985" lon="8.6925633"><ele>14.428571428571429</ele><time>2026-04-26T10:36:19.638Z</time></trkpt><trkpt lat="39.9197817" lon="8.6925983"><ele>14.857142857142858</ele><time>2026-04-26T10:36:20.585Z</time></trkpt><trkpt lat="39.9197133" lon="8.6926367"><ele>15.285714285714285</ele><time>2026-04-26T10:36:21.587Z</time></trkpt><trkpt lat="39.9196467" lon="8.69268"><ele>15.714285714285714</ele><time>2026-04-26T10:36:22.589Z</time></trkpt><trkpt lat="39.91958" lon="8.692725"><ele>16.142857142857142</ele><time>2026-04-26T10:36:23.585Z</time></trkpt><trkpt lat="39.919515" lon="8.6927767"><ele>16.57142857142857</ele><time>2026-04-26T10:36:24.588Z</time></trkpt><trkpt lat="39.919455" lon="8.6928333"><ele>17.0</ele><time>2026-04-26T10:36:25.651Z</time></trkpt><trkpt lat="39.9193967" lon="8.6928933"><ele>17.0</ele><time>2026-04-26T10:36:26.591Z</time></trkpt><trkpt lat="39.9193383" lon="8.692955"><ele>17.0</ele><time>2026-04-26T10:36:27.598Z</time></trkpt><trkpt lat="39.91928" lon="8.6930183"><ele>17.0</ele><time>2026-04-26T10:36:28.591Z</time></trkpt><trkpt lat="39.91922" lon="8.6930867"><ele>17.0</ele><time>2026-04-26T10:36:29.585Z</time></trkpt><trkpt lat="39.9191583" lon="8.6931533"><ele>17.0</ele><time>2026-04-26T10:36:30.588Z</time></trkpt><trkpt lat="39.9190967" lon="8.6932167"><ele>17.0</ele><time>2026-04-26T10:36:31.65Z</time></trkpt><trkpt lat="39.91903" lon="8.6932767"><ele>17.5</ele><time>2026-04-26T10:36:32.586Z</time></trkpt><trkpt lat="39.9189583" lon="8.6933317"><ele>18.0</ele><time>2026-04-26T10:36:33.591Z</time></trkpt><trkpt lat="39.918885" lon="8.6933833"><ele>18.5</ele><time>2026-04-26T10:36:34.595Z</time></trkpt><trkpt lat="39.918815" lon="8.6934267"><ele>19.0</ele><time>2026-04-26T10:36:35.593Z</time></trkpt><trkpt lat="39.91875" lon="8.6934617"><ele>19.5</ele><time>2026-04-26T10:36:36.582Z</time></trkpt><trkpt lat="39.91869" lon="8.6934933"><ele>20.0</ele><time>2026-04-26T10:36:37.636Z</time></trkpt><trkpt lat="39.9185817" lon="8.693535"><ele>20.0</ele><time>2026-04-26T10:36:39.591Z</time></trkpt><trkpt lat="39.9185" lon="8.6935733"><ele>20.0</ele><time>2026-04-26T10:36:41.589Z</time></trkpt><trkpt lat="39.9184417" lon="8.6936783"><ele>20.0</ele><time>2026-04-26T10:36:43.632Z</time></trkpt><trkpt lat="39.918425" lon="8.6937683"><ele>20.0</ele><time>2026-04-26T10:36:44.586Z</time></trkpt><trkpt lat="39.9184133" lon="8.6938733"><ele>20.0</ele><time>2026-04-26T10:36:45.588Z</time></trkpt><trkpt lat="39.9184017" lon="8.693985"><ele>20.0</ele><time>2026-04-26T10:36:46.59Z</time></trkpt><trkpt lat="39.9183867" lon="8.6941017"><ele>20.0</ele><time>2026-04-26T10:36:47.591Z</time></trkpt><trkpt lat="39.9183683" lon="8.6942233"><ele>20.0</ele><time>2026-04-26T10:36:48.591Z</time></trkpt><trkpt lat="39.9183517" lon="8.6943383"><ele>20.0</ele><time>2026-04-26T10:36:49.634Z</time></trkpt><trkpt lat="39.91833" lon="8.6944517"><ele>20.0</ele><time>2026-04-26T10:36:50.591Z</time></trkpt><trkpt lat="39.9183067" lon="8.6945683"><ele>20.0</ele><time>2026-04-26T10:36:51.591Z</time></trkpt><trkpt lat="39.9182867" lon="8.69469"><ele>20.2</ele><time>2026-04-26T10:36:52.59Z</time></trkpt><trkpt lat="39.9182667" lon="8.6948133"><ele>20.4</ele><time>2026-04-26T10:36:53.586Z</time></trkpt><trkpt lat="39.9182517" lon="8.69494"><ele>20.6</ele><time>2026-04-26T10:36:54.588Z</time></trkpt><trkpt lat="39.9182433" lon="8.69507"><ele>20.8</ele><time>2026-04-26T10:36:55.657Z</time></trkpt><trkpt lat="39.91824" lon="8.6952"><ele>21.0</ele><time>2026-04-26T10:36:56.588Z</time></trkpt><trkpt lat="39.91824" lon="8.6953317"><ele>21.0</ele><time>2026-04-26T10:36:57.591Z</time></trkpt><trkpt lat="39.9182417" lon="8.69546"><ele>21.0</ele><time>2026-04-26T10:36:58.586Z</time></trkpt><trkpt lat="39.9182433" lon="8.6955883"><ele>21.0</ele><time>2026-04-26T10:36:59.589Z</time></trkpt><trkpt lat="39.918245" lon="8.6957117"><ele>21.0</ele><time>2026-04-26T10:37:00.586Z</time></trkpt><trkpt lat="39.9182433" lon="8.69583"><ele>21.0</ele><time>2026-04-26T10:37:01.654Z</time></trkpt><trkpt lat="39.9182383" lon="8.69594"><ele>21.0</ele><time>2026-04-26T10:37:02.584Z</time></trkpt><trkpt lat="39.918225" lon="8.696045"><ele>21.0</ele><time>2026-04-26T10:37:03.588Z</time></trkpt><trkpt lat="39.9182117" lon="8.6961467"><ele>21.0</ele><time>2026-04-26T10:37:04.583Z</time></trkpt><trkpt lat="39.9182" lon="8.6962517"><ele>21.0</ele><time>2026-04-26T10:37:05.586Z</time></trkpt><trkpt lat="39.9181983" lon="8.6963667"><ele>21.0</ele><time>2026-04-26T10:37:06.593Z</time></trkpt><trkpt lat="39.91821" lon="8.696485"><ele>21.0</ele><time>2026-04-26T10:37:07.639Z</time></trkpt><trkpt lat="39.9182267" lon="8.6966017"><ele>20.5</ele><time>2026-04-26T10:37:08.586Z</time></trkpt><trkpt lat="39.918245" lon="8.696715"><ele>20.0</ele><time>2026-04-26T10:37:09.591Z</time></trkpt><trkpt lat="39.91826" lon="8.6968217"><ele>19.5</ele><time>2026-04-26T10:37:10.591Z</time></trkpt><trkpt lat="39.9182717" lon="8.696925"><ele>19.0</ele><time>2026-04-26T10:37:11.583Z</time></trkpt><trkpt lat="39.9182783" lon="8.6970217"><ele>18.5</ele><time>2026-04-26T10:37:12.587Z</time></trkpt><trkpt lat="39.9182817" lon="8.6971167"><ele>18.0</ele><time>2026-04-26T10:37:13.638Z</time></trkpt><trkpt lat="39.9182817" lon="8.6972133"><ele>18.0</ele><time>2026-04-26T10:37:14.588Z</time></trkpt><trkpt lat="39.91829" lon="8.6973117"><ele>18.0</ele><time>2026-04-26T10:37:15.598Z</time></trkpt><trkpt lat="39.9183033" lon="8.6974183"><ele>18.0</ele><time>2026-04-26T10:37:16.587Z</time></trkpt><trkpt lat="39.91842" lon="8.6979967"><ele>18.666666666666668</ele><time>2026-04-26T10:37:21.597Z</time></trkpt><trkpt lat="39.91848" lon="8.69824"><ele>19.333333333333336</ele><time>2026-04-26T10:37:23.586Z</time></trkpt><trkpt lat="39.9185133" lon="8.6983633"><ele>20.0</ele><time>2026-04-26T10:37:24.587Z</time></trkpt><trkpt lat="39.9185917" lon="8.6985983"><ele>20.0</ele><time>2026-04-26T10:37:26.588Z</time></trkpt><trkpt lat="39.918675" lon="8.6988067"><ele>20.0</ele><time>2026-04-26T10:37:28.585Z</time></trkpt><trkpt lat="39.918715" lon="8.6988983"><ele>20.0</ele><time>2026-04-26T10:37:29.586Z</time></trkpt><trkpt lat="39.91878" lon="8.699045"><ele>20.0</ele><time>2026-04-26T10:37:31.642Z</time></trkpt><trkpt lat="39.9188483" lon="8.6992117"><ele>20.0</ele><time>2026-04-26T10:37:35.594Z</time></trkpt><trkpt lat="39.9188283" lon="8.6993167"><ele>20.0</ele><time>2026-04-26T10:37:37.635Z</time></trkpt><trkpt lat="39.9187933" lon="8.6993867"><ele>20.0</ele><time>2026-04-26T10:37:38.583Z</time></trkpt><trkpt lat="39.9187417" lon="8.6994633"><ele>20.0</ele><time>2026-04-26T10:37:39.583Z</time></trkpt><trkpt lat="39.9186833" lon="8.6995517"><ele>20.0</ele><time>2026-04-26T10:37:40.582Z</time></trkpt><trkpt lat="39.9186233" lon="8.699645"><ele>20.0</ele><time>2026-04-26T10:37:41.584Z</time></trkpt><trkpt lat="39.9185633" lon="8.699745"><ele>19.5</ele><time>2026-04-26T10:37:42.589Z</time></trkpt><trkpt lat="39.9184983" lon="8.6998517"><ele>19.0</ele><time>2026-04-26T10:37:43.638Z</time></trkpt><trkpt lat="39.91843" lon="8.6999517"><ele>18.5</ele><time>2026-04-26T10:37:44.59Z</time></trkpt><trkpt lat="39.9182817" lon="8.700125"><ele>18.0</ele><time>2026-04-26T10:37:46.59Z</time></trkpt><trkpt lat="39.9181317" lon="8.7003"><ele>18.0</ele><time>2026-04-26T10:37:48.586Z</time></trkpt><trkpt lat="39.918055" lon="8.7003867"><ele>18.0</ele><time>2026-04-26T10:37:49.642Z</time></trkpt><trkpt lat="39.9179783" lon="8.7004733"><ele>18.0</ele><time>2026-04-26T10:37:50.579Z</time></trkpt><trkpt lat="39.9179033" lon="8.7005583"><ele>18.0</ele><time>2026-04-26T10:37:51.581Z</time></trkpt><trkpt lat="39.9178317" lon="8.7006383"><ele>18.0</ele><time>2026-04-26T10:37:52.585Z</time></trkpt><trkpt lat="39.9177567" lon="8.700715"><ele>18.0</ele><time>2026-04-26T10:37:53.583Z</time></trkpt><trkpt lat="39.9176833" lon="8.7007867"><ele>18.0</ele><time>2026-04-26T10:37:54.584Z</time></trkpt><trkpt lat="39.9176183" lon="8.70086"><ele>18.0</ele><time>2026-04-26T10:37:55.642Z</time></trkpt><trkpt lat="39.9175283" lon="8.7010283"><ele>18.0</ele><time>2026-04-26T10:37:57.587Z</time></trkpt><trkpt lat="39.9174717" lon="8.701245"><ele>17.6</ele><time>2026-04-26T10:37:59.585Z</time></trkpt><trkpt lat="39.9174433" lon="8.701355"><ele>17.200000000000003</ele><time>2026-04-26T10:38:00.591Z</time></trkpt><trkpt lat="39.9174017" lon="8.701455"><ele>16.8</ele><time>2026-04-26T10:38:01.64Z</time></trkpt><trkpt lat="39.9173517" lon="8.7015467"><ele>16.400000000000002</ele><time>2026-04-26T10:38:02.583Z</time></trkpt><trkpt lat="39.9172217" lon="8.701705"><ele>16.0</ele><time>2026-04-26T10:38:04.587Z</time></trkpt><trkpt lat="39.91708" lon="8.7018533"><ele>16.0</ele><time>2026-04-26T10:38:06.59Z</time></trkpt><trkpt lat="39.9170033" lon="8.701925"><ele>16.0</ele><time>2026-04-26T10:38:07.635Z</time></trkpt><trkpt lat="39.916845" lon="8.7020533"><ele>16.0</ele><time>2026-04-26T10:38:09.58Z</time></trkpt><trkpt lat="39.91676" lon="8.702115"><ele>16.0</ele><time>2026-04-26T10:38:10.581Z</time></trkpt><trkpt lat="39.9165817" lon="8.7022367"><ele>16.0</ele><time>2026-04-26T10:38:12.589Z</time></trkpt><trkpt lat="39.9163883" lon="8.7023617"><ele>16.0</ele><time>2026-04-26T10:38:14.587Z</time></trkpt><trkpt lat="39.9162917" lon="8.7024333"><ele>16.0</ele><time>2026-04-26T10:38:15.589Z</time></trkpt><trkpt lat="39.9159233" lon="8.7027117"><ele>17.0</ele><time>2026-04-26T10:38:19.629Z</time></trkpt><trkpt lat="39.9156617" lon="8.7028733"><ele>18.0</ele><time>2026-04-26T10:38:22.585Z</time></trkpt><trkpt lat="39.915415" lon="8.7030033"><ele>18.0</ele><time>2026-04-26T10:38:25.65Z</time></trkpt><trkpt lat="39.91533" lon="8.703055"><ele>18.0</ele><time>2026-04-26T10:38:26.587Z</time></trkpt><trkpt lat="39.9151567" lon="8.7031733"><ele>18.0</ele><time>2026-04-26T10:38:28.581Z</time></trkpt><trkpt lat="39.9150683" lon="8.7032267"><ele>18.0</ele><time>2026-04-26T10:38:29.584Z</time></trkpt><trkpt lat="39.9149783" lon="8.70327"><ele>18.5</ele><time>2026-04-26T10:38:30.588Z</time></trkpt><trkpt lat="39.9148817" lon="8.70331"><ele>19.0</ele><time>2026-04-26T10:38:31.637Z</time></trkpt><trkpt lat="39.9147883" lon="8.7033533"><ele>19.5</ele><time>2026-04-26T10:38:32.584Z</time></trkpt><trkpt lat="39.9145983" lon="8.7034383"><ele>20.0</ele><time>2026-04-26T10:38:34.596Z</time></trkpt><trkpt lat="39.9144217" lon="8.70352"><ele>20.0</ele><time>2026-04-26T10:38:36.583Z</time></trkpt><trkpt lat="39.914335" lon="8.7035617"><ele>20.0</ele><time>2026-04-26T10:38:37.629Z</time></trkpt><trkpt lat="39.9142467" lon="8.703605"><ele>20.0</ele><time>2026-04-26T10:38:38.58Z</time></trkpt><trkpt lat="39.9141517" lon="8.7036517"><ele>20.0</ele><time>2026-04-26T10:38:39.583Z</time></trkpt><trkpt lat="39.9140567" lon="8.7036983"><ele>20.0</ele><time>2026-04-26T10:38:40.583Z</time></trkpt><trkpt lat="39.9139617" lon="8.703745"><ele>20.666666666666668</ele><time>2026-04-26T10:38:41.585Z</time></trkpt><trkpt lat="39.9137883" lon="8.7038483"><ele>21.333333333333332</ele><time>2026-04-26T10:38:43.631Z</time></trkpt><trkpt lat="39.913705" lon="8.7039017"><ele>22.0</ele><time>2026-04-26T10:38:44.583Z</time></trkpt><trkpt lat="39.9135417" lon="8.704015"><ele>22.0</ele><time>2026-04-26T10:38:46.592Z</time></trkpt><trkpt lat="39.9134467" lon="8.7040883"><ele>22.0</ele><time>2026-04-26T10:38:47.587Z</time></trkpt><trkpt lat="39.913265" lon="8.7042267"><ele>22.0</ele><time>2026-04-26T10:38:49.635Z</time></trkpt><trkpt lat="39.913085" lon="8.7043367"><ele>21.75</ele><time>2026-04-26T10:38:51.587Z</time></trkpt><trkpt lat="39.9129917" lon="8.704375"><ele>21.5</ele><time>2026-04-26T10:38:52.584Z</time></trkpt><trkpt lat="39.912895" lon="8.7044033"><ele>21.25</ele><time>2026-04-26T10:38:53.588Z</time></trkpt><trkpt lat="39.912795" lon="8.7044217"><ele>21.0</ele><time>2026-04-26T10:38:54.581Z</time></trkpt><trkpt lat="39.9126" lon="8.7044483"><ele>22.0</ele><time>2026-04-26T10:38:56.593Z</time></trkpt><trkpt lat="39.9124117" lon="8.7045217"><ele>23.0</ele><time>2026-04-26T10:38:58.594Z</time></trkpt><trkpt lat="39.9122467" lon="8.70462"><ele>24.0</ele><time>2026-04-26T10:39:00.585Z</time></trkpt><trkpt lat="39.9121783" lon="8.7046633"><ele>24.0</ele><time>2026-04-26T10:39:01.643Z</time></trkpt><trkpt lat="39.9121133" lon="8.7047033"><ele>24.0</ele><time>2026-04-26T10:39:02.593Z</time></trkpt><trkpt lat="39.9119717" lon="8.7047967"><ele>24.0</ele><time>2026-04-26T10:39:04.589Z</time></trkpt><trkpt lat="39.9118967" lon="8.7048483"><ele>24.0</ele><time>2026-04-26T10:39:05.595Z</time></trkpt><trkpt lat="39.9118233" lon="8.7048967"><ele>24.0</ele><time>2026-04-26T10:39:06.59Z</time></trkpt><trkpt lat="39.9117567" lon="8.7049417"><ele>24.25</ele><time>2026-04-26T10:39:07.632Z</time></trkpt><trkpt lat="39.9114867" lon="8.70502"><ele>24.5</ele><time>2026-04-26T10:39:11.59Z</time></trkpt><trkpt lat="39.9114183" lon="8.7050067"><ele>24.75</ele><time>2026-04-26T10:39:13.629Z</time></trkpt><trkpt lat="39.9113367" lon="8.7050483"><ele>25.0</ele><time>2026-04-26T10:39:17.589Z</time></trkpt><trkpt lat="39.911355" lon="8.70515"><ele>25.333333333333336</ele><time>2026-04-26T10:39:19.632Z</time></trkpt><trkpt lat="39.9114183" lon="8.7052833"><ele>25.666666666666664</ele><time>2026-04-26T10:39:21.586Z</time></trkpt><trkpt lat="39.9114583" lon="8.7053667"><ele>26.0</ele><time>2026-04-26T10:39:22.588Z</time></trkpt><trkpt lat="39.9116417" lon="8.7057833"><ele>26.0</ele><time>2026-04-26T10:39:26.583Z</time></trkpt><trkpt lat="39.9117467" lon="8.7059883"><ele>26.0</ele><time>2026-04-26T10:39:28.591Z</time></trkpt><trkpt lat="39.911845" lon="8.7061767"><ele>26.0</ele><time>2026-04-26T10:39:30.585Z</time></trkpt><trkpt lat="39.9119483" lon="8.7063617"><ele>25.75</ele><time>2026-04-26T10:39:32.582Z</time></trkpt><trkpt lat="39.9120983" lon="8.7066433"><ele>25.5</ele><time>2026-04-26T10:39:35.581Z</time></trkpt><trkpt lat="39.91215" lon="8.7067383"><ele>25.25</ele><time>2026-04-26T10:39:36.589Z</time></trkpt><trkpt lat="39.912205" lon="8.7068333"><ele>25.0</ele><time>2026-04-26T10:39:37.636Z</time></trkpt><trkpt lat="39.9126317" lon="8.7076883"><ele>25.0</ele><time>2026-04-26T10:39:45.584Z</time></trkpt><trkpt lat="39.9126817" lon="8.7078083"><ele>25.0</ele><time>2026-04-26T10:39:46.589Z</time></trkpt><trkpt lat="39.9127267" lon="8.70793"><ele>25.0</ele><time>2026-04-26T10:39:47.59Z</time></trkpt><trkpt lat="39.9127717" lon="8.7080533"><ele>25.0</ele><time>2026-04-26T10:39:48.587Z</time></trkpt><trkpt lat="39.912815" lon="8.7081767"><ele>25.0</ele><time>2026-04-26T10:39:49.629Z</time></trkpt><trkpt lat="39.9128583" lon="8.7082983"><ele>25.0</ele><time>2026-04-26T10:39:50.586Z</time></trkpt><trkpt lat="39.9129" lon="8.7084167"><ele>25.0</ele><time>2026-04-26T10:39:51.59Z</time></trkpt><trkpt lat="39.9129417" lon="8.7085283"><ele>25.0</ele><time>2026-04-26T10:39:52.589Z</time></trkpt><trkpt lat="39.9129767" lon="8.7086333"><ele>25.0</ele><time>2026-04-26T10:39:53.59Z</time></trkpt><trkpt lat="39.9130083" lon="8.7087417"><ele>25.0</ele><time>2026-04-26T10:39:54.583Z</time></trkpt><trkpt lat="39.91304" lon="8.708855"><ele>25.0</ele><time>2026-04-26T10:39:55.651Z</time></trkpt><trkpt lat="39.9130867" lon="8.7089583"><ele>25.0</ele><time>2026-04-26T10:39:56.585Z</time></trkpt><trkpt lat="39.9131367" lon="8.7090617"><ele>25.0</ele><time>2026-04-26T10:39:57.584Z</time></trkpt><trkpt lat="39.91319" lon="8.70916"><ele>25.0</ele><time>2026-04-26T10:39:58.588Z</time></trkpt><trkpt lat="39.9132467" lon="8.7092567"><ele>25.0</ele><time>2026-04-26T10:39:59.586Z</time></trkpt><trkpt lat="39.9133033" lon="8.7093467"><ele>25.25</ele><time>2026-04-26T10:40:00.583Z</time></trkpt><trkpt lat="39.9133583" lon="8.7094267"><ele>25.5</ele><time>2026-04-26T10:40:01.649Z</time></trkpt><trkpt lat="39.9134067" lon="8.7095033"><ele>25.75</ele><time>2026-04-26T10:40:02.581Z</time></trkpt><trkpt lat="39.9135083" lon="8.70968"><ele>26.0</ele><time>2026-04-26T10:40:05.581Z</time></trkpt><trkpt lat="39.9135867" lon="8.7098333"><ele>25.333333333333332</ele><time>2026-04-26T10:40:09.591Z</time></trkpt><trkpt lat="39.9138" lon="8.7100967"><ele>24.666666666666664</ele><time>2026-04-26T10:40:13.639Z</time></trkpt><trkpt lat="39.91387" lon="8.7101767"><ele>24.0</ele><time>2026-04-26T10:40:14.584Z</time></trkpt><trkpt lat="39.9140817" lon="8.710445"><ele>24.0</ele><time>2026-04-26T10:40:17.594Z</time></trkpt><trkpt lat="39.9141467" lon="8.71054"><ele>24.0</ele><time>2026-04-26T10:40:18.58Z</time></trkpt><trkpt lat="39.9143533" lon="8.7108933"><ele>24.0</ele><time>2026-04-26T10:40:22.588Z</time></trkpt><trkpt lat="39.9144833" lon="8.7111533"><ele>24.0</ele><time>2026-04-26T10:40:25.652Z</time></trkpt><trkpt lat="39.91452" lon="8.7112433"><ele>24.0</ele><time>2026-04-26T10:40:26.583Z</time></trkpt><trkpt lat="39.914675" lon="8.7115467"><ele>24.0</ele><time>2026-04-26T10:40:29.601Z</time></trkpt><trkpt lat="39.914735" lon="8.711665"><ele>24.0</ele><time>2026-04-26T10:40:30.59Z</time></trkpt><trkpt lat="39.9149267" lon="8.71201"><ele>24.0</ele><time>2026-04-26T10:40:33.584Z</time></trkpt><trkpt lat="39.9149917" lon="8.7121217"><ele>24.0</ele><time>2026-04-26T10:40:34.583Z</time></trkpt><trkpt lat="39.9151933" lon="8.71246"><ele>24.0</ele><time>2026-04-26T10:40:37.641Z</time></trkpt><trkpt lat="39.9154833" lon="8.712915"><ele>24.0</ele><time>2026-04-26T10:40:41.593Z</time></trkpt><trkpt lat="39.9155383" lon="8.7130033"><ele>24.0</ele><time>2026-04-26T10:40:42.584Z</time></trkpt><trkpt lat="39.9156567" lon="8.7132117"><ele>24.0</ele><time>2026-04-26T10:40:45.586Z</time></trkpt><trkpt lat="39.9156933" lon="8.7132817"><ele>24.0</ele><time>2026-04-26T10:40:46.583Z</time></trkpt><trkpt lat="39.9158283" lon="8.7135083"><ele>24.0</ele><time>2026-04-26T10:40:49.633Z</time></trkpt><trkpt lat="39.9158817" lon="8.7135917"><ele>24.0</ele><time>2026-04-26T10:40:50.588Z</time></trkpt><trkpt lat="39.9160917" lon="8.7139467"><ele>24.0</ele><time>2026-04-26T10:40:54.59Z</time></trkpt><trkpt lat="39.91614" lon="8.7140317"><ele>25.0</ele><time>2026-04-26T10:40:55.651Z</time></trkpt><trkpt lat="39.9164417" lon="8.7145583"><ele>25.0</ele><time>2026-04-26T10:41:00.583Z</time></trkpt><trkpt lat="39.9167167" lon="8.71505"><ele>25.333333333333336</ele><time>2026-04-26T10:41:04.581Z</time></trkpt><trkpt lat="39.9169117" lon="8.7154"><ele>25.666666666666664</ele><time>2026-04-26T10:41:07.648Z</time></trkpt><trkpt lat="39.9169683" lon="8.7155017"><ele>26.0</ele><time>2026-04-26T10:41:08.585Z</time></trkpt><trkpt lat="39.917205" lon="8.7158533"><ele>26.0</ele><time>2026-04-26T10:41:12.59Z</time></trkpt><trkpt lat="39.9172717" lon="8.7159367"><ele>26.0</ele><time>2026-04-26T10:41:13.633Z</time></trkpt><trkpt lat="39.9176017" lon="8.7164517"><ele>25.75</ele><time>2026-04-26T10:41:18.591Z</time></trkpt><trkpt lat="39.91766" lon="8.7165533"><ele>25.5</ele><time>2026-04-26T10:41:19.635Z</time></trkpt><trkpt lat="39.9178067" lon="8.71684"><ele>25.25</ele><time>2026-04-26T10:41:22.59Z</time></trkpt><trkpt lat="39.9178517" lon="8.7169317"><ele>25.0</ele><time>2026-04-26T10:41:23.583Z</time></trkpt><trkpt lat="39.9180267" lon="8.7173017"><ele>25.75</ele><time>2026-04-26T10:41:27.585Z</time></trkpt><trkpt lat="39.918135" lon="8.7175867"><ele>26.5</ele><time>2026-04-26T10:41:33.593Z</time></trkpt><trkpt lat="39.9181733" lon="8.7176633"><ele>27.25</ele><time>2026-04-26T10:41:50.577Z</time></trkpt><trkpt lat="39.918225" lon="8.71779"><ele>28.0</ele><time>2026-04-26T10:41:52.59Z</time></trkpt><trkpt lat="39.918255" lon="8.71788"><ele>28.166666666666668</ele><time>2026-04-26T10:41:53.584Z</time></trkpt><trkpt lat="39.9182883" lon="8.71798"><ele>28.333333333333336</ele><time>2026-04-26T10:41:54.588Z</time></trkpt><trkpt lat="39.9183233" lon="8.718075"><ele>28.5</ele><time>2026-04-26T10:41:55.638Z</time></trkpt><trkpt lat="39.9183633" lon="8.71816"><ele>28.666666666666664</ele><time>2026-04-26T10:41:56.589Z</time></trkpt><trkpt lat="39.9184133" lon="8.7182383"><ele>28.833333333333332</ele><time>2026-04-26T10:41:57.588Z</time></trkpt><trkpt lat="39.9184717" lon="8.718305"><ele>29.0</ele><time>2026-04-26T10:41:58.585Z</time></trkpt><trkpt lat="39.9185383" lon="8.71836"><ele>29.166666666666664</ele><time>2026-04-26T10:41:59.584Z</time></trkpt><trkpt lat="39.91861" lon="8.7184017"><ele>29.333333333333332</ele><time>2026-04-26T10:42:00.581Z</time></trkpt><trkpt lat="39.9186833" lon="8.7184333"><ele>29.5</ele><time>2026-04-26T10:42:01.653Z</time></trkpt><trkpt lat="39.918755" lon="8.7184617"><ele>29.666666666666664</ele><time>2026-04-26T10:42:02.586Z</time></trkpt><trkpt lat="39.918825" lon="8.7184983"><ele>29.833333333333332</ele><time>2026-04-26T10:42:03.586Z</time></trkpt><trkpt lat="39.9188917" lon="8.7185467"><ele>30.0</ele><time>2026-04-26T10:42:04.585Z</time></trkpt><trkpt lat="39.9189567" lon="8.7186067"><ele>30.0</ele><time>2026-04-26T10:42:05.592Z</time></trkpt><trkpt lat="39.91902" lon="8.7186783"><ele>30.0</ele><time>2026-04-26T10:42:06.583Z</time></trkpt><trkpt lat="39.919085" lon="8.7187567"><ele>30.0</ele><time>2026-04-26T10:42:07.635Z</time></trkpt><trkpt lat="39.919155" lon="8.7188383"><ele>30.0</ele><time>2026-04-26T10:42:08.582Z</time></trkpt><trkpt lat="39.919225" lon="8.7189233"><ele>30.0</ele><time>2026-04-26T10:42:09.585Z</time></trkpt><trkpt lat="39.9192983" lon="8.71901"><ele>30.0</ele><time>2026-04-26T10:42:10.586Z</time></trkpt><trkpt lat="39.91937" lon="8.719095"><ele>30.0</ele><time>2026-04-26T10:42:11.588Z</time></trkpt><trkpt lat="39.91944" lon="8.7191767"><ele>30.0</ele><time>2026-04-26T10:42:12.588Z</time></trkpt><trkpt lat="39.919505" lon="8.7192583"><ele>30.0</ele><time>2026-04-26T10:42:13.632Z</time></trkpt><trkpt lat="39.91957" lon="8.7193367"><ele>30.0</ele><time>2026-04-26T10:42:14.581Z</time></trkpt><trkpt lat="39.9196367" lon="8.7194167"><ele>30.666666666666668</ele><time>2026-04-26T10:42:15.589Z</time></trkpt><trkpt lat="39.9197033" lon="8.7195"><ele>31.333333333333336</ele><time>2026-04-26T10:42:16.585Z</time></trkpt><trkpt lat="39.9197667" lon="8.7195833"><ele>32.0</ele><time>2026-04-26T10:42:17.587Z</time></trkpt><trkpt lat="39.919825" lon="8.7196683"><ele>32.66666666666667</ele><time>2026-04-26T10:42:18.585Z</time></trkpt><trkpt lat="39.9198783" lon="8.7197517"><ele>33.333333333333336</ele><time>2026-04-26T10:42:19.635Z</time></trkpt><trkpt lat="39.919925" lon="8.7198433"><ele>34.0</ele><time>2026-04-26T10:42:20.579Z</time></trkpt><trkpt lat="39.9199617" lon="8.7199433"><ele>34.0</ele><time>2026-04-26T10:42:21.592Z</time></trkpt><trkpt lat="39.9199917" lon="8.72005"><ele>34.0</ele><time>2026-04-26T10:42:22.582Z</time></trkpt><trkpt lat="39.920015" lon="8.7201567"><ele>34.0</ele><time>2026-04-26T10:42:23.584Z</time></trkpt><trkpt lat="39.9200317" lon="8.7202683"><ele>34.0</ele><time>2026-04-26T10:42:24.591Z</time></trkpt><trkpt lat="39.9200467" lon="8.7203833"><ele>34.0</ele><time>2026-04-26T10:42:25.651Z</time></trkpt><trkpt lat="39.9200617" lon="8.7205033"><ele>34.0</ele><time>2026-04-26T10:42:26.583Z</time></trkpt><trkpt lat="39.9200783" lon="8.72062"><ele>34.2</ele><time>2026-04-26T10:42:27.596Z</time></trkpt><trkpt lat="39.9200933" lon="8.7207367"><ele>34.4</ele><time>2026-04-26T10:42:28.582Z</time></trkpt><trkpt lat="39.92011" lon="8.7208567"><ele>34.6</ele><time>2026-04-26T10:42:29.585Z</time></trkpt><trkpt lat="39.92013" lon="8.720975"><ele>34.8</ele><time>2026-04-26T10:42:30.581Z</time></trkpt><trkpt lat="39.92015" lon="8.7210917"><ele>35.0</ele><time>2026-04-26T10:42:31.65Z</time></trkpt><trkpt lat="39.9201717" lon="8.7212067"><ele>35.0</ele><time>2026-04-26T10:42:32.581Z</time></trkpt><trkpt lat="39.9201917" lon="8.7213217"><ele>35.0</ele><time>2026-04-26T10:42:33.582Z</time></trkpt><trkpt lat="39.9202067" lon="8.72144"><ele>35.0</ele><time>2026-04-26T10:42:34.585Z</time></trkpt><trkpt lat="39.9202217" lon="8.72156"><ele>35.0</ele><time>2026-04-26T10:42:35.586Z</time></trkpt><trkpt lat="39.9202417" lon="8.7216817"><ele>35.0</ele><time>2026-04-26T10:42:36.588Z</time></trkpt><trkpt lat="39.920275" lon="8.7218"><ele>35.2</ele><time>2026-04-26T10:42:37.631Z</time></trkpt><trkpt lat="39.9203167" lon="8.721915"><ele>35.4</ele><time>2026-04-26T10:42:38.588Z</time></trkpt><trkpt lat="39.920365" lon="8.7220217"><ele>35.6</ele><time>2026-04-26T10:42:39.587Z</time></trkpt><trkpt lat="39.9204133" lon="8.7221283"><ele>35.8</ele><time>2026-04-26T10:42:40.585Z</time></trkpt><trkpt lat="39.92046" lon="8.7222383"><ele>36.0</ele><time>2026-04-26T10:42:41.59Z</time></trkpt><trkpt lat="39.920505" lon="8.722345"><ele>36.0</ele><time>2026-04-26T10:42:42.588Z</time></trkpt><trkpt lat="39.920545" lon="8.7224517"><ele>36.0</ele><time>2026-04-26T10:42:43.637Z</time></trkpt><trkpt lat="39.9205867" lon="8.72256"><ele>36.0</ele><time>2026-04-26T10:42:44.58Z</time></trkpt><trkpt lat="39.9206333" lon="8.7226717"><ele>36.0</ele><time>2026-04-26T10:42:45.579Z</time></trkpt><trkpt lat="39.9206817" lon="8.7227833"><ele>36.0</ele><time>2026-04-26T10:42:46.588Z</time></trkpt><trkpt lat="39.92073" lon="8.7228917"><ele>36.0</ele><time>2026-04-26T10:42:47.592Z</time></trkpt><trkpt lat="39.9207767" lon="8.72299"><ele>36.0</ele><time>2026-04-26T10:42:48.588Z</time></trkpt><trkpt lat="39.9208217" lon="8.723085"><ele>36.0</ele><time>2026-04-26T10:42:49.632Z</time></trkpt><trkpt lat="39.9208633" lon="8.72318"><ele>36.0</ele><time>2026-04-26T10:42:50.588Z</time></trkpt><trkpt lat="39.9209083" lon="8.7232733"><ele>36.0</ele><time>2026-04-26T10:42:51.598Z</time></trkpt><trkpt lat="39.92095" lon="8.723365"><ele>36.0</ele><time>2026-04-26T10:42:52.582Z</time></trkpt><trkpt lat="39.92099" lon="8.72346"><ele>35.333333333333336</ele><time>2026-04-26T10:42:53.585Z</time></trkpt><trkpt lat="39.9210267" lon="8.7235533"><ele>34.666666666666664</ele><time>2026-04-26T10:42:54.586Z</time></trkpt><trkpt lat="39.9210617" lon="8.7236467"><ele>34.0</ele><time>2026-04-26T10:42:55.648Z</time></trkpt><trkpt lat="39.9210917" lon="8.7237417"><ele>33.33333333333333</ele><time>2026-04-26T10:42:56.582Z</time></trkpt><trkpt lat="39.9211167" lon="8.72383"><ele>32.666666666666664</ele><time>2026-04-26T10:42:57.595Z</time></trkpt><trkpt lat="39.9211383" lon="8.7239083"><ele>32.0</ele><time>2026-04-26T10:42:58.584Z</time></trkpt><trkpt lat="39.9211783" lon="8.724035"><ele>32.0</ele><time>2026-04-26T10:43:00.584Z</time></trkpt><trkpt lat="39.9212283" lon="8.7241667"><ele>32.0</ele><time>2026-04-26T10:43:02.58Z</time></trkpt><trkpt lat="39.921295" lon="8.724305"><ele>32.0</ele><time>2026-04-26T10:43:04.582Z</time></trkpt><trkpt lat="39.9213367" lon="8.7243767"><ele>32.0</ele><time>2026-04-26T10:43:05.585Z</time></trkpt><trkpt lat="39.92138" lon="8.7244483"><ele>32.0</ele><time>2026-04-26T10:43:06.59Z</time></trkpt><trkpt lat="39.921425" lon="8.7245233"><ele>32.0</ele><time>2026-04-26T10:43:07.627Z</time></trkpt><trkpt lat="39.921465" lon="8.7246"><ele>31.999999999999996</ele><time>2026-04-26T10:43:08.581Z</time></trkpt><trkpt lat="39.921505" lon="8.72468"><ele>32.0</ele><time>2026-04-26T10:43:09.59Z</time></trkpt><trkpt lat="39.9215433" lon="8.7247617"><ele>32.0</ele><time>2026-04-26T10:43:10.581Z</time></trkpt><trkpt lat="39.9215817" lon="8.7248433"><ele>31.999999999999996</ele><time>2026-04-26T10:43:11.584Z</time></trkpt><trkpt lat="39.921615" lon="8.7249267"><ele>32.0</ele><time>2026-04-26T10:43:12.584Z</time></trkpt><trkpt lat="39.9216467" lon="8.7250133"><ele>32.0</ele><time>2026-04-26T10:43:13.631Z</time></trkpt><trkpt lat="39.9216783" lon="8.7251"><ele>32.0</ele><time>2026-04-26T10:43:14.581Z</time></trkpt><trkpt lat="39.92171" lon="8.7251867"><ele>31.999999999999996</ele><time>2026-04-26T10:43:15.586Z</time></trkpt><trkpt lat="39.92174" lon="8.7252733"><ele>32.0</ele><time>2026-04-26T10:43:16.578Z</time></trkpt><trkpt lat="39.92177" lon="8.72536"><ele>32.0</ele><time>2026-04-26T10:43:17.58Z</time></trkpt><trkpt lat="39.9218017" lon="8.7254483"><ele>31.999999999999996</ele><time>2026-04-26T10:43:18.585Z</time></trkpt><trkpt lat="39.92183" lon="8.72554"><ele>32.0</ele><time>2026-04-26T10:43:19.631Z</time></trkpt><trkpt lat="39.921855" lon="8.7256317"><ele>32.0</ele><time>2026-04-26T10:43:20.585Z</time></trkpt><trkpt lat="39.921875" lon="8.7257283"><ele>31.666666666666664</ele><time>2026-04-26T10:43:21.585Z</time></trkpt><trkpt lat="39.921895" lon="8.7258267"><ele>31.333333333333332</ele><time>2026-04-26T10:43:22.592Z</time></trkpt><trkpt lat="39.9219183" lon="8.7259283"><ele>31.0</ele><time>2026-04-26T10:43:23.592Z</time></trkpt><trkpt lat="39.9219417" lon="8.7260283"><ele>30.666666666666664</ele><time>2026-04-26T10:43:24.589Z</time></trkpt><trkpt lat="39.9219667" lon="8.7261333"><ele>30.333333333333332</ele><time>2026-04-26T10:43:25.652Z</time></trkpt><trkpt lat="39.921995" lon="8.7262433"><ele>30.0</ele><time>2026-04-26T10:43:26.588Z</time></trkpt><trkpt lat="39.9220267" lon="8.72635"><ele>30.0</ele><time>2026-04-26T10:43:27.584Z</time></trkpt><trkpt lat="39.92206" lon="8.7264583"><ele>30.0</ele><time>2026-04-26T10:43:28.584Z</time></trkpt><trkpt lat="39.9220933" lon="8.7265667"><ele>30.0</ele><time>2026-04-26T10:43:29.585Z</time></trkpt><trkpt lat="39.9221317" lon="8.7266717"><ele>30.0</ele><time>2026-04-26T10:43:30.592Z</time></trkpt><trkpt lat="39.9221717" lon="8.726775"><ele>30.0</ele><time>2026-04-26T10:43:31.641Z</time></trkpt><trkpt lat="39.9222083" lon="8.7268783"><ele>30.0</ele><time>2026-04-26T10:43:32.582Z</time></trkpt><trkpt lat="39.9222483" lon="8.7269817"><ele>30.166666666666668</ele><time>2026-04-26T10:43:33.586Z</time></trkpt><trkpt lat="39.922285" lon="8.7270833"><ele>30.333333333333336</ele><time>2026-04-26T10:43:34.586Z</time></trkpt><trkpt lat="39.9223217" lon="8.7271867"><ele>30.5</ele><time>2026-04-26T10:43:35.585Z</time></trkpt><trkpt lat="39.92236" lon="8.7272883"><ele>30.666666666666668</ele><time>2026-04-26T10:43:36.592Z</time></trkpt><trkpt lat="39.9223967" lon="8.7273917"><ele>30.833333333333336</ele><time>2026-04-26T10:43:37.632Z</time></trkpt><trkpt lat="39.9224317" lon="8.7274933"><ele>31.0</ele><time>2026-04-26T10:43:38.586Z</time></trkpt><trkpt lat="39.922465" lon="8.727595"><ele>31.0</ele><time>2026-04-26T10:43:39.597Z</time></trkpt><trkpt lat="39.9224983" lon="8.7276967"><ele>31.0</ele><time>2026-04-26T10:43:40.585Z</time></trkpt><trkpt lat="39.9225283" lon="8.7278017"><ele>31.0</ele><time>2026-04-26T10:43:41.585Z</time></trkpt><trkpt lat="39.9225617" lon="8.7279133"><ele>31.0</ele><time>2026-04-26T10:43:42.587Z</time></trkpt><trkpt lat="39.9225967" lon="8.7280283"><ele>31.0</ele><time>2026-04-26T10:43:43.631Z</time></trkpt><trkpt lat="39.9226317" lon="8.728145"><ele>30.4</ele><time>2026-04-26T10:43:44.581Z</time></trkpt><trkpt lat="39.9226667" lon="8.7282633"><ele>29.8</ele><time>2026-04-26T10:43:45.59Z</time></trkpt><trkpt lat="39.9227" lon="8.7283783"><ele>29.199999999999996</ele><time>2026-04-26T10:43:46.586Z</time></trkpt><trkpt lat="39.9227333" lon="8.7284933"><ele>28.599999999999998</ele><time>2026-04-26T10:43:47.583Z</time></trkpt><trkpt lat="39.9227667" lon="8.728605"><ele>28.0</ele><time>2026-04-26T10:43:48.581Z</time></trkpt><trkpt lat="39.9228017" lon="8.72872"><ele>28.000000000000004</ele><time>2026-04-26T10:43:49.633Z</time></trkpt><trkpt lat="39.922835" lon="8.728835"><ele>28.0</ele><time>2026-04-26T10:43:50.589Z</time></trkpt><trkpt lat="39.9228667" lon="8.7289467"><ele>28.0</ele><time>2026-04-26T10:43:51.589Z</time></trkpt><trkpt lat="39.9228983" lon="8.729055"><ele>28.0</ele><time>2026-04-26T10:43:52.589Z</time></trkpt><trkpt lat="39.92293" lon="8.7291617"><ele>28.000000000000004</ele><time>2026-04-26T10:43:53.583Z</time></trkpt><trkpt lat="39.9229583" lon="8.729265"><ele>28.0</ele><time>2026-04-26T10:43:54.591Z</time></trkpt><trkpt lat="39.92299" lon="8.72937"><ele>28.000000000000004</ele><time>2026-04-26T10:43:55.65Z</time></trkpt><trkpt lat="39.9230267" lon="8.7294767"><ele>28.0</ele><time>2026-04-26T10:43:56.586Z</time></trkpt><trkpt lat="39.9230617" lon="8.7295833"><ele>28.0</ele><time>2026-04-26T10:43:57.581Z</time></trkpt><trkpt lat="39.92309" lon="8.7296817"><ele>28.0</ele><time>2026-04-26T10:43:58.589Z</time></trkpt><trkpt lat="39.9231167" lon="8.7297667"><ele>28.000000000000004</ele><time>2026-04-26T10:43:59.583Z</time></trkpt><trkpt lat="39.92314" lon="8.72985"><ele>28.0</ele><time>2026-04-26T10:44:00.582Z</time></trkpt><trkpt lat="39.923165" lon="8.729935"><ele>28.0</ele><time>2026-04-26T10:44:01.642Z</time></trkpt><trkpt lat="39.92324" lon="8.730165"><ele>28.0</ele><time>2026-04-26T10:44:04.588Z</time></trkpt><trkpt lat="39.92334" lon="8.7303817"><ele>28.0</ele><time>2026-04-26T10:44:08.585Z</time></trkpt><trkpt lat="39.9234067" lon="8.730465"><ele>27.799999999999997</ele><time>2026-04-26T10:44:11.587Z</time></trkpt><trkpt lat="39.923475" lon="8.7305467"><ele>27.599999999999998</ele><time>2026-04-26T10:44:39.58Z</time></trkpt><trkpt lat="39.9235033" lon="8.7307067"><ele>27.400000000000002</ele><time>2026-04-26T10:44:43.631Z</time></trkpt><trkpt lat="39.9235233" lon="8.7308467"><ele>27.200000000000003</ele><time>2026-04-26T10:44:46.581Z</time></trkpt><trkpt lat="39.9236167" lon="8.7309217"><ele>27.0</ele><time>2026-04-26T10:44:49.628Z</time></trkpt><trkpt lat="39.9236933" lon="8.7309533"><ele>27.0</ele><time>2026-04-26T10:44:52.588Z</time></trkpt><trkpt lat="39.9237533" lon="8.7310417"><ele>27.0</ele><time>2026-04-26T10:44:55.648Z</time></trkpt><trkpt lat="39.923755" lon="8.7311633"><ele>27.0</ele><time>2026-04-26T10:44:58.585Z</time></trkpt><trkpt lat="39.9237183" lon="8.7314433"><ele>27.0</ele><time>2026-04-26T10:45:03.578Z</time></trkpt><trkpt lat="39.923685" lon="8.7317483"><ele>27.0</ele><time>2026-04-26T10:45:07.636Z</time></trkpt><trkpt lat="39.9236717" lon="8.7318333"><ele>27.0</ele><time>2026-04-26T10:45:08.586Z</time></trkpt><trkpt lat="39.9236267" lon="8.732155"><ele>27.0</ele><time>2026-04-26T10:45:12.58Z</time></trkpt><trkpt lat="39.9235933" lon="8.7323833"><ele>26.666666666666664</ele><time>2026-04-26T10:45:15.586Z</time></trkpt><trkpt lat="39.92355" lon="8.732735"><ele>26.333333333333332</ele><time>2026-04-26T10:45:19.633Z</time></trkpt><trkpt lat="39.9235217" lon="8.7329233"><ele>26.0</ele><time>2026-04-26T10:45:21.581Z</time></trkpt><trkpt lat="39.92351" lon="8.7330183"><ele>26.0</ele><time>2026-04-26T10:45:22.59Z</time></trkpt><trkpt lat="39.9234567" lon="8.7333983"><ele>26.0</ele><time>2026-04-26T10:45:26.58Z</time></trkpt><trkpt lat="39.923425" lon="8.73368"><ele>26.333333333333332</ele><time>2026-04-26T10:45:29.586Z</time></trkpt><trkpt lat="39.9234117" lon="8.7337717"><ele>26.666666666666664</ele><time>2026-04-26T10:45:30.591Z</time></trkpt><trkpt lat="39.923375" lon="8.7340217"><ele>27.0</ele><time>2026-04-26T10:45:33.591Z</time></trkpt><trkpt lat="39.9233367" lon="8.7343067"><ele>27.5</ele><time>2026-04-26T10:45:37.631Z</time></trkpt><trkpt lat="39.923325" lon="8.7344083"><ele>28.0</ele><time>2026-04-26T10:45:39.579Z</time></trkpt><trkpt lat="39.9233317" lon="8.7345933"><ele>28.5</ele><time>2026-04-26T10:45:43.643Z</time></trkpt><trkpt lat="39.92336" lon="8.7347533"><ele>29.0</ele><time>2026-04-26T10:45:46.587Z</time></trkpt><trkpt lat="39.9233667" lon="8.7349583"><ele>29.0</ele><time>2026-04-26T10:45:49.631Z</time></trkpt><trkpt lat="39.9233483" lon="8.735155"><ele>29.0</ele><time>2026-04-26T10:45:52.584Z</time></trkpt><trkpt lat="39.9233167" lon="8.7353333"><ele>29.0</ele><time>2026-04-26T10:45:55.623Z</time></trkpt><trkpt lat="39.9232767" lon="8.7354967"><ele>29.0</ele><time>2026-04-26T10:45:58.58Z</time></trkpt><trkpt lat="39.9232183" lon="8.7356517"><ele>28.666666666666664</ele><time>2026-04-26T10:46:01.645Z</time></trkpt><trkpt lat="39.92312" lon="8.7358717"><ele>28.333333333333336</ele><time>2026-04-26T10:46:05.59Z</time></trkpt><trkpt lat="39.9230667" lon="8.7360383"><ele>28.0</ele><time>2026-04-26T10:46:08.581Z</time></trkpt><trkpt lat="39.92302" lon="8.7362133"><ele>28.0</ele><time>2026-04-26T10:46:11.58Z</time></trkpt><trkpt lat="39.9229917" lon="8.736335"><ele>28.0</ele><time>2026-04-26T10:46:13.633Z</time></trkpt><trkpt lat="39.92297" lon="8.7364667"><ele>28.0</ele><time>2026-04-26T10:46:15.584Z</time></trkpt><trkpt lat="39.922945" lon="8.73661"><ele>28.0</ele><time>2026-04-26T10:46:17.579Z</time></trkpt><trkpt lat="39.9229" lon="8.7369"><ele>27.75</ele><time>2026-04-26T10:46:21.589Z</time></trkpt><trkpt lat="39.9228833" lon="8.7370283"><ele>27.5</ele><time>2026-04-26T10:46:23.59Z</time></trkpt><trkpt lat="39.9228483" lon="8.7372317"><ele>27.25</ele><time>2026-04-26T10:46:26.594Z</time></trkpt><trkpt lat="39.922825" lon="8.7373683"><ele>27.0</ele><time>2026-04-26T10:46:28.588Z</time></trkpt><trkpt lat="39.9228083" lon="8.7375017"><ele>27.0</ele><time>2026-04-26T10:46:30.589Z</time></trkpt><trkpt lat="39.9227933" lon="8.7376583"><ele>27.0</ele><time>2026-04-26T10:46:32.579Z</time></trkpt><trkpt lat="39.9227883" lon="8.73776"><ele>27.0</ele><time>2026-04-26T10:46:33.577Z</time></trkpt><trkpt lat="39.9227967" lon="8.7385667"><ele>27.333333333333336</ele><time>2026-04-26T10:46:41.589Z</time></trkpt><trkpt lat="39.9227983" lon="8.7386567"><ele>27.666666666666668</ele><time>2026-04-26T10:46:42.583Z</time></trkpt><trkpt lat="39.9228133" lon="8.7390233"><ele>28.0</ele><time>2026-04-26T10:46:46.589Z</time></trkpt><trkpt lat="39.922855" lon="8.7393167"><ele>28.333333333333336</ele><time>2026-04-26T10:46:49.626Z</time></trkpt><trkpt lat="39.922895" lon="8.7396167"><ele>28.666666666666664</ele><time>2026-04-26T10:46:52.587Z</time></trkpt><trkpt lat="39.9229283" lon="8.7397767"><ele>29.0</ele><time>2026-04-26T10:46:54.582Z</time></trkpt><trkpt lat="39.9229967" lon="8.7401067"><ele>29.0</ele><time>2026-04-26T10:46:58.585Z</time></trkpt><trkpt lat="39.9230133" lon="8.7401983"><ele>29.0</ele><time>2026-04-26T10:46:59.582Z</time></trkpt><trkpt lat="39.9230467" lon="8.74039"><ele>29.0</ele><time>2026-04-26T10:47:01.646Z</time></trkpt><trkpt lat="39.9230633" lon="8.7404817"><ele>29.0</ele><time>2026-04-26T10:47:02.588Z</time></trkpt><trkpt lat="39.9231067" lon="8.7407683"><ele>29.0</ele><time>2026-04-26T10:47:05.587Z</time></trkpt><trkpt lat="39.9231233" lon="8.7409483"><ele>29.0</ele><time>2026-04-26T10:47:07.623Z</time></trkpt><trkpt lat="39.9231433" lon="8.741105"><ele>29.0</ele><time>2026-04-26T10:47:09.585Z</time></trkpt><trkpt lat="39.923165" lon="8.7411833"><ele>29.0</ele><time>2026-04-26T10:47:10.585Z</time></trkpt><trkpt lat="39.9232417" lon="8.74134"><ele>29.0</ele><time>2026-04-26T10:47:12.586Z</time></trkpt><trkpt lat="39.9233367" lon="8.7414683"><ele>29.0</ele><time>2026-04-26T10:47:14.589Z</time></trkpt><trkpt lat="39.923495" lon="8.7417133"><ele>29.0</ele><time>2026-04-26T10:47:18.584Z</time></trkpt><trkpt lat="39.9236" lon="8.7418617"><ele>28.0</ele><time>2026-04-26T10:47:22.587Z</time></trkpt><trkpt lat="39.923635" lon="8.7419483"><ele>27.0</ele><time>2026-04-26T10:47:26.579Z</time></trkpt><trkpt lat="39.92366" lon="8.7420917"><ele>26.0</ele><time>2026-04-26T10:47:29.592Z</time></trkpt><trkpt lat="39.9236483" lon="8.7422867"><ele>25.0</ele><time>2026-04-26T10:47:31.644Z</time></trkpt><trkpt lat="39.9235983" lon="8.7425533"><ele>25.0</ele><time>2026-04-26T10:47:33.577Z</time></trkpt><trkpt lat="39.9235717" lon="8.7427017"><ele>25.0</ele><time>2026-04-26T10:47:34.584Z</time></trkpt><trkpt lat="39.9235483" lon="8.7428567"><ele>25.0</ele><time>2026-04-26T10:47:35.585Z</time></trkpt><trkpt lat="39.9235233" lon="8.7430167"><ele>25.0</ele><time>2026-04-26T10:47:36.591Z</time></trkpt><trkpt lat="39.9234683" lon="8.7433533"><ele>26.0</ele><time>2026-04-26T10:47:38.581Z</time></trkpt><trkpt lat="39.9234167" lon="8.7437017"><ele>27.0</ele><time>2026-04-26T10:47:40.585Z</time></trkpt><trkpt lat="39.9233617" lon="8.74404"><ele>28.0</ele><time>2026-04-26T10:47:42.588Z</time></trkpt><trkpt lat="39.923315" lon="8.7443583"><ele>29.0</ele><time>2026-04-26T10:47:44.578Z</time></trkpt><trkpt lat="39.92329" lon="8.744515"><ele>30.0</ele><time>2026-04-26T10:47:45.579Z</time></trkpt><trkpt lat="39.9232667" lon="8.74467"><ele>30.0</ele><time>2026-04-26T10:47:46.587Z</time></trkpt><trkpt lat="39.9232433" lon="8.7448267"><ele>30.0</ele><time>2026-04-26T10:47:47.587Z</time></trkpt><trkpt lat="39.923195" lon="8.7451433"><ele>30.0</ele><time>2026-04-26T10:47:49.631Z</time></trkpt><trkpt lat="39.923165" lon="8.745305"><ele>29.666666666666664</ele><time>2026-04-26T10:47:50.585Z</time></trkpt><trkpt lat="39.923135" lon="8.74547"><ele>29.333333333333332</ele><time>2026-04-26T10:47:51.584Z</time></trkpt><trkpt lat="39.9231067" lon="8.7456333"><ele>29.0</ele><time>2026-04-26T10:47:52.581Z</time></trkpt><trkpt lat="39.92306" lon="8.74596"><ele>29.5</ele><time>2026-04-26T10:47:54.583Z</time></trkpt><trkpt lat="39.9230367" lon="8.746125"><ele>30.0</ele><time>2026-04-26T10:47:55.636Z</time></trkpt><trkpt lat="39.92296" lon="8.746625"><ele>30.0</ele><time>2026-04-26T10:47:58.582Z</time></trkpt><trkpt lat="39.9229333" lon="8.74679"><ele>30.0</ele><time>2026-04-26T10:47:59.58Z</time></trkpt><trkpt lat="39.9229067" lon="8.7469567"><ele>30.0</ele><time>2026-04-26T10:48:00.586Z</time></trkpt><trkpt lat="39.92288" lon="8.7471267"><ele>30.0</ele><time>2026-04-26T10:48:01.639Z</time></trkpt><trkpt lat="39.922855" lon="8.7472983"><ele>30.0</ele><time>2026-04-26T10:48:02.582Z</time></trkpt><trkpt lat="39.9228267" lon="8.7474733"><ele>30.0</ele><time>2026-04-26T10:48:03.588Z</time></trkpt><trkpt lat="39.9227967" lon="8.7476483"><ele>30.0</ele><time>2026-04-26T10:48:04.584Z</time></trkpt><trkpt lat="39.9227667" lon="8.747825"><ele>30.0</ele><time>2026-04-26T10:48:05.58Z</time></trkpt><trkpt lat="39.922735" lon="8.7480033"><ele>30.0</ele><time>2026-04-26T10:48:06.585Z</time></trkpt><trkpt lat="39.922705" lon="8.7481817"><ele>30.0</ele><time>2026-04-26T10:48:07.624Z</time></trkpt><trkpt lat="39.9226733" lon="8.7483617"><ele>30.0</ele><time>2026-04-26T10:48:08.578Z</time></trkpt><trkpt lat="39.922645" lon="8.74854"><ele>30.0</ele><time>2026-04-26T10:48:09.592Z</time></trkpt><trkpt lat="39.9226167" lon="8.7487167"><ele>30.0</ele><time>2026-04-26T10:48:10.591Z</time></trkpt><trkpt lat="39.9225883" lon="8.7488833"><ele>30.0</ele><time>2026-04-26T10:48:11.577Z</time></trkpt><trkpt lat="39.9225617" lon="8.7490367"><ele>30.0</ele><time>2026-04-26T10:48:12.587Z</time></trkpt><trkpt lat="39.9225367" lon="8.7491817"><ele>30.0</ele><time>2026-04-26T10:48:13.624Z</time></trkpt><trkpt lat="39.9225117" lon="8.7493217"><ele>30.2</ele><time>2026-04-26T10:48:14.588Z</time></trkpt><trkpt lat="39.92249" lon="8.7494617"><ele>30.4</ele><time>2026-04-26T10:48:15.583Z</time></trkpt><trkpt lat="39.9224667" lon="8.7496033"><ele>30.6</ele><time>2026-04-26T10:48:16.586Z</time></trkpt><trkpt lat="39.9224433" lon="8.74974"><ele>30.8</ele><time>2026-04-26T10:48:17.589Z</time></trkpt><trkpt lat="39.9224183" lon="8.749875"><ele>31.0</ele><time>2026-04-26T10:48:18.591Z</time></trkpt><trkpt lat="39.92239" lon="8.7499983"><ele>31.000000000000004</ele><time>2026-04-26T10:48:19.622Z</time></trkpt><trkpt lat="39.92236" lon="8.7501067"><ele>31.0</ele><time>2026-04-26T10:48:20.582Z</time></trkpt><trkpt lat="39.922325" lon="8.7502033"><ele>31.0</ele><time>2026-04-26T10:48:21.586Z</time></trkpt><trkpt lat="39.9222883" lon="8.7502833"><ele>31.0</ele><time>2026-04-26T10:48:22.589Z</time></trkpt><trkpt lat="39.9222417" lon="8.75036"><ele>31.000000000000004</ele><time>2026-04-26T10:48:23.591Z</time></trkpt><trkpt lat="39.922185" lon="8.7504283"><ele>31.0</ele><time>2026-04-26T10:48:24.581Z</time></trkpt><trkpt lat="39.9221233" lon="8.7504883"><ele>30.833333333333336</ele><time>2026-04-26T10:48:25.645Z</time></trkpt><trkpt lat="39.9220633" lon="8.7505533"><ele>30.666666666666668</ele><time>2026-04-26T10:48:26.586Z</time></trkpt><trkpt lat="39.9220117" lon="8.7506267"><ele>30.5</ele><time>2026-04-26T10:48:27.598Z</time></trkpt><trkpt lat="39.92198" lon="8.7507067"><ele>30.333333333333336</ele><time>2026-04-26T10:48:28.575Z</time></trkpt><trkpt lat="39.9219583" lon="8.7508067"><ele>30.166666666666668</ele><time>2026-04-26T10:48:29.581Z</time></trkpt><trkpt lat="39.92196" lon="8.750915"><ele>30.0</ele><time>2026-04-26T10:48:30.588Z</time></trkpt><trkpt lat="39.9219833" lon="8.75102"><ele>29.833333333333332</ele><time>2026-04-26T10:48:31.646Z</time></trkpt><trkpt lat="39.922025" lon="8.7511083"><ele>29.666666666666664</ele><time>2026-04-26T10:48:32.58Z</time></trkpt><trkpt lat="39.9220833" lon="8.7511717"><ele>29.5</ele><time>2026-04-26T10:48:33.581Z</time></trkpt><trkpt lat="39.9221667" lon="8.7512017"><ele>29.333333333333332</ele><time>2026-04-26T10:48:34.581Z</time></trkpt><trkpt lat="39.9222583" lon="8.7512117"><ele>29.166666666666664</ele><time>2026-04-26T10:48:35.578Z</time></trkpt><trkpt lat="39.9223567" lon="8.7511833"><ele>29.0</ele><time>2026-04-26T10:48:36.588Z</time></trkpt><trkpt lat="39.9224533" lon="8.7511333"><ele>29.0</ele><time>2026-04-26T10:48:37.628Z</time></trkpt><trkpt lat="39.922555" lon="8.7510717"><ele>29.0</ele><time>2026-04-26T10:48:38.579Z</time></trkpt><trkpt lat="39.92266" lon="8.751025"><ele>29.0</ele><time>2026-04-26T10:48:39.581Z</time></trkpt><trkpt lat="39.9227733" lon="8.7510033"><ele>29.0</ele><time>2026-04-26T10:48:40.584Z</time></trkpt><trkpt lat="39.9228967" lon="8.7510033"><ele>29.0</ele><time>2026-04-26T10:48:41.584Z</time></trkpt><trkpt lat="39.9230283" lon="8.7510283"><ele>29.0</ele><time>2026-04-26T10:48:42.576Z</time></trkpt><trkpt lat="39.923175" lon="8.751075"><ele>29.0</ele><time>2026-04-26T10:48:43.624Z</time></trkpt><trkpt lat="39.92333" lon="8.751125"><ele>29.0</ele><time>2026-04-26T10:48:44.579Z</time></trkpt><trkpt lat="39.9234917" lon="8.75118"><ele>29.333333333333332</ele><time>2026-04-26T10:48:45.589Z</time></trkpt><trkpt lat="39.923655" lon="8.75124"><ele>29.666666666666664</ele><time>2026-04-26T10:48:46.58Z</time></trkpt><trkpt lat="39.923815" lon="8.751305"><ele>30.0</ele><time>2026-04-26T10:48:47.583Z</time></trkpt><trkpt lat="39.9239717" lon="8.75138"><ele>30.0</ele><time>2026-04-26T10:48:48.583Z</time></trkpt><trkpt lat="39.92412" lon="8.7514683"><ele>30.0</ele><time>2026-04-26T10:48:49.625Z</time></trkpt><trkpt lat="39.9242633" lon="8.7515683"><ele>30.0</ele><time>2026-04-26T10:48:50.581Z</time></trkpt><trkpt lat="39.9243983" lon="8.75168"><ele>30.333333333333336</ele><time>2026-04-26T10:48:51.581Z</time></trkpt><trkpt lat="39.9245267" lon="8.7518033"><ele>30.666666666666668</ele><time>2026-04-26T10:48:52.578Z</time></trkpt><trkpt lat="39.9246533" lon="8.7519417"><ele>31.0</ele><time>2026-04-26T10:48:53.582Z</time></trkpt><trkpt lat="39.9247733" lon="8.752095"><ele>32.0</ele><time>2026-04-26T10:48:54.582Z</time></trkpt><trkpt lat="39.9248867" lon="8.752265"><ele>33.0</ele><time>2026-04-26T10:48:55.643Z</time></trkpt><trkpt lat="39.92499" lon="8.7524467"><ele>34.0</ele><time>2026-04-26T10:48:56.585Z</time></trkpt><trkpt lat="39.9250817" lon="8.75264"><ele>36.333333333333336</ele><time>2026-04-26T10:48:57.59Z</time></trkpt><trkpt lat="39.92517" lon="8.7528433"><ele>38.666666666666664</ele><time>2026-04-26T10:48:58.581Z</time></trkpt><trkpt lat="39.9252483" lon="8.7530583"><ele>41.0</ele><time>2026-04-26T10:48:59.582Z</time></trkpt><trkpt lat="39.9253133" lon="8.7532817"><ele>41.0</ele><time>2026-04-26T10:49:00.583Z</time></trkpt><trkpt lat="39.9253633" lon="8.753515"><ele>41.0</ele><time>2026-04-26T10:49:01.641Z</time></trkpt><trkpt lat="39.925405" lon="8.7537533"><ele>41.0</ele><time>2026-04-26T10:49:02.576Z</time></trkpt><trkpt lat="39.9254433" lon="8.7539967"><ele>41.33333333333333</ele><time>2026-04-26T10:49:03.581Z</time></trkpt><trkpt lat="39.9254817" lon="8.7542417"><ele>41.666666666666664</ele><time>2026-04-26T10:49:04.579Z</time></trkpt><trkpt lat="39.9255233" lon="8.754485"><ele>42.0</ele><time>2026-04-26T10:49:05.586Z</time></trkpt><trkpt lat="39.9255667" lon="8.75473"><ele>42.0</ele><time>2026-04-26T10:49:06.592Z</time></trkpt><trkpt lat="39.9256167" lon="8.7549717"><ele>42.0</ele><time>2026-04-26T10:49:07.621Z</time></trkpt><trkpt lat="39.9256733" lon="8.7552133"><ele>42.0</ele><time>2026-04-26T10:49:08.582Z</time></trkpt><trkpt lat="39.9257433" lon="8.755455"><ele>42.0</ele><time>2026-04-26T10:49:09.583Z</time></trkpt><trkpt lat="39.9258267" lon="8.7556933"><ele>42.0</ele><time>2026-04-26T10:49:10.582Z</time></trkpt><trkpt lat="39.9259233" lon="8.755925"><ele>42.0</ele><time>2026-04-26T10:49:11.593Z</time></trkpt><trkpt lat="39.9260317" lon="8.7561483"><ele>42.333333333333336</ele><time>2026-04-26T10:49:12.579Z</time></trkpt><trkpt lat="39.926155" lon="8.7563617"><ele>42.66666666666667</ele><time>2026-04-26T10:49:13.633Z</time></trkpt><trkpt lat="39.9262917" lon="8.7565667"><ele>43.0</ele><time>2026-04-26T10:49:14.583Z</time></trkpt><trkpt lat="39.9264433" lon="8.75676"><ele>42.66666666666667</ele><time>2026-04-26T10:49:15.584Z</time></trkpt><trkpt lat="39.926605" lon="8.756945"><ele>42.333333333333336</ele><time>2026-04-26T10:49:16.585Z</time></trkpt><trkpt lat="39.9267767" lon="8.757115"><ele>42.0</ele><time>2026-04-26T10:49:17.585Z</time></trkpt><trkpt lat="39.9269583" lon="8.7572783"><ele>42.0</ele><time>2026-04-26T10:49:18.588Z</time></trkpt><trkpt lat="39.9271483" lon="8.757425"><ele>42.0</ele><time>2026-04-26T10:49:19.628Z</time></trkpt><trkpt lat="39.9273467" lon="8.757555"><ele>42.0</ele><time>2026-04-26T10:49:20.583Z</time></trkpt><trkpt lat="39.9275517" lon="8.757665"><ele>43.666666666666664</ele><time>2026-04-26T10:49:21.58Z</time></trkpt><trkpt lat="39.92776" lon="8.7577583"><ele>45.33333333333333</ele><time>2026-04-26T10:49:22.585Z</time></trkpt><trkpt lat="39.92797" lon="8.7578433"><ele>47.0</ele><time>2026-04-26T10:49:23.581Z</time></trkpt><trkpt lat="39.9281783" lon="8.7579233"><ele>47.0</ele><time>2026-04-26T10:49:24.583Z</time></trkpt><trkpt lat="39.928385" lon="8.7580017"><ele>47.0</ele><time>2026-04-26T10:49:25.648Z</time></trkpt><trkpt lat="39.9285867" lon="8.75808"><ele>47.0</ele><time>2026-04-26T10:49:26.582Z</time></trkpt><trkpt lat="39.9287867" lon="8.7581583"><ele>48.33333333333333</ele><time>2026-04-26T10:49:27.585Z</time></trkpt><trkpt lat="39.92898" lon="8.7582417"><ele>49.666666666666664</ele><time>2026-04-26T10:49:28.577Z</time></trkpt><trkpt lat="39.9291717" lon="8.758325"><ele>51.0</ele><time>2026-04-26T10:49:29.582Z</time></trkpt><trkpt lat="39.929365" lon="8.75841"><ele>50.66666666666667</ele><time>2026-04-26T10:49:30.581Z</time></trkpt><trkpt lat="39.92956" lon="8.758495"><ele>50.333333333333336</ele><time>2026-04-26T10:49:31.643Z</time></trkpt><trkpt lat="39.9297583" lon="8.75858"><ele>50.0</ele><time>2026-04-26T10:49:32.583Z</time></trkpt><trkpt lat="39.929955" lon="8.758665"><ele>50.333333333333336</ele><time>2026-04-26T10:49:33.582Z</time></trkpt><trkpt lat="39.9301533" lon="8.7587517"><ele>50.66666666666667</ele><time>2026-04-26T10:49:34.584Z</time></trkpt><trkpt lat="39.9303533" lon="8.758835"><ele>51.0</ele><time>2026-04-26T10:49:35.592Z</time></trkpt><trkpt lat="39.9305533" lon="8.7589183"><ele>51.0</ele><time>2026-04-26T10:49:36.586Z</time></trkpt><trkpt lat="39.930755" lon="8.759"><ele>51.0</ele><time>2026-04-26T10:49:37.624Z</time></trkpt><trkpt lat="39.9309517" lon="8.7590817"><ele>51.0</ele><time>2026-04-26T10:49:38.576Z</time></trkpt><trkpt lat="39.9311483" lon="8.759165"><ele>51.33333333333333</ele><time>2026-04-26T10:49:39.581Z</time></trkpt><trkpt lat="39.9313433" lon="8.759255"><ele>51.666666666666664</ele><time>2026-04-26T10:49:40.582Z</time></trkpt><trkpt lat="39.9315367" lon="8.7593567"><ele>52.0</ele><time>2026-04-26T10:49:41.587Z</time></trkpt><trkpt lat="39.931725" lon="8.7594617"><ele>52.33333333333333</ele><time>2026-04-26T10:49:42.582Z</time></trkpt><trkpt lat="39.9319133" lon="8.7595683"><ele>52.66666666666667</ele><time>2026-04-26T10:49:43.629Z</time></trkpt><trkpt lat="39.9320967" lon="8.7596767"><ele>53.0</ele><time>2026-04-26T10:49:44.59Z</time></trkpt><trkpt lat="39.9322767" lon="8.7597867"><ele>53.0</ele><time>2026-04-26T10:49:45.585Z</time></trkpt><trkpt lat="39.9324567" lon="8.7599017"><ele>53.0</ele><time>2026-04-26T10:49:46.585Z</time></trkpt><trkpt lat="39.9326367" lon="8.760025"><ele>53.0</ele><time>2026-04-26T10:49:47.586Z</time></trkpt><trkpt lat="39.9328167" lon="8.76016"><ele>55.0</ele><time>2026-04-26T10:49:48.582Z</time></trkpt><trkpt lat="39.9329983" lon="8.7603017"><ele>57.0</ele><time>2026-04-26T10:49:49.623Z</time></trkpt><trkpt lat="39.9331767" lon="8.7604483"><ele>59.0</ele><time>2026-04-26T10:49:50.577Z</time></trkpt><trkpt lat="39.9333533" lon="8.7605967"><ele>58.333333333333336</ele><time>2026-04-26T10:49:51.588Z</time></trkpt><trkpt lat="39.93353" lon="8.7607533"><ele>57.66666666666667</ele><time>2026-04-26T10:49:52.583Z</time></trkpt><trkpt lat="39.933705" lon="8.7609233"><ele>57.0</ele><time>2026-04-26T10:49:53.59Z</time></trkpt><trkpt lat="39.9338833" lon="8.7611033"><ele>57.5</ele><time>2026-04-26T10:49:54.586Z</time></trkpt><trkpt lat="39.9340633" lon="8.7612983"><ele>58.0</ele><time>2026-04-26T10:49:55.643Z</time></trkpt><trkpt lat="39.9342433" lon="8.7615017"><ele>58.0</ele><time>2026-04-26T10:49:56.584Z</time></trkpt><trkpt lat="39.9344233" lon="8.7617133"><ele>58.0</ele><time>2026-04-26T10:49:57.578Z</time></trkpt><trkpt lat="39.9346" lon="8.7619333"><ele>60.5</ele><time>2026-04-26T10:49:58.59Z</time></trkpt><trkpt lat="39.9347733" lon="8.76216"><ele>63.0</ele><time>2026-04-26T10:49:59.585Z</time></trkpt><trkpt lat="39.9349433" lon="8.7623883"><ele>63.5</ele><time>2026-04-26T10:50:00.582Z</time></trkpt><trkpt lat="39.9351083" lon="8.7626183"><ele>64.0</ele><time>2026-04-26T10:50:01.653Z</time></trkpt><trkpt lat="39.93527" lon="8.7628533"><ele>64.0</ele><time>2026-04-26T10:50:02.581Z</time></trkpt><trkpt lat="39.935425" lon="8.7630917"><ele>64.0</ele><time>2026-04-26T10:50:03.59Z</time></trkpt><trkpt lat="39.935575" lon="8.763335"><ele>65.5</ele><time>2026-04-26T10:50:04.579Z</time></trkpt><trkpt lat="39.93572" lon="8.7635833"><ele>67.0</ele><time>2026-04-26T10:50:05.581Z</time></trkpt><trkpt lat="39.93586" lon="8.7638367"><ele>67.5</ele><time>2026-04-26T10:50:06.595Z</time></trkpt><trkpt lat="39.935995" lon="8.7640933"><ele>68.0</ele><time>2026-04-26T10:50:07.62Z</time></trkpt><trkpt lat="39.9361233" lon="8.76435"><ele>68.0</ele><time>2026-04-26T10:50:08.579Z</time></trkpt><trkpt lat="39.9362433" lon="8.76461"><ele>68.0</ele><time>2026-04-26T10:50:09.583Z</time></trkpt><trkpt lat="39.9363583" lon="8.7648683"><ele>68.0</ele><time>2026-04-26T10:50:10.582Z</time></trkpt><trkpt lat="39.9364683" lon="8.7651267"><ele>68.0</ele><time>2026-04-26T10:50:11.577Z</time></trkpt><trkpt lat="39.9365767" lon="8.765385"><ele>68.66666666666667</ele><time>2026-04-26T10:50:12.589Z</time></trkpt><trkpt lat="39.9366833" lon="8.7656383"><ele>69.33333333333333</ele><time>2026-04-26T10:50:13.627Z</time></trkpt><trkpt lat="39.93679" lon="8.765885"><ele>70.0</ele><time>2026-04-26T10:50:14.582Z</time></trkpt><trkpt lat="39.9368967" lon="8.7661283"><ele>71.66666666666666</ele><time>2026-04-26T10:50:15.593Z</time></trkpt><trkpt lat="39.9370017" lon="8.76637"><ele>73.33333333333333</ele><time>2026-04-26T10:50:16.584Z</time></trkpt><trkpt lat="39.937105" lon="8.76661"><ele>75.0</ele><time>2026-04-26T10:50:17.579Z</time></trkpt><trkpt lat="39.9372083" lon="8.7668483"><ele>76.66666666666667</ele><time>2026-04-26T10:50:18.588Z</time></trkpt><trkpt lat="39.93731" lon="8.7670867"><ele>78.33333333333334</ele><time>2026-04-26T10:50:19.623Z</time></trkpt><trkpt lat="39.9374117" lon="8.7673217"><ele>80.0</ele><time>2026-04-26T10:50:20.586Z</time></trkpt><trkpt lat="39.9375117" lon="8.7675567"><ele>81.66666666666667</ele><time>2026-04-26T10:50:21.582Z</time></trkpt><trkpt lat="39.937615" lon="8.7677933"><ele>83.33333333333333</ele><time>2026-04-26T10:50:22.586Z</time></trkpt><trkpt lat="39.9377233" lon="8.7680267"><ele>85.0</ele><time>2026-04-26T10:50:23.581Z</time></trkpt><trkpt lat="39.93784" lon="8.7682583"><ele>85.0</ele><time>2026-04-26T10:50:24.591Z</time></trkpt><trkpt lat="39.937965" lon="8.768485"><ele>85.0</ele><time>2026-04-26T10:50:25.64Z</time></trkpt><trkpt lat="39.9381" lon="8.7687083"><ele>85.0</ele><time>2026-04-26T10:50:26.578Z</time></trkpt><trkpt lat="39.938245" lon="8.768925"><ele>86.0</ele><time>2026-04-26T10:50:27.588Z</time></trkpt><trkpt lat="39.9383967" lon="8.7691367"><ele>87.0</ele><time>2026-04-26T10:50:28.579Z</time></trkpt><trkpt lat="39.9385533" lon="8.76934"><ele>88.0</ele><time>2026-04-26T10:50:29.581Z</time></trkpt><trkpt lat="39.938715" lon="8.7695367"><ele>88.0</ele><time>2026-04-26T10:50:30.58Z</time></trkpt><trkpt lat="39.9388833" lon="8.7697283"><ele>88.0</ele><time>2026-04-26T10:50:31.638Z</time></trkpt><trkpt lat="39.9390567" lon="8.76991"><ele>88.0</ele><time>2026-04-26T10:50:32.584Z</time></trkpt><trkpt lat="39.9392367" lon="8.7700817"><ele>90.0</ele><time>2026-04-26T10:50:33.579Z</time></trkpt><trkpt lat="39.9394233" lon="8.7702417"><ele>92.0</ele><time>2026-04-26T10:50:34.582Z</time></trkpt><trkpt lat="39.9396167" lon="8.7703917"><ele>94.0</ele><time>2026-04-26T10:50:35.581Z</time></trkpt><trkpt lat="39.939815" lon="8.770535"><ele>94.0</ele><time>2026-04-26T10:50:36.581Z</time></trkpt><trkpt lat="39.9400133" lon="8.7706683"><ele>94.0</ele><time>2026-04-26T10:50:37.63Z</time></trkpt><trkpt lat="39.9401983" lon="8.77079"><ele>94.0</ele><time>2026-04-26T10:50:38.582Z</time></trkpt><trkpt lat="39.9403667" lon="8.7709"><ele>94.0</ele><time>2026-04-26T10:50:39.59Z</time></trkpt><trkpt lat="39.9405283" lon="8.7710117"><ele>94.0</ele><time>2026-04-26T10:50:40.587Z</time></trkpt><trkpt lat="39.94069" lon="8.7711333"><ele>94.0</ele><time>2026-04-26T10:50:41.578Z</time></trkpt><trkpt lat="39.9408467" lon="8.771275"><ele>94.66666666666666</ele><time>2026-04-26T10:50:42.586Z</time></trkpt><trkpt lat="39.9410033" lon="8.7714333"><ele>95.33333333333333</ele><time>2026-04-26T10:50:43.63Z</time></trkpt><trkpt lat="39.9411617" lon="8.77161"><ele>96.0</ele><time>2026-04-26T10:50:44.577Z</time></trkpt><trkpt lat="39.9413183" lon="8.771795"><ele>96.0</ele><time>2026-04-26T10:50:45.584Z</time></trkpt><trkpt lat="39.9414717" lon="8.77199"><ele>96.0</ele><time>2026-04-26T10:50:46.584Z</time></trkpt><trkpt lat="39.941625" lon="8.7721983"><ele>96.0</ele><time>2026-04-26T10:50:47.574Z</time></trkpt><trkpt lat="39.9417717" lon="8.7724167"><ele>96.0</ele><time>2026-04-26T10:50:48.587Z</time></trkpt><trkpt lat="39.94191" lon="8.7726467"><ele>96.0</ele><time>2026-04-26T10:50:49.625Z</time></trkpt><trkpt lat="39.942035" lon="8.7728883"><ele>96.0</ele><time>2026-04-26T10:50:50.577Z</time></trkpt><trkpt lat="39.94215" lon="8.77314"><ele>97.0</ele><time>2026-04-26T10:50:51.586Z</time></trkpt><trkpt lat="39.9422567" lon="8.7734017"><ele>98.0</ele><time>2026-04-26T10:50:52.579Z</time></trkpt><trkpt lat="39.9423583" lon="8.7736683"><ele>98.0</ele><time>2026-04-26T10:50:53.577Z</time></trkpt><trkpt lat="39.942455" lon="8.7739383"><ele>98.0</ele><time>2026-04-26T10:50:54.584Z</time></trkpt><trkpt lat="39.9425483" lon="8.77421"><ele>98.5</ele><time>2026-04-26T10:50:55.651Z</time></trkpt><trkpt lat="39.9426417" lon="8.77448"><ele>99.0</ele><time>2026-04-26T10:50:56.583Z</time></trkpt><trkpt lat="39.9427367" lon="8.774745"><ele>99.0</ele><time>2026-04-26T10:50:57.586Z</time></trkpt><trkpt lat="39.9428333" lon="8.7750033"><ele>99.0</ele><time>2026-04-26T10:50:58.58Z</time></trkpt><trkpt lat="39.942935" lon="8.775255"><ele>99.0</ele><time>2026-04-26T10:50:59.585Z</time></trkpt><trkpt lat="39.9430467" lon="8.7754933"><ele>99.33333333333334</ele><time>2026-04-26T10:51:00.585Z</time></trkpt><trkpt lat="39.9431667" lon="8.7757217"><ele>99.66666666666667</ele><time>2026-04-26T10:51:01.643Z</time></trkpt><trkpt lat="39.9432983" lon="8.7759383"><ele>100.0</ele><time>2026-04-26T10:51:02.583Z</time></trkpt><trkpt lat="39.9434367" lon="8.7761417"><ele>100.33333333333334</ele><time>2026-04-26T10:51:03.581Z</time></trkpt><trkpt lat="39.9435867" lon="8.776335"><ele>100.66666666666666</ele><time>2026-04-26T10:51:04.579Z</time></trkpt><trkpt lat="39.9437433" lon="8.7765217"><ele>101.0</ele><time>2026-04-26T10:51:05.578Z</time></trkpt><trkpt lat="39.9439033" lon="8.7767"><ele>101.33333333333333</ele><time>2026-04-26T10:51:06.581Z</time></trkpt><trkpt lat="39.9440667" lon="8.77688"><ele>101.66666666666666</ele><time>2026-04-26T10:51:07.631Z</time></trkpt><trkpt lat="39.94423" lon="8.77706"><ele>102.0</ele><time>2026-04-26T10:51:08.576Z</time></trkpt><trkpt lat="39.9443883" lon="8.7772433"><ele>102.0</ele><time>2026-04-26T10:51:09.585Z</time></trkpt><trkpt lat="39.944545" lon="8.7774317"><ele>102.0</ele><time>2026-04-26T10:51:10.581Z</time></trkpt><trkpt lat="39.944695" lon="8.77763"><ele>102.0</ele><time>2026-04-26T10:51:11.584Z</time></trkpt><trkpt lat="39.944835" lon="8.77784"><ele>102.0</ele><time>2026-04-26T10:51:12.578Z</time></trkpt><trkpt lat="39.9449667" lon="8.7780617"><ele>102.0</ele><time>2026-04-26T10:51:13.626Z</time></trkpt><trkpt lat="39.94509" lon="8.7782917"><ele>102.0</ele><time>2026-04-26T10:51:14.576Z</time></trkpt><trkpt lat="39.9452083" lon="8.7785317"><ele>102.66666666666666</ele><time>2026-04-26T10:51:15.593Z</time></trkpt><trkpt lat="39.9453217" lon="8.7787783"><ele>103.33333333333333</ele><time>2026-04-26T10:51:16.583Z</time></trkpt><trkpt lat="39.9454283" lon="8.779035"><ele>104.0</ele><time>2026-04-26T10:51:17.583Z</time></trkpt><trkpt lat="39.9455267" lon="8.779295"><ele>105.66666666666666</ele><time>2026-04-26T10:51:18.583Z</time></trkpt><trkpt lat="39.9456183" lon="8.77956"><ele>107.33333333333334</ele><time>2026-04-26T10:51:19.635Z</time></trkpt><trkpt lat="39.9457067" lon="8.77983"><ele>109.0</ele><time>2026-04-26T10:51:20.584Z</time></trkpt><trkpt lat="39.945795" lon="8.7801"><ele>110.33333333333334</ele><time>2026-04-26T10:51:21.579Z</time></trkpt><trkpt lat="39.9458867" lon="8.7803667"><ele>111.66666666666666</ele><time>2026-04-26T10:51:22.587Z</time></trkpt><trkpt lat="39.9459883" lon="8.7806267"><ele>113.0</ele><time>2026-04-26T10:51:23.586Z</time></trkpt><trkpt lat="39.9461083" lon="8.7808733"><ele>116.0</ele><time>2026-04-26T10:51:24.58Z</time></trkpt><trkpt lat="39.9462417" lon="8.7811083"><ele>119.0</ele><time>2026-04-26T10:51:25.64Z</time></trkpt><trkpt lat="39.9463917" lon="8.7813317"><ele>119.0</ele><time>2026-04-26T10:51:26.584Z</time></trkpt><trkpt lat="39.9465533" lon="8.781545"><ele>119.0</ele><time>2026-04-26T10:51:27.574Z</time></trkpt><trkpt lat="39.946725" lon="8.7817467"><ele>123.0</ele><time>2026-04-26T10:51:28.582Z</time></trkpt><trkpt lat="39.946905" lon="8.7819317"><ele>127.0</ele><time>2026-04-26T10:51:29.587Z</time></trkpt><trkpt lat="39.9470983" lon="8.7820983"><ele>127.0</ele><time>2026-04-26T10:51:30.587Z</time></trkpt><trkpt lat="39.947295" lon="8.782245"><ele>127.0</ele><time>2026-04-26T10:51:31.641Z</time></trkpt><trkpt lat="39.9474983" lon="8.7823733"><ele>124.5</ele><time>2026-04-26T10:51:32.576Z</time></trkpt><trkpt lat="39.94771" lon="8.78248"><ele>122.0</ele><time>2026-04-26T10:51:33.588Z</time></trkpt><trkpt lat="39.94793" lon="8.78258"><ele>128.0</ele><time>2026-04-26T10:51:34.586Z</time></trkpt><trkpt lat="39.9481467" lon="8.78269"><ele>134.0</ele><time>2026-04-26T10:51:35.579Z</time></trkpt><trkpt lat="39.9483517" lon="8.7828167"><ele>130.33333333333331</ele><time>2026-04-26T10:51:36.585Z</time></trkpt><trkpt lat="39.9485467" lon="8.78296"><ele>126.66666666666666</ele><time>2026-04-26T10:51:37.629Z</time></trkpt><trkpt lat="39.9487317" lon="8.78312"><ele>123.0</ele><time>2026-04-26T10:51:38.58Z</time></trkpt><trkpt lat="39.9489133" lon="8.7832967"><ele>123.0</ele><time>2026-04-26T10:51:39.585Z</time></trkpt><trkpt lat="39.9490867" lon="8.7834867"><ele>123.0</ele><time>2026-04-26T10:51:40.578Z</time></trkpt><trkpt lat="39.949255" lon="8.7836833"><ele>125.0</ele><time>2026-04-26T10:51:41.586Z</time></trkpt><trkpt lat="39.9494183" lon="8.7838867"><ele>127.0</ele><time>2026-04-26T10:51:42.58Z</time></trkpt><trkpt lat="39.9495817" lon="8.784095"><ele>127.0</ele><time>2026-04-26T10:51:43.627Z</time></trkpt><trkpt lat="39.949745" lon="8.784305"><ele>127.0</ele><time>2026-04-26T10:51:44.582Z</time></trkpt><trkpt lat="39.9499067" lon="8.7845133"><ele>130.0</ele><time>2026-04-26T10:51:45.58Z</time></trkpt><trkpt lat="39.950065" lon="8.7847233"><ele>133.0</ele><time>2026-04-26T10:51:46.579Z</time></trkpt><trkpt lat="39.9502233" lon="8.7849417"><ele>133.0</ele><time>2026-04-26T10:51:47.584Z</time></trkpt><trkpt lat="39.95038" lon="8.78517"><ele>133.0</ele><time>2026-04-26T10:51:48.583Z</time></trkpt><trkpt lat="39.950535" lon="8.7854017"><ele>134.5</ele><time>2026-04-26T10:51:49.625Z</time></trkpt><trkpt lat="39.9506883" lon="8.7856417"><ele>136.0</ele><time>2026-04-26T10:51:50.581Z</time></trkpt><trkpt lat="39.9508433" lon="8.7858833"><ele>135.0</ele><time>2026-04-26T10:51:51.584Z</time></trkpt><trkpt lat="39.9509967" lon="8.78612"><ele>134.0</ele><time>2026-04-26T10:51:52.577Z</time></trkpt><trkpt lat="39.9511533" lon="8.7863533"><ele>134.0</ele><time>2026-04-26T10:51:53.577Z</time></trkpt><trkpt lat="39.951305" lon="8.7865883"><ele>134.0</ele><time>2026-04-26T10:51:54.58Z</time></trkpt><trkpt lat="39.95145" lon="8.7868283"><ele>136.5</ele><time>2026-04-26T10:51:55.637Z</time></trkpt><trkpt lat="39.9515717" lon="8.7870783"><ele>139.0</ele><time>2026-04-26T10:51:56.587Z</time></trkpt><trkpt lat="39.9516833" lon="8.787335"><ele>141.5</ele><time>2026-04-26T10:51:57.579Z</time></trkpt><trkpt lat="39.9517883" lon="8.7876017"><ele>144.0</ele><time>2026-04-26T10:51:58.58Z</time></trkpt><trkpt lat="39.9518917" lon="8.7878717"><ele>144.0</ele><time>2026-04-26T10:51:59.578Z</time></trkpt><trkpt lat="39.9519983" lon="8.7881433"><ele>144.0</ele><time>2026-04-26T10:52:00.586Z</time></trkpt><trkpt lat="39.9521083" lon="8.7884183"><ele>147.5</ele><time>2026-04-26T10:52:01.637Z</time></trkpt><trkpt lat="39.9522167" lon="8.788695"><ele>151.0</ele><time>2026-04-26T10:52:02.578Z</time></trkpt><trkpt lat="39.9523283" lon="8.788975"><ele>151.0</ele><time>2026-04-26T10:52:03.575Z</time></trkpt><trkpt lat="39.9524417" lon="8.789255"><ele>151.0</ele><time>2026-04-26T10:52:04.582Z</time></trkpt><trkpt lat="39.952555" lon="8.7895383"><ele>149.5</ele><time>2026-04-26T10:52:05.576Z</time></trkpt><trkpt lat="39.9526667" lon="8.7898217"><ele>148.0</ele><time>2026-04-26T10:52:06.587Z</time></trkpt><trkpt lat="39.9527767" lon="8.7901017"><ele>152.5</ele><time>2026-04-26T10:52:07.622Z</time></trkpt><trkpt lat="39.952885" lon="8.790375"><ele>157.0</ele><time>2026-04-26T10:52:08.582Z</time></trkpt><trkpt lat="39.9529967" lon="8.7906383"><ele>157.0</ele><time>2026-04-26T10:52:09.582Z</time></trkpt><trkpt lat="39.9531133" lon="8.790895"><ele>157.0</ele><time>2026-04-26T10:52:10.586Z</time></trkpt><trkpt lat="39.9532433" lon="8.791145"><ele>156.0</ele><time>2026-04-26T10:52:11.582Z</time></trkpt><trkpt lat="39.95339" lon="8.7913817"><ele>155.0</ele><time>2026-04-26T10:52:12.583Z</time></trkpt><trkpt lat="39.9535517" lon="8.7916017"><ele>155.0</ele><time>2026-04-26T10:52:13.628Z</time></trkpt><trkpt lat="39.9537217" lon="8.7918117"><ele>155.0</ele><time>2026-04-26T10:52:14.577Z</time></trkpt><trkpt lat="39.953895" lon="8.7920133"><ele>159.0</ele><time>2026-04-26T10:52:15.58Z</time></trkpt><trkpt lat="39.9540633" lon="8.7922083"><ele>163.0</ele><time>2026-04-26T10:52:16.58Z</time></trkpt><trkpt lat="39.954225" lon="8.7923983"><ele>167.0</ele><time>2026-04-26T10:52:17.588Z</time></trkpt><trkpt lat="39.9543817" lon="8.7925867"><ele>170.66666666666666</ele><time>2026-04-26T10:52:18.582Z</time></trkpt><trkpt lat="39.95453" lon="8.79277"><ele>174.33333333333334</ele><time>2026-04-26T10:52:19.636Z</time></trkpt><trkpt lat="39.9546733" lon="8.7929567"><ele>178.0</ele><time>2026-04-26T10:52:20.583Z</time></trkpt><trkpt lat="39.9548083" lon="8.7931467"><ele>178.0</ele><time>2026-04-26T10:52:21.584Z</time></trkpt><trkpt lat="39.95493" lon="8.7933417"><ele>178.0</ele><time>2026-04-26T10:52:22.582Z</time></trkpt><trkpt lat="39.9550417" lon="8.793545"><ele>178.0</ele><time>2026-04-26T10:52:23.583Z</time></trkpt><trkpt lat="39.955145" lon="8.7937567"><ele>179.0</ele><time>2026-04-26T10:52:24.585Z</time></trkpt><trkpt lat="39.9552417" lon="8.793975"><ele>180.0</ele><time>2026-04-26T10:52:25.644Z</time></trkpt><trkpt lat="39.95533" lon="8.7942"><ele>181.0</ele><time>2026-04-26T10:52:26.576Z</time></trkpt><trkpt lat="39.955415" lon="8.7944283"><ele>183.66666666666669</ele><time>2026-04-26T10:52:27.591Z</time></trkpt><trkpt lat="39.9554983" lon="8.79466"><ele>186.33333333333334</ele><time>2026-04-26T10:52:28.583Z</time></trkpt><trkpt lat="39.95558" lon="8.7948883"><ele>189.0</ele><time>2026-04-26T10:52:29.584Z</time></trkpt><trkpt lat="39.9556617" lon="8.795115"><ele>189.33333333333334</ele><time>2026-04-26T10:52:30.581Z</time></trkpt><trkpt lat="39.95574" lon="8.7953417"><ele>189.66666666666669</ele><time>2026-04-26T10:52:31.64Z</time></trkpt><trkpt lat="39.9558183" lon="8.7955683"><ele>190.0</ele><time>2026-04-26T10:52:32.577Z</time></trkpt><trkpt lat="39.9559017" lon="8.7957917"><ele>192.33333333333334</ele><time>2026-04-26T10:52:33.584Z</time></trkpt><trkpt lat="39.9559883" lon="8.7960117"><ele>194.66666666666669</ele><time>2026-04-26T10:52:34.584Z</time></trkpt><trkpt lat="39.9560817" lon="8.7962283"><ele>197.0</ele><time>2026-04-26T10:52:35.58Z</time></trkpt><trkpt lat="39.95618" lon="8.7964383"><ele>197.0</ele><time>2026-04-26T10:52:36.583Z</time></trkpt><trkpt lat="39.9562817" lon="8.79664"><ele>197.0</ele><time>2026-04-26T10:52:37.629Z</time></trkpt><trkpt lat="39.956385" lon="8.7968333"><ele>197.0</ele><time>2026-04-26T10:52:38.582Z</time></trkpt><trkpt lat="39.9564933" lon="8.797025"><ele>201.33333333333334</ele><time>2026-04-26T10:52:39.586Z</time></trkpt><trkpt lat="39.9565983" lon="8.7972183"><ele>205.66666666666669</ele><time>2026-04-26T10:52:40.585Z</time></trkpt><trkpt lat="39.9567033" lon="8.7974083"><ele>210.0</ele><time>2026-04-26T10:52:41.581Z</time></trkpt><trkpt lat="39.9568067" lon="8.7975967"><ele>223.66666666666669</ele><time>2026-04-26T10:52:42.578Z</time></trkpt><trkpt lat="39.9569117" lon="8.7977717"><ele>237.33333333333334</ele><time>2026-04-26T10:52:43.63Z</time></trkpt><trkpt lat="39.9570067" lon="8.7979517"><ele>251.0</ele><time>2026-04-26T10:52:44.58Z</time></trkpt><trkpt lat="39.95711" lon="8.7981317"><ele>251.0</ele><time>2026-04-26T10:52:45.585Z</time></trkpt><trkpt lat="39.9572133" lon="8.7983133"><ele>251.0</ele><time>2026-04-26T10:52:46.578Z</time></trkpt><trkpt lat="39.9573167" lon="8.798495"><ele>251.0</ele><time>2026-04-26T10:52:47.582Z</time></trkpt><trkpt lat="39.960915" lon="8.80097"><ele>227.33333333333334</ele><time>2026-04-26T10:53:10.576Z</time></trkpt><trkpt lat="39.9610417" lon="8.801115"><ele>203.66666666666669</ele><time>2026-04-26T10:53:11.581Z</time></trkpt><trkpt lat="39.9611733" lon="8.8012717"><ele>180.0</ele><time>2026-04-26T10:53:12.58Z</time></trkpt><trkpt lat="39.9612983" lon="8.8014267"><ele>180.0</ele><time>2026-04-26T10:53:13.629Z</time></trkpt><trkpt lat="39.9614183" lon="8.801595"><ele>180.0</ele><time>2026-04-26T10:53:14.58Z</time></trkpt><trkpt lat="39.96153" lon="8.8017633"><ele>180.0</ele><time>2026-04-26T10:53:15.584Z</time></trkpt><trkpt lat="39.96164" lon="8.8019433"><ele>179.66666666666666</ele><time>2026-04-26T10:53:16.587Z</time></trkpt><trkpt lat="39.9617467" lon="8.8021283"><ele>179.33333333333331</ele><time>2026-04-26T10:53:17.581Z</time></trkpt><trkpt lat="39.9618483" lon="8.80232"><ele>179.0</ele><time>2026-04-26T10:53:18.584Z</time></trkpt><trkpt lat="39.9619433" lon="8.80252"><ele>176.33333333333331</ele><time>2026-04-26T10:53:19.628Z</time></trkpt><trkpt lat="39.962035" lon="8.8027333"><ele>173.66666666666666</ele><time>2026-04-26T10:53:20.584Z</time></trkpt><trkpt lat="39.9621217" lon="8.8029567"><ele>171.0</ele><time>2026-04-26T10:53:21.581Z</time></trkpt><trkpt lat="39.9622067" lon="8.8031867"><ele>171.0</ele><time>2026-04-26T10:53:22.586Z</time></trkpt><trkpt lat="39.9622867" lon="8.8034217"><ele>171.0</ele><time>2026-04-26T10:53:23.582Z</time></trkpt><trkpt lat="39.9623583" lon="8.8036633"><ele>171.0</ele><time>2026-04-26T10:53:24.575Z</time></trkpt><trkpt lat="39.962425" lon="8.8039083"><ele>170.66666666666666</ele><time>2026-04-26T10:53:25.646Z</time></trkpt><trkpt lat="39.9624917" lon="8.8041583"><ele>170.33333333333331</ele><time>2026-04-26T10:53:26.577Z</time></trkpt><trkpt lat="39.9625633" lon="8.80441"><ele>170.0</ele><time>2026-04-26T10:53:27.579Z</time></trkpt><trkpt lat="39.9626267" lon="8.8046633"><ele>170.0</ele><time>2026-04-26T10:53:28.579Z</time></trkpt><trkpt lat="39.9626867" lon="8.8049183"><ele>170.0</ele><time>2026-04-26T10:53:29.588Z</time></trkpt><trkpt lat="39.9627517" lon="8.8051683"><ele>170.0</ele><time>2026-04-26T10:53:30.585Z</time></trkpt><trkpt lat="39.962815" lon="8.8054167"><ele>165.66666666666666</ele><time>2026-04-26T10:53:31.648Z</time></trkpt><trkpt lat="39.9628783" lon="8.805665"><ele>161.33333333333334</ele><time>2026-04-26T10:53:32.576Z</time></trkpt><trkpt lat="39.9629433" lon="8.805915"><ele>157.0</ele><time>2026-04-26T10:53:33.586Z</time></trkpt><trkpt lat="39.96301" lon="8.8061617"><ele>156.33333333333334</ele><time>2026-04-26T10:53:34.585Z</time></trkpt><trkpt lat="39.9630767" lon="8.80641"><ele>155.66666666666666</ele><time>2026-04-26T10:53:35.581Z</time></trkpt><trkpt lat="39.9631467" lon="8.806655"><ele>155.0</ele><time>2026-04-26T10:53:36.582Z</time></trkpt><trkpt lat="39.9632183" lon="8.8068983"><ele>153.33333333333331</ele><time>2026-04-26T10:53:37.631Z</time></trkpt><trkpt lat="39.9633" lon="8.8071367"><ele>151.66666666666666</ele><time>2026-04-26T10:53:38.581Z</time></trkpt><trkpt lat="39.9633833" lon="8.8073717"><ele>150.0</ele><time>2026-04-26T10:53:39.584Z</time></trkpt><trkpt lat="39.9634717" lon="8.8076017"><ele>150.0</ele><time>2026-04-26T10:53:40.581Z</time></trkpt><trkpt lat="39.9635683" lon="8.8078267"><ele>150.0</ele><time>2026-04-26T10:53:41.583Z</time></trkpt><trkpt lat="39.9636667" lon="8.8080517"><ele>150.0</ele><time>2026-04-26T10:53:42.577Z</time></trkpt><trkpt lat="39.9637683" lon="8.8082733"><ele>144.0</ele><time>2026-04-26T10:53:43.635Z</time></trkpt><trkpt lat="39.9638717" lon="8.8084933"><ele>138.0</ele><time>2026-04-26T10:53:44.576Z</time></trkpt><trkpt lat="39.9639783" lon="8.808715"><ele>132.0</ele><time>2026-04-26T10:53:45.578Z</time></trkpt><trkpt lat="39.9640867" lon="8.80894"><ele>132.0</ele><time>2026-04-26T10:53:46.578Z</time></trkpt><trkpt lat="39.9641933" lon="8.8091617"><ele>132.0</ele><time>2026-04-26T10:53:47.584Z</time></trkpt><trkpt lat="39.9643" lon="8.8093867"><ele>132.0</ele><time>2026-04-26T10:53:48.584Z</time></trkpt><trkpt lat="39.9644083" lon="8.8096133"><ele>132.66666666666666</ele><time>2026-04-26T10:53:49.639Z</time></trkpt><trkpt lat="39.9645167" lon="8.8098367"><ele>133.33333333333331</ele><time>2026-04-26T10:53:50.583Z</time></trkpt><trkpt lat="39.9646217" lon="8.8100617"><ele>134.0</ele><time>2026-04-26T10:53:51.579Z</time></trkpt><trkpt lat="39.9647283" lon="8.8102833"><ele>134.66666666666666</ele><time>2026-04-26T10:53:52.587Z</time></trkpt><trkpt lat="39.964835" lon="8.8105083"><ele>135.33333333333334</ele><time>2026-04-26T10:53:53.592Z</time></trkpt><trkpt lat="39.9649417" lon="8.8107333"><ele>136.0</ele><time>2026-04-26T10:53:54.586Z</time></trkpt><trkpt lat="39.9650483" lon="8.8109567"><ele>130.0</ele><time>2026-04-26T10:53:55.642Z</time></trkpt><trkpt lat="39.9651583" lon="8.811175"><ele>124.0</ele><time>2026-04-26T10:53:56.58Z</time></trkpt><trkpt lat="39.9652683" lon="8.8113917"><ele>118.0</ele><time>2026-04-26T10:53:57.58Z</time></trkpt><trkpt lat="39.9653767" lon="8.8116067"><ele>115.0</ele><time>2026-04-26T10:53:58.584Z</time></trkpt><trkpt lat="39.96548" lon="8.8118267"><ele>112.0</ele><time>2026-04-26T10:53:59.579Z</time></trkpt><trkpt lat="39.9655767" lon="8.812055"><ele>109.0</ele><time>2026-04-26T10:54:00.582Z</time></trkpt><trkpt lat="39.9656683" lon="8.8122917"><ele>109.0</ele><time>2026-04-26T10:54:01.639Z</time></trkpt><trkpt lat="39.9657517" lon="8.812535"><ele>109.0</ele><time>2026-04-26T10:54:02.579Z</time></trkpt><trkpt lat="39.9658267" lon="8.8127817"><ele>109.0</ele><time>2026-04-26T10:54:03.576Z</time></trkpt><trkpt lat="39.9658933" lon="8.8130317"><ele>109.66666666666667</ele><time>2026-04-26T10:54:04.579Z</time></trkpt><trkpt lat="39.96595" lon="8.8132867"><ele>110.33333333333334</ele><time>2026-04-26T10:54:05.577Z</time></trkpt><trkpt lat="39.965995" lon="8.813545"><ele>111.0</ele><time>2026-04-26T10:54:06.578Z</time></trkpt><trkpt lat="39.96603" lon="8.813805"><ele>111.0</ele><time>2026-04-26T10:54:07.632Z</time></trkpt><trkpt lat="39.9660533" lon="8.8140683"><ele>111.0</ele><time>2026-04-26T10:54:08.577Z</time></trkpt><trkpt lat="39.966065" lon="8.8143333"><ele>111.0</ele><time>2026-04-26T10:54:09.581Z</time></trkpt><trkpt lat="39.9660683" lon="8.8146017"><ele>114.0</ele><time>2026-04-26T10:54:10.582Z</time></trkpt><trkpt lat="39.96606" lon="8.8148717"><ele>117.0</ele><time>2026-04-26T10:54:11.579Z</time></trkpt><trkpt lat="39.9660367" lon="8.8151433"><ele>120.0</ele><time>2026-04-26T10:54:12.575Z</time></trkpt><trkpt lat="39.966" lon="8.815415"><ele>121.33333333333334</ele><time>2026-04-26T10:54:13.634Z</time></trkpt><trkpt lat="39.9659517" lon="8.815685"><ele>122.66666666666667</ele><time>2026-04-26T10:54:14.581Z</time></trkpt><trkpt lat="39.9658917" lon="8.8159517"><ele>124.0</ele><time>2026-04-26T10:54:15.58Z</time></trkpt><trkpt lat="39.9658183" lon="8.8162167"><ele>122.66666666666667</ele><time>2026-04-26T10:54:16.577Z</time></trkpt><trkpt lat="39.965735" lon="8.8164783"><ele>121.33333333333334</ele><time>2026-04-26T10:54:17.579Z</time></trkpt><trkpt lat="39.9656467" lon="8.8167383"><ele>120.0</ele><time>2026-04-26T10:54:18.586Z</time></trkpt><trkpt lat="39.965555" lon="8.8170017"><ele>120.0</ele><time>2026-04-26T10:54:19.631Z</time></trkpt><trkpt lat="39.9654667" lon="8.8172683"><ele>120.0</ele><time>2026-04-26T10:54:20.577Z</time></trkpt><trkpt lat="39.9653783" lon="8.817535"><ele>120.0</ele><time>2026-04-26T10:54:21.576Z</time></trkpt><trkpt lat="39.9652883" lon="8.8178"><ele>122.0</ele><time>2026-04-26T10:54:22.582Z</time></trkpt><trkpt lat="39.9651967" lon="8.818065"><ele>124.0</ele><time>2026-04-26T10:54:23.575Z</time></trkpt><trkpt lat="39.9651017" lon="8.81833"><ele>126.0</ele><time>2026-04-26T10:54:24.584Z</time></trkpt><trkpt lat="39.9650117" lon="8.8185967"><ele>126.0</ele><time>2026-04-26T10:54:25.642Z</time></trkpt><trkpt lat="39.9649217" lon="8.8188617"><ele>126.0</ele><time>2026-04-26T10:54:26.581Z</time></trkpt><trkpt lat="39.9648317" lon="8.8191267"><ele>126.0</ele><time>2026-04-26T10:54:27.583Z</time></trkpt><trkpt lat="39.9647417" lon="8.8193883"><ele>128.0</ele><time>2026-04-26T10:54:28.58Z</time></trkpt><trkpt lat="39.9646517" lon="8.8196467"><ele>130.0</ele><time>2026-04-26T10:54:29.578Z</time></trkpt><trkpt lat="39.9645667" lon="8.8199067"><ele>132.0</ele><time>2026-04-26T10:54:30.58Z</time></trkpt><trkpt lat="39.9644833" lon="8.82017"><ele>135.0</ele><time>2026-04-26T10:54:31.638Z</time></trkpt><trkpt lat="39.9644033" lon="8.820435"><ele>138.0</ele><time>2026-04-26T10:54:32.585Z</time></trkpt><trkpt lat="39.9643317" lon="8.820705"><ele>141.0</ele><time>2026-04-26T10:54:33.584Z</time></trkpt><trkpt lat="39.9642683" lon="8.82098"><ele>141.0</ele><time>2026-04-26T10:54:34.586Z</time></trkpt><trkpt lat="39.964215" lon="8.8212617"><ele>141.0</ele><time>2026-04-26T10:54:35.575Z</time></trkpt><trkpt lat="39.964165" lon="8.8215467"><ele>141.0</ele><time>2026-04-26T10:54:36.577Z</time></trkpt><trkpt lat="39.964115" lon="8.8218317"><ele>142.0</ele><time>2026-04-26T10:54:37.636Z</time></trkpt><trkpt lat="39.9640633" lon="8.822115"><ele>143.0</ele><time>2026-04-26T10:54:38.577Z</time></trkpt><trkpt lat="39.96401" lon="8.8224"><ele>144.0</ele><time>2026-04-26T10:54:39.585Z</time></trkpt><trkpt lat="39.9639583" lon="8.8226867"><ele>147.0</ele><time>2026-04-26T10:54:40.58Z</time></trkpt><trkpt lat="39.9639033" lon="8.82297"><ele>150.0</ele><time>2026-04-26T10:54:41.581Z</time></trkpt><trkpt lat="39.96385" lon="8.823255"><ele>153.0</ele><time>2026-04-26T10:54:42.577Z</time></trkpt><trkpt lat="39.9638" lon="8.823535"><ele>154.0</ele><time>2026-04-26T10:54:43.636Z</time></trkpt><trkpt lat="39.96375" lon="8.823815"><ele>155.0</ele><time>2026-04-26T10:54:44.58Z</time></trkpt><trkpt lat="39.9636983" lon="8.8240933"><ele>156.0</ele><time>2026-04-26T10:54:45.577Z</time></trkpt><trkpt lat="39.96365" lon="8.82437"><ele>153.66666666666666</ele><time>2026-04-26T10:54:46.581Z</time></trkpt><trkpt lat="39.9635967" lon="8.82465"><ele>151.33333333333331</ele><time>2026-04-26T10:54:47.579Z</time></trkpt><trkpt lat="39.96354" lon="8.8249283"><ele>149.0</ele><time>2026-04-26T10:54:48.585Z</time></trkpt><trkpt lat="39.96348" lon="8.8252"><ele>146.66666666666666</ele><time>2026-04-26T10:54:49.633Z</time></trkpt><trkpt lat="39.963415" lon="8.8254667"><ele>144.33333333333334</ele><time>2026-04-26T10:54:50.579Z</time></trkpt><trkpt lat="39.9633433" lon="8.825725"><ele>142.0</ele><time>2026-04-26T10:54:51.583Z</time></trkpt><trkpt lat="39.9632683" lon="8.825975"><ele>144.33333333333334</ele><time>2026-04-26T10:54:52.577Z</time></trkpt><trkpt lat="39.9631933" lon="8.8262183"><ele>146.66666666666666</ele><time>2026-04-26T10:54:53.585Z</time></trkpt><trkpt lat="39.963115" lon="8.8264567"><ele>149.0</ele><time>2026-04-26T10:54:54.581Z</time></trkpt><trkpt lat="39.9630333" lon="8.8266933"><ele>144.0</ele><time>2026-04-26T10:54:55.643Z</time></trkpt><trkpt lat="39.9629467" lon="8.8269267"><ele>139.0</ele><time>2026-04-26T10:54:56.581Z</time></trkpt><trkpt lat="39.962855" lon="8.8271583"><ele>134.0</ele><time>2026-04-26T10:54:57.581Z</time></trkpt><trkpt lat="39.9627567" lon="8.82739"><ele>134.0</ele><time>2026-04-26T10:54:58.58Z</time></trkpt><trkpt lat="39.96265" lon="8.8276233"><ele>134.0</ele><time>2026-04-26T10:54:59.585Z</time></trkpt><trkpt lat="39.962535" lon="8.8278517"><ele>134.0</ele><time>2026-04-26T10:55:00.584Z</time></trkpt><trkpt lat="39.9624167" lon="8.8280783"><ele>139.66666666666666</ele><time>2026-04-26T10:55:01.64Z</time></trkpt><trkpt lat="39.9622983" lon="8.8283"><ele>145.33333333333334</ele><time>2026-04-26T10:55:02.577Z</time></trkpt><trkpt lat="39.9621767" lon="8.828515"><ele>151.0</ele><time>2026-04-26T10:55:03.579Z</time></trkpt><trkpt lat="39.9620567" lon="8.82872"><ele>157.66666666666669</ele><time>2026-04-26T10:55:04.585Z</time></trkpt><trkpt lat="39.961935" lon="8.8289183"><ele>164.33333333333334</ele><time>2026-04-26T10:55:05.582Z</time></trkpt><trkpt lat="39.9618083" lon="8.8291083"><ele>171.0</ele><time>2026-04-26T10:55:06.585Z</time></trkpt><trkpt lat="39.961675" lon="8.8292967"><ele>178.66666666666669</ele><time>2026-04-26T10:55:07.629Z</time></trkpt><trkpt lat="39.9615383" lon="8.8294833"><ele>186.33333333333334</ele><time>2026-04-26T10:55:08.577Z</time></trkpt><trkpt lat="39.9614017" lon="8.8296733"><ele>194.0</ele><time>2026-04-26T10:55:09.577Z</time></trkpt><trkpt lat="39.961265" lon="8.8298633"><ele>194.0</ele><time>2026-04-26T10:55:10.577Z</time></trkpt><trkpt lat="39.9611267" lon="8.8300517"><ele>194.0</ele><time>2026-04-26T10:55:11.587Z</time></trkpt><trkpt lat="39.9609833" lon="8.8302383"><ele>194.0</ele><time>2026-04-26T10:55:12.578Z</time></trkpt><trkpt lat="39.9608367" lon="8.8304233"><ele>194.0</ele><time>2026-04-26T10:55:13.641Z</time></trkpt><trkpt lat="39.9606917" lon="8.8306033"><ele>194.0</ele><time>2026-04-26T10:55:14.583Z</time></trkpt><trkpt lat="39.9605617" lon="8.83077"><ele>194.0</ele><time>2026-04-26T10:55:15.582Z</time></trkpt><trkpt lat="39.9604483" lon="8.83093"><ele>198.5</ele><time>2026-04-26T10:55:16.581Z</time></trkpt><trkpt lat="39.96036" lon="8.8310917"><ele>203.0</ele><time>2026-04-26T10:55:17.584Z</time></trkpt><trkpt lat="39.9603" lon="8.831265"><ele>207.5</ele><time>2026-04-26T10:55:18.582Z</time></trkpt><trkpt lat="39.960255" lon="8.83144"><ele>212.0</ele><time>2026-04-26T10:55:19.627Z</time></trkpt><trkpt lat="39.9602217" lon="8.8316133"><ele>212.0</ele><time>2026-04-26T10:55:20.577Z</time></trkpt><trkpt lat="39.9601883" lon="8.8317933"><ele>212.0</ele><time>2026-04-26T10:55:21.575Z</time></trkpt><trkpt lat="39.9601583" lon="8.8319833"><ele>212.0</ele><time>2026-04-26T10:55:22.581Z</time></trkpt><trkpt lat="39.9601367" lon="8.8321917"><ele>212.33333333333334</ele><time>2026-04-26T10:55:23.579Z</time></trkpt><trkpt lat="39.960125" lon="8.832415"><ele>212.66666666666669</ele><time>2026-04-26T10:55:24.584Z</time></trkpt><trkpt lat="39.96012" lon="8.8326467"><ele>213.0</ele><time>2026-04-26T10:55:25.647Z</time></trkpt><trkpt lat="39.9601233" lon="8.832885"><ele>213.0</ele><time>2026-04-26T10:55:26.577Z</time></trkpt><trkpt lat="39.9601267" lon="8.833125"><ele>213.0</ele><time>2026-04-26T10:55:27.58Z</time></trkpt><trkpt lat="39.9601267" lon="8.833365"><ele>213.0</ele><time>2026-04-26T10:55:28.582Z</time></trkpt><trkpt lat="39.9601267" lon="8.833595"><ele>212.5</ele><time>2026-04-26T10:55:29.577Z</time></trkpt><trkpt lat="39.9601267" lon="8.8338067"><ele>212.0</ele><time>2026-04-26T10:55:30.585Z</time></trkpt><trkpt lat="39.960125" lon="8.8339983"><ele>211.5</ele><time>2026-04-26T10:55:31.637Z</time></trkpt><trkpt lat="39.9601317" lon="8.8341733"><ele>211.0</ele><time>2026-04-26T10:55:32.575Z</time></trkpt><trkpt lat="39.9601517" lon="8.8343383"><ele>209.5</ele><time>2026-04-26T10:55:33.583Z</time></trkpt><trkpt lat="39.96019" lon="8.8345033"><ele>208.0</ele><time>2026-04-26T10:55:34.583Z</time></trkpt><trkpt lat="39.9602433" lon="8.8346717"><ele>206.5</ele><time>2026-04-26T10:55:35.581Z</time></trkpt><trkpt lat="39.9603067" lon="8.8348417"><ele>205.0</ele><time>2026-04-26T10:55:36.579Z</time></trkpt><trkpt lat="39.9603767" lon="8.8350217"><ele>201.0</ele><time>2026-04-26T10:55:37.633Z</time></trkpt><trkpt lat="39.9604467" lon="8.8352083"><ele>197.0</ele><time>2026-04-26T10:55:38.58Z</time></trkpt><trkpt lat="39.960515" lon="8.8354033"><ele>193.0</ele><time>2026-04-26T10:55:39.579Z</time></trkpt><trkpt lat="39.9605833" lon="8.8355917"><ele>193.0</ele><time>2026-04-26T10:55:40.578Z</time></trkpt><trkpt lat="39.9606517" lon="8.8357683"><ele>193.0</ele><time>2026-04-26T10:55:41.578Z</time></trkpt><trkpt lat="39.9607167" lon="8.8359317"><ele>193.0</ele><time>2026-04-26T10:55:42.579Z</time></trkpt><trkpt lat="39.9607683" lon="8.836095"><ele>193.0</ele><time>2026-04-26T10:55:43.64Z</time></trkpt><trkpt lat="39.9607967" lon="8.8362617"><ele>192.25</ele><time>2026-04-26T10:55:44.577Z</time></trkpt><trkpt lat="39.9607933" lon="8.8364283"><ele>191.5</ele><time>2026-04-26T10:55:45.584Z</time></trkpt><trkpt lat="39.9607733" lon="8.83659"><ele>190.75</ele><time>2026-04-26T10:55:46.58Z</time></trkpt><trkpt lat="39.9606933" lon="8.8367433"><ele>190.0</ele><time>2026-04-26T10:55:47.58Z</time></trkpt><trkpt lat="39.9605883" lon="8.83689"><ele>193.66666666666669</ele><time>2026-04-26T10:55:48.579Z</time></trkpt><trkpt lat="39.960485" lon="8.83704"><ele>197.33333333333334</ele><time>2026-04-26T10:55:49.633Z</time></trkpt><trkpt lat="39.9603817" lon="8.8371917"><ele>201.0</ele><time>2026-04-26T10:55:50.576Z</time></trkpt><trkpt lat="39.9602817" lon="8.8373383"><ele>201.0</ele><time>2026-04-26T10:55:51.577Z</time></trkpt><trkpt lat="39.96019" lon="8.8374983"><ele>201.0</ele><time>2026-04-26T10:55:52.579Z</time></trkpt><trkpt lat="39.96012" lon="8.83768"><ele>201.0</ele><time>2026-04-26T10:55:53.575Z</time></trkpt><trkpt lat="39.9600833" lon="8.8378833"><ele>202.0</ele><time>2026-04-26T10:55:54.583Z</time></trkpt><trkpt lat="39.96008" lon="8.838105"><ele>203.0</ele><time>2026-04-26T10:55:55.629Z</time></trkpt><trkpt lat="39.9600917" lon="8.8383317"><ele>204.0</ele><time>2026-04-26T10:55:56.577Z</time></trkpt><trkpt lat="39.9601067" lon="8.83856"><ele>204.0</ele><time>2026-04-26T10:55:57.575Z</time></trkpt><trkpt lat="39.960125" lon="8.838785"><ele>204.0</ele><time>2026-04-26T10:55:58.583Z</time></trkpt><trkpt lat="39.9601317" lon="8.8389967"><ele>204.0</ele><time>2026-04-26T10:55:59.579Z</time></trkpt><trkpt lat="39.9601167" lon="8.8391967"><ele>204.0</ele><time>2026-04-26T10:56:00.581Z</time></trkpt><trkpt lat="39.9600767" lon="8.8393883"><ele>204.0</ele><time>2026-04-26T10:56:01.64Z</time></trkpt><trkpt lat="39.96001" lon="8.8395683"><ele>204.0</ele><time>2026-04-26T10:56:02.578Z</time></trkpt><trkpt lat="39.9598933" lon="8.8397083"><ele>196.0</ele><time>2026-04-26T10:56:03.579Z</time></trkpt><trkpt lat="39.9597617" lon="8.8398233"><ele>188.0</ele><time>2026-04-26T10:56:04.587Z</time></trkpt><trkpt lat="39.959615" lon="8.8399"><ele>180.0</ele><time>2026-04-26T10:56:05.583Z</time></trkpt><trkpt lat="39.9594583" lon="8.8399467"><ele>180.0</ele><time>2026-04-26T10:56:06.585Z</time></trkpt><trkpt lat="39.959315" lon="8.8399933"><ele>180.0</ele><time>2026-04-26T10:56:07.635Z</time></trkpt><trkpt lat="39.95919" lon="8.84006"><ele>180.0</ele><time>2026-04-26T10:56:08.582Z</time></trkpt><trkpt lat="39.959085" lon="8.84015"><ele>180.0</ele><time>2026-04-26T10:56:09.584Z</time></trkpt><trkpt lat="39.9590167" lon="8.8402867"><ele>177.0</ele><time>2026-04-26T10:56:10.58Z</time></trkpt><trkpt lat="39.9589667" lon="8.8404483"><ele>174.0</ele><time>2026-04-26T10:56:11.58Z</time></trkpt><trkpt lat="39.9589233" lon="8.8406267"><ele>171.0</ele><time>2026-04-26T10:56:12.573Z</time></trkpt><trkpt lat="39.9588867" lon="8.840815"><ele>168.0</ele><time>2026-04-26T10:56:13.632Z</time></trkpt><trkpt lat="39.9588517" lon="8.84099"><ele>165.6</ele><time>2026-04-26T10:56:14.58Z</time></trkpt><trkpt lat="39.958825" lon="8.8411433"><ele>163.20000000000002</ele><time>2026-04-26T10:56:15.579Z</time></trkpt><trkpt lat="39.958815" lon="8.8412867"><ele>160.8</ele><time>2026-04-26T10:56:16.579Z</time></trkpt><trkpt lat="39.95883" lon="8.8414233"><ele>158.4</ele><time>2026-04-26T10:56:17.583Z</time></trkpt><trkpt lat="39.9589033" lon="8.841535"><ele>156.0</ele><time>2026-04-26T10:56:18.582Z</time></trkpt><trkpt lat="39.9589833" lon="8.841615"><ele>156.0</ele><time>2026-04-26T10:56:19.637Z</time></trkpt><trkpt lat="39.95909" lon="8.8416333"><ele>156.0</ele><time>2026-04-26T10:56:20.576Z</time></trkpt><trkpt lat="39.9591967" lon="8.841625"><ele>156.0</ele><time>2026-04-26T10:56:21.581Z</time></trkpt><trkpt lat="39.9593" lon="8.84158"><ele>156.0</ele><time>2026-04-26T10:56:22.581Z</time></trkpt><trkpt lat="39.9593883" lon="8.8415083"><ele>156.0</ele><time>2026-04-26T10:56:23.578Z</time></trkpt><trkpt lat="39.959475" lon="8.8414533"><ele>157.8</ele><time>2026-04-26T10:56:24.58Z</time></trkpt><trkpt lat="39.9595633" lon="8.8414217"><ele>159.6</ele><time>2026-04-26T10:56:25.637Z</time></trkpt><trkpt lat="39.9596567" lon="8.8414517"><ele>161.4</ele><time>2026-04-26T10:56:26.578Z</time></trkpt><trkpt lat="39.9597383" lon="8.8415117"><ele>163.2</ele><time>2026-04-26T10:56:27.586Z</time></trkpt><trkpt lat="39.9598033" lon="8.8416067"><ele>165.0</ele><time>2026-04-26T10:56:28.583Z</time></trkpt><trkpt lat="39.9598333" lon="8.841725"><ele>166.75</ele><time>2026-04-26T10:56:29.584Z</time></trkpt><trkpt lat="39.959735" lon="8.8419"><ele>168.5</ele><time>2026-04-26T10:56:30.582Z</time></trkpt><trkpt lat="39.9596617" lon="8.842025"><ele>170.25</ele><time>2026-04-26T10:56:31.641Z</time></trkpt><trkpt lat="39.9595717" lon="8.84215"><ele>172.0</ele><time>2026-04-26T10:56:32.581Z</time></trkpt><trkpt lat="39.9594733" lon="8.8422817"><ele>172.0</ele><time>2026-04-26T10:56:33.575Z</time></trkpt><trkpt lat="39.9593733" lon="8.842425"><ele>172.0</ele><time>2026-04-26T10:56:34.589Z</time></trkpt><trkpt lat="39.9592667" lon="8.8425683"><ele>172.0</ele><time>2026-04-26T10:56:35.582Z</time></trkpt><trkpt lat="39.9591533" lon="8.8426983"><ele>170.0</ele><time>2026-04-26T10:56:36.581Z</time></trkpt><trkpt lat="39.95904" lon="8.8428133"><ele>168.0</ele><time>2026-04-26T10:56:37.632Z</time></trkpt><trkpt lat="39.95892" lon="8.8429183"><ele>166.0</ele><time>2026-04-26T10:56:38.579Z</time></trkpt><trkpt lat="39.9587933" lon="8.8430067"><ele>164.0</ele><time>2026-04-26T10:56:39.583Z</time></trkpt><trkpt lat="39.95866" lon="8.8430683"><ele>164.0</ele><time>2026-04-26T10:56:40.583Z</time></trkpt><trkpt lat="39.9585267" lon="8.8431"><ele>164.0</ele><time>2026-04-26T10:56:41.585Z</time></trkpt><trkpt lat="39.9584017" lon="8.84312"><ele>164.0</ele><time>2026-04-26T10:56:42.587Z</time></trkpt><trkpt lat="39.9582833" lon="8.8431383"><ele>164.0</ele><time>2026-04-26T10:56:43.644Z</time></trkpt><trkpt lat="39.9581717" lon="8.8431633"><ele>161.0</ele><time>2026-04-26T10:56:44.577Z</time></trkpt><trkpt lat="39.9580733" lon="8.8432117"><ele>158.0</ele><time>2026-04-26T10:56:45.582Z</time></trkpt><trkpt lat="39.95798" lon="8.84328"><ele>155.0</ele><time>2026-04-26T10:56:46.584Z</time></trkpt><trkpt lat="39.9578917" lon="8.8433717"><ele>152.0</ele><time>2026-04-26T10:56:47.585Z</time></trkpt><trkpt lat="39.9578133" lon="8.8434917"><ele>149.0</ele><time>2026-04-26T10:56:48.587Z</time></trkpt><trkpt lat="39.9577617" lon="8.8436417"><ele>148.75</ele><time>2026-04-26T10:56:49.635Z</time></trkpt><trkpt lat="39.957725" lon="8.843795"><ele>148.5</ele><time>2026-04-26T10:56:50.578Z</time></trkpt><trkpt lat="39.957715" lon="8.8439467"><ele>148.25</ele><time>2026-04-26T10:56:51.579Z</time></trkpt><trkpt lat="39.9577233" lon="8.8440917"><ele>148.0</ele><time>2026-04-26T10:56:52.592Z</time></trkpt><trkpt lat="39.9577467" lon="8.8442267"><ele>145.5</ele><time>2026-04-26T10:56:53.588Z</time></trkpt><trkpt lat="39.957785" lon="8.84435"><ele>143.0</ele><time>2026-04-26T10:56:54.581Z</time></trkpt><trkpt lat="39.95783" lon="8.8444567"><ele>140.5</ele><time>2026-04-26T10:56:55.641Z</time></trkpt><trkpt lat="39.9578817" lon="8.84454"><ele>138.0</ele><time>2026-04-26T10:56:56.585Z</time></trkpt><trkpt lat="39.9579717" lon="8.8446117"><ele>135.5</ele><time>2026-04-26T10:56:58.584Z</time></trkpt><trkpt lat="39.9580283" lon="8.8446517"><ele>133.0</ele><time>2026-04-26T10:57:00.578Z</time></trkpt><trkpt lat="39.957985" lon="8.8447233"><ele>133.0</ele><time>2026-04-26T10:57:05.581Z</time></trkpt><trkpt lat="39.9579317" lon="8.8447717"><ele>133.0</ele><time>2026-04-26T10:57:14.575Z</time></trkpt><trkpt lat="39.9578733" lon="8.8448533"><ele>133.0</ele><time>2026-04-26T10:57:16.587Z</time></trkpt><trkpt lat="39.957805" lon="8.844925"><ele>133.0</ele><time>2026-04-26T10:57:18.592Z</time></trkpt><trkpt lat="39.957755" lon="8.8449983"><ele>133.0</ele><time>2026-04-26T10:57:20.572Z</time></trkpt><trkpt lat="39.95771" lon="8.845065"><ele>133.0</ele><time>2026-04-26T10:57:22.577Z</time></trkpt><trkpt lat="39.9576717" lon="8.8451317"><ele>133.0</ele><time>2026-04-26T10:57:24.581Z</time></trkpt><trkpt lat="39.9576283" lon="8.8452183"><ele>130.66666666666669</ele><time>2026-04-26T10:57:26.571Z</time></trkpt><trkpt lat="39.9575817" lon="8.845315"><ele>128.33333333333334</ele><time>2026-04-26T10:57:28.576Z</time></trkpt><trkpt lat="39.95753" lon="8.8454083"><ele>126.0</ele><time>2026-04-26T10:57:30.58Z</time></trkpt><trkpt lat="39.9574883" lon="8.8455133"><ele>123.66666666666666</ele><time>2026-04-26T10:57:32.578Z</time></trkpt><trkpt lat="39.9574583" lon="8.845605"><ele>121.33333333333333</ele><time>2026-04-26T10:57:34.6Z</time></trkpt><trkpt lat="39.9574367" lon="8.845685"><ele>119.0</ele><time>2026-04-26T10:57:36.587Z</time></trkpt><trkpt lat="39.9574117" lon="8.8457783"><ele>118.99999999999999</ele><time>2026-04-26T10:57:38.58Z</time></trkpt><trkpt lat="39.95739" lon="8.845875"><ele>119.0</ele><time>2026-04-26T10:57:40.583Z</time></trkpt><trkpt lat="39.9573717" lon="8.8459567"><ele>119.0</ele><time>2026-04-26T10:57:42.582Z</time></trkpt><trkpt lat="39.9573333" lon="8.8460733"><ele>119.0</ele><time>2026-04-26T10:57:45.584Z</time></trkpt><trkpt lat="39.9572883" lon="8.84617"><ele>118.99999999999999</ele><time>2026-04-26T10:57:48.58Z</time></trkpt><trkpt lat="39.9572633" lon="8.8462483"><ele>119.0</ele><time>2026-04-26T10:57:51.584Z</time></trkpt><trkpt lat="39.9573117" lon="8.8461667"><ele>118.99999999999999</ele><time>2026-04-26T10:59:57.573Z</time></trkpt><trkpt lat="39.957335" lon="8.8460667"><ele>119.0</ele><time>2026-04-26T10:59:59.579Z</time></trkpt><trkpt lat="39.95737" lon="8.845915"><ele>119.0</ele><time>2026-04-26T11:00:01.635Z</time></trkpt><trkpt lat="39.9573917" lon="8.8458367"><ele>119.0</ele><time>2026-04-26T11:00:02.577Z</time></trkpt><trkpt lat="39.957415" lon="8.8457533"><ele>118.99999999999999</ele><time>2026-04-26T11:00:03.578Z</time></trkpt><trkpt lat="39.9574417" lon="8.84567"><ele>119.0</ele><time>2026-04-26T11:00:04.58Z</time></trkpt><trkpt lat="39.9574717" lon="8.8455867"><ele>118.99999999999999</ele><time>2026-04-26T11:00:05.58Z</time></trkpt><trkpt lat="39.957505" lon="8.8455067"><ele>119.0</ele><time>2026-04-26T11:00:06.573Z</time></trkpt><trkpt lat="39.9575367" lon="8.8454317"><ele>119.0</ele><time>2026-04-26T11:00:07.632Z</time></trkpt><trkpt lat="39.9575733" lon="8.8453633"><ele>119.0</ele><time>2026-04-26T11:00:08.582Z</time></trkpt><trkpt lat="39.9576417" lon="8.845235"><ele>118.99999999999999</ele><time>2026-04-26T11:00:10.582Z</time></trkpt><trkpt lat="39.957705" lon="8.8451133"><ele>119.0</ele><time>2026-04-26T11:00:12.585Z</time></trkpt><trkpt lat="39.9577667" lon="8.8450183"><ele>121.33333333333333</ele><time>2026-04-26T11:00:14.579Z</time></trkpt><trkpt lat="39.9578267" lon="8.8449217"><ele>123.66666666666666</ele><time>2026-04-26T11:00:16.585Z</time></trkpt><trkpt lat="39.9578983" lon="8.84483"><ele>126.0</ele><time>2026-04-26T11:00:18.578Z</time></trkpt><trkpt lat="39.9579683" lon="8.8447433"><ele>128.33333333333334</ele><time>2026-04-26T11:00:20.584Z</time></trkpt><trkpt lat="39.9580133" lon="8.8446817"><ele>130.66666666666669</ele><time>2026-04-26T11:00:22.588Z</time></trkpt><trkpt lat="39.9580867" lon="8.8446317"><ele>133.0</ele><time>2026-04-26T11:00:25.648Z</time></trkpt><trkpt lat="39.9581783" lon="8.844625"><ele>133.0</ele><time>2026-04-26T11:00:27.58Z</time></trkpt><trkpt lat="39.958295" lon="8.8446183"><ele>133.0</ele><time>2026-04-26T11:00:29.579Z</time></trkpt><trkpt lat="39.95837" lon="8.844625"><ele>133.0</ele><time>2026-04-26T11:00:30.577Z</time></trkpt><trkpt lat="39.9584517" lon="8.8446533"><ele>133.0</ele><time>2026-04-26T11:00:31.64Z</time></trkpt><trkpt lat="39.95853" lon="8.844705"><ele>133.0</ele><time>2026-04-26T11:00:32.578Z</time></trkpt><trkpt lat="39.9586" lon="8.8448017"><ele>131.75</ele><time>2026-04-26T11:00:33.584Z</time></trkpt><trkpt lat="39.9586667" lon="8.844925"><ele>130.5</ele><time>2026-04-26T11:00:34.579Z</time></trkpt><trkpt lat="39.9587267" lon="8.845065"><ele>129.25</ele><time>2026-04-26T11:00:35.586Z</time></trkpt><trkpt lat="39.9587817" lon="8.8452"><ele>128.0</ele><time>2026-04-26T11:00:36.577Z</time></trkpt><trkpt lat="39.9588417" lon="8.8453167"><ele>128.0</ele><time>2026-04-26T11:00:37.635Z</time></trkpt><trkpt lat="39.9589117" lon="8.8454133"><ele>128.0</ele><time>2026-04-26T11:00:38.579Z</time></trkpt><trkpt lat="39.9589933" lon="8.8454917"><ele>128.0</ele><time>2026-04-26T11:00:39.577Z</time></trkpt><trkpt lat="39.9590833" lon="8.8455533"><ele>128.0</ele><time>2026-04-26T11:00:40.582Z</time></trkpt><trkpt lat="39.95918" lon="8.8455967"><ele>128.0</ele><time>2026-04-26T11:00:41.576Z</time></trkpt><trkpt lat="39.9592883" lon="8.8456267"><ele>129.4</ele><time>2026-04-26T11:00:42.586Z</time></trkpt><trkpt lat="39.9594033" lon="8.8456567"><ele>130.8</ele><time>2026-04-26T11:00:43.633Z</time></trkpt><trkpt lat="39.95951" lon="8.8456917"><ele>132.2</ele><time>2026-04-26T11:00:44.585Z</time></trkpt><trkpt lat="39.9596033" lon="8.8457483"><ele>133.6</ele><time>2026-04-26T11:00:45.584Z</time></trkpt><trkpt lat="39.9596817" lon="8.8458233"><ele>135.0</ele><time>2026-04-26T11:00:46.578Z</time></trkpt><trkpt lat="39.9597217" lon="8.8459267"><ele>136.8</ele><time>2026-04-26T11:00:47.583Z</time></trkpt><trkpt lat="39.9597233" lon="8.8460367"><ele>138.6</ele><time>2026-04-26T11:00:48.583Z</time></trkpt><trkpt lat="39.9596783" lon="8.8461417"><ele>140.4</ele><time>2026-04-26T11:00:49.628Z</time></trkpt><trkpt lat="39.9596083" lon="8.846235"><ele>142.2</ele><time>2026-04-26T11:00:50.575Z</time></trkpt><trkpt lat="39.959505" lon="8.8462867"><ele>144.0</ele><time>2026-04-26T11:00:51.575Z</time></trkpt><trkpt lat="39.959385" lon="8.846315"><ele>144.0</ele><time>2026-04-26T11:00:52.581Z</time></trkpt><trkpt lat="39.959255" lon="8.846345"><ele>144.0</ele><time>2026-04-26T11:00:53.582Z</time></trkpt><trkpt lat="39.95912" lon="8.8463917"><ele>144.0</ele><time>2026-04-26T11:00:54.583Z</time></trkpt><trkpt lat="39.95899" lon="8.8464633"><ele>144.0</ele><time>2026-04-26T11:00:55.64Z</time></trkpt><trkpt lat="39.9588617" lon="8.8465533"><ele>144.25</ele><time>2026-04-26T11:00:56.584Z</time></trkpt><trkpt lat="39.9587333" lon="8.8466533"><ele>144.5</ele><time>2026-04-26T11:00:57.589Z</time></trkpt><trkpt lat="39.9586133" lon="8.8467533"><ele>144.75</ele><time>2026-04-26T11:00:58.584Z</time></trkpt><trkpt lat="39.9585033" lon="8.84685"><ele>145.0</ele><time>2026-04-26T11:00:59.585Z</time></trkpt><trkpt lat="39.958405" lon="8.8469533"><ele>138.5</ele><time>2026-04-26T11:01:00.578Z</time></trkpt><trkpt lat="39.9583183" lon="8.8470783"><ele>132.0</ele><time>2026-04-26T11:01:01.641Z</time></trkpt><trkpt lat="39.9582567" lon="8.8472367"><ele>125.5</ele><time>2026-04-26T11:01:02.581Z</time></trkpt><trkpt lat="39.9582183" lon="8.8474167"><ele>119.0</ele><time>2026-04-26T11:01:03.581Z</time></trkpt><trkpt lat="39.9582017" lon="8.847595"><ele>119.0</ele><time>2026-04-26T11:01:04.582Z</time></trkpt><trkpt lat="39.9581867" lon="8.8477683"><ele>119.0</ele><time>2026-04-26T11:01:05.581Z</time></trkpt><trkpt lat="39.95817" lon="8.8479367"><ele>119.0</ele><time>2026-04-26T11:01:06.591Z</time></trkpt><trkpt lat="39.9581467" lon="8.848105"><ele>119.0</ele><time>2026-04-26T11:01:07.632Z</time></trkpt><trkpt lat="39.9581233" lon="8.848275"><ele>119.0</ele><time>2026-04-26T11:01:08.581Z</time></trkpt><trkpt lat="39.958105" lon="8.8484417"><ele>119.0</ele><time>2026-04-26T11:01:09.578Z</time></trkpt><trkpt lat="39.9580983" lon="8.8486"><ele>119.0</ele><time>2026-04-26T11:01:10.582Z</time></trkpt><trkpt lat="39.9581167" lon="8.84875"><ele>119.0</ele><time>2026-04-26T11:01:11.582Z</time></trkpt><trkpt lat="39.9581533" lon="8.8488967"><ele>117.25</ele><time>2026-04-26T11:01:12.584Z</time></trkpt><trkpt lat="39.9582083" lon="8.849045"><ele>115.5</ele><time>2026-04-26T11:01:13.635Z</time></trkpt><trkpt lat="39.9582683" lon="8.8491983"><ele>113.75</ele><time>2026-04-26T11:01:14.581Z</time></trkpt><trkpt lat="39.95832" lon="8.84935"><ele>112.0</ele><time>2026-04-26T11:01:15.588Z</time></trkpt><trkpt lat="39.958345" lon="8.8494967"><ele>112.0</ele><time>2026-04-26T11:01:16.575Z</time></trkpt><trkpt lat="39.9583383" lon="8.8496383"><ele>112.0</ele><time>2026-04-26T11:01:17.579Z</time></trkpt><trkpt lat="39.9582883" lon="8.8497617"><ele>112.0</ele><time>2026-04-26T11:01:18.58Z</time></trkpt><trkpt lat="39.9582117" lon="8.849875"><ele>112.0</ele><time>2026-04-26T11:01:19.633Z</time></trkpt><trkpt lat="39.9581183" lon="8.8499733"><ele>112.0</ele><time>2026-04-26T11:01:20.579Z</time></trkpt><trkpt lat="39.9580183" lon="8.850065"><ele>112.0</ele><time>2026-04-26T11:01:21.578Z</time></trkpt><trkpt lat="39.9579217" lon="8.8501683"><ele>112.0</ele><time>2026-04-26T11:01:22.58Z</time></trkpt><trkpt lat="39.9578533" lon="8.8502983"><ele>112.0</ele><time>2026-04-26T11:01:23.585Z</time></trkpt><trkpt lat="39.9578333" lon="8.85047"><ele>111.25</ele><time>2026-04-26T11:01:24.581Z</time></trkpt><trkpt lat="39.9578467" lon="8.8506467"><ele>110.5</ele><time>2026-04-26T11:01:25.654Z</time></trkpt><trkpt lat="39.95789" lon="8.8508283"><ele>109.75</ele><time>2026-04-26T11:01:26.579Z</time></trkpt><trkpt lat="39.9579417" lon="8.8510067"><ele>109.0</ele><time>2026-04-26T11:01:27.586Z</time></trkpt><trkpt lat="39.9579983" lon="8.8511817"><ele>104.0</ele><time>2026-04-26T11:01:28.579Z</time></trkpt><trkpt lat="39.9580633" lon="8.8513533"><ele>99.0</ele><time>2026-04-26T11:01:29.582Z</time></trkpt><trkpt lat="39.958145" lon="8.851525"><ele>94.0</ele><time>2026-04-26T11:01:30.573Z</time></trkpt><trkpt lat="39.9582317" lon="8.8517"><ele>95.66666666666666</ele><time>2026-04-26T11:01:31.64Z</time></trkpt><trkpt lat="39.9583183" lon="8.85188"><ele>97.33333333333333</ele><time>2026-04-26T11:01:32.577Z</time></trkpt><trkpt lat="39.9584067" lon="8.8520633"><ele>99.0</ele><time>2026-04-26T11:01:33.579Z</time></trkpt><trkpt lat="39.9584933" lon="8.852245"><ele>99.0</ele><time>2026-04-26T11:01:34.578Z</time></trkpt><trkpt lat="39.9585717" lon="8.8524183"><ele>99.0</ele><time>2026-04-26T11:01:35.582Z</time></trkpt><trkpt lat="39.9586417" lon="8.8525833"><ele>99.0</ele><time>2026-04-26T11:01:36.581Z</time></trkpt><trkpt lat="39.9587067" lon="8.85274"><ele>99.0</ele><time>2026-04-26T11:01:37.638Z</time></trkpt><trkpt lat="39.95877" lon="8.85289"><ele>95.75</ele><time>2026-04-26T11:01:38.577Z</time></trkpt><trkpt lat="39.9588333" lon="8.85303"><ele>92.5</ele><time>2026-04-26T11:01:39.581Z</time></trkpt><trkpt lat="39.958895" lon="8.8531617"><ele>89.25</ele><time>2026-04-26T11:01:40.581Z</time></trkpt><trkpt lat="39.9589583" lon="8.8532833"><ele>86.0</ele><time>2026-04-26T11:01:41.583Z</time></trkpt><trkpt lat="39.9590317" lon="8.8533867"><ele>86.19999999999999</ele><time>2026-04-26T11:01:42.581Z</time></trkpt><trkpt lat="39.9591083" lon="8.8534767"><ele>86.39999999999999</ele><time>2026-04-26T11:01:43.631Z</time></trkpt><trkpt lat="39.9592167" lon="8.8534817"><ele>86.6</ele><time>2026-04-26T11:01:44.579Z</time></trkpt><trkpt lat="39.959325" lon="8.8534367"><ele>86.8</ele><time>2026-04-26T11:01:45.578Z</time></trkpt><trkpt lat="39.95943" lon="8.8533583"><ele>87.0</ele><time>2026-04-26T11:01:46.582Z</time></trkpt><trkpt lat="39.9595233" lon="8.8532717"><ele>87.0</ele><time>2026-04-26T11:01:47.592Z</time></trkpt><trkpt lat="39.95962" lon="8.8531967"><ele>87.0</ele><time>2026-04-26T11:01:48.579Z</time></trkpt><trkpt lat="39.9597183" lon="8.8531733"><ele>87.0</ele><time>2026-04-26T11:01:49.634Z</time></trkpt><trkpt lat="39.9598183" lon="8.8531767"><ele>87.0</ele><time>2026-04-26T11:01:50.585Z</time></trkpt><trkpt lat="39.959895" lon="8.8532767"><ele>87.0</ele><time>2026-04-26T11:01:51.579Z</time></trkpt><trkpt lat="39.9599733" lon="8.8533933"><ele>85.5</ele><time>2026-04-26T11:01:52.578Z</time></trkpt><trkpt lat="39.9599867" lon="8.8535517"><ele>84.0</ele><time>2026-04-26T11:01:53.58Z</time></trkpt><trkpt lat="39.959985" lon="8.8537183"><ele>82.5</ele><time>2026-04-26T11:01:54.585Z</time></trkpt><trkpt lat="39.9599733" lon="8.8538967"><ele>81.0</ele><time>2026-04-26T11:01:55.64Z</time></trkpt><trkpt lat="39.9599583" lon="8.85408"><ele>81.0</ele><time>2026-04-26T11:01:56.581Z</time></trkpt><trkpt lat="39.9599533" lon="8.8542733"><ele>81.0</ele><time>2026-04-26T11:01:57.584Z</time></trkpt><trkpt lat="39.9599483" lon="8.8544667"><ele>81.0</ele><time>2026-04-26T11:01:58.581Z</time></trkpt><trkpt lat="39.9599433" lon="8.8546583"><ele>81.0</ele><time>2026-04-26T11:01:59.579Z</time></trkpt><trkpt lat="39.9599367" lon="8.8548483"><ele>80.5</ele><time>2026-04-26T11:02:00.574Z</time></trkpt><trkpt lat="39.95993" lon="8.8550317"><ele>80.0</ele><time>2026-04-26T11:02:01.63Z</time></trkpt><trkpt lat="39.9599217" lon="8.8552083"><ele>79.5</ele><time>2026-04-26T11:02:02.573Z</time></trkpt><trkpt lat="39.9599133" lon="8.8553717"><ele>79.0</ele><time>2026-04-26T11:02:03.583Z</time></trkpt><trkpt lat="39.9599083" lon="8.8555283"><ele>77.25</ele><time>2026-04-26T11:02:04.584Z</time></trkpt><trkpt lat="39.9599183" lon="8.855675"><ele>75.5</ele><time>2026-04-26T11:02:05.582Z</time></trkpt><trkpt lat="39.9599483" lon="8.8558133"><ele>73.75</ele><time>2026-04-26T11:02:06.576Z</time></trkpt><trkpt lat="39.9600233" lon="8.85593"><ele>72.0</ele><time>2026-04-26T11:02:07.639Z</time></trkpt><trkpt lat="39.960115" lon="8.8560217"><ele>70.25</ele><time>2026-04-26T11:02:08.584Z</time></trkpt><trkpt lat="39.9602567" lon="8.856055"><ele>68.5</ele><time>2026-04-26T11:02:09.58Z</time></trkpt><trkpt lat="39.960395" lon="8.8560783"><ele>66.75</ele><time>2026-04-26T11:02:10.58Z</time></trkpt><trkpt lat="39.9605267" lon="8.8561033"><ele>65.0</ele><time>2026-04-26T11:02:11.577Z</time></trkpt><trkpt lat="39.9607533" lon="8.856175"><ele>65.0</ele><time>2026-04-26T11:02:13.639Z</time></trkpt><trkpt lat="39.9608517" lon="8.85622"><ele>65.0</ele><time>2026-04-26T11:02:14.577Z</time></trkpt><trkpt lat="39.9610283" lon="8.8565167"><ele>65.0</ele><time>2026-04-26T11:02:17.585Z</time></trkpt><trkpt lat="39.9609967" lon="8.8566417"><ele>62.66666666666667</ele><time>2026-04-26T11:02:18.584Z</time></trkpt><trkpt lat="39.9608483" lon="8.8568383"><ele>60.33333333333333</ele><time>2026-04-26T11:02:20.586Z</time></trkpt><trkpt lat="39.9607217" lon="8.85687"><ele>58.0</ele><time>2026-04-26T11:02:21.592Z</time></trkpt><trkpt lat="39.9604367" lon="8.8568683"><ele>54.0</ele><time>2026-04-26T11:02:23.585Z</time></trkpt><trkpt lat="39.9599867" lon="8.8568867"><ele>54.0</ele><time>2026-04-26T11:02:26.577Z</time></trkpt><trkpt lat="39.9597083" lon="8.8568967"><ele>54.0</ele><time>2026-04-26T11:02:28.578Z</time></trkpt><trkpt lat="39.9594467" lon="8.856905"><ele>54.0</ele><time>2026-04-26T11:02:30.579Z</time></trkpt><trkpt lat="39.9592033" lon="8.856875"><ele>54.0</ele><time>2026-04-26T11:02:32.579Z</time></trkpt><trkpt lat="39.9589667" lon="8.856735"><ele>57.0</ele><time>2026-04-26T11:02:34.582Z</time></trkpt><trkpt lat="39.9587683" lon="8.856485"><ele>60.0</ele><time>2026-04-26T11:02:36.585Z</time></trkpt><trkpt lat="39.9585967" lon="8.8562417"><ele>60.0</ele><time>2026-04-26T11:02:38.589Z</time></trkpt><trkpt lat="39.958405" lon="8.85611"><ele>60.0</ele><time>2026-04-26T11:02:40.578Z</time></trkpt><trkpt lat="39.9581883" lon="8.8560917"><ele>60.0</ele><time>2026-04-26T11:02:42.575Z</time></trkpt><trkpt lat="39.9579667" lon="8.8562667"><ele>56.5</ele><time>2026-04-26T11:02:44.579Z</time></trkpt><trkpt lat="39.9578" lon="8.8565433"><ele>53.0</ele><time>2026-04-26T11:02:46.574Z</time></trkpt><trkpt lat="39.9576517" lon="8.85679"><ele>53.0</ele><time>2026-04-26T11:02:48.582Z</time></trkpt><trkpt lat="39.957535" lon="8.8571067"><ele>53.0</ele><time>2026-04-26T11:02:51.576Z</time></trkpt><trkpt lat="39.9575467" lon="8.857225"><ele>53.0</ele><time>2026-04-26T11:02:52.586Z</time></trkpt><trkpt lat="39.9575883" lon="8.85746"><ele>51.333333333333336</ele><time>2026-04-26T11:02:54.576Z</time></trkpt><trkpt lat="39.9576433" lon="8.8577633"><ele>49.66666666666667</ele><time>2026-04-26T11:02:57.58Z</time></trkpt><trkpt lat="39.9576667" lon="8.8579467"><ele>48.0</ele><time>2026-04-26T11:02:59.577Z</time></trkpt><trkpt lat="39.9576933" lon="8.8581417"><ele>48.0</ele><time>2026-04-26T11:03:01.638Z</time></trkpt><trkpt lat="39.95772" lon="8.8583933"><ele>48.0</ele><time>2026-04-26T11:03:04.581Z</time></trkpt><trkpt lat="39.9577317" lon="8.85848"><ele>48.0</ele><time>2026-04-26T11:03:05.579Z</time></trkpt><trkpt lat="39.95776" lon="8.8586567"><ele>48.0</ele><time>2026-04-26T11:03:07.631Z</time></trkpt><trkpt lat="39.9577733" lon="8.8587433"><ele>48.5</ele><time>2026-04-26T11:03:08.577Z</time></trkpt><trkpt lat="39.9577917" lon="8.8588983"><ele>49.0</ele><time>2026-04-26T11:03:10.579Z</time></trkpt><trkpt lat="39.957815" lon="8.859075"><ele>49.5</ele><time>2026-04-26T11:03:13.638Z</time></trkpt><trkpt lat="39.9578383" lon="8.859265"><ele>50.0</ele><time>2026-04-26T11:03:16.576Z</time></trkpt><trkpt lat="39.95786" lon="8.85941"><ele>50.6</ele><time>2026-04-26T11:03:19.63Z</time></trkpt><trkpt lat="39.9578083" lon="8.8594833"><ele>51.2</ele><time>2026-04-26T11:03:22.577Z</time></trkpt><trkpt lat="39.957695" lon="8.85948"><ele>51.8</ele><time>2026-04-26T11:03:25.634Z</time></trkpt><trkpt lat="39.9576267" lon="8.8594983"><ele>52.4</ele><time>2026-04-26T11:03:28.587Z</time></trkpt><trkpt lat="39.9577767" lon="8.8595483"><ele>53.0</ele><time>2026-04-26T11:03:33.583Z</time></trkpt><trkpt lat="39.9578917" lon="8.8597217"><ele>53.0</ele><time>2026-04-26T11:03:36.581Z</time></trkpt><trkpt lat="39.9579117" lon="8.8598967"><ele>53.0</ele><time>2026-04-26T11:03:38.576Z</time></trkpt><trkpt lat="39.9579183" lon="8.8599833"><ele>53.0</ele><time>2026-04-26T11:03:39.577Z</time></trkpt><trkpt lat="39.9579483" lon="8.8601533"><ele>53.0</ele><time>2026-04-26T11:03:41.589Z</time></trkpt><trkpt lat="39.95796" lon="8.8602383"><ele>53.0</ele><time>2026-04-26T11:03:42.579Z</time></trkpt><trkpt lat="39.9579933" lon="8.8604383"><ele>56.0</ele><time>2026-04-26T11:03:45.577Z</time></trkpt><trkpt lat="39.9580383" lon="8.86061"><ele>56.0</ele><time>2026-04-26T11:03:49.631Z</time></trkpt><trkpt lat="39.958035" lon="8.8607467"><ele>56.0</ele><time>2026-04-26T11:03:52.581Z</time></trkpt></trkseg><trkseg><trkpt lat="39.958175" lon="8.8617417"><ele>59.50000000000001</ele><time>2026-04-26T11:17:56.572Z</time></trkpt><trkpt lat="39.958175" lon="8.8618317"><ele>60.0</ele><time>2026-04-26T11:17:57.572Z</time></trkpt><trkpt lat="39.95818" lon="8.86192"><ele>60.5</ele><time>2026-04-26T11:17:58.571Z</time></trkpt><trkpt lat="39.9581867" lon="8.8620667"><ele>61.0</ele><time>2026-04-26T11:18:00.574Z</time></trkpt><trkpt lat="39.9582017" lon="8.86218"><ele>61.50000000000001</ele><time>2026-04-26T11:18:02.582Z</time></trkpt><trkpt lat="39.95821" lon="8.8622633"><ele>62.0</ele><time>2026-04-26T11:18:04.577Z</time></trkpt><trkpt lat="39.9581833" lon="8.8623417"><ele>62.00000000000001</ele><time>2026-04-26T11:18:07.58Z</time></trkpt><trkpt lat="39.9581283" lon="8.8624133"><ele>62.0</ele><time>2026-04-26T11:18:09.577Z</time></trkpt><trkpt lat="39.9580383" lon="8.8625067"><ele>62.0</ele><time>2026-04-26T11:18:11.576Z</time></trkpt><trkpt lat="39.9579817" lon="8.8625517"><ele>62.0</ele><time>2026-04-26T11:18:12.581Z</time></trkpt><trkpt lat="39.9579233" lon="8.862605"><ele>62.00000000000001</ele><time>2026-04-26T11:18:13.577Z</time></trkpt><trkpt lat="39.957865" lon="8.8626583"><ele>62.0</ele><time>2026-04-26T11:18:14.574Z</time></trkpt><trkpt lat="39.95781" lon="8.8627167"><ele>62.8</ele><time>2026-04-26T11:18:15.575Z</time></trkpt><trkpt lat="39.9577283" lon="8.8628067"><ele>63.6</ele><time>2026-04-26T11:18:17.583Z</time></trkpt><trkpt lat="39.9576783" lon="8.86287"><ele>64.39999999999999</ele><time>2026-04-26T11:18:22.579Z</time></trkpt><trkpt lat="39.9576367" lon="8.8629767"><ele>65.2</ele><time>2026-04-26T11:18:24.579Z</time></trkpt><trkpt lat="39.95759" lon="8.8631083"><ele>66.0</ele><time>2026-04-26T11:18:26.577Z</time></trkpt><trkpt lat="39.9575367" lon="8.8632417"><ele>66.0</ele><time>2026-04-26T11:18:28.576Z</time></trkpt><trkpt lat="39.957485" lon="8.8633733"><ele>66.0</ele><time>2026-04-26T11:18:30.58Z</time></trkpt><trkpt lat="39.9574467" lon="8.8635117"><ele>66.0</ele><time>2026-04-26T11:18:32.58Z</time></trkpt><trkpt lat="39.9574017" lon="8.8636583"><ele>66.0</ele><time>2026-04-26T11:18:34.586Z</time></trkpt><trkpt lat="39.9573533" lon="8.8637933"><ele>66.0</ele><time>2026-04-26T11:18:36.578Z</time></trkpt><trkpt lat="39.9573" lon="8.8639233"><ele>66.0</ele><time>2026-04-26T11:18:38.579Z</time></trkpt><trkpt lat="39.9572483" lon="8.8640567"><ele>66.0</ele><time>2026-04-26T11:18:40.583Z</time></trkpt><trkpt lat="39.9571917" lon="8.8641933"><ele>66.0</ele><time>2026-04-26T11:18:42.575Z</time></trkpt><trkpt lat="39.9571183" lon="8.8643117"><ele>66.8</ele><time>2026-04-26T11:18:44.574Z</time></trkpt><trkpt lat="39.957045" lon="8.864415"><ele>67.6</ele><time>2026-04-26T11:18:46.576Z</time></trkpt><trkpt lat="39.9570117" lon="8.8644867"><ele>68.4</ele><time>2026-04-26T11:18:48.58Z</time></trkpt><trkpt lat="39.9569567" lon="8.8646367"><ele>69.2</ele><time>2026-04-26T11:22:24.574Z</time></trkpt><trkpt lat="39.9569067" lon="8.8647067"><ele>70.0</ele><time>2026-04-26T11:22:26.579Z</time></trkpt><trkpt lat="39.9568533" lon="8.86478"><ele>70.0</ele><time>2026-04-26T11:22:28.577Z</time></trkpt><trkpt lat="39.9568067" lon="8.864855"><ele>70.0</ele><time>2026-04-26T11:22:30.577Z</time></trkpt><trkpt lat="39.9567667" lon="8.86494"><ele>70.0</ele><time>2026-04-26T11:22:32.577Z</time></trkpt><trkpt lat="39.95673" lon="8.865045"><ele>70.0</ele><time>2026-04-26T11:22:34.577Z</time></trkpt><trkpt lat="39.9566817" lon="8.8651783"><ele>70.0</ele><time>2026-04-26T11:22:36.577Z</time></trkpt><trkpt lat="39.95665" lon="8.86525"><ele>70.0</ele><time>2026-04-26T11:22:37.621Z</time></trkpt><trkpt lat="39.956575" lon="8.8653733"><ele>70.2</ele><time>2026-04-26T11:22:39.577Z</time></trkpt><trkpt lat="39.95651" lon="8.86548"><ele>70.4</ele><time>2026-04-26T11:22:41.573Z</time></trkpt><trkpt lat="39.956465" lon="8.8655817"><ele>70.6</ele><time>2026-04-26T11:22:43.622Z</time></trkpt><trkpt lat="39.956425" lon="8.8656967"><ele>70.8</ele><time>2026-04-26T11:22:45.574Z</time></trkpt><trkpt lat="39.9564" lon="8.8658333"><ele>71.0</ele><time>2026-04-26T11:22:47.579Z</time></trkpt><trkpt lat="39.9563783" lon="8.8660033"><ele>71.0</ele><time>2026-04-26T11:22:49.62Z</time></trkpt><trkpt lat="39.95637" lon="8.8660983"><ele>71.0</ele><time>2026-04-26T11:22:50.57Z</time></trkpt><trkpt lat="39.956365" lon="8.8661883"><ele>71.0</ele><time>2026-04-26T11:22:51.569Z</time></trkpt><trkpt lat="39.9563617" lon="8.8662767"><ele>71.0</ele><time>2026-04-26T11:22:52.576Z</time></trkpt><trkpt lat="39.9563567" lon="8.8664317"><ele>71.0</ele><time>2026-04-26T11:22:54.576Z</time></trkpt><trkpt lat="39.9563483" lon="8.86658"><ele>71.0</ele><time>2026-04-26T11:22:56.574Z</time></trkpt><trkpt lat="39.95635" lon="8.8667217"><ele>72.2</ele><time>2026-04-26T11:22:58.576Z</time></trkpt><trkpt lat="39.9563783" lon="8.8668683"><ele>73.39999999999999</ele><time>2026-04-26T11:23:00.574Z</time></trkpt><trkpt lat="39.9564267" lon="8.8670267"><ele>74.6</ele><time>2026-04-26T11:23:02.574Z</time></trkpt><trkpt lat="39.9564583" lon="8.8671133"><ele>75.8</ele><time>2026-04-26T11:23:03.573Z</time></trkpt><trkpt lat="39.9564883" lon="8.8672083"><ele>77.0</ele><time>2026-04-26T11:23:04.575Z</time></trkpt><trkpt lat="39.95651" lon="8.8673067"><ele>77.0</ele><time>2026-04-26T11:23:05.577Z</time></trkpt><trkpt lat="39.9565283" lon="8.8673967"><ele>77.0</ele><time>2026-04-26T11:23:06.573Z</time></trkpt><trkpt lat="39.9565483" lon="8.867535"><ele>77.0</ele><time>2026-04-26T11:23:08.571Z</time></trkpt><trkpt lat="39.9565583" lon="8.867665"><ele>77.0</ele><time>2026-04-26T11:23:10.58Z</time></trkpt><trkpt lat="39.9565617" lon="8.8678067"><ele>77.0</ele><time>2026-04-26T11:23:12.584Z</time></trkpt><trkpt lat="39.9565583" lon="8.8678917"><ele>77.57142857142857</ele><time>2026-04-26T11:23:13.621Z</time></trkpt><trkpt lat="39.95655" lon="8.8679833"><ele>78.14285714285714</ele><time>2026-04-26T11:23:14.572Z</time></trkpt><trkpt lat="39.95654" lon="8.8680817"><ele>78.71428571428572</ele><time>2026-04-26T11:23:15.569Z</time></trkpt><trkpt lat="39.9565333" lon="8.8681767"><ele>79.28571428571428</ele><time>2026-04-26T11:23:16.574Z</time></trkpt><trkpt lat="39.9565267" lon="8.86827"><ele>79.85714285714286</ele><time>2026-04-26T11:23:17.573Z</time></trkpt><trkpt lat="39.9565217" lon="8.8683683"><ele>80.42857142857143</ele><time>2026-04-26T11:23:18.575Z</time></trkpt><trkpt lat="39.9565167" lon="8.86847"><ele>81.0</ele><time>2026-04-26T11:23:19.62Z</time></trkpt><trkpt lat="39.9565067" lon="8.8685717"><ele>82.16666666666667</ele><time>2026-04-26T11:23:20.571Z</time></trkpt><trkpt lat="39.9565" lon="8.868675"><ele>83.33333333333333</ele><time>2026-04-26T11:23:21.58Z</time></trkpt><trkpt lat="39.9564967" lon="8.868785"><ele>84.5</ele><time>2026-04-26T11:23:22.577Z</time></trkpt><trkpt lat="39.9564933" lon="8.8688967"><ele>85.66666666666666</ele><time>2026-04-26T11:23:23.573Z</time></trkpt><trkpt lat="39.9564883" lon="8.8690017"><ele>86.83333333333333</ele><time>2026-04-26T11:23:24.585Z</time></trkpt><trkpt lat="39.9564817" lon="8.8690983"><ele>88.0</ele><time>2026-04-26T11:23:25.564Z</time></trkpt><trkpt lat="39.9564733" lon="8.86918"><ele>88.80000000000001</ele><time>2026-04-26T11:23:26.573Z</time></trkpt><trkpt lat="39.956455" lon="8.8693283"><ele>89.6</ele><time>2026-04-26T11:23:28.576Z</time></trkpt><trkpt lat="39.9564383" lon="8.8694717"><ele>90.4</ele><time>2026-04-26T11:23:30.574Z</time></trkpt><trkpt lat="39.9564183" lon="8.8695633"><ele>91.19999999999999</ele><time>2026-04-26T11:23:32.576Z</time></trkpt><trkpt lat="39.9564783" lon="8.8696233"><ele>92.0</ele><time>2026-04-26T11:23:35.579Z</time></trkpt><trkpt lat="39.956485" lon="8.8695017"><ele>92.0</ele><time>2026-04-26T11:23:37.619Z</time></trkpt><trkpt lat="39.956475" lon="8.86933"><ele>92.0</ele><time>2026-04-26T11:23:39.574Z</time></trkpt><trkpt lat="39.9564733" lon="8.869225"><ele>92.0</ele><time>2026-04-26T11:23:40.577Z</time></trkpt><trkpt lat="39.9564733" lon="8.86911"><ele>92.0</ele><time>2026-04-26T11:23:41.575Z</time></trkpt><trkpt lat="39.956475" lon="8.8689817"><ele>92.0</ele><time>2026-04-26T11:23:42.575Z</time></trkpt><trkpt lat="39.9564783" lon="8.8688383"><ele>91.0</ele><time>2026-04-26T11:23:43.619Z</time></trkpt><trkpt lat="39.9564867" lon="8.86868"><ele>90.0</ele><time>2026-04-26T11:23:44.575Z</time></trkpt><trkpt lat="39.9564967" lon="8.868515"><ele>89.0</ele><time>2026-04-26T11:23:45.573Z</time></trkpt><trkpt lat="39.9565083" lon="8.868355"><ele>88.0</ele><time>2026-04-26T11:23:46.572Z</time></trkpt><trkpt lat="39.9565233" lon="8.86821"><ele>86.60000000000001</ele><time>2026-04-26T11:23:47.578Z</time></trkpt><trkpt lat="39.95654" lon="8.8680783"><ele>85.2</ele><time>2026-04-26T11:23:48.585Z</time></trkpt><trkpt lat="39.9565633" lon="8.8679567"><ele>83.8</ele><time>2026-04-26T11:23:49.622Z</time></trkpt><trkpt lat="39.9565933" lon="8.86784"><ele>82.4</ele><time>2026-04-26T11:23:50.572Z</time></trkpt><trkpt lat="39.956625" lon="8.8677233"><ele>81.0</ele><time>2026-04-26T11:23:51.572Z</time></trkpt><trkpt lat="39.95665" lon="8.8676083"><ele>80.2</ele><time>2026-04-26T11:23:52.566Z</time></trkpt><trkpt lat="39.9566717" lon="8.8674817"><ele>79.39999999999999</ele><time>2026-04-26T11:23:53.575Z</time></trkpt><trkpt lat="39.956685" lon="8.8673533"><ele>78.6</ele><time>2026-04-26T11:23:54.573Z</time></trkpt><trkpt lat="39.956705" lon="8.8672267"><ele>77.8</ele><time>2026-04-26T11:23:55.58Z</time></trkpt><trkpt lat="39.9567317" lon="8.8670983"><ele>77.0</ele><time>2026-04-26T11:23:56.578Z</time></trkpt><trkpt lat="39.9567683" lon="8.8669667"><ele>79.0</ele><time>2026-04-26T11:23:57.58Z</time></trkpt><trkpt lat="39.9568083" lon="8.866835"><ele>81.0</ele><time>2026-04-26T11:23:58.573Z</time></trkpt><trkpt lat="39.9568467" lon="8.8667117"><ele>83.0</ele><time>2026-04-26T11:23:59.576Z</time></trkpt><trkpt lat="39.9568767" lon="8.8666067"><ele>85.0</ele><time>2026-04-26T11:24:00.57Z</time></trkpt><trkpt lat="39.956905" lon="8.8665217"><ele>87.0</ele><time>2026-04-26T11:24:01.571Z</time></trkpt><trkpt lat="39.9569583" lon="8.8664283"><ele>87.0</ele><time>2026-04-26T11:24:03.572Z</time></trkpt><trkpt lat="39.95703" lon="8.866455"><ele>87.0</ele><time>2026-04-26T11:24:05.583Z</time></trkpt><trkpt lat="39.9570733" lon="8.8665367"><ele>87.0</ele><time>2026-04-26T11:24:07.626Z</time></trkpt><trkpt lat="39.9570367" lon="8.8666467"><ele>87.0</ele><time>2026-04-26T11:24:10.579Z</time></trkpt><trkpt lat="39.9569933" lon="8.866715"><ele>87.0</ele><time>2026-04-26T11:24:12.57Z</time></trkpt><trkpt lat="39.9569667" lon="8.86681"><ele>87.0</ele><time>2026-04-26T11:24:15.579Z</time></trkpt><trkpt lat="39.956935" lon="8.86692"><ele>88.8</ele><time>2026-04-26T11:24:17.575Z</time></trkpt><trkpt lat="39.9568967" lon="8.8670417"><ele>90.6</ele><time>2026-04-26T11:24:19.623Z</time></trkpt><trkpt lat="39.956845" lon="8.8671967"><ele>92.39999999999999</ele><time>2026-04-26T11:24:21.576Z</time></trkpt><trkpt lat="39.9568183" lon="8.8672983"><ele>94.19999999999999</ele><time>2026-04-26T11:24:22.576Z</time></trkpt><trkpt lat="39.9567933" lon="8.86741"><ele>96.0</ele><time>2026-04-26T11:24:23.568Z</time></trkpt><trkpt lat="39.95677" lon="8.8675317"><ele>97.6</ele><time>2026-04-26T11:24:24.573Z</time></trkpt><trkpt lat="39.9567483" lon="8.8676583"><ele>99.19999999999999</ele><time>2026-04-26T11:24:25.573Z</time></trkpt><trkpt lat="39.9567283" lon="8.867795"><ele>100.80000000000001</ele><time>2026-04-26T11:24:26.573Z</time></trkpt><trkpt lat="39.95671" lon="8.8679383"><ele>102.4</ele><time>2026-04-26T11:24:27.571Z</time></trkpt><trkpt lat="39.95669" lon="8.8680833"><ele>104.0</ele><time>2026-04-26T11:24:28.572Z</time></trkpt><trkpt lat="39.9566733" lon="8.8682317"><ele>100.0</ele><time>2026-04-26T11:24:29.574Z</time></trkpt><trkpt lat="39.95666" lon="8.8683833"><ele>96.0</ele><time>2026-04-26T11:24:30.571Z</time></trkpt><trkpt lat="39.9566483" lon="8.8685367"><ele>92.0</ele><time>2026-04-26T11:24:31.577Z</time></trkpt><trkpt lat="39.9566367" lon="8.8686883"><ele>88.0</ele><time>2026-04-26T11:24:32.576Z</time></trkpt><trkpt lat="39.9566233" lon="8.86884"><ele>88.0</ele><time>2026-04-26T11:24:33.581Z</time></trkpt><trkpt lat="39.95661" lon="8.8689883"><ele>88.0</ele><time>2026-04-26T11:24:34.571Z</time></trkpt><trkpt lat="39.9565967" lon="8.8691383"><ele>88.0</ele><time>2026-04-26T11:24:35.579Z</time></trkpt><trkpt lat="39.95658" lon="8.8692917"><ele>88.0</ele><time>2026-04-26T11:24:36.576Z</time></trkpt><trkpt lat="39.9565617" lon="8.8694467"><ele>89.0</ele><time>2026-04-26T11:24:37.621Z</time></trkpt><trkpt lat="39.9565467" lon="8.8696017"><ele>90.0</ele><time>2026-04-26T11:24:38.575Z</time></trkpt><trkpt lat="39.9565367" lon="8.8697517"><ele>91.0</ele><time>2026-04-26T11:24:39.582Z</time></trkpt><trkpt lat="39.9565283" lon="8.8699"><ele>92.0</ele><time>2026-04-26T11:24:40.578Z</time></trkpt><trkpt lat="39.9565167" lon="8.87005"><ele>92.0</ele><time>2026-04-26T11:24:41.576Z</time></trkpt><trkpt lat="39.9565033" lon="8.8702083"><ele>92.0</ele><time>2026-04-26T11:24:42.572Z</time></trkpt><trkpt lat="39.95649" lon="8.8703683"><ele>92.0</ele><time>2026-04-26T11:24:43.621Z</time></trkpt><trkpt lat="39.9564767" lon="8.8705267"><ele>92.0</ele><time>2026-04-26T11:24:44.573Z</time></trkpt><trkpt lat="39.9564683" lon="8.8706767"><ele>92.0</ele><time>2026-04-26T11:24:45.574Z</time></trkpt><trkpt lat="39.956465" lon="8.8708183"><ele>92.0</ele><time>2026-04-26T11:24:46.575Z</time></trkpt><trkpt lat="39.9564567" lon="8.8709533"><ele>92.0</ele><time>2026-04-26T11:24:47.588Z</time></trkpt><trkpt lat="39.9564433" lon="8.8710833"><ele>92.0</ele><time>2026-04-26T11:24:48.573Z</time></trkpt><trkpt lat="39.95642" lon="8.87121"><ele>92.0</ele><time>2026-04-26T11:24:49.624Z</time></trkpt><trkpt lat="39.95638" lon="8.8713167"><ele>91.33333333333334</ele><time>2026-04-26T11:24:50.578Z</time></trkpt><trkpt lat="39.95632" lon="8.8714"><ele>90.66666666666667</ele><time>2026-04-26T11:24:51.579Z</time></trkpt><trkpt lat="39.9562467" lon="8.8714517"><ele>90.0</ele><time>2026-04-26T11:24:52.574Z</time></trkpt><trkpt lat="39.95619" lon="8.8715"><ele>89.33333333333333</ele><time>2026-04-26T11:24:53.576Z</time></trkpt><trkpt lat="39.9561167" lon="8.87159"><ele>88.66666666666666</ele><time>2026-04-26T11:24:55.638Z</time></trkpt><trkpt lat="39.9561017" lon="8.8717267"><ele>88.0</ele><time>2026-04-26T11:24:57.575Z</time></trkpt><trkpt lat="39.9561117" lon="8.871815"><ele>87.5</ele><time>2026-04-26T11:24:58.573Z</time></trkpt><trkpt lat="39.9561333" lon="8.871905"><ele>87.0</ele><time>2026-04-26T11:24:59.575Z</time></trkpt><trkpt lat="39.9561617" lon="8.8719933"><ele>86.5</ele><time>2026-04-26T11:25:00.573Z</time></trkpt><trkpt lat="39.956185" lon="8.8720733"><ele>86.0</ele><time>2026-04-26T11:25:01.574Z</time></trkpt><trkpt lat="39.956215" lon="8.8722067"><ele>85.5</ele><time>2026-04-26T11:25:03.574Z</time></trkpt><trkpt lat="39.956235" lon="8.872315"><ele>85.0</ele><time>2026-04-26T11:25:06.576Z</time></trkpt><trkpt lat="39.9562467" lon="8.872425"><ele>85.0</ele><time>2026-04-26T11:25:10.577Z</time></trkpt><trkpt lat="39.9562833" lon="8.87251"><ele>85.0</ele><time>2026-04-26T11:25:13.632Z</time></trkpt><trkpt lat="39.9563517" lon="8.8724817"><ele>85.0</ele><time>2026-04-26T11:25:15.573Z</time></trkpt><trkpt lat="39.9563783" lon="8.8723583"><ele>85.0</ele><time>2026-04-26T11:25:17.576Z</time></trkpt><trkpt lat="39.9563917" lon="8.8722717"><ele>85.0</ele><time>2026-04-26T11:25:18.579Z</time></trkpt><trkpt lat="39.956405" lon="8.87217"><ele>85.0</ele><time>2026-04-26T11:25:19.628Z</time></trkpt><trkpt lat="39.9564183" lon="8.872055"><ele>85.0</ele><time>2026-04-26T11:25:20.578Z</time></trkpt><trkpt lat="39.9564317" lon="8.8719317"><ele>85.0</ele><time>2026-04-26T11:25:21.573Z</time></trkpt><trkpt lat="39.9564467" lon="8.871795"><ele>85.0</ele><time>2026-04-26T11:25:22.57Z</time></trkpt><trkpt lat="39.9564617" lon="8.8716433"><ele>85.0</ele><time>2026-04-26T11:25:23.574Z</time></trkpt><trkpt lat="39.9564767" lon="8.8714767"><ele>85.0</ele><time>2026-04-26T11:25:24.575Z</time></trkpt><trkpt lat="39.9564933" lon="8.8713017"><ele>85.75</ele><time>2026-04-26T11:25:25.577Z</time></trkpt><trkpt lat="39.9565033" lon="8.8711233"><ele>86.5</ele><time>2026-04-26T11:25:26.58Z</time></trkpt><trkpt lat="39.9565083" lon="8.8709367"><ele>87.25</ele><time>2026-04-26T11:25:27.571Z</time></trkpt><trkpt lat="39.9565133" lon="8.870745"><ele>88.0</ele><time>2026-04-26T11:25:28.573Z</time></trkpt><trkpt lat="39.9565167" lon="8.870555"><ele>89.0</ele><time>2026-04-26T11:25:29.58Z</time></trkpt><trkpt lat="39.9565217" lon="8.8703717"><ele>90.0</ele><time>2026-04-26T11:25:30.576Z</time></trkpt><trkpt lat="39.9565283" lon="8.8702"><ele>91.0</ele><time>2026-04-26T11:25:31.581Z</time></trkpt><trkpt lat="39.9565383" lon="8.87004"><ele>92.0</ele><time>2026-04-26T11:25:32.58Z</time></trkpt><trkpt lat="39.9565517" lon="8.8698867"><ele>92.0</ele><time>2026-04-26T11:25:33.582Z</time></trkpt><trkpt lat="39.956565" lon="8.8697383"><ele>92.0</ele><time>2026-04-26T11:25:34.576Z</time></trkpt><trkpt lat="39.9565783" lon="8.8695883"><ele>92.0</ele><time>2026-04-26T11:25:35.582Z</time></trkpt><trkpt lat="39.9565917" lon="8.8694433"><ele>92.0</ele><time>2026-04-26T11:25:36.575Z</time></trkpt><trkpt lat="39.956605" lon="8.8693017"><ele>91.19999999999999</ele><time>2026-04-26T11:25:37.627Z</time></trkpt><trkpt lat="39.9566167" lon="8.8691583"><ele>90.4</ele><time>2026-04-26T11:25:38.575Z</time></trkpt><trkpt lat="39.9566283" lon="8.869015"><ele>89.6</ele><time>2026-04-26T11:25:39.575Z</time></trkpt><trkpt lat="39.9566383" lon="8.86887"><ele>88.80000000000001</ele><time>2026-04-26T11:25:40.57Z</time></trkpt><trkpt lat="39.95665" lon="8.8687283"><ele>88.0</ele><time>2026-04-26T11:25:41.578Z</time></trkpt><trkpt lat="39.9566667" lon="8.8685867"><ele>88.0</ele><time>2026-04-26T11:25:42.576Z</time></trkpt><trkpt lat="39.956685" lon="8.8684567"><ele>88.0</ele><time>2026-04-26T11:25:43.625Z</time></trkpt><trkpt lat="39.9566983" lon="8.8683383"><ele>88.0</ele><time>2026-04-26T11:25:44.575Z</time></trkpt><trkpt lat="39.9567083" lon="8.8682317"><ele>88.0</ele><time>2026-04-26T11:25:45.575Z</time></trkpt><trkpt lat="39.9567117" lon="8.8681367"><ele>88.0</ele><time>2026-04-26T11:25:46.583Z</time></trkpt><trkpt lat="39.9567183" lon="8.8680067"><ele>88.0</ele><time>2026-04-26T11:25:48.583Z</time></trkpt><trkpt lat="39.9567917" lon="8.8680333"><ele>90.66666666666666</ele><time>2026-04-26T11:25:52.579Z</time></trkpt><trkpt lat="39.9567867" lon="8.8681383"><ele>93.33333333333333</ele><time>2026-04-26T11:25:54.579Z</time></trkpt><trkpt lat="39.9567683" lon="8.8682883"><ele>96.0</ele><time>2026-04-26T11:25:56.577Z</time></trkpt><trkpt lat="39.9567567" lon="8.8683733"><ele>98.66666666666666</ele><time>2026-04-26T11:25:57.578Z</time></trkpt><trkpt lat="39.956745" lon="8.8684617"><ele>101.33333333333333</ele><time>2026-04-26T11:25:58.576Z</time></trkpt><trkpt lat="39.9567367" lon="8.8685517"><ele>104.0</ele><time>2026-04-26T11:25:59.579Z</time></trkpt><trkpt lat="39.9567317" lon="8.868645"><ele>104.99999999999999</ele><time>2026-04-26T11:26:00.583Z</time></trkpt><trkpt lat="39.9567283" lon="8.868745"><ele>106.0</ele><time>2026-04-26T11:26:01.581Z</time></trkpt><trkpt lat="39.95672" lon="8.8688483"><ele>107.0</ele><time>2026-04-26T11:26:02.569Z</time></trkpt><trkpt lat="39.95671" lon="8.8689567"><ele>108.0</ele><time>2026-04-26T11:26:03.58Z</time></trkpt><trkpt lat="39.9567" lon="8.8690667"><ele>108.99999999999999</ele><time>2026-04-26T11:26:04.572Z</time></trkpt><trkpt lat="39.95669" lon="8.8691783"><ele>110.0</ele><time>2026-04-26T11:26:05.579Z</time></trkpt><trkpt lat="39.9566833" lon="8.8692917"><ele>106.99999999999999</ele><time>2026-04-26T11:26:06.579Z</time></trkpt><trkpt lat="39.9566783" lon="8.8694067"><ele>104.0</ele><time>2026-04-26T11:26:07.621Z</time></trkpt><trkpt lat="39.9566717" lon="8.869525"><ele>101.0</ele><time>2026-04-26T11:26:08.572Z</time></trkpt><trkpt lat="39.956665" lon="8.8696417"><ele>98.0</ele><time>2026-04-26T11:26:09.577Z</time></trkpt><trkpt lat="39.9566583" lon="8.8697533"><ele>95.0</ele><time>2026-04-26T11:26:10.578Z</time></trkpt><trkpt lat="39.9566483" lon="8.8698617"><ele>92.0</ele><time>2026-04-26T11:26:11.575Z</time></trkpt><trkpt lat="39.956645" lon="8.869965"><ele>92.0</ele><time>2026-04-26T11:26:12.578Z</time></trkpt><trkpt lat="39.9566467" lon="8.8700683"><ele>92.0</ele><time>2026-04-26T11:26:13.631Z</time></trkpt><trkpt lat="39.9566617" lon="8.870165"><ele>92.0</ele><time>2026-04-26T11:26:14.58Z</time></trkpt><trkpt lat="39.95669" lon="8.870255"><ele>92.0</ele><time>2026-04-26T11:26:15.568Z</time></trkpt><trkpt lat="39.95673" lon="8.87034"><ele>92.0</ele><time>2026-04-26T11:26:16.578Z</time></trkpt><trkpt lat="39.9567733" lon="8.8704233"><ele>92.0</ele><time>2026-04-26T11:26:17.574Z</time></trkpt><trkpt lat="39.956815" lon="8.870505"><ele>94.83333333333334</ele><time>2026-04-26T11:26:18.576Z</time></trkpt><trkpt lat="39.9568583" lon="8.8705917"><ele>97.66666666666667</ele><time>2026-04-26T11:26:19.627Z</time></trkpt><trkpt lat="39.9568983" lon="8.8706783"><ele>100.5</ele><time>2026-04-26T11:26:20.572Z</time></trkpt><trkpt lat="39.95694" lon="8.8707667"><ele>103.33333333333334</ele><time>2026-04-26T11:26:21.572Z</time></trkpt><trkpt lat="39.9569833" lon="8.870855"><ele>106.16666666666667</ele><time>2026-04-26T11:26:22.572Z</time></trkpt><trkpt lat="39.9570233" lon="8.8709467"><ele>109.0</ele><time>2026-04-26T11:26:23.573Z</time></trkpt><trkpt lat="39.9570717" lon="8.871035"><ele>109.00000000000001</ele><time>2026-04-26T11:26:24.572Z</time></trkpt><trkpt lat="39.95713" lon="8.8711133"><ele>109.0</ele><time>2026-04-26T11:26:25.635Z</time></trkpt><trkpt lat="39.9571983" lon="8.871185"><ele>109.0</ele><time>2026-04-26T11:26:26.571Z</time></trkpt><trkpt lat="39.9572717" lon="8.8712517"><ele>109.0</ele><time>2026-04-26T11:26:27.577Z</time></trkpt><trkpt lat="39.95735" lon="8.8713183"><ele>109.00000000000001</ele><time>2026-04-26T11:26:28.569Z</time></trkpt><trkpt lat="39.9574217" lon="8.8713833"><ele>109.0</ele><time>2026-04-26T11:26:29.574Z</time></trkpt><trkpt lat="39.9574883" lon="8.871455"><ele>114.00000000000001</ele><time>2026-04-26T11:26:30.576Z</time></trkpt><trkpt lat="39.9575533" lon="8.8715267"><ele>119.0</ele><time>2026-04-26T11:26:31.58Z</time></trkpt><trkpt lat="39.9576217" lon="8.8716033"><ele>124.0</ele><time>2026-04-26T11:26:32.577Z</time></trkpt><trkpt lat="39.9576783" lon="8.8716867"><ele>129.0</ele><time>2026-04-26T11:26:33.582Z</time></trkpt><trkpt lat="39.9577283" lon="8.87178"><ele>134.0</ele><time>2026-04-26T11:26:34.576Z</time></trkpt><trkpt lat="39.95777" lon="8.8718867"><ele>139.0</ele><time>2026-04-26T11:26:35.578Z</time></trkpt><trkpt lat="39.9578" lon="8.872"><ele>139.8</ele><time>2026-04-26T11:26:36.577Z</time></trkpt><trkpt lat="39.9578117" lon="8.8721167"><ele>140.60000000000002</ele><time>2026-04-26T11:26:37.626Z</time></trkpt><trkpt lat="39.957805" lon="8.8722333"><ele>141.4</ele><time>2026-04-26T11:26:38.574Z</time></trkpt><trkpt lat="39.9577833" lon="8.872355"><ele>142.20000000000002</ele><time>2026-04-26T11:26:39.576Z</time></trkpt><trkpt lat="39.95776" lon="8.872485"><ele>143.0</ele><time>2026-04-26T11:26:40.572Z</time></trkpt><trkpt lat="39.95774" lon="8.8726217"><ele>143.0</ele><time>2026-04-26T11:26:41.575Z</time></trkpt><trkpt lat="39.95773" lon="8.8727633"><ele>143.0</ele><time>2026-04-26T11:26:42.579Z</time></trkpt><trkpt lat="39.9577267" lon="8.8729033"><ele>143.0</ele><time>2026-04-26T11:26:43.632Z</time></trkpt><trkpt lat="39.9577317" lon="8.8730483"><ele>143.0</ele><time>2026-04-26T11:26:44.58Z</time></trkpt><trkpt lat="39.9577433" lon="8.873195"><ele>143.0</ele><time>2026-04-26T11:26:45.58Z</time></trkpt><trkpt lat="39.9577583" lon="8.873335"><ele>142.20000000000002</ele><time>2026-04-26T11:26:46.578Z</time></trkpt><trkpt lat="39.9577783" lon="8.8734683"><ele>141.4</ele><time>2026-04-26T11:26:47.578Z</time></trkpt><trkpt lat="39.9578" lon="8.873595"><ele>140.60000000000002</ele><time>2026-04-26T11:26:48.58Z</time></trkpt><trkpt lat="39.9578267" lon="8.87372"><ele>139.8</ele><time>2026-04-26T11:26:49.625Z</time></trkpt><trkpt lat="39.9578617" lon="8.87385"><ele>139.0</ele><time>2026-04-26T11:26:50.575Z</time></trkpt><trkpt lat="39.9579067" lon="8.8739767"><ele>139.0</ele><time>2026-04-26T11:26:51.571Z</time></trkpt><trkpt lat="39.9579617" lon="8.8740983"><ele>139.0</ele><time>2026-04-26T11:26:52.576Z</time></trkpt><trkpt lat="39.9580133" lon="8.8742167"><ele>139.0</ele><time>2026-04-26T11:26:53.575Z</time></trkpt><trkpt lat="39.95807" lon="8.8743317"><ele>139.0</ele><time>2026-04-26T11:26:54.575Z</time></trkpt><trkpt lat="39.9581333" lon="8.8744317"><ele>139.0</ele><time>2026-04-26T11:26:55.579Z</time></trkpt><trkpt lat="39.95821" lon="8.87452"><ele>138.0</ele><time>2026-04-26T11:26:56.574Z</time></trkpt><trkpt lat="39.9582967" lon="8.8745833"><ele>137.0</ele><time>2026-04-26T11:26:57.57Z</time></trkpt><trkpt lat="39.9583867" lon="8.8746433"><ele>136.0</ele><time>2026-04-26T11:26:58.579Z</time></trkpt><trkpt lat="39.9584717" lon="8.874715"><ele>135.0</ele><time>2026-04-26T11:26:59.573Z</time></trkpt><trkpt lat="39.9585417" lon="8.874805"><ele>134.0</ele><time>2026-04-26T11:27:00.579Z</time></trkpt><trkpt lat="39.958595" lon="8.8749183"><ele>139.6</ele><time>2026-04-26T11:27:01.568Z</time></trkpt><trkpt lat="39.95863" lon="8.8750417"><ele>145.2</ele><time>2026-04-26T11:27:02.576Z</time></trkpt><trkpt lat="39.9586583" lon="8.8751733"><ele>150.79999999999998</ele><time>2026-04-26T11:27:03.58Z</time></trkpt><trkpt lat="39.9586867" lon="8.8752933"><ele>156.4</ele><time>2026-04-26T11:27:04.572Z</time></trkpt><trkpt lat="39.95873" lon="8.8754033"><ele>162.0</ele><time>2026-04-26T11:27:05.578Z</time></trkpt><trkpt lat="39.9587783" lon="8.87551"><ele>162.0</ele><time>2026-04-26T11:27:06.573Z</time></trkpt><trkpt lat="39.9588333" lon="8.8756117"><ele>162.0</ele><time>2026-04-26T11:27:07.622Z</time></trkpt><trkpt lat="39.9588867" lon="8.8757167"><ele>162.0</ele><time>2026-04-26T11:27:08.578Z</time></trkpt><trkpt lat="39.9589367" lon="8.8758233"><ele>162.0</ele><time>2026-04-26T11:27:09.573Z</time></trkpt><trkpt lat="39.9589883" lon="8.8759183"><ele>162.0</ele><time>2026-04-26T11:27:10.571Z</time></trkpt><trkpt lat="39.9590333" lon="8.8760083"><ele>162.42857142857144</ele><time>2026-04-26T11:27:11.58Z</time></trkpt><trkpt lat="39.9590667" lon="8.876085"><ele>162.85714285714286</ele><time>2026-04-26T11:27:12.571Z</time></trkpt><trkpt lat="39.9590917" lon="8.876165"><ele>163.28571428571428</ele><time>2026-04-26T11:27:13.627Z</time></trkpt><trkpt lat="39.9591133" lon="8.8762467"><ele>163.71428571428572</ele><time>2026-04-26T11:27:14.577Z</time></trkpt><trkpt lat="39.95913" lon="8.8763267"><ele>164.14285714285714</ele><time>2026-04-26T11:27:15.579Z</time></trkpt><trkpt lat="39.959145" lon="8.8764133"><ele>164.57142857142858</ele><time>2026-04-26T11:27:16.574Z</time></trkpt><trkpt lat="39.9591583" lon="8.8765067"><ele>165.0</ele><time>2026-04-26T11:27:17.573Z</time></trkpt><trkpt lat="39.959175" lon="8.8765983"><ele>165.00000000000003</ele><time>2026-04-26T11:27:18.575Z</time></trkpt><trkpt lat="39.9591967" lon="8.8766883"><ele>165.0</ele><time>2026-04-26T11:27:19.618Z</time></trkpt><trkpt lat="39.9592117" lon="8.87678"><ele>165.0</ele><time>2026-04-26T11:27:20.573Z</time></trkpt><trkpt lat="39.9592233" lon="8.8768733"><ele>165.0</ele><time>2026-04-26T11:27:21.572Z</time></trkpt><trkpt lat="39.9592333" lon="8.8769683"><ele>165.0</ele><time>2026-04-26T11:27:22.581Z</time></trkpt><trkpt lat="39.95924" lon="8.8770567"><ele>165.00000000000003</ele><time>2026-04-26T11:27:23.572Z</time></trkpt><trkpt lat="39.9592467" lon="8.8771517"><ele>165.0</ele><time>2026-04-26T11:27:24.574Z</time></trkpt><trkpt lat="39.9592417" lon="8.8772417"><ele>164.5</ele><time>2026-04-26T11:27:25.648Z</time></trkpt><trkpt lat="39.9592183" lon="8.8773283"><ele>164.0</ele><time>2026-04-26T11:27:26.583Z</time></trkpt><trkpt lat="39.9591883" lon="8.8774117"><ele>163.5</ele><time>2026-04-26T11:27:27.576Z</time></trkpt><trkpt lat="39.9591617" lon="8.877555"><ele>163.0</ele><time>2026-04-26T11:27:29.575Z</time></trkpt><trkpt lat="39.95916" lon="8.8776683"><ele>162.5</ele><time>2026-04-26T11:27:31.573Z</time></trkpt><trkpt lat="39.959175" lon="8.8777533"><ele>162.0</ele><time>2026-04-26T11:27:33.58Z</time></trkpt><trkpt lat="39.9592167" lon="8.8778667"><ele>164.83333333333334</ele><time>2026-04-26T11:27:35.579Z</time></trkpt><trkpt lat="39.9592817" lon="8.8779833"><ele>167.66666666666666</ele><time>2026-04-26T11:27:37.619Z</time></trkpt><trkpt lat="39.9593617" lon="8.8780933"><ele>170.5</ele><time>2026-04-26T11:27:39.569Z</time></trkpt><trkpt lat="39.95941" lon="8.8781533"><ele>173.33333333333331</ele><time>2026-04-26T11:27:40.573Z</time></trkpt><trkpt lat="39.9594633" lon="8.878215"><ele>176.16666666666666</ele><time>2026-04-26T11:27:41.579Z</time></trkpt><trkpt lat="39.95952" lon="8.878275"><ele>179.0</ele><time>2026-04-26T11:27:42.574Z</time></trkpt><trkpt lat="39.959575" lon="8.87833"><ele>179.0</ele><time>2026-04-26T11:27:43.62Z</time></trkpt><trkpt lat="39.95963" lon="8.8783767"><ele>179.0</ele><time>2026-04-26T11:27:44.573Z</time></trkpt><trkpt lat="39.9596883" lon="8.8784167"><ele>179.0</ele><time>2026-04-26T11:27:45.575Z</time></trkpt><trkpt lat="39.959745" lon="8.878455"><ele>179.0</ele><time>2026-04-26T11:27:46.571Z</time></trkpt><trkpt lat="39.9598583" lon="8.8785183"><ele>179.0</ele><time>2026-04-26T11:27:48.577Z</time></trkpt><trkpt lat="39.9599767" lon="8.8785633"><ele>179.0</ele><time>2026-04-26T11:27:50.571Z</time></trkpt><trkpt lat="39.9601017" lon="8.8785717"><ele>177.33333333333331</ele><time>2026-04-26T11:27:52.575Z</time></trkpt><trkpt lat="39.960175" lon="8.8785733"><ele>175.66666666666666</ele><time>2026-04-26T11:27:53.572Z</time></trkpt><trkpt lat="39.96026" lon="8.87857"><ele>174.0</ele><time>2026-04-26T11:27:54.568Z</time></trkpt><trkpt lat="39.96035" lon="8.8785717"><ele>172.33333333333334</ele><time>2026-04-26T11:27:55.576Z</time></trkpt><trkpt lat="39.9604383" lon="8.8785733"><ele>170.66666666666669</ele><time>2026-04-26T11:27:56.576Z</time></trkpt><trkpt lat="39.9605233" lon="8.8785667"><ele>169.0</ele><time>2026-04-26T11:27:57.58Z</time></trkpt><trkpt lat="39.9606117" lon="8.8785517"><ele>169.0</ele><time>2026-04-26T11:27:58.575Z</time></trkpt><trkpt lat="39.9607033" lon="8.8785233"><ele>169.0</ele><time>2026-04-26T11:27:59.577Z</time></trkpt><trkpt lat="39.9607933" lon="8.8784933"><ele>169.0</ele><time>2026-04-26T11:28:00.567Z</time></trkpt><trkpt lat="39.9608783" lon="8.878465"><ele>169.0</ele><time>2026-04-26T11:28:01.574Z</time></trkpt><trkpt lat="39.9609567" lon="8.8784483"><ele>169.0</ele><time>2026-04-26T11:28:02.573Z</time></trkpt><trkpt lat="39.9610383" lon="8.8784467"><ele>169.0</ele><time>2026-04-26T11:28:03.569Z</time></trkpt><trkpt lat="39.9611167" lon="8.87847"><ele>171.33333333333334</ele><time>2026-04-26T11:28:04.578Z</time></trkpt><trkpt lat="39.9611967" lon="8.8785083"><ele>173.66666666666669</ele><time>2026-04-26T11:28:05.575Z</time></trkpt><trkpt lat="39.9612767" lon="8.8785617"><ele>176.0</ele><time>2026-04-26T11:28:06.58Z</time></trkpt><trkpt lat="39.9613533" lon="8.8786217"><ele>178.33333333333334</ele><time>2026-04-26T11:28:07.62Z</time></trkpt><trkpt lat="39.9614267" lon="8.878685"><ele>180.66666666666666</ele><time>2026-04-26T11:28:08.574Z</time></trkpt><trkpt lat="39.961505" lon="8.8787517"><ele>183.0</ele><time>2026-04-26T11:28:09.577Z</time></trkpt><trkpt lat="39.9615867" lon="8.87882"><ele>183.0</ele><time>2026-04-26T11:28:10.573Z</time></trkpt><trkpt lat="39.961675" lon="8.8788817"><ele>183.0</ele><time>2026-04-26T11:28:11.571Z</time></trkpt><trkpt lat="39.9617733" lon="8.8789317"><ele>183.0</ele><time>2026-04-26T11:28:12.572Z</time></trkpt><trkpt lat="39.9618717" lon="8.8789767"><ele>183.0</ele><time>2026-04-26T11:28:13.621Z</time></trkpt><trkpt lat="39.961965" lon="8.8790283"><ele>183.0</ele><time>2026-04-26T11:28:14.572Z</time></trkpt><trkpt lat="39.9620483" lon="8.8790883"><ele>182.8</ele><time>2026-04-26T11:28:15.572Z</time></trkpt><trkpt lat="39.962125" lon="8.8791567"><ele>182.60000000000002</ele><time>2026-04-26T11:28:16.574Z</time></trkpt><trkpt lat="39.9622017" lon="8.8792283"><ele>182.39999999999998</ele><time>2026-04-26T11:28:17.579Z</time></trkpt><trkpt lat="39.9622717" lon="8.8793033"><ele>182.2</ele><time>2026-04-26T11:28:18.571Z</time></trkpt><trkpt lat="39.96234" lon="8.8793767"><ele>182.0</ele><time>2026-04-26T11:28:19.631Z</time></trkpt><trkpt lat="39.962405" lon="8.8794617"><ele>182.0</ele><time>2026-04-26T11:28:20.572Z</time></trkpt><trkpt lat="39.9624717" lon="8.8795483"><ele>182.0</ele><time>2026-04-26T11:28:21.57Z</time></trkpt><trkpt lat="39.96254" lon="8.8796383"><ele>182.0</ele><time>2026-04-26T11:28:22.581Z</time></trkpt><trkpt lat="39.9626167" lon="8.879725"><ele>182.0</ele><time>2026-04-26T11:28:23.578Z</time></trkpt><trkpt lat="39.9627" lon="8.8798083"><ele>182.0</ele><time>2026-04-26T11:28:24.577Z</time></trkpt><trkpt lat="39.9627867" lon="8.8798833"><ele>180.39999999999998</ele><time>2026-04-26T11:28:25.585Z</time></trkpt><trkpt lat="39.9628783" lon="8.8799533"><ele>178.79999999999998</ele><time>2026-04-26T11:28:26.57Z</time></trkpt><trkpt lat="39.9629767" lon="8.88002"><ele>177.2</ele><time>2026-04-26T11:28:27.58Z</time></trkpt><trkpt lat="39.9630733" lon="8.880085"><ele>175.6</ele><time>2026-04-26T11:28:28.577Z</time></trkpt><trkpt lat="39.9631733" lon="8.8801467"><ele>174.0</ele><time>2026-04-26T11:28:29.571Z</time></trkpt><trkpt lat="39.9632767" lon="8.88021"><ele>177.6</ele><time>2026-04-26T11:28:30.576Z</time></trkpt><trkpt lat="39.9633783" lon="8.88027"><ele>181.2</ele><time>2026-04-26T11:28:31.572Z</time></trkpt><trkpt lat="39.9634733" lon="8.880325"><ele>184.79999999999998</ele><time>2026-04-26T11:28:32.579Z</time></trkpt><trkpt lat="39.9635617" lon="8.8803767"><ele>188.39999999999998</ele><time>2026-04-26T11:28:33.577Z</time></trkpt><trkpt lat="39.9636467" lon="8.880425"><ele>192.0</ele><time>2026-04-26T11:28:34.577Z</time></trkpt><trkpt lat="39.963735" lon="8.88047"><ele>192.0</ele><time>2026-04-26T11:28:35.577Z</time></trkpt><trkpt lat="39.9638267" lon="8.8805117"><ele>192.0</ele><time>2026-04-26T11:28:36.577Z</time></trkpt><trkpt lat="39.96392" lon="8.8805517"><ele>192.0</ele><time>2026-04-26T11:28:37.621Z</time></trkpt><trkpt lat="39.9640117" lon="8.8805883"><ele>192.0</ele><time>2026-04-26T11:28:38.574Z</time></trkpt><trkpt lat="39.9640967" lon="8.8806233"><ele>192.0</ele><time>2026-04-26T11:28:39.573Z</time></trkpt><trkpt lat="39.9641717" lon="8.88066"><ele>196.75</ele><time>2026-04-26T11:28:40.576Z</time></trkpt><trkpt lat="39.9642367" lon="8.8806983"><ele>201.5</ele><time>2026-04-26T11:28:41.575Z</time></trkpt><trkpt lat="39.9642983" lon="8.8807383"><ele>206.25</ele><time>2026-04-26T11:28:42.579Z</time></trkpt><trkpt lat="39.9644717" lon="8.8808567"><ele>211.0</ele><time>2026-04-26T11:28:45.566Z</time></trkpt><trkpt lat="39.964685" lon="8.8809317"><ele>211.0</ele><time>2026-04-26T11:28:48.575Z</time></trkpt><trkpt lat="39.9647667" lon="8.88094"><ele>211.0</ele><time>2026-04-26T11:28:49.619Z</time></trkpt><trkpt lat="39.96493" lon="8.8808967"><ele>211.0</ele><time>2026-04-26T11:28:51.575Z</time></trkpt><trkpt lat="39.9650133" lon="8.8808617"><ele>211.0</ele><time>2026-04-26T11:28:52.574Z</time></trkpt><trkpt lat="39.965265" lon="8.880795"><ele>218.0</ele><time>2026-04-26T11:28:55.572Z</time></trkpt><trkpt lat="39.9655183" lon="8.88078"><ele>225.0</ele><time>2026-04-26T11:28:58.567Z</time></trkpt><trkpt lat="39.96584" lon="8.8808717"><ele>228.25</ele><time>2026-04-26T11:29:02.567Z</time></trkpt><trkpt lat="39.9659083" lon="8.8809183"><ele>231.5</ele><time>2026-04-26T11:29:03.569Z</time></trkpt><trkpt lat="39.9660967" lon="8.8810567"><ele>234.75</ele><time>2026-04-26T11:29:06.571Z</time></trkpt><trkpt lat="39.9661617" lon="8.881095"><ele>238.0</ele><time>2026-04-26T11:29:07.617Z</time></trkpt><trkpt lat="39.9664883" lon="8.8811783"><ele>243.5</ele><time>2026-04-26T11:29:11.577Z</time></trkpt><trkpt lat="39.9668033" lon="8.8812083"><ele>249.0</ele><time>2026-04-26T11:29:15.576Z</time></trkpt><trkpt lat="39.9669617" lon="8.8813217"><ele>249.0</ele><time>2026-04-26T11:29:18.576Z</time></trkpt><trkpt lat="39.9671767" lon="8.881605"><ele>249.0</ele><time>2026-04-26T11:29:23.572Z</time></trkpt><trkpt lat="39.96732" lon="8.8820467"><ele>248.0</ele><time>2026-04-26T11:29:28.58Z</time></trkpt><trkpt lat="39.9673567" lon="8.882135"><ele>247.0</ele><time>2026-04-26T11:29:29.578Z</time></trkpt><trkpt lat="39.96757" lon="8.88251"><ele>246.0</ele><time>2026-04-26T11:29:33.566Z</time></trkpt><trkpt lat="39.9678467" lon="8.88288"><ele>245.5</ele><time>2026-04-26T11:29:37.621Z</time></trkpt><trkpt lat="39.9681867" lon="8.8832383"><ele>245.0</ele><time>2026-04-26T11:29:41.569Z</time></trkpt><trkpt lat="39.96827" lon="8.883325"><ele>249.0</ele><time>2026-04-26T11:29:42.568Z</time></trkpt><trkpt lat="39.9684383" lon="8.883495"><ele>253.0</ele><time>2026-04-26T11:29:44.568Z</time></trkpt><trkpt lat="39.96869" lon="8.8837417"><ele>253.0</ele><time>2026-04-26T11:29:47.575Z</time></trkpt><trkpt lat="39.9688417" lon="8.8839267"><ele>253.0</ele><time>2026-04-26T11:29:49.618Z</time></trkpt><trkpt lat="39.968905" lon="8.8840233"><ele>253.0</ele><time>2026-04-26T11:29:50.567Z</time></trkpt><trkpt lat="39.96896" lon="8.8841217"><ele>253.0</ele><time>2026-04-26T11:29:51.572Z</time></trkpt><trkpt lat="39.9690033" lon="8.884225"><ele>253.0</ele><time>2026-04-26T11:29:52.571Z</time></trkpt><trkpt lat="39.9690367" lon="8.884455"><ele>253.0</ele><time>2026-04-26T11:29:54.571Z</time></trkpt><trkpt lat="39.969045" lon="8.88484"><ele>255.0</ele><time>2026-04-26T11:29:57.569Z</time></trkpt><trkpt lat="39.969135" lon="8.885295"><ele>257.0</ele><time>2026-04-26T11:30:01.579Z</time></trkpt><trkpt lat="39.9693367" lon="8.88575"><ele>261.0</ele><time>2026-04-26T11:30:05.572Z</time></trkpt><trkpt lat="39.9694267" lon="8.8859883"><ele>265.0</ele><time>2026-04-26T11:30:07.612Z</time></trkpt><trkpt lat="39.9696067" lon="8.886275"><ele>265.0</ele><time>2026-04-26T11:30:10.578Z</time></trkpt><trkpt lat="39.969685" lon="8.8863567"><ele>265.0</ele><time>2026-04-26T11:30:11.576Z</time></trkpt><trkpt lat="39.9698267" lon="8.8865267"><ele>265.0</ele><time>2026-04-26T11:30:13.615Z</time></trkpt><trkpt lat="39.970015" lon="8.88681"><ele>266.75</ele><time>2026-04-26T11:30:16.569Z</time></trkpt><trkpt lat="39.9700833" lon="8.8869"><ele>268.5</ele><time>2026-04-26T11:30:17.569Z</time></trkpt><trkpt lat="39.9702133" lon="8.8870967"><ele>270.25</ele><time>2026-04-26T11:30:19.616Z</time></trkpt><trkpt lat="39.970275" lon="8.887205"><ele>272.0</ele><time>2026-04-26T11:30:20.576Z</time></trkpt><trkpt lat="39.9703917" lon="8.88743"><ele>269.5</ele><time>2026-04-26T11:30:22.569Z</time></trkpt><trkpt lat="39.9705633" lon="8.88776"><ele>267.0</ele><time>2026-04-26T11:30:25.573Z</time></trkpt><trkpt lat="39.9706733" lon="8.8879317"><ele>267.0</ele><time>2026-04-26T11:30:27.569Z</time></trkpt><trkpt lat="39.9707233" lon="8.888"><ele>267.0</ele><time>2026-04-26T11:30:28.586Z</time></trkpt><trkpt lat="39.9708233" lon="8.8881583"><ele>267.0</ele><time>2026-04-26T11:30:30.571Z</time></trkpt><trkpt lat="39.9709917" lon="8.88849"><ele>267.0</ele><time>2026-04-26T11:30:33.571Z</time></trkpt><trkpt lat="39.9713033" lon="8.8890917"><ele>258.5</ele><time>2026-04-26T11:30:38.574Z</time></trkpt><trkpt lat="39.97154" lon="8.8894367"><ele>250.0</ele><time>2026-04-26T11:30:41.565Z</time></trkpt><trkpt lat="39.9716183" lon="8.889545"><ele>252.5</ele><time>2026-04-26T11:30:42.563Z</time></trkpt><trkpt lat="39.971895" lon="8.8899733"><ele>255.0</ele><time>2026-04-26T11:30:46.572Z</time></trkpt><trkpt lat="39.9720083" lon="8.8901833"><ele>255.0</ele><time>2026-04-26T11:30:48.569Z</time></trkpt><trkpt lat="39.9720567" lon="8.89029"><ele>255.0</ele><time>2026-04-26T11:30:49.613Z</time></trkpt><trkpt lat="39.9721067" lon="8.8903933"><ele>255.0</ele><time>2026-04-26T11:30:50.567Z</time></trkpt><trkpt lat="39.9721533" lon="8.890495"><ele>255.0</ele><time>2026-04-26T11:30:51.571Z</time></trkpt><trkpt lat="39.972305" lon="8.8907867"><ele>258.0</ele><time>2026-04-26T11:30:54.567Z</time></trkpt><trkpt lat="39.9726167" lon="8.8911733"><ele>261.0</ele><time>2026-04-26T11:31:00.573Z</time></trkpt><trkpt lat="39.9726883" lon="8.8913267"><ele>261.0</ele><time>2026-04-26T11:31:02.565Z</time></trkpt><trkpt lat="39.97271" lon="8.8914167"><ele>261.0</ele><time>2026-04-26T11:31:03.571Z</time></trkpt><trkpt lat="39.9727217" lon="8.891515"><ele>261.0</ele><time>2026-04-26T11:31:04.569Z</time></trkpt><trkpt lat="39.97274" lon="8.8917367"><ele>261.0</ele><time>2026-04-26T11:31:06.573Z</time></trkpt><trkpt lat="39.9727417" lon="8.8918417"><ele>261.0</ele><time>2026-04-26T11:31:07.621Z</time></trkpt><trkpt lat="39.972785" lon="8.8924083"><ele>258.2</ele><time>2026-04-26T11:31:13.621Z</time></trkpt><trkpt lat="39.97285" lon="8.8925683"><ele>255.40000000000003</ele><time>2026-04-26T11:31:15.567Z</time></trkpt><trkpt lat="39.97289" lon="8.8926367"><ele>252.6</ele><time>2026-04-26T11:31:16.57Z</time></trkpt><trkpt lat="39.9729317" lon="8.8927017"><ele>249.8</ele><time>2026-04-26T11:31:17.568Z</time></trkpt><trkpt lat="39.97302" lon="8.892835"><ele>247.0</ele><time>2026-04-26T11:31:19.623Z</time></trkpt><trkpt lat="39.9730733" lon="8.89292"><ele>242.5</ele><time>2026-04-26T11:31:20.568Z</time></trkpt><trkpt lat="39.9732033" lon="8.893125"><ele>238.0</ele><time>2026-04-26T11:31:22.576Z</time></trkpt><trkpt lat="39.9732783" lon="8.893235"><ele>233.5</ele><time>2026-04-26T11:31:23.575Z</time></trkpt><trkpt lat="39.9733533" lon="8.8933417"><ele>229.0</ele><time>2026-04-26T11:31:24.576Z</time></trkpt><trkpt lat="39.9734283" lon="8.8934517"><ele>226.6</ele><time>2026-04-26T11:31:25.598Z</time></trkpt><trkpt lat="39.9734983" lon="8.8935567"><ele>224.2</ele><time>2026-04-26T11:31:26.571Z</time></trkpt><trkpt lat="39.973565" lon="8.8936567"><ele>221.79999999999998</ele><time>2026-04-26T11:31:27.567Z</time></trkpt><trkpt lat="39.9736333" lon="8.8937483"><ele>219.39999999999998</ele><time>2026-04-26T11:31:28.576Z</time></trkpt><trkpt lat="39.9736983" lon="8.893835"><ele>217.0</ele><time>2026-04-26T11:31:29.569Z</time></trkpt><trkpt lat="39.974015" lon="8.894245"><ele>210.0</ele><time>2026-04-26T11:31:34.579Z</time></trkpt><trkpt lat="39.9743333" lon="8.8948283"><ele>210.0</ele><time>2026-04-26T11:31:41.579Z</time></trkpt><trkpt lat="39.9743667" lon="8.8949"><ele>210.0</ele><time>2026-04-26T11:31:42.567Z</time></trkpt><trkpt lat="39.974495" lon="8.8952817"><ele>210.0</ele><time>2026-04-26T11:31:48.572Z</time></trkpt><trkpt lat="39.97448" lon="8.8955433"><ele>210.0</ele><time>2026-04-26T11:31:52.575Z</time></trkpt><trkpt lat="39.9744283" lon="8.8959033"><ele>210.0</ele><time>2026-04-26T11:31:56.577Z</time></trkpt><trkpt lat="39.97439" lon="8.8965083"><ele>216.0</ele><time>2026-04-26T11:32:01.618Z</time></trkpt><trkpt lat="39.9743967" lon="8.8968883"><ele>222.0</ele><time>2026-04-26T11:32:04.567Z</time></trkpt><trkpt lat="39.9744017" lon="8.8971483"><ele>222.0</ele><time>2026-04-26T11:32:06.573Z</time></trkpt><trkpt lat="39.9744083" lon="8.8974267"><ele>222.0</ele><time>2026-04-26T11:32:08.57Z</time></trkpt><trkpt lat="39.97442" lon="8.8975717"><ele>222.0</ele><time>2026-04-26T11:32:09.573Z</time></trkpt><trkpt lat="39.9744467" lon="8.8978567"><ele>228.5</ele><time>2026-04-26T11:32:11.581Z</time></trkpt><trkpt lat="39.97445" lon="8.8982817"><ele>235.0</ele><time>2026-04-26T11:32:14.568Z</time></trkpt><trkpt lat="39.9744567" lon="8.8985667"><ele>229.0</ele><time>2026-04-26T11:32:16.57Z</time></trkpt><trkpt lat="39.9732033" lon="8.893125"><ele>229.0</ele><time>2026-04-26T11:31:22.576Z</time></trkpt><trkpt lat="39.9732783" lon="8.893235"><ele>228.99999999999997</ele><time>2026-04-26T11:31:23.575Z</time></trkpt><trkpt lat="39.9733533" lon="8.8933417"><ele>228.99999999999997</ele><time>2026-04-26T11:31:24.576Z</time></trkpt><trkpt lat="39.9734283" lon="8.8934517"><ele>229.0</ele><time>2026-04-26T11:31:25.598Z</time></trkpt><trkpt lat="39.9734983" lon="8.8935567"><ele>229.0</ele><time>2026-04-26T11:31:26.571Z</time></trkpt><trkpt lat="39.973565" lon="8.8936567"><ele>225.0</ele><time>2026-04-26T11:31:27.567Z</time></trkpt><trkpt lat="39.9736333" lon="8.8937483"><ele>221.0</ele><time>2026-04-26T11:31:28.576Z</time></trkpt><trkpt lat="39.9736983" lon="8.893835"><ele>217.0</ele><time>2026-04-26T11:31:29.569Z</time></trkpt><trkpt lat="39.974015" lon="8.894245"><ele>210.0</ele><time>2026-04-26T11:31:34.579Z</time></trkpt><trkpt lat="39.9743333" lon="8.8948283"><ele>210.0</ele><time>2026-04-26T11:31:41.579Z</time></trkpt><trkpt lat="39.9743667" lon="8.8949"><ele>210.0</ele><time>2026-04-26T11:31:42.567Z</time></trkpt><trkpt lat="39.974495" lon="8.8952817"><ele>210.0</ele><time>2026-04-26T11:31:48.572Z</time></trkpt><trkpt lat="39.97448" lon="8.8955433"><ele>210.0</ele><time>2026-04-26T11:31:52.575Z</time></trkpt><trkpt lat="39.9744283" lon="8.8959033"><ele>210.0</ele><time>2026-04-26T11:31:56.577Z</time></trkpt><trkpt lat="39.97439" lon="8.8965083"><ele>216.0</ele><time>2026-04-26T11:32:01.618Z</time></trkpt><trkpt lat="39.9743967" lon="8.8968883"><ele>222.0</ele><time>2026-04-26T11:32:04.567Z</time></trkpt><trkpt lat="39.9744017" lon="8.8971483"><ele>222.0</ele><time>2026-04-26T11:32:06.573Z</time></trkpt><trkpt lat="39.9744083" lon="8.8974267"><ele>222.0</ele><time>2026-04-26T11:32:08.57Z</time></trkpt><trkpt lat="39.97442" lon="8.8975717"><ele>222.0</ele><time>2026-04-26T11:32:09.573Z</time></trkpt><trkpt lat="39.9744467" lon="8.8978567"><ele>228.5</ele><time>2026-04-26T11:32:11.581Z</time></trkpt><trkpt lat="39.97445" lon="8.8982817"><ele>235.0</ele><time>2026-04-26T11:32:14.568Z</time></trkpt><trkpt lat="39.9744567" lon="8.8985667"><ele>238.66666666666666</ele><time>2026-04-26T11:32:16.57Z</time></trkpt><trkpt lat="39.974485" lon="8.898835"><ele>242.33333333333331</ele><time>2026-04-26T11:32:18.575Z</time></trkpt><trkpt lat="39.9745083" lon="8.8989583"><ele>246.0</ele><time>2026-04-26T11:32:19.62Z</time></trkpt><trkpt lat="39.9746217" lon="8.8992733"><ele>249.0</ele><time>2026-04-26T11:32:22.574Z</time></trkpt><trkpt lat="39.9747433" lon="8.8995083"><ele>252.0</ele><time>2026-04-26T11:32:25.643Z</time></trkpt><trkpt lat="39.97484" lon="8.8997333"><ele>255.0</ele><time>2026-04-26T11:32:28.576Z</time></trkpt><trkpt lat="39.9748667" lon="8.8998133"><ele>255.0</ele><time>2026-04-26T11:32:29.572Z</time></trkpt><trkpt lat="39.97492" lon="8.9000467"><ele>255.0</ele><time>2026-04-26T11:32:32.568Z</time></trkpt><trkpt lat="39.9749383" lon="8.90026"><ele>255.0</ele><time>2026-04-26T11:32:35.566Z</time></trkpt><trkpt lat="39.9749317" lon="8.9004117"><ele>254.75</ele><time>2026-04-26T11:32:37.616Z</time></trkpt><trkpt lat="39.974915" lon="8.9005933"><ele>254.5</ele><time>2026-04-26T11:32:39.571Z</time></trkpt><trkpt lat="39.9749067" lon="8.9006917"><ele>254.25</ele><time>2026-04-26T11:32:40.575Z</time></trkpt><trkpt lat="39.9748967" lon="8.9007867"><ele>254.0</ele><time>2026-04-26T11:32:41.583Z</time></trkpt><trkpt lat="39.9748333" lon="8.901135"><ele>253.66666666666669</ele><time>2026-04-26T11:32:45.565Z</time></trkpt><trkpt lat="39.9748183" lon="8.9012317"><ele>253.33333333333331</ele><time>2026-04-26T11:32:46.58Z</time></trkpt><trkpt lat="39.9747983" lon="8.9016183"><ele>253.0</ele><time>2026-04-26T11:32:50.571Z</time></trkpt><trkpt lat="39.97482" lon="8.9017183"><ele>254.0</ele><time>2026-04-26T11:32:51.57Z</time></trkpt><trkpt lat="39.9748867" lon="8.902125"><ele>255.0</ele><time>2026-04-26T11:32:55.633Z</time></trkpt><trkpt lat="39.9748933" lon="8.9023467"><ele>255.0</ele><time>2026-04-26T11:32:57.567Z</time></trkpt><trkpt lat="39.9748983" lon="8.90246"><ele>255.0</ele><time>2026-04-26T11:32:58.567Z</time></trkpt><trkpt lat="39.974945" lon="8.9027833"><ele>255.0</ele><time>2026-04-26T11:33:01.615Z</time></trkpt><trkpt lat="39.9749667" lon="8.902885"><ele>255.0</ele><time>2026-04-26T11:33:02.59Z</time></trkpt><trkpt lat="39.975025" lon="8.90329"><ele>247.66666666666669</ele><time>2026-04-26T11:33:06.571Z</time></trkpt><trkpt lat="39.9750333" lon="8.9033833"><ele>240.33333333333334</ele><time>2026-04-26T11:33:07.622Z</time></trkpt><trkpt lat="39.9750683" lon="8.9037733"><ele>233.0</ele><time>2026-04-26T11:33:11.572Z</time></trkpt><trkpt lat="39.97506" lon="8.9043283"><ele>233.0</ele><time>2026-04-26T11:33:16.568Z</time></trkpt><trkpt lat="39.9750583" lon="8.9044517"><ele>233.0</ele><time>2026-04-26T11:33:17.57Z</time></trkpt><trkpt lat="39.9750683" lon="8.9047817"><ele>233.0</ele><time>2026-04-26T11:33:20.571Z</time></trkpt><trkpt lat="39.97507" lon="8.90488"><ele>233.0</ele><time>2026-04-26T11:33:21.569Z</time></trkpt><trkpt lat="39.97507" lon="8.9049717"><ele>250.0</ele><time>2026-04-26T11:33:22.569Z</time></trkpt><trkpt lat="39.97519" lon="8.9060317"><ele>250.0</ele><time>2026-04-26T11:33:33.566Z</time></trkpt><trkpt lat="39.9754117" lon="8.906565"><ele>250.5</ele><time>2026-04-26T11:33:39.581Z</time></trkpt><trkpt lat="39.9755617" lon="8.9068217"><ele>251.0</ele><time>2026-04-26T11:33:43.619Z</time></trkpt><trkpt lat="39.9757583" lon="8.9070833"><ele>249.5</ele><time>2026-04-26T11:33:47.583Z</time></trkpt><trkpt lat="39.975955" lon="8.9073733"><ele>248.0</ele><time>2026-04-26T11:33:51.565Z</time></trkpt><trkpt lat="39.9761683" lon="8.9076067"><ele>248.0</ele><time>2026-04-26T11:33:55.635Z</time></trkpt><trkpt lat="39.9763467" lon="8.90777"><ele>248.0</ele><time>2026-04-26T11:33:59.572Z</time></trkpt><trkpt lat="39.9765433" lon="8.908155"><ele>248.66666666666669</ele><time>2026-04-26T11:34:05.57Z</time></trkpt><trkpt lat="39.976745" lon="8.9085117"><ele>249.33333333333331</ele><time>2026-04-26T11:34:11.587Z</time></trkpt><trkpt lat="39.9767917" lon="8.908595"><ele>250.0</ele><time>2026-04-26T11:34:13.615Z</time></trkpt><trkpt lat="39.97684" lon="8.9086783"><ele>250.0</ele><time>2026-04-26T11:34:15.573Z</time></trkpt><trkpt lat="39.9769167" lon="8.9087833"><ele>250.0</ele><time>2026-04-26T11:34:18.572Z</time></trkpt><trkpt lat="39.97699" lon="8.9088683"><ele>250.0</ele><time>2026-04-26T11:34:21.573Z</time></trkpt><trkpt lat="39.977095" lon="8.9089633"><ele>250.0</ele><time>2026-04-26T11:34:25.637Z</time></trkpt><trkpt lat="39.9772" lon="8.909055"><ele>250.0</ele><time>2026-04-26T11:34:28.564Z</time></trkpt><trkpt lat="39.977315" lon="8.90924"><ele>250.0</ele><time>2026-04-26T11:34:31.616Z</time></trkpt><trkpt lat="39.9773817" lon="8.9093717"><ele>250.0</ele><time>2026-04-26T11:34:33.576Z</time></trkpt><trkpt lat="39.977415" lon="8.9094417"><ele>250.0</ele><time>2026-04-26T11:34:34.569Z</time></trkpt><trkpt lat="39.9774583" lon="8.9096"><ele>248.5</ele><time>2026-04-26T11:34:36.577Z</time></trkpt><trkpt lat="39.9774783" lon="8.9096783"><ele>247.0</ele><time>2026-04-26T11:34:37.623Z</time></trkpt><trkpt lat="39.9775167" lon="8.90983"><ele>245.5</ele><time>2026-04-26T11:34:39.569Z</time></trkpt><trkpt lat="39.97755" lon="8.9101283"><ele>244.0</ele><time>2026-04-26T11:34:43.619Z</time></trkpt><trkpt lat="39.9775433" lon="8.9103517"><ele>243.39999999999998</ele><time>2026-04-26T11:34:46.57Z</time></trkpt><trkpt lat="39.9775133" lon="8.9104567"><ele>242.79999999999998</ele><time>2026-04-26T11:34:48.575Z</time></trkpt><trkpt lat="39.9774867" lon="8.9105667"><ele>242.20000000000002</ele><time>2026-04-26T11:34:50.568Z</time></trkpt><trkpt lat="39.9774617" lon="8.9107017"><ele>241.60000000000002</ele><time>2026-04-26T11:34:52.568Z</time></trkpt><trkpt lat="39.977455" lon="8.9108733"><ele>241.0</ele><time>2026-04-26T11:34:54.571Z</time></trkpt><trkpt lat="39.97746" lon="8.91097"><ele>240.0</ele><time>2026-04-26T11:34:55.636Z</time></trkpt><trkpt lat="39.977465" lon="8.9111633"><ele>239.0</ele><time>2026-04-26T11:34:57.571Z</time></trkpt><trkpt lat="39.9774667" lon="8.9113383"><ele>238.0</ele><time>2026-04-26T11:34:59.581Z</time></trkpt><trkpt lat="39.97747" lon="8.9114217"><ele>237.0</ele><time>2026-04-26T11:35:00.571Z</time></trkpt><trkpt lat="39.9775117" lon="8.9115783"><ele>239.25</ele><time>2026-04-26T11:35:02.562Z</time></trkpt><trkpt lat="39.9775867" lon="8.911725"><ele>241.5</ele><time>2026-04-26T11:35:04.569Z</time></trkpt><trkpt lat="39.9777017" lon="8.911855"><ele>243.75</ele><time>2026-04-26T11:35:06.568Z</time></trkpt><trkpt lat="39.97782" lon="8.911965"><ele>246.0</ele><time>2026-04-26T11:35:08.575Z</time></trkpt><trkpt lat="39.97791" lon="8.9120717"><ele>246.0</ele><time>2026-04-26T11:35:10.571Z</time></trkpt><trkpt lat="39.9779517" lon="8.9121417"><ele>246.0</ele><time>2026-04-26T11:35:11.571Z</time></trkpt><trkpt lat="39.9780283" lon="8.9122883"><ele>246.0</ele><time>2026-04-26T11:35:13.613Z</time></trkpt><trkpt lat="39.9781067" lon="8.9124083"><ele>246.0</ele><time>2026-04-26T11:35:15.575Z</time></trkpt><trkpt lat="39.9782117" lon="8.9124967"><ele>246.0</ele><time>2026-04-26T11:35:17.573Z</time></trkpt><trkpt lat="39.9782733" lon="8.9125333"><ele>246.00000000000003</ele><time>2026-04-26T11:35:18.568Z</time></trkpt><trkpt lat="39.97833" lon="8.91257"><ele>246.00000000000003</ele><time>2026-04-26T11:35:19.615Z</time></trkpt><trkpt lat="39.9785033" lon="8.91273"><ele>246.0</ele><time>2026-04-26T11:35:22.567Z</time></trkpt><trkpt lat="39.9785533" lon="8.91279"><ele>246.0</ele><time>2026-04-26T11:35:23.575Z</time></trkpt><trkpt lat="39.97861" lon="8.91284"><ele>246.25</ele><time>2026-04-26T11:35:24.567Z</time></trkpt><trkpt lat="39.9787183" lon="8.9129333"><ele>246.5</ele><time>2026-04-26T11:35:26.57Z</time></trkpt><trkpt lat="39.97884" lon="8.9130033"><ele>246.75</ele><time>2026-04-26T11:35:28.566Z</time></trkpt><trkpt lat="39.9789833" lon="8.9130333"><ele>247.0</ele><time>2026-04-26T11:35:30.57Z</time></trkpt><trkpt lat="39.9791317" lon="8.913055"><ele>250.0</ele><time>2026-04-26T11:35:32.562Z</time></trkpt><trkpt lat="39.9792117" lon="8.9130633"><ele>253.0</ele><time>2026-04-26T11:35:33.579Z</time></trkpt><trkpt lat="39.9793667" lon="8.9130817"><ele>256.0</ele><time>2026-04-26T11:35:35.577Z</time></trkpt><trkpt lat="39.979565" lon="8.9130567"><ele>259.0</ele><time>2026-04-26T11:35:38.565Z</time></trkpt><trkpt lat="39.9796317" lon="8.9130433"><ele>259.0</ele><time>2026-04-26T11:35:39.569Z</time></trkpt><trkpt lat="39.97975" lon="8.913075"><ele>259.0</ele><time>2026-04-26T11:35:41.564Z</time></trkpt><trkpt lat="39.9798217" lon="8.9132167"><ele>259.0</ele><time>2026-04-26T11:35:43.615Z</time></trkpt><trkpt lat="39.9798517" lon="8.9135117"><ele>260.75</ele><time>2026-04-26T11:35:46.578Z</time></trkpt><trkpt lat="39.9798467" lon="8.913685"><ele>262.5</ele><time>2026-04-26T11:35:48.595Z</time></trkpt><trkpt lat="39.9798433" lon="8.9137683"><ele>264.25</ele><time>2026-04-26T11:35:49.616Z</time></trkpt><trkpt lat="39.97981" lon="8.9140333"><ele>266.0</ele><time>2026-04-26T11:35:52.575Z</time></trkpt><trkpt lat="39.9797867" lon="8.914115"><ele>268.75</ele><time>2026-04-26T11:35:53.568Z</time></trkpt><trkpt lat="39.9797433" lon="8.9142817"><ele>271.5</ele><time>2026-04-26T11:35:55.595Z</time></trkpt><trkpt lat="39.97969" lon="8.91442"><ele>274.25</ele><time>2026-04-26T11:35:57.566Z</time></trkpt><trkpt lat="39.9796533" lon="8.91456"><ele>277.0</ele><time>2026-04-26T11:35:59.575Z</time></trkpt><trkpt lat="39.979625" lon="8.9149767"><ele>279.3333333333333</ele><time>2026-04-26T11:36:04.563Z</time></trkpt><trkpt lat="39.97964" lon="8.9151783"><ele>281.6666666666667</ele><time>2026-04-26T11:36:06.569Z</time></trkpt><trkpt lat="39.9796133" lon="8.9154367"><ele>284.0</ele><time>2026-04-26T11:36:09.561Z</time></trkpt><trkpt lat="39.9796167" lon="8.915795"><ele>284.0</ele><time>2026-04-26T11:36:13.615Z</time></trkpt><trkpt lat="39.9796167" lon="8.9158833"><ele>284.0</ele><time>2026-04-26T11:36:14.568Z</time></trkpt><trkpt lat="39.9796433" lon="8.9160483"><ele>284.0</ele><time>2026-04-26T11:36:16.577Z</time></trkpt><trkpt lat="39.9797617" lon="8.916265"><ele>284.0</ele><time>2026-04-26T11:36:19.625Z</time></trkpt><trkpt lat="39.9797983" lon="8.916335"><ele>294.0</ele><time>2026-04-26T11:36:20.566Z</time></trkpt><trkpt lat="39.98027" lon="8.9171483"><ele>294.0</ele><time>2026-04-26T11:36:33.571Z</time></trkpt><trkpt lat="39.9803183" lon="8.9172083"><ele>294.0</ele><time>2026-04-26T11:36:34.567Z</time></trkpt><trkpt lat="39.9805367" lon="8.9176367"><ele>296.0</ele><time>2026-04-26T11:36:40.568Z</time></trkpt><trkpt lat="39.9805517" lon="8.9177233"><ele>298.0</ele><time>2026-04-26T11:36:41.573Z</time></trkpt><trkpt lat="39.980595" lon="8.9180033"><ele>300.0</ele><time>2026-04-26T11:36:44.565Z</time></trkpt><trkpt lat="39.9806133" lon="8.9181"><ele>302.0</ele><time>2026-04-26T11:36:45.571Z</time></trkpt><trkpt lat="39.9806" lon="8.9183917"><ele>304.5</ele><time>2026-04-26T11:36:48.571Z</time></trkpt><trkpt lat="39.980535" lon="8.918785"><ele>307.0</ele><time>2026-04-26T11:36:52.571Z</time></trkpt><trkpt lat="39.9804883" lon="8.9190767"><ele>305.66666666666663</ele><time>2026-04-26T11:36:55.634Z</time></trkpt><trkpt lat="39.9804367" lon="8.9192967"><ele>304.3333333333333</ele><time>2026-04-26T11:36:58.569Z</time></trkpt><trkpt lat="39.9803867" lon="8.9195033"><ele>303.0</ele><time>2026-04-26T11:37:01.616Z</time></trkpt><trkpt lat="39.9803217" lon="8.91975"><ele>303.0</ele><time>2026-04-26T11:37:04.577Z</time></trkpt><trkpt lat="39.9802483" lon="8.91998"><ele>303.0</ele><time>2026-04-26T11:37:07.621Z</time></trkpt><trkpt lat="39.9801833" lon="8.9202333"><ele>303.0</ele><time>2026-04-26T11:37:10.567Z</time></trkpt><trkpt lat="39.98016" lon="8.9203183"><ele>301.0</ele><time>2026-04-26T11:37:11.572Z</time></trkpt><trkpt lat="39.9801017" lon="8.92047"><ele>299.0</ele><time>2026-04-26T11:37:13.618Z</time></trkpt><trkpt lat="39.9800633" lon="8.9205483"><ele>297.0</ele><time>2026-04-26T11:37:14.564Z</time></trkpt><trkpt lat="39.9799617" lon="8.9208217"><ele>295.0</ele><time>2026-04-26T11:37:17.569Z</time></trkpt><trkpt lat="39.97986" lon="8.9210867"><ele>293.75</ele><time>2026-04-26T11:37:20.565Z</time></trkpt><trkpt lat="39.9798217" lon="8.9211617"><ele>292.5</ele><time>2026-04-26T11:37:21.566Z</time></trkpt><trkpt lat="39.9796983" lon="8.92145"><ele>291.25</ele><time>2026-04-26T11:37:25.633Z</time></trkpt><trkpt lat="39.9796417" lon="8.9215733"><ele>290.0</ele><time>2026-04-26T11:37:27.566Z</time></trkpt><trkpt lat="39.9796033" lon="8.921685"><ele>290.0</ele><time>2026-04-26T11:37:29.567Z</time></trkpt><trkpt lat="39.97959" lon="8.9217667"><ele>290.0</ele><time>2026-04-26T11:37:31.618Z</time></trkpt><trkpt lat="39.9795517" lon="8.9219717"><ele>290.0</ele><time>2026-04-26T11:37:35.574Z</time></trkpt><trkpt lat="39.979475" lon="8.9222667"><ele>290.0</ele><time>2026-04-26T11:37:38.566Z</time></trkpt><trkpt lat="39.9794567" lon="8.9223583"><ele>290.0</ele><time>2026-04-26T11:37:39.568Z</time></trkpt><trkpt lat="39.9794517" lon="8.9226317"><ele>290.0</ele><time>2026-04-26T11:37:42.57Z</time></trkpt><trkpt lat="39.979475" lon="8.922945"><ele>290.25</ele><time>2026-04-26T11:37:45.574Z</time></trkpt><trkpt lat="39.9794817" lon="8.9230667"><ele>290.5</ele><time>2026-04-26T11:37:46.567Z</time></trkpt><trkpt lat="39.979495" lon="8.92318"><ele>290.75</ele><time>2026-04-26T11:37:47.572Z</time></trkpt><trkpt lat="39.979505" lon="8.92329"><ele>291.0</ele><time>2026-04-26T11:37:48.568Z</time></trkpt><trkpt lat="39.9796067" lon="8.9240283"><ele>294.0</ele><time>2026-04-26T11:37:54.572Z</time></trkpt><trkpt lat="39.9796583" lon="8.9243"><ele>297.0</ele><time>2026-04-26T11:37:56.565Z</time></trkpt><trkpt lat="39.9796783" lon="8.92443"><ele>300.0</ele><time>2026-04-26T11:37:57.577Z</time></trkpt><trkpt lat="39.9797183" lon="8.924685"><ele>300.0</ele><time>2026-04-26T11:37:59.574Z</time></trkpt><trkpt lat="39.9797467" lon="8.9249383"><ele>300.0</ele><time>2026-04-26T11:38:01.617Z</time></trkpt><trkpt lat="39.9797833" lon="8.9251833"><ele>300.0</ele><time>2026-04-26T11:38:03.569Z</time></trkpt><trkpt lat="39.9798033" lon="8.9253033"><ele>302.3333333333333</ele><time>2026-04-26T11:38:04.573Z</time></trkpt><trkpt lat="39.9798333" lon="8.9255417"><ele>304.66666666666663</ele><time>2026-04-26T11:38:06.579Z</time></trkpt><trkpt lat="39.9798383" lon="8.9256617"><ele>307.0</ele><time>2026-04-26T11:38:07.614Z</time></trkpt><trkpt lat="39.9798083" lon="8.9259833"><ele>309.0</ele><time>2026-04-26T11:38:10.568Z</time></trkpt><trkpt lat="39.9797967" lon="8.92617"><ele>311.0</ele><time>2026-04-26T11:38:12.57Z</time></trkpt><trkpt lat="39.97979" lon="8.9263383"><ele>313.0</ele><time>2026-04-26T11:38:14.565Z</time></trkpt><trkpt lat="39.97979" lon="8.9264983"><ele>315.0</ele><time>2026-04-26T11:38:16.573Z</time></trkpt><trkpt lat="39.9797967" lon="8.92666"><ele>318.6666666666667</ele><time>2026-04-26T11:38:18.566Z</time></trkpt><trkpt lat="39.9798267" lon="8.9268867"><ele>322.33333333333337</ele><time>2026-04-26T11:38:21.566Z</time></trkpt><trkpt lat="39.979825" lon="8.927195"><ele>326.0</ele><time>2026-04-26T11:38:25.635Z</time></trkpt><trkpt lat="39.9797983" lon="8.92746"><ele>329.6666666666667</ele><time>2026-04-26T11:38:29.574Z</time></trkpt><trkpt lat="39.9798017" lon="8.9277367"><ele>333.3333333333333</ele><time>2026-04-26T11:38:33.568Z</time></trkpt><trkpt lat="39.9798283" lon="8.9279783"><ele>337.0</ele><time>2026-04-26T11:38:36.568Z</time></trkpt><trkpt lat="39.979895" lon="8.92834"><ele>340.66666666666663</ele><time>2026-04-26T11:38:41.568Z</time></trkpt><trkpt lat="39.9799133" lon="8.928605"><ele>344.3333333333333</ele><time>2026-04-26T11:38:45.568Z</time></trkpt><trkpt lat="39.9799283" lon="8.9287517"><ele>348.0</ele><time>2026-04-26T11:38:48.572Z</time></trkpt><trkpt lat="39.9799567" lon="8.9289217"><ele>348.0</ele><time>2026-04-26T11:38:51.569Z</time></trkpt><trkpt lat="39.97996" lon="8.9291883"><ele>348.0</ele><time>2026-04-26T11:38:56.564Z</time></trkpt><trkpt lat="39.9799567" lon="8.9293217"><ele>348.0</ele><time>2026-04-26T11:38:59.572Z</time></trkpt><trkpt lat="39.9799417" lon="8.9295117"><ele>349.75</ele><time>2026-04-26T11:39:03.569Z</time></trkpt><trkpt lat="39.9799267" lon="8.92966"><ele>351.5</ele><time>2026-04-26T11:39:06.596Z</time></trkpt><trkpt lat="39.9799183" lon="8.9298817"><ele>353.25</ele><time>2026-04-26T11:39:10.568Z</time></trkpt><trkpt lat="39.97993" lon="8.9300317"><ele>355.0</ele><time>2026-04-26T11:39:13.616Z</time></trkpt><trkpt lat="39.9799433" lon="8.93029"><ele>359.0</ele><time>2026-04-26T11:39:17.569Z</time></trkpt><trkpt lat="39.9799867" lon="8.9305133"><ele>363.0</ele><time>2026-04-26T11:39:20.573Z</time></trkpt><trkpt lat="39.98001" lon="8.9307633"><ele>367.0</ele><time>2026-04-26T11:39:24.565Z</time></trkpt><trkpt lat="39.9800183" lon="8.93091"><ele>367.6</ele><time>2026-04-26T11:39:27.571Z</time></trkpt><trkpt lat="39.9800483" lon="8.9310133"><ele>368.20000000000005</ele><time>2026-04-26T11:39:29.566Z</time></trkpt><trkpt lat="39.9800767" lon="8.9311167"><ele>368.8</ele><time>2026-04-26T11:39:31.65Z</time></trkpt><trkpt lat="39.980115" lon="8.9312617"><ele>369.4</ele><time>2026-04-26T11:39:34.572Z</time></trkpt><trkpt lat="39.9801133" lon="8.9314567"><ele>370.0</ele><time>2026-04-26T11:39:38.564Z</time></trkpt><trkpt lat="39.9801" lon="8.9315667"><ele>375.3333333333333</ele><time>2026-04-26T11:39:40.573Z</time></trkpt><trkpt lat="39.980135" lon="8.9318033"><ele>380.66666666666663</ele><time>2026-04-26T11:39:44.568Z</time></trkpt><trkpt lat="39.9801967" lon="8.9321017"><ele>386.0</ele><time>2026-04-26T11:39:49.612Z</time></trkpt><trkpt lat="39.9802317" lon="8.9322"><ele>386.0</ele><time>2026-04-26T11:39:51.567Z</time></trkpt><trkpt lat="39.9803067" lon="8.9324"><ele>386.0</ele><time>2026-04-26T11:39:55.649Z</time></trkpt><trkpt lat="39.9802733" lon="8.9326533"><ele>386.0</ele><time>2026-04-26T11:40:00.57Z</time></trkpt><trkpt lat="39.980235" lon="8.9329133"><ele>394.5</ele><time>2026-04-26T11:40:04.57Z</time></trkpt><trkpt lat="39.9801849" lon="8.9331936"><ele>403.0</ele><time>2026-04-26T11:40:09.567Z</time></trkpt><trkpt lat="39.9800517" lon="8.9334485"><ele>404.33333333333337</ele><time>2026-04-26T11:40:13.616Z</time></trkpt><trkpt lat="39.9798232" lon="8.933665"><ele>405.66666666666663</ele><time>2026-04-26T11:40:18.565Z</time></trkpt><trkpt lat="39.979705" lon="8.9337583"><ele>407.0</ele><time>2026-04-26T11:41:55.589Z</time></trkpt><trkpt lat="39.9796283" lon="8.9338167"><ele>407.0</ele><time>2026-04-26T11:41:57.572Z</time></trkpt><trkpt lat="39.9795567" lon="8.9338867"><ele>407.0</ele><time>2026-04-26T11:41:59.575Z</time></trkpt><trkpt lat="39.9794533" lon="8.9340083"><ele>407.0</ele><time>2026-04-26T11:42:02.571Z</time></trkpt><trkpt lat="39.9793867" lon="8.9340983"><ele>407.0</ele><time>2026-04-26T11:42:05.569Z</time></trkpt><trkpt lat="39.9793067" lon="8.9342467"><ele>406.0</ele><time>2026-04-26T11:42:19.623Z</time></trkpt><trkpt lat="39.9792233" lon="8.9344067"><ele>405.0</ele><time>2026-04-26T11:42:21.565Z</time></trkpt><trkpt lat="39.97881" lon="8.9354883"><ele>398.0</ele><time>2026-04-26T11:42:28.573Z</time></trkpt><trkpt lat="39.978495" lon="8.9361167"><ele>398.0</ele><time>2026-04-26T11:42:32.571Z</time></trkpt><trkpt lat="39.9784383" lon="8.9362667"><ele>398.0</ele><time>2026-04-26T11:42:33.573Z</time></trkpt><trkpt lat="39.9784033" lon="8.93642"><ele>398.0</ele><time>2026-04-26T11:42:34.572Z</time></trkpt><trkpt lat="39.9783717" lon="8.93674"><ele>398.0</ele><time>2026-04-26T11:42:36.596Z</time></trkpt><trkpt lat="39.9783667" lon="8.9369267"><ele>398.0</ele><time>2026-04-26T11:42:37.614Z</time></trkpt><trkpt lat="39.9783317" lon="8.9378867"><ele>394.0</ele><time>2026-04-26T11:42:42.565Z</time></trkpt><trkpt lat="39.97831" lon="8.93862"><ele>394.0</ele><time>2026-04-26T11:42:46.573Z</time></trkpt><trkpt lat="39.9782967" lon="8.9387783"><ele>394.0</ele><time>2026-04-26T11:42:47.563Z</time></trkpt><trkpt lat="39.9782767" lon="8.9396"><ele>394.25</ele><time>2026-04-26T11:42:52.573Z</time></trkpt><trkpt lat="39.9783033" lon="8.9397817"><ele>394.5</ele><time>2026-04-26T11:42:53.563Z</time></trkpt><trkpt lat="39.9783433" lon="8.9399667"><ele>394.75</ele><time>2026-04-26T11:42:54.57Z</time></trkpt><trkpt lat="39.9783917" lon="8.94015"><ele>395.0</ele><time>2026-04-26T11:42:55.617Z</time></trkpt><trkpt lat="39.9785933" lon="8.9410267"><ele>397.0</ele><time>2026-04-26T11:43:00.563Z</time></trkpt><trkpt lat="39.97865" lon="8.94134"><ele>399.0</ele><time>2026-04-26T11:43:02.57Z</time></trkpt><trkpt lat="39.9786733" lon="8.9414733"><ele>401.0</ele><time>2026-04-26T11:43:03.562Z</time></trkpt><trkpt lat="39.9787017" lon="8.94167"><ele>400.99999999999994</ele><time>2026-04-26T11:43:05.579Z</time></trkpt><trkpt lat="39.978745" lon="8.94175"><ele>401.0</ele><time>2026-04-26T11:45:45.573Z</time></trkpt><trkpt lat="39.978815" lon="8.941865"><ele>401.0</ele><time>2026-04-26T11:45:47.576Z</time></trkpt><trkpt lat="39.9788667" lon="8.9419367"><ele>401.0</ele><time>2026-04-26T11:45:48.569Z</time></trkpt><trkpt lat="39.9789283" lon="8.9420117"><ele>400.99999999999994</ele><time>2026-04-26T11:45:49.625Z</time></trkpt><trkpt lat="39.9789883" lon="8.9420883"><ele>401.0</ele><time>2026-04-26T11:45:50.582Z</time></trkpt><trkpt lat="39.97904" lon="8.94217"><ele>401.0</ele><time>2026-04-26T11:45:51.578Z</time></trkpt><trkpt lat="39.979085" lon="8.9422633"><ele>401.0</ele><time>2026-04-26T11:45:52.572Z</time></trkpt><trkpt lat="39.9791267" lon="8.9423683"><ele>401.0</ele><time>2026-04-26T11:45:53.579Z</time></trkpt><trkpt lat="39.9791617" lon="8.942485"><ele>401.0</ele><time>2026-04-26T11:45:54.578Z</time></trkpt><trkpt lat="39.9791983" lon="8.9426117"><ele>401.0</ele><time>2026-04-26T11:45:55.627Z</time></trkpt><trkpt lat="39.979245" lon="8.942735"><ele>403.0</ele><time>2026-04-26T11:45:56.576Z</time></trkpt><trkpt lat="39.9793033" lon="8.9428583"><ele>405.0</ele><time>2026-04-26T11:45:57.572Z</time></trkpt><trkpt lat="39.9793617" lon="8.942985"><ele>407.0</ele><time>2026-04-26T11:45:58.577Z</time></trkpt><trkpt lat="39.9794217" lon="8.9431167"><ele>409.0</ele><time>2026-04-26T11:45:59.574Z</time></trkpt><trkpt lat="39.9794833" lon="8.9432467"><ele>408.5</ele><time>2026-04-26T11:46:00.567Z</time></trkpt><trkpt lat="39.9795367" lon="8.9433833"><ele>408.0</ele><time>2026-04-26T11:46:01.639Z</time></trkpt><trkpt lat="39.97959" lon="8.94352"><ele>407.5</ele><time>2026-04-26T11:46:02.574Z</time></trkpt><trkpt lat="39.9796417" lon="8.9436567"><ele>407.0</ele><time>2026-04-26T11:46:03.572Z</time></trkpt><trkpt lat="39.9796983" lon="8.9437883"><ele>407.0</ele><time>2026-04-26T11:46:04.573Z</time></trkpt><trkpt lat="39.9797617" lon="8.9439133"><ele>407.0</ele><time>2026-04-26T11:46:05.574Z</time></trkpt><trkpt lat="39.9798267" lon="8.9440333"><ele>407.0</ele><time>2026-04-26T11:46:06.575Z</time></trkpt><trkpt lat="39.9798867" lon="8.9441533"><ele>407.0</ele><time>2026-04-26T11:46:07.627Z</time></trkpt><trkpt lat="39.9799383" lon="8.9442667"><ele>407.0</ele><time>2026-04-26T11:46:08.575Z</time></trkpt><trkpt lat="39.97997" lon="8.9443767"><ele>406.8333333333333</ele><time>2026-04-26T11:46:09.57Z</time></trkpt><trkpt lat="39.97999" lon="8.9444783"><ele>406.66666666666663</ele><time>2026-04-26T11:46:10.573Z</time></trkpt><trkpt lat="39.9800017" lon="8.9445817"><ele>406.5</ele><time>2026-04-26T11:46:11.58Z</time></trkpt><trkpt lat="39.979995" lon="8.9446717"><ele>406.33333333333337</ele><time>2026-04-26T11:46:12.575Z</time></trkpt><trkpt lat="39.97996" lon="8.9447983"><ele>406.1666666666667</ele><time>2026-04-26T11:46:14.572Z</time></trkpt><trkpt lat="39.9799483" lon="8.9449033"><ele>406.0</ele><time>2026-04-26T11:46:17.573Z</time></trkpt><trkpt lat="39.980005" lon="8.9449417"><ele>406.6666666666667</ele><time>2026-04-26T11:46:20.581Z</time></trkpt><trkpt lat="39.9800683" lon="8.9449317"><ele>407.33333333333337</ele><time>2026-04-26T11:46:22.603Z</time></trkpt><trkpt lat="39.980155" lon="8.9449983"><ele>408.0</ele><time>2026-04-26T11:46:31.641Z</time></trkpt><trkpt lat="39.9802383" lon="8.94511"><ele>408.66666666666663</ele><time>2026-04-26T11:46:33.576Z</time></trkpt><trkpt lat="39.9802933" lon="8.9451783"><ele>409.3333333333333</ele><time>2026-04-26T11:46:34.588Z</time></trkpt><trkpt lat="39.9803467" lon="8.9452583"><ele>410.0</ele><time>2026-04-26T11:46:35.577Z</time></trkpt><trkpt lat="39.9803967" lon="8.9453417"><ele>409.99999999999994</ele><time>2026-04-26T11:46:36.575Z</time></trkpt><trkpt lat="39.98045" lon="8.9454233"><ele>410.0</ele><time>2026-04-26T11:46:37.636Z</time></trkpt><trkpt lat="39.9805067" lon="8.945505"><ele>410.0</ele><time>2026-04-26T11:46:38.57Z</time></trkpt><trkpt lat="39.9805667" lon="8.9455867"><ele>410.0</ele><time>2026-04-26T11:46:39.575Z</time></trkpt><trkpt lat="39.9806217" lon="8.9456683"><ele>409.99999999999994</ele><time>2026-04-26T11:46:40.575Z</time></trkpt><trkpt lat="39.980675" lon="8.9457517"><ele>410.0</ele><time>2026-04-26T11:46:41.576Z</time></trkpt><trkpt lat="39.9807217" lon="8.9458333"><ele>409.99999999999994</ele><time>2026-04-26T11:46:42.571Z</time></trkpt><trkpt lat="39.9807683" lon="8.9459133"><ele>410.0</ele><time>2026-04-26T11:46:43.621Z</time></trkpt><trkpt lat="39.980815" lon="8.9459883"><ele>410.0</ele><time>2026-04-26T11:46:44.571Z</time></trkpt><trkpt lat="39.9808583" lon="8.9460517"><ele>410.0</ele><time>2026-04-26T11:46:45.569Z</time></trkpt><trkpt lat="39.9809483" lon="8.9461583"><ele>409.99999999999994</ele><time>2026-04-26T11:46:47.578Z</time></trkpt><trkpt lat="39.9810283" lon="8.94624"><ele>410.0</ele><time>2026-04-26T11:46:49.631Z</time></trkpt><trkpt lat="39.9811267" lon="8.9463417"><ele>410.0</ele><time>2026-04-26T11:46:51.573Z</time></trkpt><trkpt lat="39.9811817" lon="8.9463883"><ele>410.0</ele><time>2026-04-26T11:46:52.575Z</time></trkpt><trkpt lat="39.9812667" lon="8.9464633"><ele>410.0</ele><time>2026-04-26T11:46:54.567Z</time></trkpt><trkpt lat="39.9813483" lon="8.9465217"><ele>410.0</ele><time>2026-04-26T11:46:56.581Z</time></trkpt><trkpt lat="39.98146" lon="8.9465867"><ele>410.0</ele><time>2026-04-26T11:46:58.568Z</time></trkpt><trkpt lat="39.98154" lon="8.946615"><ele>410.0</ele><time>2026-04-26T11:46:59.578Z</time></trkpt><trkpt lat="39.9816317" lon="8.9466433"><ele>410.0</ele><time>2026-04-26T11:47:00.573Z</time></trkpt><trkpt lat="39.9817267" lon="8.9466783"><ele>410.0</ele><time>2026-04-26T11:47:01.632Z</time></trkpt><trkpt lat="39.9818283" lon="8.946725"><ele>410.0</ele><time>2026-04-26T11:47:02.58Z</time></trkpt><trkpt lat="39.981935" lon="8.9467883"><ele>410.0</ele><time>2026-04-26T11:47:03.577Z</time></trkpt><trkpt lat="39.9820417" lon="8.9468667"><ele>409.75</ele><time>2026-04-26T11:47:04.571Z</time></trkpt><trkpt lat="39.9821483" lon="8.9469583"><ele>409.5</ele><time>2026-04-26T11:47:05.582Z</time></trkpt><trkpt lat="39.982255" lon="8.9470633"><ele>409.25</ele><time>2026-04-26T11:47:06.579Z</time></trkpt><trkpt lat="39.9823567" lon="8.947185"><ele>409.0</ele><time>2026-04-26T11:47:07.634Z</time></trkpt><trkpt lat="39.982455" lon="8.94732"><ele>409.6666666666667</ele><time>2026-04-26T11:47:08.573Z</time></trkpt><trkpt lat="39.9825533" lon="8.9474633"><ele>410.33333333333337</ele><time>2026-04-26T11:47:09.568Z</time></trkpt><trkpt lat="39.98265" lon="8.9476183"><ele>411.0</ele><time>2026-04-26T11:47:10.574Z</time></trkpt><trkpt lat="39.9827467" lon="8.9477817"><ele>411.0</ele><time>2026-04-26T11:47:11.573Z</time></trkpt><trkpt lat="39.9828417" lon="8.947955"><ele>411.0</ele><time>2026-04-26T11:47:12.569Z</time></trkpt><trkpt lat="39.982935" lon="8.9481333"><ele>411.0</ele><time>2026-04-26T11:47:13.626Z</time></trkpt><trkpt lat="39.9830283" lon="8.9483167"><ele>410.0</ele><time>2026-04-26T11:47:14.57Z</time></trkpt><trkpt lat="39.9831267" lon="8.9485"><ele>409.0</ele><time>2026-04-26T11:47:15.568Z</time></trkpt><trkpt lat="39.9832267" lon="8.9486833"><ele>408.0</ele><time>2026-04-26T11:47:16.579Z</time></trkpt><trkpt lat="39.9833283" lon="8.9488667"><ele>410.0</ele><time>2026-04-26T11:47:17.575Z</time></trkpt><trkpt lat="39.98343" lon="8.94905"><ele>412.0</ele><time>2026-04-26T11:47:18.576Z</time></trkpt><trkpt lat="39.9835283" lon="8.94923"><ele>414.0</ele><time>2026-04-26T11:47:19.627Z</time></trkpt><trkpt lat="39.983625" lon="8.94941"><ele>414.0</ele><time>2026-04-26T11:47:20.583Z</time></trkpt><trkpt lat="39.9837167" lon="8.9495833"><ele>414.0</ele><time>2026-04-26T11:47:21.58Z</time></trkpt><trkpt lat="39.9838067" lon="8.9497567"><ele>414.0</ele><time>2026-04-26T11:47:22.576Z</time></trkpt><trkpt lat="39.9838933" lon="8.94993"><ele>412.33333333333337</ele><time>2026-04-26T11:47:23.577Z</time></trkpt><trkpt lat="39.9839783" lon="8.9501083"><ele>410.6666666666667</ele><time>2026-04-26T11:47:24.569Z</time></trkpt><trkpt lat="39.9840567" lon="8.9502867"><ele>409.0</ele><time>2026-04-26T11:47:25.642Z</time></trkpt><trkpt lat="39.9841283" lon="8.9504633"><ele>409.5</ele><time>2026-04-26T11:47:26.573Z</time></trkpt><trkpt lat="39.984195" lon="8.9506383"><ele>410.0</ele><time>2026-04-26T11:47:27.58Z</time></trkpt><trkpt lat="39.98426" lon="8.9508067"><ele>410.5</ele><time>2026-04-26T11:47:28.574Z</time></trkpt><trkpt lat="39.9843183" lon="8.9509733"><ele>411.0</ele><time>2026-04-26T11:47:29.574Z</time></trkpt><trkpt lat="39.9843767" lon="8.9511433"><ele>411.0</ele><time>2026-04-26T11:47:30.589Z</time></trkpt><trkpt lat="39.9844417" lon="8.95131"><ele>411.0</ele><time>2026-04-26T11:47:31.633Z</time></trkpt><trkpt lat="39.98452" lon="8.9514683"><ele>411.0</ele><time>2026-04-26T11:47:32.565Z</time></trkpt><trkpt lat="39.9846117" lon="8.9516183"><ele>411.0</ele><time>2026-04-26T11:47:33.57Z</time></trkpt><trkpt lat="39.9847167" lon="8.9517567"><ele>409.33333333333337</ele><time>2026-04-26T11:47:34.571Z</time></trkpt><trkpt lat="39.9848367" lon="8.9518783"><ele>407.6666666666667</ele><time>2026-04-26T11:47:35.569Z</time></trkpt><trkpt lat="39.98497" lon="8.9519833"><ele>406.0</ele><time>2026-04-26T11:47:36.574Z</time></trkpt><trkpt lat="39.9851167" lon="8.95207"><ele>406.0</ele><time>2026-04-26T11:47:37.624Z</time></trkpt><trkpt lat="39.9852683" lon="8.9521433"><ele>406.0</ele><time>2026-04-26T11:47:38.573Z</time></trkpt><trkpt lat="39.985425" lon="8.95221"><ele>406.0</ele><time>2026-04-26T11:47:39.568Z</time></trkpt><trkpt lat="39.9855833" lon="8.952275"><ele>406.0</ele><time>2026-04-26T11:47:40.571Z</time></trkpt><trkpt lat="39.9857433" lon="8.95234"><ele>406.0</ele><time>2026-04-26T11:47:41.579Z</time></trkpt><trkpt lat="39.9858967" lon="8.9524133"><ele>406.0</ele><time>2026-04-26T11:47:42.566Z</time></trkpt><trkpt lat="39.9860467" lon="8.9525"><ele>409.0</ele><time>2026-04-26T11:47:43.626Z</time></trkpt><trkpt lat="39.9861867" lon="8.9526033"><ele>412.0</ele><time>2026-04-26T11:47:44.588Z</time></trkpt><trkpt lat="39.9863183" lon="8.9527283"><ele>415.0</ele><time>2026-04-26T11:47:45.578Z</time></trkpt><trkpt lat="39.9864417" lon="8.95287"><ele>415.0</ele><time>2026-04-26T11:47:46.575Z</time></trkpt><trkpt lat="39.986555" lon="8.9530217"><ele>415.0</ele><time>2026-04-26T11:47:47.576Z</time></trkpt><trkpt lat="39.9866567" lon="8.953185"><ele>415.0</ele><time>2026-04-26T11:47:48.564Z</time></trkpt><trkpt lat="39.98675" lon="8.9533567"><ele>419.0</ele><time>2026-04-26T11:47:49.628Z</time></trkpt><trkpt lat="39.9868383" lon="8.9535283"><ele>423.0</ele><time>2026-04-26T11:47:50.58Z</time></trkpt><trkpt lat="39.9869267" lon="8.9536983"><ele>427.0</ele><time>2026-04-26T11:47:51.574Z</time></trkpt><trkpt lat="39.9870217" lon="8.9538617"><ele>427.0</ele><time>2026-04-26T11:47:52.577Z</time></trkpt><trkpt lat="39.987125" lon="8.9540117"><ele>427.0</ele><time>2026-04-26T11:47:53.573Z</time></trkpt><trkpt lat="39.9872417" lon="8.9541483"><ele>427.0</ele><time>2026-04-26T11:47:54.58Z</time></trkpt><trkpt lat="39.9873717" lon="8.9542717"><ele>424.6666666666667</ele><time>2026-04-26T11:47:55.639Z</time></trkpt><trkpt lat="39.9875133" lon="8.954375"><ele>422.33333333333337</ele><time>2026-04-26T11:47:56.572Z</time></trkpt><trkpt lat="39.987665" lon="8.9544517"><ele>420.0</ele><time>2026-04-26T11:47:57.57Z</time></trkpt><trkpt lat="39.987825" lon="8.9545083"><ele>420.0</ele><time>2026-04-26T11:47:58.574Z</time></trkpt><trkpt lat="39.9879917" lon="8.9545533"><ele>420.0</ele><time>2026-04-26T11:47:59.574Z</time></trkpt><trkpt lat="39.98816" lon="8.9545867"><ele>420.0</ele><time>2026-04-26T11:48:00.573Z</time></trkpt><trkpt lat="39.9883333" lon="8.954615"><ele>422.0</ele><time>2026-04-26T11:48:01.63Z</time></trkpt><trkpt lat="39.9885067" lon="8.954645"><ele>424.0</ele><time>2026-04-26T11:48:02.583Z</time></trkpt><trkpt lat="39.9886783" lon="8.9546733"><ele>426.0</ele><time>2026-04-26T11:48:03.574Z</time></trkpt><trkpt lat="39.9888367" lon="8.9547033"><ele>426.0</ele><time>2026-04-26T11:48:04.572Z</time></trkpt><trkpt lat="39.9889867" lon="8.9547433"><ele>426.0</ele><time>2026-04-26T11:48:05.574Z</time></trkpt><trkpt lat="39.9891283" lon="8.9547967"><ele>426.0</ele><time>2026-04-26T11:48:06.57Z</time></trkpt><trkpt lat="39.989265" lon="8.9548767"><ele>428.66666666666663</ele><time>2026-04-26T11:48:07.62Z</time></trkpt><trkpt lat="39.989395" lon="8.95498"><ele>431.3333333333333</ele><time>2026-04-26T11:48:08.573Z</time></trkpt><trkpt lat="39.9895167" lon="8.95511"><ele>434.0</ele><time>2026-04-26T11:48:09.572Z</time></trkpt><trkpt lat="39.9896317" lon="8.9552633"><ele>434.0</ele><time>2026-04-26T11:48:10.57Z</time></trkpt><trkpt lat="39.9897333" lon="8.95543"><ele>434.0</ele><time>2026-04-26T11:48:11.57Z</time></trkpt><trkpt lat="39.9898183" lon="8.9556167"><ele>434.0</ele><time>2026-04-26T11:48:12.571Z</time></trkpt><trkpt lat="39.9898917" lon="8.9558117"><ele>431.0</ele><time>2026-04-26T11:48:13.627Z</time></trkpt><trkpt lat="39.9899583" lon="8.9560167"><ele>428.0</ele><time>2026-04-26T11:48:14.569Z</time></trkpt><trkpt lat="39.9900233" lon="8.9562233"><ele>425.0</ele><time>2026-04-26T11:48:15.566Z</time></trkpt><trkpt lat="39.9900883" lon="8.9564283"><ele>428.66666666666663</ele><time>2026-04-26T11:48:16.577Z</time></trkpt><trkpt lat="39.9901533" lon="8.9566233"><ele>432.33333333333337</ele><time>2026-04-26T11:48:17.57Z</time></trkpt><trkpt lat="39.9902183" lon="8.956815"><ele>436.0</ele><time>2026-04-26T11:48:18.57Z</time></trkpt><trkpt lat="39.9902883" lon="8.9569983"><ele>436.0</ele><time>2026-04-26T11:48:19.635Z</time></trkpt><trkpt lat="39.990365" lon="8.9571783"><ele>436.0</ele><time>2026-04-26T11:48:20.571Z</time></trkpt><trkpt lat="39.9904533" lon="8.957355"><ele>436.0</ele><time>2026-04-26T11:48:21.566Z</time></trkpt><trkpt lat="39.990555" lon="8.9575217"><ele>434.33333333333337</ele><time>2026-04-26T11:48:22.571Z</time></trkpt><trkpt lat="39.990665" lon="8.9576833"><ele>432.66666666666663</ele><time>2026-04-26T11:48:23.573Z</time></trkpt><trkpt lat="39.9907883" lon="8.957835"><ele>431.0</ele><time>2026-04-26T11:48:24.58Z</time></trkpt><trkpt lat="39.990925" lon="8.95797"><ele>431.0</ele><time>2026-04-26T11:48:25.597Z</time></trkpt><trkpt lat="39.9910683" lon="8.9580917"><ele>431.0</ele><time>2026-04-26T11:48:26.572Z</time></trkpt><trkpt lat="39.9912233" lon="8.9582"><ele>431.0</ele><time>2026-04-26T11:48:27.571Z</time></trkpt><trkpt lat="39.9913883" lon="8.9582883"><ele>431.0</ele><time>2026-04-26T11:48:28.575Z</time></trkpt><trkpt lat="39.99156" lon="8.9583583"><ele>431.0</ele><time>2026-04-26T11:48:29.574Z</time></trkpt><trkpt lat="39.9917383" lon="8.9584117"><ele>431.0</ele><time>2026-04-26T11:48:30.569Z</time></trkpt><trkpt lat="39.9919267" lon="8.9584467"><ele>427.66666666666663</ele><time>2026-04-26T11:48:31.601Z</time></trkpt><trkpt lat="39.99212" lon="8.9584767"><ele>424.33333333333337</ele><time>2026-04-26T11:48:32.571Z</time></trkpt><trkpt lat="39.992315" lon="8.958505"><ele>421.0</ele><time>2026-04-26T11:48:33.577Z</time></trkpt><trkpt lat="39.9925" lon="8.95854"><ele>420.25</ele><time>2026-04-26T11:48:34.576Z</time></trkpt><trkpt lat="39.99266" lon="8.9585733"><ele>419.5</ele><time>2026-04-26T11:48:35.572Z</time></trkpt><trkpt lat="39.9928" lon="8.9586133"><ele>418.75</ele><time>2026-04-26T11:48:36.576Z</time></trkpt><trkpt lat="39.9929233" lon="8.9586667"><ele>418.0</ele><time>2026-04-26T11:48:37.623Z</time></trkpt><trkpt lat="39.9930333" lon="8.95875"><ele>418.0</ele><time>2026-04-26T11:48:38.58Z</time></trkpt><trkpt lat="39.9931317" lon="8.958865"><ele>418.0</ele><time>2026-04-26T11:48:39.571Z</time></trkpt><trkpt lat="39.9932217" lon="8.9589983"><ele>418.0</ele><time>2026-04-26T11:48:40.567Z</time></trkpt><trkpt lat="39.9933167" lon="8.9591533"><ele>418.0</ele><time>2026-04-26T11:48:41.572Z</time></trkpt><trkpt lat="39.993415" lon="8.9593167"><ele>413.6666666666667</ele><time>2026-04-26T11:48:42.57Z</time></trkpt><trkpt lat="39.9935033" lon="8.9594867"><ele>409.33333333333337</ele><time>2026-04-26T11:48:43.624Z</time></trkpt><trkpt lat="39.9935817" lon="8.9596683"><ele>405.0</ele><time>2026-04-26T11:48:44.581Z</time></trkpt><trkpt lat="39.9936433" lon="8.9598667"><ele>405.66666666666663</ele><time>2026-04-26T11:48:45.573Z</time></trkpt><trkpt lat="39.9936917" lon="8.960075"><ele>406.3333333333333</ele><time>2026-04-26T11:48:46.574Z</time></trkpt><trkpt lat="39.9937317" lon="8.9602883"><ele>407.0</ele><time>2026-04-26T11:48:47.575Z</time></trkpt><trkpt lat="39.9937683" lon="8.9605083"><ele>407.0</ele><time>2026-04-26T11:48:48.581Z</time></trkpt><trkpt lat="39.993805" lon="8.9607317"><ele>407.0</ele><time>2026-04-26T11:48:49.625Z</time></trkpt><trkpt lat="39.9938433" lon="8.9609583"><ele>407.0</ele><time>2026-04-26T11:48:50.569Z</time></trkpt><trkpt lat="39.9938833" lon="8.9611867"><ele>408.3333333333333</ele><time>2026-04-26T11:48:51.569Z</time></trkpt><trkpt lat="39.9939283" lon="8.9614167"><ele>409.66666666666663</ele><time>2026-04-26T11:48:52.576Z</time></trkpt><trkpt lat="39.9939717" lon="8.961645"><ele>411.0</ele><time>2026-04-26T11:48:53.583Z</time></trkpt><trkpt lat="39.994015" lon="8.9618683"><ele>412.33333333333337</ele><time>2026-04-26T11:48:54.572Z</time></trkpt><trkpt lat="39.99406" lon="8.9620883"><ele>413.6666666666667</ele><time>2026-04-26T11:48:55.642Z</time></trkpt><trkpt lat="39.9941033" lon="8.9623033"><ele>415.0</ele><time>2026-04-26T11:48:56.583Z</time></trkpt><trkpt lat="39.994145" lon="8.96251"><ele>415.6666666666667</ele><time>2026-04-26T11:48:57.57Z</time></trkpt><trkpt lat="39.9941933" lon="8.96271"><ele>416.33333333333337</ele><time>2026-04-26T11:48:58.573Z</time></trkpt><trkpt lat="39.9942483" lon="8.962905"><ele>417.0</ele><time>2026-04-26T11:48:59.572Z</time></trkpt><trkpt lat="39.9943133" lon="8.9630917"><ele>417.0</ele><time>2026-04-26T11:49:00.57Z</time></trkpt><trkpt lat="39.9943917" lon="8.9632717"><ele>417.0</ele><time>2026-04-26T11:49:01.606Z</time></trkpt><trkpt lat="39.9944867" lon="8.9634467"><ele>417.0</ele><time>2026-04-26T11:49:02.576Z</time></trkpt><trkpt lat="39.994595" lon="8.9636183"><ele>417.0</ele><time>2026-04-26T11:49:03.571Z</time></trkpt><trkpt lat="39.99471" lon="8.9637933"><ele>417.0</ele><time>2026-04-26T11:49:04.575Z</time></trkpt><trkpt lat="39.9948317" lon="8.96397"><ele>417.0</ele><time>2026-04-26T11:49:05.572Z</time></trkpt><trkpt lat="39.994955" lon="8.96415"><ele>417.66666666666663</ele><time>2026-04-26T11:49:06.574Z</time></trkpt><trkpt lat="39.99508" lon="8.964335"><ele>418.3333333333333</ele><time>2026-04-26T11:49:07.628Z</time></trkpt><trkpt lat="39.9952033" lon="8.9645183"><ele>419.0</ele><time>2026-04-26T11:49:08.571Z</time></trkpt><trkpt lat="39.9953233" lon="8.9647033"><ele>419.0</ele><time>2026-04-26T11:49:09.569Z</time></trkpt><trkpt lat="39.9954433" lon="8.96489"><ele>419.0</ele><time>2026-04-26T11:49:10.578Z</time></trkpt><trkpt lat="39.9955517" lon="8.965075"><ele>419.0</ele><time>2026-04-26T11:49:11.571Z</time></trkpt><trkpt lat="39.9956583" lon="8.96526"><ele>420.3333333333333</ele><time>2026-04-26T11:49:12.572Z</time></trkpt><trkpt lat="39.9957633" lon="8.9654417"><ele>421.66666666666663</ele><time>2026-04-26T11:49:13.625Z</time></trkpt><trkpt lat="39.9958667" lon="8.9656183"><ele>423.0</ele><time>2026-04-26T11:49:14.572Z</time></trkpt><trkpt lat="39.9959667" lon="8.9657883"><ele>424.0</ele><time>2026-04-26T11:49:15.572Z</time></trkpt><trkpt lat="39.9960617" lon="8.9659533"><ele>425.0</ele><time>2026-04-26T11:49:16.586Z</time></trkpt><trkpt lat="39.9961567" lon="8.96612"><ele>426.0</ele><time>2026-04-26T11:49:17.583Z</time></trkpt><trkpt lat="39.9962517" lon="8.9662817"><ele>426.0</ele><time>2026-04-26T11:49:18.569Z</time></trkpt><trkpt lat="39.996345" lon="8.9664467"><ele>426.0</ele><time>2026-04-26T11:49:19.622Z</time></trkpt><trkpt lat="39.9964383" lon="8.9666133"><ele>426.0</ele><time>2026-04-26T11:49:20.577Z</time></trkpt><trkpt lat="39.99653" lon="8.9667833"><ele>427.33333333333337</ele><time>2026-04-26T11:49:21.576Z</time></trkpt><trkpt lat="39.9966217" lon="8.966955"><ele>428.6666666666667</ele><time>2026-04-26T11:49:22.571Z</time></trkpt><trkpt lat="39.996705" lon="8.967135"><ele>430.0</ele><time>2026-04-26T11:49:23.578Z</time></trkpt><trkpt lat="39.99678" lon="8.9673217"><ele>431.0</ele><time>2026-04-26T11:49:24.572Z</time></trkpt><trkpt lat="39.996845" lon="8.9675133"><ele>432.0</ele><time>2026-04-26T11:49:25.64Z</time></trkpt><trkpt lat="39.99691" lon="8.9677083"><ele>433.0</ele><time>2026-04-26T11:49:26.571Z</time></trkpt><trkpt lat="39.996975" lon="8.967905"><ele>433.6666666666667</ele><time>2026-04-26T11:49:27.575Z</time></trkpt><trkpt lat="39.99704" lon="8.9681"><ele>434.33333333333337</ele><time>2026-04-26T11:49:28.576Z</time></trkpt><trkpt lat="39.9971083" lon="8.968295"><ele>435.0</ele><time>2026-04-26T11:49:29.572Z</time></trkpt><trkpt lat="39.9971767" lon="8.9684933"><ele>437.0</ele><time>2026-04-26T11:49:30.568Z</time></trkpt><trkpt lat="39.9972483" lon="8.9686933"><ele>439.0</ele><time>2026-04-26T11:49:31.637Z</time></trkpt><trkpt lat="39.9973217" lon="8.9688933"><ele>441.0</ele><time>2026-04-26T11:49:32.571Z</time></trkpt><trkpt lat="39.9973967" lon="8.9690983"><ele>440.66666666666663</ele><time>2026-04-26T11:49:33.574Z</time></trkpt><trkpt lat="39.997475" lon="8.9693033"><ele>440.3333333333333</ele><time>2026-04-26T11:49:34.57Z</time></trkpt><trkpt lat="39.9975583" lon="8.9695083"><ele>440.0</ele><time>2026-04-26T11:49:35.571Z</time></trkpt><trkpt lat="39.997645" lon="8.969715"><ele>440.0</ele><time>2026-04-26T11:49:36.571Z</time></trkpt><trkpt lat="39.9977333" lon="8.9699233"><ele>440.0</ele><time>2026-04-26T11:49:37.628Z</time></trkpt><trkpt lat="39.9978233" lon="8.9701333"><ele>440.0</ele><time>2026-04-26T11:49:38.574Z</time></trkpt><trkpt lat="39.9979167" lon="8.9703467"><ele>444.0</ele><time>2026-04-26T11:49:39.565Z</time></trkpt><trkpt lat="39.9980083" lon="8.9705583"><ele>448.0</ele><time>2026-04-26T11:49:40.571Z</time></trkpt><trkpt lat="39.9981017" lon="8.97077"><ele>452.0</ele><time>2026-04-26T11:49:41.576Z</time></trkpt><trkpt lat="39.9981883" lon="8.9709833"><ele>454.66666666666663</ele><time>2026-04-26T11:49:42.571Z</time></trkpt><trkpt lat="39.9982767" lon="8.9711983"><ele>457.33333333333337</ele><time>2026-04-26T11:49:43.622Z</time></trkpt><trkpt lat="39.9983667" lon="8.9714083"><ele>460.0</ele><time>2026-04-26T11:49:44.572Z</time></trkpt><trkpt lat="39.9984583" lon="8.9716167"><ele>461.0</ele><time>2026-04-26T11:49:45.573Z</time></trkpt><trkpt lat="39.9985483" lon="8.9718217"><ele>462.0</ele><time>2026-04-26T11:49:46.568Z</time></trkpt><trkpt lat="39.9986483" lon="8.97202"><ele>463.0</ele><time>2026-04-26T11:49:47.576Z</time></trkpt><trkpt lat="39.9987567" lon="8.972205"><ele>463.0</ele><time>2026-04-26T11:49:48.582Z</time></trkpt><trkpt lat="39.9988717" lon="8.972365"><ele>463.0</ele><time>2026-04-26T11:49:49.628Z</time></trkpt><trkpt lat="39.998985" lon="8.972495"><ele>463.0</ele><time>2026-04-26T11:49:50.577Z</time></trkpt><trkpt lat="39.99909" lon="8.9726"><ele>464.2</ele><time>2026-04-26T11:49:51.575Z</time></trkpt><trkpt lat="39.9991867" lon="8.9726867"><ele>465.4</ele><time>2026-04-26T11:49:52.571Z</time></trkpt><trkpt lat="39.9992717" lon="8.9727583"><ele>466.59999999999997</ele><time>2026-04-26T11:49:53.57Z</time></trkpt><trkpt lat="39.99934" lon="8.972815"><ele>467.79999999999995</ele><time>2026-04-26T11:49:54.575Z</time></trkpt><trkpt lat="39.9994117" lon="8.9728817"><ele>469.0</ele><time>2026-04-26T11:49:56.572Z</time></trkpt><trkpt lat="39.9994583" lon="8.972945"><ele>469.00000000000006</ele><time>2026-04-26T11:49:59.574Z</time></trkpt><trkpt lat="39.9995117" lon="8.973025"><ele>469.0</ele><time>2026-04-26T11:50:02.569Z</time></trkpt><trkpt lat="39.9995783" lon="8.973095"><ele>469.0</ele><time>2026-04-26T11:50:04.573Z</time></trkpt><trkpt lat="39.9996583" lon="8.97317"><ele>469.0</ele><time>2026-04-26T11:50:06.574Z</time></trkpt><trkpt lat="39.99973" lon="8.9732283"><ele>469.00000000000006</ele><time>2026-04-26T11:50:08.569Z</time></trkpt><trkpt lat="39.99981" lon="8.973285"><ele>469.0</ele><time>2026-04-26T11:50:10.577Z</time></trkpt><trkpt lat="39.99989" lon="8.9733367"><ele>469.2</ele><time>2026-04-26T11:50:12.572Z</time></trkpt><trkpt lat="39.9999583" lon="8.9734117"><ele>469.4</ele><time>2026-04-26T11:50:15.568Z</time></trkpt><trkpt lat="40.0000117" lon="8.9734617"><ele>469.6</ele><time>2026-04-26T11:50:18.568Z</time></trkpt><trkpt lat="40.000085" lon="8.9735333"><ele>469.8</ele><time>2026-04-26T11:50:28.576Z</time></trkpt><trkpt lat="40.0001667" lon="8.9736083"><ele>470.0</ele><time>2026-04-26T11:50:30.57Z</time></trkpt><trkpt lat="40.00027" lon="8.9736817"><ele>469.99999999999994</ele><time>2026-04-26T11:50:32.569Z</time></trkpt><trkpt lat="40.0003233" lon="8.9737283"><ele>470.0</ele><time>2026-04-26T11:50:33.569Z</time></trkpt><trkpt lat="40.000375" lon="8.9737783"><ele>470.0</ele><time>2026-04-26T11:50:34.564Z</time></trkpt><trkpt lat="40.0004367" lon="8.9738817"><ele>470.0</ele><time>2026-04-26T11:50:36.562Z</time></trkpt><trkpt lat="40.0004567" lon="8.9739817"><ele>469.99999999999994</ele><time>2026-04-26T11:50:38.569Z</time></trkpt><trkpt lat="40.0004517" lon="8.9740933"><ele>470.0</ele><time>2026-04-26T11:50:40.578Z</time></trkpt><trkpt lat="40.0004417" lon="8.974195"><ele>470.3333333333333</ele><time>2026-04-26T11:50:42.563Z</time></trkpt><trkpt lat="40.0004283" lon="8.9742967"><ele>470.66666666666663</ele><time>2026-04-26T11:50:44.559Z</time></trkpt><trkpt lat="40.00041" lon="8.9743933"><ele>471.0</ele><time>2026-04-26T11:50:46.561Z</time></trkpt><trkpt lat="40.0003817" lon="8.9744867"><ele>471.33333333333337</ele><time>2026-04-26T11:50:48.572Z</time></trkpt><trkpt lat="40.00036" lon="8.974565"><ele>471.6666666666667</ele><time>2026-04-26T11:50:50.56Z</time></trkpt><trkpt lat="40.000365" lon="8.974675"><ele>472.0</ele><time>2026-04-26T11:50:52.563Z</time></trkpt><trkpt lat="40.0004067" lon="8.9747667"><ele>472.0</ele><time>2026-04-26T11:50:54.568Z</time></trkpt><trkpt lat="40.0004917" lon="8.9748"><ele>472.00000000000006</ele><time>2026-04-26T11:50:56.564Z</time></trkpt><trkpt lat="40.0005833" lon="8.9747683"><ele>472.00000000000006</ele><time>2026-04-26T11:50:58.565Z</time></trkpt><trkpt lat="40.0006767" lon="8.974715"><ele>472.0</ele><time>2026-04-26T11:51:00.573Z</time></trkpt><trkpt lat="40.0007567" lon="8.9746517"><ele>472.0</ele><time>2026-04-26T11:51:02.565Z</time></trkpt><trkpt lat="40.000825" lon="8.9745967"><ele>475.00000000000006</ele><time>2026-04-26T11:51:04.56Z</time></trkpt><trkpt lat="40.0009083" lon="8.9745833"><ele>478.0</ele><time>2026-04-26T11:51:06.57Z</time></trkpt><trkpt lat="40.0009917" lon="8.9745833"><ele>481.0</ele><time>2026-04-26T11:51:08.565Z</time></trkpt><trkpt lat="40.0010533" lon="8.97462"><ele>484.0</ele><time>2026-04-26T11:51:10.568Z</time></trkpt><trkpt lat="40.001115" lon="8.9746917"><ele>487.00000000000006</ele><time>2026-04-26T11:51:12.562Z</time></trkpt><trkpt lat="40.00117" lon="8.9747817"><ele>490.0</ele><time>2026-04-26T11:51:14.563Z</time></trkpt><trkpt lat="40.00121" lon="8.9748733"><ele>490.00000000000006</ele><time>2026-04-26T11:51:16.567Z</time></trkpt><trkpt lat="40.0012483" lon="8.9749683"><ele>490.0</ele><time>2026-04-26T11:51:18.561Z</time></trkpt><trkpt lat="40.00129" lon="8.9750667"><ele>490.0</ele><time>2026-04-26T11:51:20.568Z</time></trkpt><trkpt lat="40.0013333" lon="8.9751683"><ele>490.0</ele><time>2026-04-26T11:51:22.565Z</time></trkpt><trkpt lat="40.0013617" lon="8.9752617"><ele>490.00000000000006</ele><time>2026-04-26T11:51:24.573Z</time></trkpt><trkpt lat="40.0013983" lon="8.97537"><ele>490.0</ele><time>2026-04-26T11:51:26.566Z</time></trkpt><trkpt lat="40.0014483" lon="8.97551"><ele>490.2857142857143</ele><time>2026-04-26T11:51:28.569Z</time></trkpt><trkpt lat="40.0014733" lon="8.9755867"><ele>490.57142857142856</ele><time>2026-04-26T11:51:29.566Z</time></trkpt><trkpt lat="40.0014967" lon="8.9756783"><ele>490.8571428571429</ele><time>2026-04-26T11:51:30.563Z</time></trkpt><trkpt lat="40.0015167" lon="8.97578"><ele>491.14285714285717</ele><time>2026-04-26T11:51:31.622Z</time></trkpt><trkpt lat="40.0015417" lon="8.9758783"><ele>491.42857142857144</ele><time>2026-04-26T11:51:32.564Z</time></trkpt><trkpt lat="40.0015617" lon="8.9759683"><ele>491.7142857142858</ele><time>2026-04-26T11:51:33.564Z</time></trkpt><trkpt lat="40.00158" lon="8.9760483"><ele>492.00000000000006</ele><time>2026-04-26T11:51:34.569Z</time></trkpt><trkpt lat="40.0015933" lon="8.97618"><ele>492.0</ele><time>2026-04-26T11:51:36.568Z</time></trkpt><trkpt lat="40.0016017" lon="8.9762617"><ele>492.00000000000006</ele><time>2026-04-26T11:51:38.567Z</time></trkpt><trkpt lat="40.0016383" lon="8.9763633"><ele>492.00000000000006</ele><time>2026-04-26T11:51:41.569Z</time></trkpt><trkpt lat="40.0016733" lon="8.9764883"><ele>492.0</ele><time>2026-04-26T11:51:43.621Z</time></trkpt><trkpt lat="40.0017217" lon="8.9766283"><ele>492.0</ele><time>2026-04-26T11:51:45.564Z</time></trkpt><trkpt lat="40.0017883" lon="8.9767617"><ele>494.8</ele><time>2026-04-26T11:51:47.569Z</time></trkpt><trkpt lat="40.00187" lon="8.9768817"><ele>497.6</ele><time>2026-04-26T11:51:49.62Z</time></trkpt><trkpt lat="40.00196" lon="8.976995"><ele>500.40000000000003</ele><time>2026-04-26T11:51:51.567Z</time></trkpt><trkpt lat="40.0020517" lon="8.9771067"><ele>503.20000000000005</ele><time>2026-04-26T11:51:53.571Z</time></trkpt><trkpt lat="40.0021017" lon="8.9771633"><ele>506.0</ele><time>2026-04-26T11:51:54.565Z</time></trkpt><trkpt lat="40.0021533" lon="8.9772167"><ele>506.0</ele><time>2026-04-26T11:51:55.633Z</time></trkpt><trkpt lat="40.0022367" lon="8.9773217"><ele>506.0</ele><time>2026-04-26T11:51:57.568Z</time></trkpt><trkpt lat="40.0023117" lon="8.9774067"><ele>506.0</ele><time>2026-04-26T11:51:59.568Z</time></trkpt><trkpt lat="40.002375" lon="8.977485"><ele>506.0</ele><time>2026-04-26T11:52:01.637Z</time></trkpt><trkpt lat="40.00246" lon="8.9775633"><ele>506.0</ele><time>2026-04-26T11:52:03.569Z</time></trkpt><trkpt lat="40.0025517" lon="8.977615"><ele>509.66666666666663</ele><time>2026-04-26T11:52:05.565Z</time></trkpt><trkpt lat="40.0026583" lon="8.9776483"><ele>513.3333333333333</ele><time>2026-04-26T11:52:07.627Z</time></trkpt><trkpt lat="40.002735" lon="8.9776767"><ele>517.0</ele><time>2026-04-26T11:52:09.565Z</time></trkpt><trkpt lat="40.0027933" lon="8.97771"><ele>520.6666666666666</ele><time>2026-04-26T11:52:11.568Z</time></trkpt><trkpt lat="40.0028517" lon="8.9777417"><ele>524.3333333333334</ele><time>2026-04-26T11:52:13.628Z</time></trkpt><trkpt lat="40.0029283" lon="8.97777"><ele>528.0</ele><time>2026-04-26T11:52:15.569Z</time></trkpt><trkpt lat="40.0029933" lon="8.9777967"><ele>528.0</ele><time>2026-04-26T11:52:17.572Z</time></trkpt><trkpt lat="40.0030833" lon="8.97784"><ele>528.0</ele><time>2026-04-26T11:52:20.566Z</time></trkpt><trkpt lat="40.003165" lon="8.97789"><ele>528.0</ele><time>2026-04-26T11:52:23.565Z</time></trkpt><trkpt lat="40.0032533" lon="8.9779117"><ele>528.0</ele><time>2026-04-26T11:52:26.572Z</time></trkpt><trkpt lat="40.0033483" lon="8.9779283"><ele>528.0</ele><time>2026-04-26T11:52:29.562Z</time></trkpt><trkpt lat="40.0034217" lon="8.9779317"><ele>528.0</ele><time>2026-04-26T11:52:31.636Z</time></trkpt><trkpt lat="40.00352" lon="8.9779083"><ele>528.4</ele><time>2026-04-26T11:52:34.564Z</time></trkpt><trkpt lat="40.003615" lon="8.977865"><ele>528.8</ele><time>2026-04-26T11:52:36.571Z</time></trkpt><trkpt lat="40.0037033" lon="8.977845"><ele>529.2</ele><time>2026-04-26T11:52:38.563Z</time></trkpt><trkpt lat="40.0038" lon="8.9778317"><ele>529.6</ele><time>2026-04-26T11:52:40.569Z</time></trkpt><trkpt lat="40.0038967" lon="8.9778367"><ele>530.0</ele><time>2026-04-26T11:52:42.563Z</time></trkpt><trkpt lat="40.0039783" lon="8.977865"><ele>530.0</ele><time>2026-04-26T11:52:44.561Z</time></trkpt><trkpt lat="40.0040717" lon="8.977915"><ele>530.0</ele><time>2026-04-26T11:52:46.56Z</time></trkpt><trkpt lat="40.0041567" lon="8.977975"><ele>530.0</ele><time>2026-04-26T11:52:48.57Z</time></trkpt><trkpt lat="40.0042367" lon="8.9780333"><ele>530.0</ele><time>2026-04-26T11:52:50.564Z</time></trkpt><trkpt lat="40.00433" lon="8.9780967"><ele>530.0</ele><time>2026-04-26T11:52:52.57Z</time></trkpt><trkpt lat="40.0044117" lon="8.9781667"><ele>531.75</ele><time>2026-04-26T11:52:54.567Z</time></trkpt><trkpt lat="40.0045067" lon="8.9782467"><ele>533.5</ele><time>2026-04-26T11:52:56.561Z</time></trkpt><trkpt lat="40.004605" lon="8.9783283"><ele>535.25</ele><time>2026-04-26T11:52:58.564Z</time></trkpt><trkpt lat="40.0047" lon="8.9784033"><ele>537.0</ele><time>2026-04-26T11:53:00.566Z</time></trkpt><trkpt lat="40.0047983" lon="8.9784683"><ele>539.0</ele><time>2026-04-26T11:53:02.571Z</time></trkpt><trkpt lat="40.0048917" lon="8.97853"><ele>541.0</ele><time>2026-04-26T11:53:04.559Z</time></trkpt><trkpt lat="40.0049917" lon="8.9786033"><ele>543.0</ele><time>2026-04-26T11:53:06.571Z</time></trkpt><trkpt lat="40.0050883" lon="8.9786733"><ele>545.0</ele><time>2026-04-26T11:53:08.572Z</time></trkpt><trkpt lat="40.0051867" lon="8.9787667"><ele>545.0</ele><time>2026-04-26T11:53:10.565Z</time></trkpt><trkpt lat="40.005255" lon="8.97887"><ele>545.0</ele><time>2026-04-26T11:53:12.566Z</time></trkpt><trkpt lat="40.0053083" lon="8.9789683"><ele>545.0</ele><time>2026-04-26T11:53:14.562Z</time></trkpt><trkpt lat="40.00537" lon="8.97908"><ele>545.0</ele><time>2026-04-26T11:53:16.565Z</time></trkpt><trkpt lat="40.0054367" lon="8.9792017"><ele>545.0</ele><time>2026-04-26T11:53:18.569Z</time></trkpt><trkpt lat="40.0054917" lon="8.9793267"><ele>543.5</ele><time>2026-04-26T11:53:20.564Z</time></trkpt><trkpt lat="40.005535" lon="8.9794217"><ele>542.0</ele><time>2026-04-26T11:53:22.562Z</time></trkpt><trkpt lat="40.005575" lon="8.97951"><ele>540.5</ele><time>2026-04-26T11:53:24.572Z</time></trkpt><trkpt lat="40.0056333" lon="8.9795967"><ele>539.0</ele><time>2026-04-26T11:53:26.564Z</time></trkpt><trkpt lat="40.0057117" lon="8.9796733"><ele>537.5</ele><time>2026-04-26T11:53:28.563Z</time></trkpt><trkpt lat="40.0057833" lon="8.9797483"><ele>536.0</ele><time>2026-04-26T11:53:30.566Z</time></trkpt><trkpt lat="40.0058467" lon="8.9798283"><ele>536.0</ele><time>2026-04-26T11:53:32.561Z</time></trkpt><trkpt lat="40.0059133" lon="8.9799133"><ele>536.0</ele><time>2026-04-26T11:53:34.57Z</time></trkpt><trkpt lat="40.0059833" lon="8.9799983"><ele>536.0</ele><time>2026-04-26T11:53:36.566Z</time></trkpt><trkpt lat="40.0060567" lon="8.980085"><ele>536.0</ele><time>2026-04-26T11:53:38.567Z</time></trkpt><trkpt lat="40.0061217" lon="8.9801667"><ele>536.0</ele><time>2026-04-26T11:53:40.563Z</time></trkpt><trkpt lat="40.006195" lon="8.9802483"><ele>535.8333333333333</ele><time>2026-04-26T11:53:42.57Z</time></trkpt><trkpt lat="40.0062733" lon="8.9803133"><ele>535.6666666666666</ele><time>2026-04-26T11:53:44.56Z</time></trkpt><trkpt lat="40.00636" lon="8.9803367"><ele>535.5</ele><time>2026-04-26T11:53:46.565Z</time></trkpt><trkpt lat="40.00644" lon="8.9803417"><ele>535.3333333333334</ele><time>2026-04-26T11:53:48.564Z</time></trkpt><trkpt lat="40.0065133" lon="8.98033"><ele>535.1666666666667</ele><time>2026-04-26T11:53:50.56Z</time></trkpt><trkpt lat="40.0065883" lon="8.9803233"><ele>535.0</ele><time>2026-04-26T11:53:52.569Z</time></trkpt><trkpt lat="40.0066667" lon="8.980335"><ele>532.6666666666667</ele><time>2026-04-26T11:53:54.571Z</time></trkpt><trkpt lat="40.0067317" lon="8.9803467"><ele>530.3333333333334</ele><time>2026-04-26T11:53:56.567Z</time></trkpt><trkpt lat="40.006805" lon="8.9803633"><ele>528.0</ele><time>2026-04-26T11:53:58.565Z</time></trkpt><trkpt lat="40.00688" lon="8.9803817"><ele>525.6666666666666</ele><time>2026-04-26T11:54:00.564Z</time></trkpt><trkpt lat="40.006965" lon="8.980405"><ele>523.3333333333333</ele><time>2026-04-26T11:54:02.562Z</time></trkpt><trkpt lat="40.0070483" lon="8.98041"><ele>521.0</ele><time>2026-04-26T11:54:04.57Z</time></trkpt><trkpt lat="40.0071317" lon="8.98042"><ele>521.0</ele><time>2026-04-26T11:54:06.564Z</time></trkpt><trkpt lat="40.0072467" lon="8.980455"><ele>521.0</ele><time>2026-04-26T11:54:08.568Z</time></trkpt><trkpt lat="40.0073217" lon="8.9805033"><ele>521.0</ele><time>2026-04-26T11:54:09.564Z</time></trkpt><trkpt lat="40.0074033" lon="8.9805817"><ele>521.0</ele><time>2026-04-26T11:54:10.566Z</time></trkpt><trkpt lat="40.0074867" lon="8.9806833"><ele>521.0</ele><time>2026-04-26T11:54:11.563Z</time></trkpt><trkpt lat="40.0075717" lon="8.9808033"><ele>518.25</ele><time>2026-04-26T11:54:12.566Z</time></trkpt><trkpt lat="40.007655" lon="8.9809333"><ele>515.5</ele><time>2026-04-26T11:54:13.617Z</time></trkpt><trkpt lat="40.0077383" lon="8.9810633"><ele>512.75</ele><time>2026-04-26T11:54:14.561Z</time></trkpt><trkpt lat="40.007825" lon="8.981195"><ele>510.0</ele><time>2026-04-26T11:54:15.575Z</time></trkpt><trkpt lat="40.0079133" lon="8.9813233"><ele>510.0</ele><time>2026-04-26T11:54:16.564Z</time></trkpt><trkpt lat="40.0080017" lon="8.9814533"><ele>510.0</ele><time>2026-04-26T11:54:17.572Z</time></trkpt><trkpt lat="40.0080867" lon="8.9815867"><ele>510.0</ele><time>2026-04-26T11:54:18.567Z</time></trkpt><trkpt lat="40.0081667" lon="8.981715"><ele>510.0</ele><time>2026-04-26T11:54:19.629Z</time></trkpt><trkpt lat="40.0082467" lon="8.9818417"><ele>509.25</ele><time>2026-04-26T11:54:20.564Z</time></trkpt><trkpt lat="40.008325" lon="8.981965"><ele>508.5</ele><time>2026-04-26T11:54:21.564Z</time></trkpt><trkpt lat="40.0084033" lon="8.9820817"><ele>507.75</ele><time>2026-04-26T11:54:22.572Z</time></trkpt><trkpt lat="40.0084767" lon="8.9821917"><ele>507.0</ele><time>2026-04-26T11:54:23.564Z</time></trkpt><trkpt lat="40.0085467" lon="8.9822983"><ele>507.0</ele><time>2026-04-26T11:54:24.565Z</time></trkpt><trkpt lat="40.008615" lon="8.9824117"><ele>507.0</ele><time>2026-04-26T11:54:25.62Z</time></trkpt><trkpt lat="40.0086933" lon="8.98253"><ele>507.0</ele><time>2026-04-26T11:54:26.562Z</time></trkpt><trkpt lat="40.0087767" lon="8.982655"><ele>507.0</ele><time>2026-04-26T11:54:27.562Z</time></trkpt><trkpt lat="40.0088667" lon="8.9827783"><ele>506.75</ele><time>2026-04-26T11:54:28.563Z</time></trkpt><trkpt lat="40.008965" lon="8.9829"><ele>506.5</ele><time>2026-04-26T11:54:29.566Z</time></trkpt><trkpt lat="40.0090667" lon="8.9830133"><ele>506.25</ele><time>2026-04-26T11:54:30.561Z</time></trkpt><trkpt lat="40.009175" lon="8.98312"><ele>506.0</ele><time>2026-04-26T11:54:31.626Z</time></trkpt><trkpt lat="40.009285" lon="8.9832233"><ele>506.0</ele><time>2026-04-26T11:54:32.561Z</time></trkpt><trkpt lat="40.0093967" lon="8.9833233"><ele>506.0</ele><time>2026-04-26T11:54:33.566Z</time></trkpt><trkpt lat="40.0095067" lon="8.9834233"><ele>506.0</ele><time>2026-04-26T11:54:34.563Z</time></trkpt><trkpt lat="40.0096167" lon="8.9835233"><ele>506.0</ele><time>2026-04-26T11:54:35.566Z</time></trkpt><trkpt lat="40.0097267" lon="8.9836267"><ele>505.75</ele><time>2026-04-26T11:54:36.559Z</time></trkpt><trkpt lat="40.009835" lon="8.9837317"><ele>505.5</ele><time>2026-04-26T11:54:37.617Z</time></trkpt><trkpt lat="40.009945" lon="8.9838383"><ele>505.25</ele><time>2026-04-26T11:54:38.563Z</time></trkpt><trkpt lat="40.0100533" lon="8.983945"><ele>505.0</ele><time>2026-04-26T11:54:39.568Z</time></trkpt><trkpt lat="40.0101667" lon="8.984055"><ele>505.0</ele><time>2026-04-26T11:54:40.562Z</time></trkpt><trkpt lat="40.0102833" lon="8.9841667"><ele>505.0</ele><time>2026-04-26T11:54:41.564Z</time></trkpt><trkpt lat="40.0104" lon="8.9842783"><ele>505.0</ele><time>2026-04-26T11:54:42.566Z</time></trkpt><trkpt lat="40.010515" lon="8.9843867"><ele>505.0</ele><time>2026-04-26T11:54:43.615Z</time></trkpt><trkpt lat="40.0106267" lon="8.9844917"><ele>504.25</ele><time>2026-04-26T11:54:44.56Z</time></trkpt><trkpt lat="40.0107367" lon="8.9845967"><ele>503.5</ele><time>2026-04-26T11:54:45.568Z</time></trkpt><trkpt lat="40.0108483" lon="8.9846933"><ele>502.75</ele><time>2026-04-26T11:54:46.564Z</time></trkpt><trkpt lat="40.0109633" lon="8.9847867"><ele>502.0</ele><time>2026-04-26T11:54:47.565Z</time></trkpt><trkpt lat="40.0110817" lon="8.98487"><ele>502.0</ele><time>2026-04-26T11:54:48.562Z</time></trkpt><trkpt lat="40.011205" lon="8.9849433"><ele>502.0</ele><time>2026-04-26T11:54:49.624Z</time></trkpt><trkpt lat="40.0113333" lon="8.9850083"><ele>502.0</ele><time>2026-04-26T11:54:50.561Z</time></trkpt><trkpt lat="40.0114667" lon="8.98507"><ele>502.0</ele><time>2026-04-26T11:54:51.57Z</time></trkpt><trkpt lat="40.0115983" lon="8.985125"><ele>501.25</ele><time>2026-04-26T11:54:52.576Z</time></trkpt><trkpt lat="40.0117317" lon="8.9851767"><ele>500.5</ele><time>2026-04-26T11:54:53.564Z</time></trkpt><trkpt lat="40.0118683" lon="8.985225"><ele>499.75</ele><time>2026-04-26T11:54:54.559Z</time></trkpt><trkpt lat="40.0120033" lon="8.9852767"><ele>499.0</ele><time>2026-04-26T11:54:55.626Z</time></trkpt><trkpt lat="40.0121383" lon="8.985325"><ele>499.0</ele><time>2026-04-26T11:54:56.563Z</time></trkpt><trkpt lat="40.012275" lon="8.9853783"><ele>499.0</ele><time>2026-04-26T11:54:57.569Z</time></trkpt><trkpt lat="40.01241" lon="8.98543"><ele>499.0</ele><time>2026-04-26T11:54:58.562Z</time></trkpt><trkpt lat="40.0125483" lon="8.9854783"><ele>499.0</ele><time>2026-04-26T11:54:59.564Z</time></trkpt><trkpt lat="40.0126817" lon="8.9855267"><ele>500.4</ele><time>2026-04-26T11:55:00.565Z</time></trkpt><trkpt lat="40.012805" lon="8.9855717"><ele>501.79999999999995</ele><time>2026-04-26T11:55:01.624Z</time></trkpt><trkpt lat="40.0129183" lon="8.98561"><ele>503.20000000000005</ele><time>2026-04-26T11:55:02.566Z</time></trkpt><trkpt lat="40.0130133" lon="8.98564"><ele>504.6</ele><time>2026-04-26T11:55:03.566Z</time></trkpt><trkpt lat="40.0130983" lon="8.9856633"><ele>506.0</ele><time>2026-04-26T11:55:04.568Z</time></trkpt><trkpt lat="40.0131817" lon="8.985675"><ele>505.99999999999994</ele><time>2026-04-26T11:55:05.568Z</time></trkpt><trkpt lat="40.0132633" lon="8.9856833"><ele>506.0</ele><time>2026-04-26T11:55:06.566Z</time></trkpt><trkpt lat="40.0133467" lon="8.98569"><ele>506.0</ele><time>2026-04-26T11:55:07.621Z</time></trkpt><trkpt lat="40.0134267" lon="8.9857017"><ele>506.0</ele><time>2026-04-26T11:55:08.569Z</time></trkpt><trkpt lat="40.0134967" lon="8.9857217"><ele>505.99999999999994</ele><time>2026-04-26T11:55:09.567Z</time></trkpt><trkpt lat="40.0135883" lon="8.9857883"><ele>506.0</ele><time>2026-04-26T11:55:11.561Z</time></trkpt><trkpt lat="40.0136317" lon="8.9858883"><ele>507.0</ele><time>2026-04-26T11:55:13.614Z</time></trkpt><trkpt lat="40.01367" lon="8.9859967"><ele>508.0</ele><time>2026-04-26T11:55:15.566Z</time></trkpt><trkpt lat="40.013725" lon="8.9861117"><ele>509.0</ele><time>2026-04-26T11:55:17.565Z</time></trkpt><trkpt lat="40.0137667" lon="8.9862283"><ele>510.0</ele><time>2026-04-26T11:55:19.621Z</time></trkpt><trkpt lat="40.0137883" lon="8.9863317"><ele>511.0</ele><time>2026-04-26T11:55:21.564Z</time></trkpt><trkpt lat="40.0138133" lon="8.9864367"><ele>511.00000000000006</ele><time>2026-04-26T11:55:23.563Z</time></trkpt><trkpt lat="40.01383" lon="8.9865317"><ele>511.0</ele><time>2026-04-26T11:55:25.626Z</time></trkpt><trkpt lat="40.0138483" lon="8.9866333"><ele>511.0</ele><time>2026-04-26T11:55:27.569Z</time></trkpt><trkpt lat="40.0138483" lon="8.9867467"><ele>511.0</ele><time>2026-04-26T11:55:29.565Z</time></trkpt><trkpt lat="40.013845" lon="8.9868467"><ele>511.00000000000006</ele><time>2026-04-26T11:55:31.623Z</time></trkpt><trkpt lat="40.01386" lon="8.986975"><ele>511.0</ele><time>2026-04-26T11:55:33.571Z</time></trkpt><trkpt lat="40.013875" lon="8.98713"><ele>510.75</ele><time>2026-04-26T11:55:35.56Z</time></trkpt><trkpt lat="40.0139" lon="8.9872767"><ele>510.5</ele><time>2026-04-26T11:55:37.62Z</time></trkpt><trkpt lat="40.01395" lon="8.9874217"><ele>510.25</ele><time>2026-04-26T11:55:39.564Z</time></trkpt><trkpt lat="40.01402" lon="8.98755"><ele>510.0</ele><time>2026-04-26T11:55:41.566Z</time></trkpt><trkpt lat="40.0141067" lon="8.987835"><ele>510.0</ele><time>2026-04-26T11:55:47.572Z</time></trkpt><trkpt lat="40.014145" lon="8.9879533"><ele>510.0</ele><time>2026-04-26T11:55:50.576Z</time></trkpt><trkpt lat="40.01426" lon="8.9882517"><ele>510.0</ele><time>2026-04-26T11:55:57.569Z</time></trkpt><trkpt lat="40.0143433" lon="8.9884233"><ele>509.33333333333337</ele><time>2026-04-26T11:56:01.622Z</time></trkpt><trkpt lat="40.0144333" lon="8.9885583"><ele>508.6666666666667</ele><time>2026-04-26T11:56:04.563Z</time></trkpt><trkpt lat="40.0145767" lon="8.9887417"><ele>508.0</ele><time>2026-04-26T11:56:08.564Z</time></trkpt><trkpt lat="40.01467" lon="8.9888633"><ele>508.0</ele><time>2026-04-26T11:56:12.561Z</time></trkpt><trkpt lat="40.0148" lon="8.989"><ele>508.0</ele><time>2026-04-26T11:56:16.574Z</time></trkpt><trkpt lat="40.0149483" lon="8.98914"><ele>508.0</ele><time>2026-04-26T11:56:21.569Z</time></trkpt><trkpt lat="40.0151017" lon="8.9893017"><ele>506.6666666666667</ele><time>2026-04-26T11:56:26.557Z</time></trkpt><trkpt lat="40.0152217" lon="8.9894217"><ele>505.33333333333337</ele><time>2026-04-26T11:56:30.566Z</time></trkpt><trkpt lat="40.0153383" lon="8.9895317"><ele>504.0</ele><time>2026-04-26T11:56:34.573Z</time></trkpt><trkpt lat="40.0156" lon="8.9896067"><ele>504.0</ele><time>2026-04-26T11:56:38.563Z</time></trkpt><trkpt lat="40.0156633" lon="8.989615"><ele>504.0</ele><time>2026-04-26T11:56:39.562Z</time></trkpt><trkpt lat="40.0159783" lon="8.98966"><ele>504.0</ele><time>2026-04-26T11:56:45.563Z</time></trkpt><trkpt lat="40.01626" lon="8.9897983"><ele>505.0</ele><time>2026-04-26T11:56:50.565Z</time></trkpt><trkpt lat="40.016415" lon="8.9899117"><ele>506.0</ele><time>2026-04-26T11:56:54.563Z</time></trkpt><trkpt lat="40.0166883" lon="8.9898967"><ele>506.0</ele><time>2026-04-26T11:56:59.561Z</time></trkpt><trkpt lat="40.0170483" lon="8.9898533"><ele>506.0</ele><time>2026-04-26T11:57:06.565Z</time></trkpt><trkpt lat="40.017155" lon="8.9899583"><ele>505.0</ele><time>2026-04-26T11:57:09.566Z</time></trkpt><trkpt lat="40.017185" lon="8.9901183"><ele>504.0</ele><time>2026-04-26T11:57:12.567Z</time></trkpt><trkpt lat="40.0172133" lon="8.9903467"><ele>503.0</ele><time>2026-04-26T11:57:17.562Z</time></trkpt><trkpt lat="40.0172483" lon="8.9904683"><ele>502.0</ele><time>2026-04-26T11:57:19.615Z</time></trkpt><trkpt lat="40.0173017" lon="8.9907117"><ele>502.0</ele><time>2026-04-26T11:57:22.568Z</time></trkpt><trkpt lat="40.0173133" lon="8.9908"><ele>502.0</ele><time>2026-04-26T11:57:23.56Z</time></trkpt><trkpt lat="40.0173417" lon="8.990945"><ele>502.0</ele><time>2026-04-26T11:57:25.632Z</time></trkpt><trkpt lat="40.0173783" lon="8.9910683"><ele>502.0</ele><time>2026-04-26T11:57:27.558Z</time></trkpt><trkpt lat="40.0173717" lon="8.9914017"><ele>505.5</ele><time>2026-04-26T11:57:36.561Z</time></trkpt><trkpt lat="40.0175017" lon="8.9916567"><ele>509.0</ele><time>2026-04-26T11:57:40.563Z</time></trkpt><trkpt lat="40.0177183" lon="8.9919717"><ele>509.0</ele><time>2026-04-26T11:57:45.558Z</time></trkpt><trkpt lat="40.017835" lon="8.9921717"><ele>509.0</ele><time>2026-04-26T11:57:48.565Z</time></trkpt><trkpt lat="40.01795" lon="8.9924433"><ele>509.0</ele><time>2026-04-26T11:57:52.561Z</time></trkpt><trkpt lat="40.0180033" lon="8.992575"><ele>508.5</ele><time>2026-04-26T11:57:54.558Z</time></trkpt><trkpt lat="40.0180467" lon="8.992685"><ele>508.0</ele><time>2026-04-26T11:57:56.562Z</time></trkpt><trkpt lat="40.0182317" lon="8.993085"><ele>508.0</ele><time>2026-04-26T11:58:03.565Z</time></trkpt><trkpt lat="40.0182767" lon="8.9931883"><ele>508.0</ele><time>2026-04-26T11:58:05.567Z</time></trkpt><trkpt lat="40.0183483" lon="8.9933233"><ele>508.0</ele><time>2026-04-26T11:58:08.559Z</time></trkpt><trkpt lat="40.0184567" lon="8.9934517"><ele>508.0</ele><time>2026-04-26T11:58:11.56Z</time></trkpt><trkpt lat="40.0186017" lon="8.9936533"><ele>507.5</ele><time>2026-04-26T11:58:15.563Z</time></trkpt><trkpt lat="40.018695" lon="8.9937333"><ele>507.0</ele><time>2026-04-26T11:58:17.561Z</time></trkpt><trkpt lat="40.0187967" lon="8.993795"><ele>506.5</ele><time>2026-04-26T11:58:19.621Z</time></trkpt><trkpt lat="40.0189017" lon="8.9938733"><ele>506.0</ele><time>2026-04-26T11:58:21.556Z</time></trkpt><trkpt lat="40.019035" lon="8.994035"><ele>504.0</ele><time>2026-04-26T11:58:24.562Z</time></trkpt><trkpt lat="40.0191233" lon="8.994245"><ele>502.0</ele><time>2026-04-26T11:58:27.562Z</time></trkpt><trkpt lat="40.0191433" lon="8.994325"><ele>500.0</ele><time>2026-04-26T11:58:28.565Z</time></trkpt><trkpt lat="40.01909" lon="8.994545"><ele>498.0</ele><time>2026-04-26T11:58:31.619Z</time></trkpt><trkpt lat="40.0190217" lon="8.99467"><ele>498.0</ele><time>2026-04-26T11:58:33.564Z</time></trkpt><trkpt lat="40.0189117" lon="8.9949817"><ele>498.0</ele><time>2026-04-26T11:58:37.62Z</time></trkpt><trkpt lat="40.0189" lon="8.9951667"><ele>498.0</ele><time>2026-04-26T11:58:39.562Z</time></trkpt><trkpt lat="40.0189183" lon="8.995325"><ele>500.0</ele><time>2026-04-26T11:58:41.555Z</time></trkpt><trkpt lat="40.0189617" lon="8.9954683"><ele>502.0</ele><time>2026-04-26T11:58:43.617Z</time></trkpt><trkpt lat="40.0193683" lon="8.9962483"><ele>501.99999999999994</ele><time>2026-04-26T11:58:53.562Z</time></trkpt><trkpt lat="40.01941" lon="8.9963283"><ele>502.0</ele><time>2026-04-26T11:58:54.565Z</time></trkpt><trkpt lat="40.0194517" lon="8.9964133"><ele>501.99999999999994</ele><time>2026-04-26T11:58:55.632Z</time></trkpt><trkpt lat="40.0194883" lon="8.9964917"><ele>501.99999999999994</ele><time>2026-04-26T11:58:56.566Z</time></trkpt><trkpt lat="40.0195267" lon="8.9965717"><ele>502.0</ele><time>2026-04-26T11:58:57.567Z</time></trkpt><trkpt lat="40.0195583" lon="8.9966467"><ele>501.99999999999994</ele><time>2026-04-26T11:58:58.564Z</time></trkpt><trkpt lat="40.01959" lon="8.99672"><ele>501.99999999999994</ele><time>2026-04-26T11:58:59.57Z</time></trkpt><trkpt lat="40.0196383" lon="8.99684"><ele>502.5</ele><time>2026-04-26T11:59:01.623Z</time></trkpt><trkpt lat="40.0197033" lon="8.9969483"><ele>503.0</ele><time>2026-04-26T11:59:03.562Z</time></trkpt><trkpt lat="40.0197717" lon="8.9970633"><ele>503.5</ele><time>2026-04-26T11:59:05.562Z</time></trkpt><trkpt lat="40.0198317" lon="8.9972033"><ele>504.0</ele><time>2026-04-26T11:59:07.618Z</time></trkpt><trkpt lat="40.0198883" lon="8.9973367"><ele>504.0</ele><time>2026-04-26T11:59:09.566Z</time></trkpt><trkpt lat="40.019925" lon="8.9974883"><ele>504.0</ele><time>2026-04-26T11:59:11.561Z</time></trkpt><trkpt lat="40.0199417" lon="8.9976333"><ele>504.0</ele><time>2026-04-26T11:59:13.615Z</time></trkpt><trkpt lat="40.0199517" lon="8.9977433"><ele>504.0</ele><time>2026-04-26T11:59:15.561Z</time></trkpt><trkpt lat="40.0199733" lon="8.9978767"><ele>504.0</ele><time>2026-04-26T11:59:17.567Z</time></trkpt><trkpt lat="40.020015" lon="8.99799"><ele>502.8571428571429</ele><time>2026-04-26T11:59:19.616Z</time></trkpt><trkpt lat="40.02006" lon="8.99806"><ele>501.7142857142857</ele><time>2026-04-26T11:59:21.568Z</time></trkpt><trkpt lat="40.020105" lon="8.9981183"><ele>500.57142857142856</ele><time>2026-04-26T11:59:23.572Z</time></trkpt><trkpt lat="40.0201517" lon="8.9982283"><ele>499.42857142857144</ele><time>2026-04-26T11:59:25.629Z</time></trkpt><trkpt lat="40.020175" lon="8.99831"><ele>498.28571428571433</ele><time>2026-04-26T11:59:26.562Z</time></trkpt><trkpt lat="40.020205" lon="8.9984"><ele>497.14285714285717</ele><time>2026-04-26T11:59:27.558Z</time></trkpt><trkpt lat="40.020245" lon="8.9984867"><ele>496.0</ele><time>2026-04-26T11:59:28.561Z</time></trkpt><trkpt lat="40.0202917" lon="8.9985683"><ele>495.8571428571429</ele><time>2026-04-26T11:59:29.564Z</time></trkpt><trkpt lat="40.020345" lon="8.9986417"><ele>495.7142857142858</ele><time>2026-04-26T11:59:30.562Z</time></trkpt><trkpt lat="40.0203933" lon="8.998715"><ele>495.57142857142856</ele><time>2026-04-26T11:59:31.618Z</time></trkpt><trkpt lat="40.0204383" lon="8.9987867"><ele>495.42857142857144</ele><time>2026-04-26T11:59:32.561Z</time></trkpt><trkpt lat="40.0204733" lon="8.9988617"><ele>495.2857142857143</ele><time>2026-04-26T11:59:33.56Z</time></trkpt><trkpt lat="40.020515" lon="8.9989433"><ele>495.1428571428571</ele><time>2026-04-26T11:59:34.563Z</time></trkpt><trkpt lat="40.0205617" lon="8.9990233"><ele>494.99999999999994</ele><time>2026-04-26T11:59:35.561Z</time></trkpt><trkpt lat="40.0206183" lon="8.9991"><ele>495.1666666666667</ele><time>2026-04-26T11:59:36.565Z</time></trkpt><trkpt lat="40.0206767" lon="8.9991733"><ele>495.33333333333337</ele><time>2026-04-26T11:59:37.561Z</time></trkpt><trkpt lat="40.0207333" lon="8.999245"><ele>495.5</ele><time>2026-04-26T11:59:38.562Z</time></trkpt><trkpt lat="40.02078" lon="8.9993217"><ele>495.6666666666667</ele><time>2026-04-26T11:59:39.557Z</time></trkpt><trkpt lat="40.02082" lon="8.9994033"><ele>495.83333333333337</ele><time>2026-04-26T11:59:40.565Z</time></trkpt><trkpt lat="40.020845" lon="8.999495"><ele>496.0</ele><time>2026-04-26T11:59:41.561Z</time></trkpt><trkpt lat="40.0208583" lon="8.9995983"><ele>497.00000000000006</ele><time>2026-04-26T11:59:42.562Z</time></trkpt><trkpt lat="40.0208717" lon="8.999705"><ele>498.0</ele><time>2026-04-26T11:59:43.562Z</time></trkpt><trkpt lat="40.0208883" lon="8.9998117"><ele>499.0</ele><time>2026-04-26T11:59:44.568Z</time></trkpt><trkpt lat="40.0209067" lon="8.9999117"><ele>500.0</ele><time>2026-04-26T11:59:45.558Z</time></trkpt><trkpt lat="40.0209233" lon="9.0000083"><ele>501.00000000000006</ele><time>2026-04-26T11:59:46.563Z</time></trkpt><trkpt lat="40.0209433" lon="9.0001017"><ele>502.0</ele><time>2026-04-26T11:59:47.564Z</time></trkpt><trkpt lat="40.0209617" lon="9.0001833"><ele>502.00000000000006</ele><time>2026-04-26T11:59:48.56Z</time></trkpt><trkpt lat="40.0209933" lon="9.0003267"><ele>502.0</ele><time>2026-04-26T11:59:50.561Z</time></trkpt><trkpt lat="40.021005" lon="9.0004883"><ele>502.0</ele><time>2026-04-26T11:59:52.565Z</time></trkpt><trkpt lat="40.021015" lon="9.0005783"><ele>502.0</ele><time>2026-04-26T11:59:53.559Z</time></trkpt><trkpt lat="40.02103" lon="9.0006667"><ele>502.00000000000006</ele><time>2026-04-26T11:59:54.568Z</time></trkpt><trkpt lat="40.0210517" lon="9.00075"><ele>502.0</ele><time>2026-04-26T11:59:55.624Z</time></trkpt><trkpt lat="40.021075" lon="9.0008317"><ele>501.50000000000006</ele><time>2026-04-26T11:59:56.558Z</time></trkpt><trkpt lat="40.0211" lon="9.000915"><ele>501.0</ele><time>2026-04-26T11:59:57.566Z</time></trkpt><trkpt lat="40.021125" lon="9.0010067"><ele>500.5</ele><time>2026-04-26T11:59:58.56Z</time></trkpt><trkpt lat="40.0211567" lon="9.0011067"><ele>500.0</ele><time>2026-04-26T11:59:59.56Z</time></trkpt><trkpt lat="40.02119" lon="9.0012117"><ele>499.50000000000006</ele><time>2026-04-26T12:00:00.564Z</time></trkpt><trkpt lat="40.0212283" lon="9.0013283"><ele>499.0</ele><time>2026-04-26T12:00:01.622Z</time></trkpt><trkpt lat="40.02127" lon="9.0014517"><ele>499.00000000000006</ele><time>2026-04-26T12:00:02.558Z</time></trkpt><trkpt lat="40.02131" lon="9.001565"><ele>499.0</ele><time>2026-04-26T12:00:03.563Z</time></trkpt><trkpt lat="40.02135" lon="9.00167"><ele>499.0</ele><time>2026-04-26T12:00:04.565Z</time></trkpt><trkpt lat="40.02139" lon="9.001765"><ele>499.0</ele><time>2026-04-26T12:00:05.561Z</time></trkpt><trkpt lat="40.0214233" lon="9.0018633"><ele>499.00000000000006</ele><time>2026-04-26T12:00:06.561Z</time></trkpt><trkpt lat="40.0214533" lon="9.0019633"><ele>499.0</ele><time>2026-04-26T12:00:07.568Z</time></trkpt><trkpt lat="40.0214833" lon="9.00206"><ele>498.33333333333337</ele><time>2026-04-26T12:00:08.559Z</time></trkpt><trkpt lat="40.021515" lon="9.00217"><ele>497.6666666666667</ele><time>2026-04-26T12:00:09.567Z</time></trkpt><trkpt lat="40.02155" lon="9.0022783"><ele>497.0</ele><time>2026-04-26T12:00:10.561Z</time></trkpt><trkpt lat="40.0215867" lon="9.0023817"><ele>496.33333333333337</ele><time>2026-04-26T12:00:11.565Z</time></trkpt><trkpt lat="40.0216217" lon="9.0024817"><ele>495.6666666666667</ele><time>2026-04-26T12:00:12.571Z</time></trkpt><trkpt lat="40.02166" lon="9.0025767"><ele>495.0</ele><time>2026-04-26T12:00:13.558Z</time></trkpt><trkpt lat="40.021705" lon="9.0026617"><ele>495.0</ele><time>2026-04-26T12:00:14.56Z</time></trkpt><trkpt lat="40.0217567" lon="9.00274"><ele>495.0</ele><time>2026-04-26T12:00:15.576Z</time></trkpt><trkpt lat="40.0218183" lon="9.0028117"><ele>495.0</ele><time>2026-04-26T12:00:16.56Z</time></trkpt><trkpt lat="40.0218867" lon="9.0028867"><ele>495.0</ele><time>2026-04-26T12:00:17.567Z</time></trkpt><trkpt lat="40.0219583" lon="9.0029667"><ele>495.0</ele><time>2026-04-26T12:00:18.563Z</time></trkpt><trkpt lat="40.0220283" lon="9.0030467"><ele>495.0</ele><time>2026-04-26T12:00:19.569Z</time></trkpt><trkpt lat="40.0221033" lon="9.003125"><ele>495.0</ele><time>2026-04-26T12:00:20.572Z</time></trkpt><trkpt lat="40.022175" lon="9.0031983"><ele>495.0</ele><time>2026-04-26T12:00:21.565Z</time></trkpt><trkpt lat="40.02224" lon="9.00327"><ele>495.0</ele><time>2026-04-26T12:00:22.565Z</time></trkpt><trkpt lat="40.0222967" lon="9.0033433"><ele>495.0</ele><time>2026-04-26T12:00:23.565Z</time></trkpt><trkpt lat="40.0223517" lon="9.0034167"><ele>495.0</ele><time>2026-04-26T12:00:24.563Z</time></trkpt><trkpt lat="40.0224017" lon="9.003495"><ele>495.0</ele><time>2026-04-26T12:00:25.631Z</time></trkpt><trkpt lat="40.02245" lon="9.0035783"><ele>495.8333333333333</ele><time>2026-04-26T12:00:26.562Z</time></trkpt><trkpt lat="40.0224983" lon="9.0036667"><ele>496.66666666666663</ele><time>2026-04-26T12:00:27.56Z</time></trkpt><trkpt lat="40.0225517" lon="9.003755"><ele>497.5</ele><time>2026-04-26T12:00:28.561Z</time></trkpt><trkpt lat="40.0226033" lon="9.0038433"><ele>498.3333333333333</ele><time>2026-04-26T12:00:29.561Z</time></trkpt><trkpt lat="40.0226567" lon="9.003925"><ele>499.16666666666663</ele><time>2026-04-26T12:00:30.567Z</time></trkpt><trkpt lat="40.0227133" lon="9.0040083"><ele>500.0</ele><time>2026-04-26T12:00:31.621Z</time></trkpt><trkpt lat="40.02277" lon="9.0040883"><ele>499.99999999999994</ele><time>2026-04-26T12:00:32.565Z</time></trkpt><trkpt lat="40.0228283" lon="9.0041567"><ele>500.0</ele><time>2026-04-26T12:00:33.566Z</time></trkpt><trkpt lat="40.0228867" lon="9.0042217"><ele>500.0</ele><time>2026-04-26T12:00:34.565Z</time></trkpt><trkpt lat="40.0229417" lon="9.0042883"><ele>500.0</ele><time>2026-04-26T12:00:35.563Z</time></trkpt><trkpt lat="40.0229933" lon="9.0043533"><ele>499.99999999999994</ele><time>2026-04-26T12:00:36.56Z</time></trkpt><trkpt lat="40.0230667" lon="9.0044533"><ele>500.0</ele><time>2026-04-26T12:00:38.566Z</time></trkpt><trkpt lat="40.0231433" lon="9.0045567"><ele>499.8</ele><time>2026-04-26T12:00:40.561Z</time></trkpt><trkpt lat="40.0232083" lon="9.0046633"><ele>499.6</ele><time>2026-04-26T12:00:42.559Z</time></trkpt><trkpt lat="40.0232583" lon="9.0047883"><ele>499.4</ele><time>2026-04-26T12:00:44.562Z</time></trkpt><trkpt lat="40.0233317" lon="9.0049217"><ele>499.2</ele><time>2026-04-26T12:00:46.565Z</time></trkpt><trkpt lat="40.0233767" lon="9.0049883"><ele>499.0</ele><time>2026-04-26T12:00:47.565Z</time></trkpt><trkpt lat="40.0234217" lon="9.00505"><ele>499.28571428571433</ele><time>2026-04-26T12:00:48.565Z</time></trkpt><trkpt lat="40.0234667" lon="9.0051117"><ele>499.57142857142856</ele><time>2026-04-26T12:00:49.567Z</time></trkpt><trkpt lat="40.0235117" lon="9.0051717"><ele>499.8571428571429</ele><time>2026-04-26T12:00:50.564Z</time></trkpt><trkpt lat="40.02356" lon="9.0052317"><ele>500.14285714285717</ele><time>2026-04-26T12:00:51.562Z</time></trkpt><trkpt lat="40.02361" lon="9.0052883"><ele>500.42857142857144</ele><time>2026-04-26T12:00:52.562Z</time></trkpt><trkpt lat="40.02366" lon="9.0053433"><ele>500.7142857142857</ele><time>2026-04-26T12:00:53.572Z</time></trkpt><trkpt lat="40.0237383" lon="9.0054483"><ele>501.0</ele><time>2026-04-26T12:00:55.599Z</time></trkpt><trkpt lat="40.0238167" lon="9.0055283"><ele>501.0</ele><time>2026-04-26T12:00:57.56Z</time></trkpt><trkpt lat="40.0238917" lon="9.0056283"><ele>501.0</ele><time>2026-04-26T12:00:59.569Z</time></trkpt><trkpt lat="40.02393" lon="9.005695"><ele>501.0</ele><time>2026-04-26T12:01:00.569Z</time></trkpt><trkpt lat="40.023965" lon="9.0057683"><ele>501.0</ele><time>2026-04-26T12:01:01.586Z</time></trkpt><trkpt lat="40.0239983" lon="9.0058417"><ele>501.0</ele><time>2026-04-26T12:01:02.562Z</time></trkpt><trkpt lat="40.0240283" lon="9.0059167"><ele>501.0</ele><time>2026-04-26T12:01:03.561Z</time></trkpt><trkpt lat="40.0240883" lon="9.0060717"><ele>500.5</ele><time>2026-04-26T12:01:05.56Z</time></trkpt><trkpt lat="40.02412" lon="9.006165"><ele>500.0</ele><time>2026-04-26T12:01:06.564Z</time></trkpt><trkpt lat="40.0241483" lon="9.0062633"><ele>499.5</ele><time>2026-04-26T12:01:07.569Z</time></trkpt><trkpt lat="40.0241783" lon="9.0063583"><ele>499.0</ele><time>2026-04-26T12:01:08.566Z</time></trkpt><trkpt lat="40.02421" lon="9.0064433"><ele>498.5</ele><time>2026-04-26T12:01:09.557Z</time></trkpt><trkpt lat="40.0242517" lon="9.0065183"><ele>498.0</ele><time>2026-04-26T12:01:10.565Z</time></trkpt><trkpt lat="40.0243033" lon="9.00658"><ele>498.0</ele><time>2026-04-26T12:01:11.565Z</time></trkpt><trkpt lat="40.02437" lon="9.006615"><ele>498.0</ele><time>2026-04-26T12:01:12.566Z</time></trkpt><trkpt lat="40.0244483" lon="9.0066483"><ele>498.0</ele><time>2026-04-26T12:01:13.558Z</time></trkpt><trkpt lat="40.0245283" lon="9.0066967"><ele>498.0</ele><time>2026-04-26T12:01:14.56Z</time></trkpt><trkpt lat="40.0246067" lon="9.0067567"><ele>498.0</ele><time>2026-04-26T12:01:15.56Z</time></trkpt><trkpt lat="40.0246917" lon="9.0068217"><ele>498.0</ele><time>2026-04-26T12:01:16.563Z</time></trkpt><trkpt lat="40.0247767" lon="9.006885"><ele>497.59999999999997</ele><time>2026-04-26T12:01:17.56Z</time></trkpt><trkpt lat="40.0248717" lon="9.006935"><ele>497.19999999999993</ele><time>2026-04-26T12:01:18.567Z</time></trkpt><trkpt lat="40.0249733" lon="9.0069733"><ele>496.8</ele><time>2026-04-26T12:01:19.561Z</time></trkpt><trkpt lat="40.025075" lon="9.0070067"><ele>496.4</ele><time>2026-04-26T12:01:20.564Z</time></trkpt><trkpt lat="40.0251767" lon="9.0070317"><ele>496.0</ele><time>2026-04-26T12:01:21.559Z</time></trkpt><trkpt lat="40.0252717" lon="9.0070533"><ele>497.0</ele><time>2026-04-26T12:01:22.56Z</time></trkpt><trkpt lat="40.025355" lon="9.00708"><ele>498.0</ele><time>2026-04-26T12:01:23.563Z</time></trkpt><trkpt lat="40.0254267" lon="9.00711"><ele>499.0</ele><time>2026-04-26T12:01:24.557Z</time></trkpt><trkpt lat="40.02549" lon="9.0071317"><ele>500.0</ele><time>2026-04-26T12:01:25.632Z</time></trkpt><trkpt lat="40.0256067" lon="9.007105"><ele>501.0</ele><time>2026-04-26T12:01:27.562Z</time></trkpt><trkpt lat="40.0238167" lon="9.0055283"><ele>501.0</ele><time>2026-04-26T12:00:57.56Z</time></trkpt><trkpt lat="40.0238917" lon="9.0056283"><ele>501.0</ele><time>2026-04-26T12:00:59.569Z</time></trkpt><trkpt lat="40.02393" lon="9.005695"><ele>501.0</ele><time>2026-04-26T12:01:00.569Z</time></trkpt><trkpt lat="40.023965" lon="9.0057683"><ele>501.0</ele><time>2026-04-26T12:01:01.586Z</time></trkpt><trkpt lat="40.0239983" lon="9.0058417"><ele>501.0</ele><time>2026-04-26T12:01:02.562Z</time></trkpt><trkpt lat="40.0240283" lon="9.0059167"><ele>501.0</ele><time>2026-04-26T12:01:03.561Z</time></trkpt><trkpt lat="40.0240883" lon="9.0060717"><ele>500.5</ele><time>2026-04-26T12:01:05.56Z</time></trkpt><trkpt lat="40.02412" lon="9.006165"><ele>500.0</ele><time>2026-04-26T12:01:06.564Z</time></trkpt><trkpt lat="40.0241483" lon="9.0062633"><ele>499.5</ele><time>2026-04-26T12:01:07.569Z</time></trkpt><trkpt lat="40.0241783" lon="9.0063583"><ele>499.0</ele><time>2026-04-26T12:01:08.566Z</time></trkpt><trkpt lat="40.02421" lon="9.0064433"><ele>498.5</ele><time>2026-04-26T12:01:09.557Z</time></trkpt><trkpt lat="40.0242517" lon="9.0065183"><ele>498.0</ele><time>2026-04-26T12:01:10.565Z</time></trkpt><trkpt lat="40.0243033" lon="9.00658"><ele>498.0</ele><time>2026-04-26T12:01:11.565Z</time></trkpt><trkpt lat="40.02437" lon="9.006615"><ele>498.0</ele><time>2026-04-26T12:01:12.566Z</time></trkpt><trkpt lat="40.0244483" lon="9.0066483"><ele>498.0</ele><time>2026-04-26T12:01:13.558Z</time></trkpt><trkpt lat="40.0245283" lon="9.0066967"><ele>498.0</ele><time>2026-04-26T12:01:14.56Z</time></trkpt><trkpt lat="40.0246067" lon="9.0067567"><ele>498.0</ele><time>2026-04-26T12:01:15.56Z</time></trkpt><trkpt lat="40.0246917" lon="9.0068217"><ele>498.0</ele><time>2026-04-26T12:01:16.563Z</time></trkpt><trkpt lat="40.0247767" lon="9.006885"><ele>497.59999999999997</ele><time>2026-04-26T12:01:17.56Z</time></trkpt><trkpt lat="40.0248717" lon="9.006935"><ele>497.19999999999993</ele><time>2026-04-26T12:01:18.567Z</time></trkpt><trkpt lat="40.0249733" lon="9.0069733"><ele>496.8</ele><time>2026-04-26T12:01:19.561Z</time></trkpt><trkpt lat="40.025075" lon="9.0070067"><ele>496.4</ele><time>2026-04-26T12:01:20.564Z</time></trkpt><trkpt lat="40.0251767" lon="9.0070317"><ele>496.0</ele><time>2026-04-26T12:01:21.559Z</time></trkpt><trkpt lat="40.0252717" lon="9.0070533"><ele>496.83333333333337</ele><time>2026-04-26T12:01:22.56Z</time></trkpt><trkpt lat="40.025355" lon="9.00708"><ele>497.6666666666667</ele><time>2026-04-26T12:01:23.563Z</time></trkpt><trkpt lat="40.0254267" lon="9.00711"><ele>498.5</ele><time>2026-04-26T12:01:24.557Z</time></trkpt><trkpt lat="40.02549" lon="9.0071317"><ele>499.33333333333337</ele><time>2026-04-26T12:01:25.632Z</time></trkpt><trkpt lat="40.0256067" lon="9.007105"><ele>500.1666666666667</ele><time>2026-04-26T12:01:27.562Z</time></trkpt><trkpt lat="40.0256667" lon="9.0070567"><ele>501.0</ele><time>2026-04-26T12:01:28.568Z</time></trkpt><trkpt lat="40.0257183" lon="9.0070083"><ele>502.6</ele><time>2026-04-26T12:01:29.565Z</time></trkpt><trkpt lat="40.0258317" lon="9.0069583"><ele>504.20000000000005</ele><time>2026-04-26T12:01:31.633Z</time></trkpt><trkpt lat="40.025895" lon="9.0069483"><ele>505.79999999999995</ele><time>2026-04-26T12:01:32.558Z</time></trkpt><trkpt lat="40.0259583" lon="9.00695"><ele>507.4</ele><time>2026-04-26T12:01:33.566Z</time></trkpt><trkpt lat="40.0260733" lon="9.0069933"><ele>509.0</ele><time>2026-04-26T12:01:35.559Z</time></trkpt><trkpt lat="40.0261567" lon="9.0071067"><ele>508.99999999999994</ele><time>2026-04-26T12:01:37.578Z</time></trkpt><trkpt lat="40.02619" lon="9.0071883"><ele>509.0</ele><time>2026-04-26T12:01:38.564Z</time></trkpt><trkpt lat="40.026225" lon="9.0072783"><ele>509.0</ele><time>2026-04-26T12:01:39.564Z</time></trkpt><trkpt lat="40.026265" lon="9.0073717"><ele>509.0</ele><time>2026-04-26T12:01:40.559Z</time></trkpt><trkpt lat="40.02631" lon="9.0074617"><ele>508.99999999999994</ele><time>2026-04-26T12:01:41.56Z</time></trkpt><trkpt lat="40.0263533" lon="9.0075533"><ele>509.0</ele><time>2026-04-26T12:01:42.566Z</time></trkpt><trkpt lat="40.026395" lon="9.0076467"><ele>509.16666666666663</ele><time>2026-04-26T12:01:43.578Z</time></trkpt><trkpt lat="40.0264333" lon="9.0077417"><ele>509.3333333333333</ele><time>2026-04-26T12:01:44.563Z</time></trkpt><trkpt lat="40.026475" lon="9.00784"><ele>509.5</ele><time>2026-04-26T12:01:45.561Z</time></trkpt><trkpt lat="40.0265183" lon="9.0079367"><ele>509.66666666666663</ele><time>2026-04-26T12:01:46.559Z</time></trkpt><trkpt lat="40.0265583" lon="9.00803"><ele>509.8333333333333</ele><time>2026-04-26T12:01:47.559Z</time></trkpt><trkpt lat="40.0265983" lon="9.0081267"><ele>510.0</ele><time>2026-04-26T12:01:48.563Z</time></trkpt><trkpt lat="40.02664" lon="9.0082233"><ele>510.8333333333333</ele><time>2026-04-26T12:01:49.582Z</time></trkpt><trkpt lat="40.0266883" lon="9.0083167"><ele>511.66666666666663</ele><time>2026-04-26T12:01:50.569Z</time></trkpt><trkpt lat="40.02674" lon="9.00841"><ele>512.5</ele><time>2026-04-26T12:01:51.57Z</time></trkpt><trkpt lat="40.026795" lon="9.0085017"><ele>513.3333333333333</ele><time>2026-04-26T12:01:52.565Z</time></trkpt><trkpt lat="40.026855" lon="9.0085933"><ele>514.1666666666666</ele><time>2026-04-26T12:01:53.567Z</time></trkpt><trkpt lat="40.0269183" lon="9.0086817"><ele>515.0</ele><time>2026-04-26T12:01:54.575Z</time></trkpt><trkpt lat="40.0269883" lon="9.00877"><ele>515.0</ele><time>2026-04-26T12:01:55.635Z</time></trkpt><trkpt lat="40.0270583" lon="9.0088533"><ele>515.0</ele><time>2026-04-26T12:01:56.565Z</time></trkpt><trkpt lat="40.0271317" lon="9.0089383"><ele>515.0</ele><time>2026-04-26T12:01:57.571Z</time></trkpt><trkpt lat="40.0272017" lon="9.0090267"><ele>515.0</ele><time>2026-04-26T12:01:58.567Z</time></trkpt><trkpt lat="40.0272683" lon="9.009115"><ele>515.0</ele><time>2026-04-26T12:01:59.568Z</time></trkpt><trkpt lat="40.0273317" lon="9.0092017"><ele>515.0</ele><time>2026-04-26T12:02:00.564Z</time></trkpt><trkpt lat="40.02739" lon="9.0092933"><ele>515.0</ele><time>2026-04-26T12:02:01.626Z</time></trkpt><trkpt lat="40.0274417" lon="9.009385"><ele>515.0</ele><time>2026-04-26T12:02:02.57Z</time></trkpt><trkpt lat="40.027495" lon="9.0094783"><ele>515.0</ele><time>2026-04-26T12:02:03.566Z</time></trkpt><trkpt lat="40.027545" lon="9.0095733"><ele>515.0</ele><time>2026-04-26T12:02:04.565Z</time></trkpt><trkpt lat="40.0275967" lon="9.0096683"><ele>515.0</ele><time>2026-04-26T12:02:05.561Z</time></trkpt><trkpt lat="40.0276533" lon="9.0097633"><ele>516.3333333333333</ele><time>2026-04-26T12:02:06.568Z</time></trkpt><trkpt lat="40.0277133" lon="9.00986"><ele>517.6666666666666</ele><time>2026-04-26T12:02:07.582Z</time></trkpt><trkpt lat="40.0277783" lon="9.0099433"><ele>519.0</ele><time>2026-04-26T12:02:08.57Z</time></trkpt><trkpt lat="40.0278483" lon="9.0100167"><ele>520.3333333333334</ele><time>2026-04-26T12:02:09.564Z</time></trkpt><trkpt lat="40.0279183" lon="9.0100717"><ele>521.6666666666667</ele><time>2026-04-26T12:02:10.569Z</time></trkpt><trkpt lat="40.0279783" lon="9.0101183"><ele>523.0</ele><time>2026-04-26T12:02:11.571Z</time></trkpt><trkpt lat="40.02806" lon="9.0102267"><ele>524.4285714285713</ele><time>2026-04-26T12:02:13.578Z</time></trkpt><trkpt lat="40.0281" lon="9.0102983"><ele>525.8571428571429</ele><time>2026-04-26T12:02:14.563Z</time></trkpt><trkpt lat="40.02814" lon="9.0103817"><ele>527.2857142857142</ele><time>2026-04-26T12:02:15.573Z</time></trkpt><trkpt lat="40.0281817" lon="9.0104683"><ele>528.7142857142857</ele><time>2026-04-26T12:02:16.568Z</time></trkpt><trkpt lat="40.0282233" lon="9.010555"><ele>530.1428571428571</ele><time>2026-04-26T12:02:17.566Z</time></trkpt><trkpt lat="40.028265" lon="9.0106417"><ele>531.5714285714286</ele><time>2026-04-26T12:02:18.571Z</time></trkpt><trkpt lat="40.028305" lon="9.0107183"><ele>533.0</ele><time>2026-04-26T12:02:19.575Z</time></trkpt><trkpt lat="40.0283367" lon="9.01079"><ele>534.5</ele><time>2026-04-26T12:02:20.566Z</time></trkpt><trkpt lat="40.0284033" lon="9.0109067"><ele>536.0</ele><time>2026-04-26T12:02:22.574Z</time></trkpt><trkpt lat="40.0284483" lon="9.0109683"><ele>537.5</ele><time>2026-04-26T12:02:23.576Z</time></trkpt><trkpt lat="40.0285017" lon="9.0110383"><ele>539.0</ele><time>2026-04-26T12:02:24.562Z</time></trkpt><trkpt lat="40.02856" lon="9.0111133"><ele>540.5</ele><time>2026-04-26T12:02:25.64Z</time></trkpt><trkpt lat="40.0286283" lon="9.0112017"><ele>542.0</ele><time>2026-04-26T12:02:26.567Z</time></trkpt><trkpt lat="40.0287" lon="9.0112883"><ele>542.0</ele><time>2026-04-26T12:02:27.564Z</time></trkpt><trkpt lat="40.0287783" lon="9.0113783"><ele>542.0</ele><time>2026-04-26T12:02:28.56Z</time></trkpt><trkpt lat="40.0288533" lon="9.0114667"><ele>542.0</ele><time>2026-04-26T12:02:29.568Z</time></trkpt><trkpt lat="40.0289233" lon="9.0115567"><ele>542.0</ele><time>2026-04-26T12:02:30.563Z</time></trkpt><trkpt lat="40.02899" lon="9.0116433"><ele>542.0</ele><time>2026-04-26T12:02:31.623Z</time></trkpt><trkpt lat="40.029045" lon="9.0117283"><ele>540.8333333333333</ele><time>2026-04-26T12:02:32.561Z</time></trkpt><trkpt lat="40.029095" lon="9.0118183"><ele>539.6666666666666</ele><time>2026-04-26T12:02:33.571Z</time></trkpt><trkpt lat="40.0291467" lon="9.0119083"><ele>538.5</ele><time>2026-04-26T12:02:34.565Z</time></trkpt><trkpt lat="40.0291967" lon="9.011995"><ele>537.3333333333334</ele><time>2026-04-26T12:02:35.573Z</time></trkpt><trkpt lat="40.0292533" lon="9.0120767"><ele>536.1666666666667</ele><time>2026-04-26T12:02:36.565Z</time></trkpt><trkpt lat="40.02932" lon="9.0121433"><ele>535.0</ele><time>2026-04-26T12:02:37.576Z</time></trkpt><trkpt lat="40.0293967" lon="9.0121983"><ele>534.7142857142857</ele><time>2026-04-26T12:02:38.568Z</time></trkpt><trkpt lat="40.0294767" lon="9.012235"><ele>534.4285714285714</ele><time>2026-04-26T12:02:39.568Z</time></trkpt><trkpt lat="40.0295467" lon="9.0122717"><ele>534.1428571428571</ele><time>2026-04-26T12:02:40.576Z</time></trkpt><trkpt lat="40.0296067" lon="9.0123233"><ele>533.8571428571429</ele><time>2026-04-26T12:02:41.57Z</time></trkpt><trkpt lat="40.02966" lon="9.0123867"><ele>533.5714285714286</ele><time>2026-04-26T12:02:42.571Z</time></trkpt><trkpt lat="40.0297017" lon="9.01246"><ele>533.2857142857142</ele><time>2026-04-26T12:02:43.579Z</time></trkpt><trkpt lat="40.0297383" lon="9.0125367"><ele>533.0</ele><time>2026-04-26T12:02:44.57Z</time></trkpt><trkpt lat="40.0297767" lon="9.0126183"><ele>532.8333333333333</ele><time>2026-04-26T12:02:45.571Z</time></trkpt><trkpt lat="40.0298267" lon="9.012695"><ele>532.6666666666666</ele><time>2026-04-26T12:02:46.563Z</time></trkpt><trkpt lat="40.0298883" lon="9.0127517"><ele>532.5</ele><time>2026-04-26T12:02:47.564Z</time></trkpt><trkpt lat="40.0299633" lon="9.0127933"><ele>532.3333333333334</ele><time>2026-04-26T12:02:48.566Z</time></trkpt><trkpt lat="40.0300283" lon="9.0128333"><ele>532.1666666666667</ele><time>2026-04-26T12:02:49.582Z</time></trkpt><trkpt lat="40.030115" lon="9.0129167"><ele>532.0</ele><time>2026-04-26T12:02:51.565Z</time></trkpt><trkpt lat="40.0301883" lon="9.0129933"><ele>533.1666666666667</ele><time>2026-04-26T12:02:53.565Z</time></trkpt><trkpt lat="40.0302733" lon="9.013065"><ele>534.3333333333334</ele><time>2026-04-26T12:02:55.638Z</time></trkpt><trkpt lat="40.030365" lon="9.01316"><ele>535.5</ele><time>2026-04-26T12:02:57.561Z</time></trkpt><trkpt lat="40.0304117" lon="9.0132267"><ele>536.6666666666666</ele><time>2026-04-26T12:02:58.561Z</time></trkpt><trkpt lat="40.0304583" lon="9.0132983"><ele>537.8333333333333</ele><time>2026-04-26T12:02:59.567Z</time></trkpt><trkpt lat="40.0305017" lon="9.0133733"><ele>539.0</ele><time>2026-04-26T12:03:00.564Z</time></trkpt><trkpt lat="40.0305867" lon="9.0135333"><ele>539.5</ele><time>2026-04-26T12:03:02.561Z</time></trkpt><trkpt lat="40.030635" lon="9.013615"><ele>540.0</ele><time>2026-04-26T12:03:03.566Z</time></trkpt><trkpt lat="40.03087" lon="9.0140283"><ele>543.5</ele><time>2026-04-26T12:03:08.571Z</time></trkpt><trkpt lat="40.0309167" lon="9.01411"><ele>547.0</ele><time>2026-04-26T12:03:09.574Z</time></trkpt><trkpt lat="40.031145" lon="9.01455"><ele>547.0</ele><time>2026-04-26T12:03:14.565Z</time></trkpt><trkpt lat="40.0311867" lon="9.0146283"><ele>547.0</ele><time>2026-04-26T12:03:15.563Z</time></trkpt><trkpt lat="40.0314067" lon="9.0150117"><ele>547.0</ele><time>2026-04-26T12:03:20.561Z</time></trkpt><trkpt lat="40.0314483" lon="9.01509"><ele>548.0</ele><time>2026-04-26T12:03:21.561Z</time></trkpt><trkpt lat="40.0315933" lon="9.0153467"><ele>549.0</ele><time>2026-04-26T12:03:25.629Z</time></trkpt><trkpt lat="40.0318517" lon="9.0156983"><ele>549.5</ele><time>2026-04-26T12:03:31.624Z</time></trkpt><trkpt lat="40.031905" lon="9.0157533"><ele>550.0</ele><time>2026-04-26T12:03:32.565Z</time></trkpt><trkpt lat="40.0320483" lon="9.0158917"><ele>550.5</ele><time>2026-04-26T12:03:35.563Z</time></trkpt><trkpt lat="40.0321567" lon="9.0159917"><ele>551.0</ele><time>2026-04-26T12:03:37.575Z</time></trkpt><trkpt lat="40.032475" lon="9.01627"><ele>551.0</ele><time>2026-04-26T12:03:43.577Z</time></trkpt><trkpt lat="40.0326533" lon="9.0164383"><ele>551.0</ele><time>2026-04-26T12:03:47.575Z</time></trkpt><trkpt lat="40.0326983" lon="9.0164983"><ele>551.0</ele><time>2026-04-26T12:03:48.553Z</time></trkpt><trkpt lat="40.0328667" lon="9.0167567"><ele>549.0</ele><time>2026-04-26T12:03:52.565Z</time></trkpt><trkpt lat="40.0329583" lon="9.0169383"><ele>547.0</ele><time>2026-04-26T12:03:55.633Z</time></trkpt><trkpt lat="40.0330083" lon="9.01707"><ele>545.0</ele><time>2026-04-26T12:03:57.561Z</time></trkpt><trkpt lat="40.0331033" lon="9.0172883"><ele>544.3333333333333</ele><time>2026-04-26T12:04:00.559Z</time></trkpt><trkpt lat="40.0332383" lon="9.0176583"><ele>543.6666666666666</ele><time>2026-04-26T12:04:05.564Z</time></trkpt><trkpt lat="40.0332967" lon="9.01781"><ele>543.0</ele><time>2026-04-26T12:04:07.583Z</time></trkpt><trkpt lat="40.0333733" lon="9.0180417"><ele>533.5</ele><time>2026-04-26T12:04:10.562Z</time></trkpt><trkpt lat="40.033495" lon="9.0184583"><ele>524.0</ele><time>2026-04-26T12:04:16.562Z</time></trkpt><trkpt lat="40.033605" lon="9.018835"><ele>521.0</ele><time>2026-04-26T12:04:21.564Z</time></trkpt><trkpt lat="40.0337383" lon="9.0192267"><ele>518.0</ele><time>2026-04-26T12:04:26.566Z</time></trkpt><trkpt lat="40.03376" lon="9.0193133"><ele>515.0</ele><time>2026-04-26T12:04:27.566Z</time></trkpt><trkpt lat="40.0338433" lon="9.0196883"><ele>515.0</ele><time>2026-04-26T12:04:31.639Z</time></trkpt><trkpt lat="40.0338633" lon="9.019795"><ele>515.0</ele><time>2026-04-26T12:04:32.561Z</time></trkpt><trkpt lat="40.03391" lon="9.0202667"><ele>515.0</ele><time>2026-04-26T12:04:37.577Z</time></trkpt><trkpt lat="40.0339717" lon="9.0206667"><ele>512.3333333333333</ele><time>2026-04-26T12:04:42.561Z</time></trkpt><trkpt lat="40.0339917" lon="9.0208883"><ele>509.66666666666663</ele><time>2026-04-26T12:04:46.559Z</time></trkpt><trkpt lat="40.0339867" lon="9.02117"><ele>507.0</ele><time>2026-04-26T12:04:52.567Z</time></trkpt><trkpt lat="40.033975" lon="9.0215767"><ele>505.5</ele><time>2026-04-26T12:04:57.562Z</time></trkpt><trkpt lat="40.0339433" lon="9.0219783"><ele>504.0</ele><time>2026-04-26T12:05:02.558Z</time></trkpt><trkpt lat="40.0339367" lon="9.0222717"><ele>504.0</ele><time>2026-04-26T12:05:06.558Z</time></trkpt><trkpt lat="40.0339967" lon="9.02246"><ele>504.0</ele><time>2026-04-26T12:05:10.567Z</time></trkpt><trkpt lat="40.0342017" lon="9.0227967"><ele>504.0</ele><time>2026-04-26T12:05:19.588Z</time></trkpt><trkpt lat="40.03428" lon="9.0228967"><ele>504.0</ele><time>2026-04-26T12:05:22.564Z</time></trkpt><trkpt lat="40.034345" lon="9.023005"><ele>504.0</ele><time>2026-04-26T12:05:25.618Z</time></trkpt><trkpt lat="40.0345067" lon="9.023135"><ele>504.0</ele><time>2026-04-26T12:05:29.56Z</time></trkpt><trkpt lat="40.034695" lon="9.0232083"><ele>504.0</ele><time>2026-04-26T12:05:33.563Z</time></trkpt><trkpt lat="40.03484" lon="9.0232433"><ele>504.0</ele><time>2026-04-26T12:05:36.568Z</time></trkpt><trkpt lat="40.0349867" lon="9.0232583"><ele>504.0</ele><time>2026-04-26T12:05:39.564Z</time></trkpt><trkpt lat="40.0352017" lon="9.0232783"><ele>503.66666666666663</ele><time>2026-04-26T12:05:43.58Z</time></trkpt><trkpt lat="40.0352667" lon="9.02329"><ele>503.3333333333333</ele><time>2026-04-26T12:05:44.559Z</time></trkpt><trkpt lat="40.0354833" lon="9.0233433"><ele>503.0</ele><time>2026-04-26T12:05:47.563Z</time></trkpt><trkpt lat="40.0357067" lon="9.0234417"><ele>500.0</ele><time>2026-04-26T12:05:50.567Z</time></trkpt><trkpt lat="40.03578" lon="9.0234817"><ele>497.0</ele><time>2026-04-26T12:05:51.561Z</time></trkpt><trkpt lat="40.0359133" lon="9.0235683"><ele>494.0</ele><time>2026-04-26T12:05:53.564Z</time></trkpt><trkpt lat="40.03597" lon="9.023605"><ele>491.0</ele><time>2026-04-26T12:05:54.564Z</time></trkpt><trkpt lat="40.03615" lon="9.0236967"><ele>491.0</ele><time>2026-04-26T12:05:57.565Z</time></trkpt><trkpt lat="40.0363417" lon="9.0237783"><ele>491.0</ele><time>2026-04-26T12:06:00.559Z</time></trkpt><trkpt lat="40.036465" lon="9.0238433"><ele>491.0</ele><time>2026-04-26T12:06:02.554Z</time></trkpt><trkpt lat="40.0366417" lon="9.0239333"><ele>492.3333333333333</ele><time>2026-04-26T12:06:05.556Z</time></trkpt><trkpt lat="40.0368583" lon="9.02407"><ele>493.66666666666663</ele><time>2026-04-26T12:06:09.562Z</time></trkpt><trkpt lat="40.0369967" lon="9.0241983"><ele>495.0</ele><time>2026-04-26T12:06:12.559Z</time></trkpt><trkpt lat="40.0370817" lon="9.0242933"><ele>492.75</ele><time>2026-04-26T12:06:14.561Z</time></trkpt><trkpt lat="40.0371933" lon="9.02441"><ele>490.5</ele><time>2026-04-26T12:06:16.568Z</time></trkpt><trkpt lat="40.0372517" lon="9.0244717"><ele>488.25</ele><time>2026-04-26T12:06:17.56Z</time></trkpt><trkpt lat="40.0373683" lon="9.0245983"><ele>486.0</ele><time>2026-04-26T12:06:19.577Z</time></trkpt><trkpt lat="40.0375933" lon="9.0248333"><ele>483.0</ele><time>2026-04-26T12:06:23.564Z</time></trkpt><trkpt lat="40.0377567" lon="9.0250033"><ele>480.0</ele><time>2026-04-26T12:06:26.562Z</time></trkpt><trkpt lat="40.0379067" lon="9.02517"><ele>477.0</ele><time>2026-04-26T12:06:29.56Z</time></trkpt><trkpt lat="40.0381033" lon="9.0253883"><ele>477.0</ele><time>2026-04-26T12:06:33.564Z</time></trkpt><trkpt lat="40.0382" lon="9.0255067"><ele>477.0</ele><time>2026-04-26T12:06:35.575Z</time></trkpt><trkpt lat="40.03831" lon="9.0256717"><ele>477.0</ele><time>2026-04-26T12:06:39.558Z</time></trkpt><trkpt lat="40.0386217" lon="9.0258433"><ele>477.0</ele><time>2026-04-26T12:06:50.57Z</time></trkpt><trkpt lat="40.0386983" lon="9.0258533"><ele>477.00000000000006</ele><time>2026-04-26T12:06:51.555Z</time></trkpt><trkpt lat="40.0387767" lon="9.025885"><ele>477.00000000000006</ele><time>2026-04-26T12:06:52.562Z</time></trkpt><trkpt lat="40.0388567" lon="9.0259383"><ele>477.0</ele><time>2026-04-26T12:06:53.564Z</time></trkpt><trkpt lat="40.0389467" lon="9.0260067"><ele>477.0</ele><time>2026-04-26T12:06:54.556Z</time></trkpt><trkpt lat="40.0390433" lon="9.026075"><ele>478.5</ele><time>2026-04-26T12:06:55.617Z</time></trkpt><trkpt lat="40.039145" lon="9.0261467"><ele>480.0</ele><time>2026-04-26T12:06:56.562Z</time></trkpt><trkpt lat="40.0392483" lon="9.0262217"><ele>481.5</ele><time>2026-04-26T12:06:57.569Z</time></trkpt><trkpt lat="40.0393517" lon="9.0262883"><ele>483.0</ele><time>2026-04-26T12:06:58.553Z</time></trkpt><trkpt lat="40.03945" lon="9.0263533"><ele>483.0</ele><time>2026-04-26T12:06:59.562Z</time></trkpt><trkpt lat="40.0395517" lon="9.0264183"><ele>483.0</ele><time>2026-04-26T12:07:00.559Z</time></trkpt><trkpt lat="40.0396517" lon="9.0264883"><ele>483.0</ele><time>2026-04-26T12:07:01.62Z</time></trkpt><trkpt lat="40.0397567" lon="9.0265617"><ele>483.0</ele><time>2026-04-26T12:07:02.557Z</time></trkpt><trkpt lat="40.03986" lon="9.026635"><ele>484.0</ele><time>2026-04-26T12:07:03.562Z</time></trkpt><trkpt lat="40.039965" lon="9.0267117"><ele>485.0</ele><time>2026-04-26T12:07:04.561Z</time></trkpt><trkpt lat="40.04007" lon="9.02679"><ele>486.0</ele><time>2026-04-26T12:07:05.562Z</time></trkpt><trkpt lat="40.040175" lon="9.0268667"><ele>487.0</ele><time>2026-04-26T12:07:06.562Z</time></trkpt><trkpt lat="40.0402783" lon="9.0269417"><ele>487.0</ele><time>2026-04-26T12:07:07.584Z</time></trkpt><trkpt lat="40.0403817" lon="9.0270133"><ele>487.0</ele><time>2026-04-26T12:07:08.558Z</time></trkpt><trkpt lat="40.0404867" lon="9.027085"><ele>487.0</ele><time>2026-04-26T12:07:09.56Z</time></trkpt><trkpt lat="40.0405917" lon="9.0271583"><ele>487.0</ele><time>2026-04-26T12:07:10.558Z</time></trkpt><trkpt lat="40.0406983" lon="9.02724"><ele>486.25</ele><time>2026-04-26T12:07:11.562Z</time></trkpt><trkpt lat="40.04081" lon="9.0273317"><ele>485.5</ele><time>2026-04-26T12:07:12.56Z</time></trkpt><trkpt lat="40.0409183" lon="9.0274333"><ele>484.75</ele><time>2026-04-26T12:07:13.588Z</time></trkpt><trkpt lat="40.0410283" lon="9.02755"><ele>484.0</ele><time>2026-04-26T12:07:14.567Z</time></trkpt><trkpt lat="40.0411383" lon="9.0276733"><ele>484.0</ele><time>2026-04-26T12:07:15.557Z</time></trkpt><trkpt lat="40.0412467" lon="9.027805"><ele>484.0</ele><time>2026-04-26T12:07:16.557Z</time></trkpt><trkpt lat="40.0413583" lon="9.0279433"><ele>484.0</ele><time>2026-04-26T12:07:17.567Z</time></trkpt><trkpt lat="40.0414717" lon="9.0280833"><ele>484.0</ele><time>2026-04-26T12:07:18.559Z</time></trkpt><trkpt lat="40.0415867" lon="9.0282267"><ele>484.0</ele><time>2026-04-26T12:07:19.581Z</time></trkpt><trkpt lat="40.0417033" lon="9.0283733"><ele>484.0</ele><time>2026-04-26T12:07:20.559Z</time></trkpt><trkpt lat="40.0418217" lon="9.028525"><ele>486.0</ele><time>2026-04-26T12:07:21.556Z</time></trkpt><trkpt lat="40.0419383" lon="9.02868"><ele>488.0</ele><time>2026-04-26T12:07:22.557Z</time></trkpt><trkpt lat="40.0420433" lon="9.028835"><ele>490.0</ele><time>2026-04-26T12:07:23.556Z</time></trkpt><trkpt lat="40.04214" lon="9.028995"><ele>490.0</ele><time>2026-04-26T12:07:24.564Z</time></trkpt><trkpt lat="40.04223" lon="9.029165"><ele>490.0</ele><time>2026-04-26T12:07:25.622Z</time></trkpt><trkpt lat="40.0423133" lon="9.0293333"><ele>490.0</ele><time>2026-04-26T12:07:26.556Z</time></trkpt><trkpt lat="40.0423933" lon="9.0294983"><ele>491.0</ele><time>2026-04-26T12:07:27.558Z</time></trkpt><trkpt lat="40.0424733" lon="9.0296517"><ele>492.0</ele><time>2026-04-26T12:07:28.562Z</time></trkpt><trkpt lat="40.0425533" lon="9.0297917"><ele>493.0</ele><time>2026-04-26T12:07:29.56Z</time></trkpt><trkpt lat="40.04264" lon="9.0299183"><ele>494.0</ele><time>2026-04-26T12:07:30.561Z</time></trkpt><trkpt lat="40.0427383" lon="9.0300217"><ele>494.0</ele><time>2026-04-26T12:07:31.628Z</time></trkpt><trkpt lat="40.0428617" lon="9.0300633"><ele>494.0</ele><time>2026-04-26T12:07:32.56Z</time></trkpt><trkpt lat="40.0429967" lon="9.030065"><ele>494.0</ele><time>2026-04-26T12:07:33.564Z</time></trkpt><trkpt lat="40.0431333" lon="9.03003"><ele>494.0</ele><time>2026-04-26T12:07:34.567Z</time></trkpt><trkpt lat="40.0432567" lon="9.029935"><ele>500.25</ele><time>2026-04-26T12:07:35.56Z</time></trkpt><trkpt lat="40.0433767" lon="9.0298267"><ele>506.5</ele><time>2026-04-26T12:07:36.559Z</time></trkpt><trkpt lat="40.0435033" lon="9.0297283"><ele>512.75</ele><time>2026-04-26T12:07:37.586Z</time></trkpt><trkpt lat="40.04364" lon="9.0296583"><ele>519.0</ele><time>2026-04-26T12:07:38.558Z</time></trkpt><trkpt lat="40.0437883" lon="9.029625"><ele>519.0</ele><time>2026-04-26T12:07:39.562Z</time></trkpt><trkpt lat="40.04394" lon="9.0296167"><ele>519.0</ele><time>2026-04-26T12:07:40.556Z</time></trkpt><trkpt lat="40.0440917" lon="9.0296417"><ele>519.0</ele><time>2026-04-26T12:07:41.56Z</time></trkpt><trkpt lat="40.04424" lon="9.02968"><ele>516.3333333333334</ele><time>2026-04-26T12:07:42.559Z</time></trkpt><trkpt lat="40.04439" lon="9.02973"><ele>513.6666666666667</ele><time>2026-04-26T12:07:43.589Z</time></trkpt><trkpt lat="40.04454" lon="9.029785"><ele>511.0</ele><time>2026-04-26T12:07:44.56Z</time></trkpt><trkpt lat="40.0446933" lon="9.0298383"><ele>511.0</ele><time>2026-04-26T12:07:45.563Z</time></trkpt><trkpt lat="40.0448533" lon="9.0298917"><ele>511.0</ele><time>2026-04-26T12:07:46.558Z</time></trkpt><trkpt lat="40.0450117" lon="9.0299417"><ele>511.0</ele><time>2026-04-26T12:07:47.555Z</time></trkpt><trkpt lat="40.0451733" lon="9.02999"><ele>506.0</ele><time>2026-04-26T12:07:48.563Z</time></trkpt><trkpt lat="40.0453367" lon="9.0300367"><ele>501.0</ele><time>2026-04-26T12:07:49.592Z</time></trkpt><trkpt lat="40.0454967" lon="9.0300817"><ele>496.0</ele><time>2026-04-26T12:07:50.557Z</time></trkpt><trkpt lat="40.045665" lon="9.030125"><ele>497.33333333333337</ele><time>2026-04-26T12:07:51.564Z</time></trkpt><trkpt lat="40.0458333" lon="9.0301583"><ele>498.66666666666663</ele><time>2026-04-26T12:07:52.557Z</time></trkpt><trkpt lat="40.0460033" lon="9.0301833"><ele>500.0</ele><time>2026-04-26T12:07:53.558Z</time></trkpt><trkpt lat="40.0461733" lon="9.0301967"><ele>500.0</ele><time>2026-04-26T12:07:54.568Z</time></trkpt><trkpt lat="40.04635" lon="9.0301983"><ele>500.0</ele><time>2026-04-26T12:07:55.617Z</time></trkpt><trkpt lat="40.0465217" lon="9.0301983"><ele>500.0</ele><time>2026-04-26T12:07:56.556Z</time></trkpt><trkpt lat="40.0466817" lon="9.0302017"><ele>499.75</ele><time>2026-04-26T12:07:57.558Z</time></trkpt><trkpt lat="40.0468317" lon="9.0302167"><ele>499.5</ele><time>2026-04-26T12:07:58.559Z</time></trkpt><trkpt lat="40.04697" lon="9.0302533"><ele>499.25</ele><time>2026-04-26T12:07:59.558Z</time></trkpt><trkpt lat="40.047095" lon="9.0303417"><ele>499.0</ele><time>2026-04-26T12:08:00.558Z</time></trkpt><trkpt lat="40.0472083" lon="9.0304683"><ele>499.0</ele><time>2026-04-26T12:08:01.616Z</time></trkpt><trkpt lat="40.0473133" lon="9.0306233"><ele>499.0</ele><time>2026-04-26T12:08:02.558Z</time></trkpt><trkpt lat="40.0474233" lon="9.03079"><ele>499.0</ele><time>2026-04-26T12:08:03.563Z</time></trkpt><trkpt lat="40.0475317" lon="9.0309533"><ele>500.33333333333337</ele><time>2026-04-26T12:08:04.554Z</time></trkpt><trkpt lat="40.0476533" lon="9.0310983"><ele>501.66666666666663</ele><time>2026-04-26T12:08:05.558Z</time></trkpt><trkpt lat="40.0477867" lon="9.0312217"><ele>503.0</ele><time>2026-04-26T12:08:06.558Z</time></trkpt><trkpt lat="40.0479367" lon="9.0313083"><ele>503.0</ele><time>2026-04-26T12:08:07.598Z</time></trkpt><trkpt lat="40.0481017" lon="9.03136"><ele>503.0</ele><time>2026-04-26T12:08:08.558Z</time></trkpt><trkpt lat="40.0482767" lon="9.0314"><ele>503.0</ele><time>2026-04-26T12:08:09.563Z</time></trkpt><trkpt lat="40.04846" lon="9.0314383"><ele>503.66666666666663</ele><time>2026-04-26T12:08:10.559Z</time></trkpt><trkpt lat="40.04864" lon="9.0314733"><ele>504.33333333333337</ele><time>2026-04-26T12:08:11.56Z</time></trkpt><trkpt lat="40.0488133" lon="9.0315133"><ele>505.0</ele><time>2026-04-26T12:08:12.558Z</time></trkpt><trkpt lat="40.04899" lon="9.03156"><ele>505.33333333333337</ele><time>2026-04-26T12:08:13.589Z</time></trkpt><trkpt lat="40.049155" lon="9.03161"><ele>505.66666666666663</ele><time>2026-04-26T12:08:14.555Z</time></trkpt><trkpt lat="40.049305" lon="9.0316567"><ele>506.0</ele><time>2026-04-26T12:08:15.557Z</time></trkpt><trkpt lat="40.049445" lon="9.0317017"><ele>504.75</ele><time>2026-04-26T12:08:16.558Z</time></trkpt><trkpt lat="40.0495767" lon="9.0317367"><ele>503.5</ele><time>2026-04-26T12:08:17.561Z</time></trkpt><trkpt lat="40.0497033" lon="9.0317733"><ele>502.25</ele><time>2026-04-26T12:08:18.557Z</time></trkpt><trkpt lat="40.0498317" lon="9.0318083"><ele>501.0</ele><time>2026-04-26T12:08:19.591Z</time></trkpt><trkpt lat="40.0499617" lon="9.031845"><ele>501.0</ele><time>2026-04-26T12:08:20.556Z</time></trkpt><trkpt lat="40.0500933" lon="9.0318783"><ele>501.0</ele><time>2026-04-26T12:08:21.561Z</time></trkpt><trkpt lat="40.050225" lon="9.0318983"><ele>501.0</ele><time>2026-04-26T12:08:22.564Z</time></trkpt><trkpt lat="40.05036" lon="9.03191"><ele>501.0</ele><time>2026-04-26T12:08:23.56Z</time></trkpt><trkpt lat="40.05051" lon="9.0319183"><ele>501.0</ele><time>2026-04-26T12:08:24.567Z</time></trkpt><trkpt lat="40.0506683" lon="9.0319283"><ele>501.0</ele><time>2026-04-26T12:08:25.618Z</time></trkpt><trkpt lat="40.050825" lon="9.031935"><ele>501.0</ele><time>2026-04-26T12:08:26.556Z</time></trkpt><trkpt lat="40.0509817" lon="9.0319483"><ele>502.66666666666663</ele><time>2026-04-26T12:08:27.569Z</time></trkpt><trkpt lat="40.05114" lon="9.03198"><ele>504.3333333333333</ele><time>2026-04-26T12:08:28.562Z</time></trkpt><trkpt lat="40.0513017" lon="9.032035"><ele>506.0</ele><time>2026-04-26T12:08:29.558Z</time></trkpt><trkpt lat="40.0514567" lon="9.0321167"><ele>506.0</ele><time>2026-04-26T12:08:30.561Z</time></trkpt><trkpt lat="40.0516033" lon="9.0322183"><ele>506.0</ele><time>2026-04-26T12:08:31.619Z</time></trkpt><trkpt lat="40.0517417" lon="9.0323383"><ele>506.0</ele><time>2026-04-26T12:08:32.563Z</time></trkpt><trkpt lat="40.0518817" lon="9.0324617"><ele>505.0</ele><time>2026-04-26T12:08:33.56Z</time></trkpt><trkpt lat="40.0520233" lon="9.03258"><ele>504.0</ele><time>2026-04-26T12:08:34.557Z</time></trkpt><trkpt lat="40.0521667" lon="9.0326917"><ele>503.0</ele><time>2026-04-26T12:08:35.562Z</time></trkpt><trkpt lat="40.05231" lon="9.03279"><ele>506.3333333333333</ele><time>2026-04-26T12:08:36.561Z</time></trkpt><trkpt lat="40.05246" lon="9.032865"><ele>509.66666666666663</ele><time>2026-04-26T12:08:37.594Z</time></trkpt><trkpt lat="40.0526183" lon="9.0329167"><ele>513.0</ele><time>2026-04-26T12:08:38.554Z</time></trkpt><trkpt lat="40.0527783" lon="9.0329483"><ele>513.0</ele><time>2026-04-26T12:08:39.559Z</time></trkpt><trkpt lat="40.0529383" lon="9.0329667"><ele>513.0</ele><time>2026-04-26T12:08:40.561Z</time></trkpt><trkpt lat="40.0530883" lon="9.0329883"><ele>513.0</ele><time>2026-04-26T12:08:41.569Z</time></trkpt><trkpt lat="40.0532333" lon="9.033035"><ele>515.3333333333334</ele><time>2026-04-26T12:08:42.562Z</time></trkpt><trkpt lat="40.0533717" lon="9.0331133"><ele>517.6666666666667</ele><time>2026-04-26T12:08:43.588Z</time></trkpt><trkpt lat="40.0535033" lon="9.0332167"><ele>520.0</ele><time>2026-04-26T12:08:44.555Z</time></trkpt><trkpt lat="40.0536317" lon="9.0333417"><ele>515.0</ele><time>2026-04-26T12:08:45.555Z</time></trkpt><trkpt lat="40.0537583" lon="9.03347"><ele>510.0</ele><time>2026-04-26T12:08:46.557Z</time></trkpt><trkpt lat="40.0538883" lon="9.0336017"><ele>505.0</ele><time>2026-04-26T12:08:47.559Z</time></trkpt><trkpt lat="40.0540233" lon="9.0337317"><ele>505.33333333333337</ele><time>2026-04-26T12:08:48.556Z</time></trkpt><trkpt lat="40.0541617" lon="9.0338633"><ele>505.66666666666663</ele><time>2026-04-26T12:08:49.59Z</time></trkpt><trkpt lat="40.0543033" lon="9.0339983"><ele>506.0</ele><time>2026-04-26T12:08:50.561Z</time></trkpt><trkpt lat="40.0544433" lon="9.0341433"><ele>506.0</ele><time>2026-04-26T12:08:51.562Z</time></trkpt><trkpt lat="40.054585" lon="9.0342883"><ele>506.0</ele><time>2026-04-26T12:08:52.554Z</time></trkpt><trkpt lat="40.054725" lon="9.0344267"><ele>506.0</ele><time>2026-04-26T12:08:53.563Z</time></trkpt><trkpt lat="40.0548633" lon="9.0345567"><ele>509.0</ele><time>2026-04-26T12:08:54.561Z</time></trkpt><trkpt lat="40.0550083" lon="9.03466"><ele>512.0</ele><time>2026-04-26T12:08:55.618Z</time></trkpt><trkpt lat="40.0551633" lon="9.03473"><ele>515.0</ele><time>2026-04-26T12:08:56.557Z</time></trkpt><trkpt lat="40.0553333" lon="9.0347533"><ele>515.0</ele><time>2026-04-26T12:08:57.554Z</time></trkpt><trkpt lat="40.055515" lon="9.0347483"><ele>515.0</ele><time>2026-04-26T12:08:58.558Z</time></trkpt><trkpt lat="40.0557033" lon="9.03473"><ele>515.0</ele><time>2026-04-26T12:08:59.559Z</time></trkpt><trkpt lat="40.0558917" lon="9.0347083"><ele>516.6666666666666</ele><time>2026-04-26T12:09:00.553Z</time></trkpt><trkpt lat="40.056085" lon="9.03469"><ele>518.3333333333334</ele><time>2026-04-26T12:09:01.621Z</time></trkpt><trkpt lat="40.05628" lon="9.034675"><ele>520.0</ele><time>2026-04-26T12:09:02.559Z</time></trkpt><trkpt lat="40.0564783" lon="9.0346617"><ele>523.0</ele><time>2026-04-26T12:09:03.559Z</time></trkpt><trkpt lat="40.05668" lon="9.0346533"><ele>526.0</ele><time>2026-04-26T12:09:04.553Z</time></trkpt><trkpt lat="40.0568817" lon="9.0346467"><ele>529.0</ele><time>2026-04-26T12:09:05.564Z</time></trkpt><trkpt lat="40.0570817" lon="9.0346383"><ele>529.0</ele><time>2026-04-26T12:09:06.559Z</time></trkpt><trkpt lat="40.0572833" lon="9.0346283"><ele>529.0</ele><time>2026-04-26T12:09:07.587Z</time></trkpt><trkpt lat="40.0574833" lon="9.0346233"><ele>529.0</ele><time>2026-04-26T12:09:08.566Z</time></trkpt><trkpt lat="40.0576717" lon="9.0346167"><ele>528.6666666666667</ele><time>2026-04-26T12:09:09.558Z</time></trkpt><trkpt lat="40.0578483" lon="9.03461"><ele>528.3333333333334</ele><time>2026-04-26T12:09:10.559Z</time></trkpt><trkpt lat="40.05801" lon="9.034605"><ele>528.0</ele><time>2026-04-26T12:09:11.56Z</time></trkpt><trkpt lat="40.0581633" lon="9.0346"><ele>527.75</ele><time>2026-04-26T12:09:12.557Z</time></trkpt><trkpt lat="40.058315" lon="9.0345983"><ele>527.5</ele><time>2026-04-26T12:09:13.595Z</time></trkpt><trkpt lat="40.0584583" lon="9.0346033"><ele>527.25</ele><time>2026-04-26T12:09:14.558Z</time></trkpt><trkpt lat="40.0585917" lon="9.0346333"><ele>527.0</ele><time>2026-04-26T12:09:15.557Z</time></trkpt><trkpt lat="40.05871" lon="9.03468"><ele>527.0</ele><time>2026-04-26T12:09:16.557Z</time></trkpt><trkpt lat="40.0588283" lon="9.0347517"><ele>527.0</ele><time>2026-04-26T12:09:17.56Z</time></trkpt><trkpt lat="40.058945" lon="9.0348433"><ele>527.0</ele><time>2026-04-26T12:09:18.564Z</time></trkpt><trkpt lat="40.0590517" lon="9.0349533"><ele>527.0</ele><time>2026-04-26T12:09:19.592Z</time></trkpt><trkpt lat="40.059145" lon="9.0350767"><ele>524.5</ele><time>2026-04-26T12:09:20.557Z</time></trkpt><trkpt lat="40.059225" lon="9.0352083"><ele>522.0</ele><time>2026-04-26T12:09:21.557Z</time></trkpt><trkpt lat="40.0593" lon="9.0353467"><ele>519.5</ele><time>2026-04-26T12:09:22.561Z</time></trkpt><trkpt lat="40.0593833" lon="9.0354817"><ele>517.0</ele><time>2026-04-26T12:09:23.564Z</time></trkpt><trkpt lat="40.0594733" lon="9.0356"><ele>517.0</ele><time>2026-04-26T12:09:24.564Z</time></trkpt><trkpt lat="40.05956" lon="9.0357033"><ele>517.0</ele><time>2026-04-26T12:09:25.632Z</time></trkpt><trkpt lat="40.05965" lon="9.03579"><ele>517.0</ele><time>2026-04-26T12:09:26.563Z</time></trkpt><trkpt lat="40.0597533" lon="9.03586"><ele>517.0</ele><time>2026-04-26T12:09:27.563Z</time></trkpt><trkpt lat="40.059865" lon="9.0359133"><ele>517.75</ele><time>2026-04-26T12:09:28.561Z</time></trkpt><trkpt lat="40.05998" lon="9.0359583"><ele>518.5</ele><time>2026-04-26T12:09:29.554Z</time></trkpt><trkpt lat="40.0600983" lon="9.035995"><ele>519.25</ele><time>2026-04-26T12:09:30.561Z</time></trkpt><trkpt lat="40.0602133" lon="9.0360317"><ele>520.0</ele><time>2026-04-26T12:09:31.625Z</time></trkpt><trkpt lat="40.0603233" lon="9.0360717"><ele>520.0</ele><time>2026-04-26T12:09:32.554Z</time></trkpt><trkpt lat="40.06043" lon="9.0361183"><ele>520.0</ele><time>2026-04-26T12:09:33.564Z</time></trkpt><trkpt lat="40.0605317" lon="9.0361583"><ele>520.0</ele><time>2026-04-26T12:09:34.562Z</time></trkpt><trkpt lat="40.0606233" lon="9.0361967"><ele>520.0</ele><time>2026-04-26T12:09:35.56Z</time></trkpt><trkpt lat="40.0607033" lon="9.0362383"><ele>520.0</ele><time>2026-04-26T12:09:36.554Z</time></trkpt><trkpt lat="40.0607717" lon="9.0362817"><ele>520.4</ele><time>2026-04-26T12:09:37.599Z</time></trkpt><trkpt lat="40.0608483" lon="9.036385"><ele>520.8</ele><time>2026-04-26T12:09:39.562Z</time></trkpt><trkpt lat="40.0608667" lon="9.0365133"><ele>521.2</ele><time>2026-04-26T12:09:41.562Z</time></trkpt><trkpt lat="40.06086" lon="9.0366017"><ele>521.6</ele><time>2026-04-26T12:09:42.562Z</time></trkpt><trkpt lat="40.0608383" lon="9.03671"><ele>522.0</ele><time>2026-04-26T12:09:43.588Z</time></trkpt><trkpt lat="40.060805" lon="9.0368267"><ele>522.0</ele><time>2026-04-26T12:09:44.56Z</time></trkpt><trkpt lat="40.0607717" lon="9.0369467"><ele>522.0</ele><time>2026-04-26T12:09:45.564Z</time></trkpt><trkpt lat="40.0607483" lon="9.0370783"><ele>522.0</ele><time>2026-04-26T12:09:46.562Z</time></trkpt><trkpt lat="40.0607417" lon="9.0372183"><ele>522.0</ele><time>2026-04-26T12:09:47.562Z</time></trkpt><trkpt lat="40.0607517" lon="9.03736"><ele>522.0</ele><time>2026-04-26T12:09:48.559Z</time></trkpt><trkpt lat="40.0607833" lon="9.0375033"><ele>521.75</ele><time>2026-04-26T12:09:49.589Z</time></trkpt><trkpt lat="40.060835" lon="9.0376417"><ele>521.5</ele><time>2026-04-26T12:09:50.563Z</time></trkpt><trkpt lat="40.0609033" lon="9.03777"><ele>521.25</ele><time>2026-04-26T12:09:51.556Z</time></trkpt><trkpt lat="40.0609783" lon="9.0379"><ele>521.0</ele><time>2026-04-26T12:09:52.565Z</time></trkpt><trkpt lat="40.0610617" lon="9.0380317"><ele>521.0</ele><time>2026-04-26T12:09:53.56Z</time></trkpt><trkpt lat="40.0611417" lon="9.0381667"><ele>521.0</ele><time>2026-04-26T12:09:54.566Z</time></trkpt><trkpt lat="40.06122" lon="9.0383"><ele>521.0</ele><time>2026-04-26T12:09:55.62Z</time></trkpt><trkpt lat="40.0612983" lon="9.0384317"><ele>521.0</ele><time>2026-04-26T12:09:56.562Z</time></trkpt><trkpt lat="40.0613767" lon="9.0385617"><ele>520.75</ele><time>2026-04-26T12:09:57.564Z</time></trkpt><trkpt lat="40.0614533" lon="9.038695"><ele>520.5</ele><time>2026-04-26T12:09:58.564Z</time></trkpt><trkpt lat="40.0615283" lon="9.0388283"><ele>520.25</ele><time>2026-04-26T12:09:59.562Z</time></trkpt><trkpt lat="40.0615867" lon="9.0389733"><ele>520.0</ele><time>2026-04-26T12:10:00.564Z</time></trkpt><trkpt lat="40.0616283" lon="9.0391267"><ele>521.5</ele><time>2026-04-26T12:10:01.614Z</time></trkpt><trkpt lat="40.0616467" lon="9.0392883"><ele>523.0</ele><time>2026-04-26T12:10:02.566Z</time></trkpt><trkpt lat="40.0616483" lon="9.0394667"><ele>524.5</ele><time>2026-04-26T12:10:03.562Z</time></trkpt><trkpt lat="40.0616467" lon="9.03965"><ele>526.0</ele><time>2026-04-26T12:10:04.565Z</time></trkpt><trkpt lat="40.061645" lon="9.0398333"><ele>527.25</ele><time>2026-04-26T12:10:05.559Z</time></trkpt><trkpt lat="40.0616433" lon="9.0400217"><ele>528.5</ele><time>2026-04-26T12:10:06.563Z</time></trkpt><trkpt lat="40.0616383" lon="9.0402017"><ele>529.75</ele><time>2026-04-26T12:10:07.589Z</time></trkpt><trkpt lat="40.0616167" lon="9.0403733"><ele>531.0</ele><time>2026-04-26T12:10:08.557Z</time></trkpt><trkpt lat="40.0615767" lon="9.0405383"><ele>535.75</ele><time>2026-04-26T12:10:09.563Z</time></trkpt><trkpt lat="40.0615133" lon="9.040695"><ele>540.5</ele><time>2026-04-26T12:10:10.565Z</time></trkpt><trkpt lat="40.061425" lon="9.0408333"><ele>545.25</ele><time>2026-04-26T12:10:11.557Z</time></trkpt><trkpt lat="40.061325" lon="9.0409617"><ele>550.0</ele><time>2026-04-26T12:10:12.558Z</time></trkpt><trkpt lat="40.061235" lon="9.0410883"><ele>550.25</ele><time>2026-04-26T12:10:13.586Z</time></trkpt><trkpt lat="40.0611683" lon="9.0412283"><ele>550.5</ele><time>2026-04-26T12:10:14.56Z</time></trkpt><trkpt lat="40.061125" lon="9.0413833"><ele>550.75</ele><time>2026-04-26T12:10:15.559Z</time></trkpt><trkpt lat="40.0610933" lon="9.0415483"><ele>551.0</ele><time>2026-04-26T12:10:16.562Z</time></trkpt><trkpt lat="40.0610917" lon="9.0417267"><ele>551.0</ele><time>2026-04-26T12:10:17.558Z</time></trkpt><trkpt lat="40.0611" lon="9.04192"><ele>551.0</ele><time>2026-04-26T12:10:18.56Z</time></trkpt><trkpt lat="40.06111" lon="9.0421183"><ele>551.0</ele><time>2026-04-26T12:10:19.585Z</time></trkpt><trkpt lat="40.0611133" lon="9.0423183"><ele>551.6666666666666</ele><time>2026-04-26T12:10:20.555Z</time></trkpt><trkpt lat="40.0611117" lon="9.04252"><ele>552.3333333333334</ele><time>2026-04-26T12:10:21.558Z</time></trkpt><trkpt lat="40.0610917" lon="9.042725"><ele>553.0</ele><time>2026-04-26T12:10:22.562Z</time></trkpt><trkpt lat="40.061055" lon="9.042925"><ele>553.0</ele><time>2026-04-26T12:10:23.561Z</time></trkpt><trkpt lat="40.0610133" lon="9.04313"><ele>553.0</ele><time>2026-04-26T12:10:24.563Z</time></trkpt><trkpt lat="40.06096" lon="9.04333"><ele>553.0</ele><time>2026-04-26T12:10:25.62Z</time></trkpt><trkpt lat="40.0608883" lon="9.0435217"><ele>551.6666666666667</ele><time>2026-04-26T12:10:26.564Z</time></trkpt><trkpt lat="40.0608" lon="9.0437033"><ele>550.3333333333334</ele><time>2026-04-26T12:10:27.559Z</time></trkpt><trkpt lat="40.060705" lon="9.043885"><ele>549.0</ele><time>2026-04-26T12:10:28.558Z</time></trkpt><trkpt lat="40.0606017" lon="9.04407"><ele>555.3333333333334</ele><time>2026-04-26T12:10:29.561Z</time></trkpt><trkpt lat="40.060495" lon="9.0442617"><ele>561.6666666666667</ele><time>2026-04-26T12:10:30.557Z</time></trkpt><trkpt lat="40.0603833" lon="9.0444567"><ele>568.0</ele><time>2026-04-26T12:10:31.621Z</time></trkpt><trkpt lat="40.0602733" lon="9.0446567"><ele>568.0</ele><time>2026-04-26T12:10:32.557Z</time></trkpt><trkpt lat="40.0601583" lon="9.0448633"><ele>568.0</ele><time>2026-04-26T12:10:33.556Z</time></trkpt><trkpt lat="40.0600433" lon="9.0450733"><ele>568.0</ele><time>2026-04-26T12:10:34.56Z</time></trkpt><trkpt lat="40.059925" lon="9.0452867"><ele>571.3333333333334</ele><time>2026-04-26T12:10:35.557Z</time></trkpt><trkpt lat="40.059805" lon="9.0455017"><ele>574.6666666666666</ele><time>2026-04-26T12:10:36.559Z</time></trkpt><trkpt lat="40.059685" lon="9.0457183"><ele>578.0</ele><time>2026-04-26T12:10:37.597Z</time></trkpt><trkpt lat="40.0595667" lon="9.0459317"><ele>578.0</ele><time>2026-04-26T12:10:38.566Z</time></trkpt><trkpt lat="40.05945" lon="9.046145"><ele>578.0</ele><time>2026-04-26T12:10:39.564Z</time></trkpt><trkpt lat="40.0593283" lon="9.0463583"><ele>578.0</ele><time>2026-04-26T12:10:40.565Z</time></trkpt><trkpt lat="40.0592033" lon="9.0465683"><ele>580.3333333333333</ele><time>2026-04-26T12:10:41.558Z</time></trkpt><trkpt lat="40.059085" lon="9.0467733"><ele>582.6666666666666</ele><time>2026-04-26T12:10:42.554Z</time></trkpt><trkpt lat="40.058975" lon="9.0469783"><ele>585.0</ele><time>2026-04-26T12:10:43.599Z</time></trkpt><trkpt lat="40.05886" lon="9.0471833"><ele>585.0</ele><time>2026-04-26T12:10:44.554Z</time></trkpt><trkpt lat="40.058755" lon="9.0473867"><ele>585.0</ele><time>2026-04-26T12:10:45.556Z</time></trkpt><trkpt lat="40.0586583" lon="9.0475933"><ele>585.0</ele><time>2026-04-26T12:10:46.557Z</time></trkpt><trkpt lat="40.0585767" lon="9.047805"><ele>582.0</ele><time>2026-04-26T12:10:47.557Z</time></trkpt><trkpt lat="40.0585167" lon="9.0480117"><ele>579.0</ele><time>2026-04-26T12:10:48.566Z</time></trkpt><trkpt lat="40.0584733" lon="9.0482167"><ele>576.0</ele><time>2026-04-26T12:10:49.6Z</time></trkpt><trkpt lat="40.0584667" lon="9.048435"><ele>575.6666666666666</ele><time>2026-04-26T12:10:50.559Z</time></trkpt><trkpt lat="40.0584883" lon="9.0486467"><ele>575.3333333333333</ele><time>2026-04-26T12:10:51.558Z</time></trkpt><trkpt lat="40.0585333" lon="9.048855"><ele>575.0</ele><time>2026-04-26T12:10:52.563Z</time></trkpt><trkpt lat="40.0586083" lon="9.0490533"><ele>574.6666666666666</ele><time>2026-04-26T12:10:53.561Z</time></trkpt><trkpt lat="40.0587" lon="9.0492467"><ele>574.3333333333334</ele><time>2026-04-26T12:10:54.553Z</time></trkpt><trkpt lat="40.0587883" lon="9.0494417"><ele>574.0</ele><time>2026-04-26T12:10:55.607Z</time></trkpt><trkpt lat="40.0588633" lon="9.049625"><ele>574.0</ele><time>2026-04-26T12:10:56.556Z</time></trkpt><trkpt lat="40.05892" lon="9.049795"><ele>574.0</ele><time>2026-04-26T12:10:57.562Z</time></trkpt><trkpt lat="40.05895" lon="9.0499633"><ele>574.0</ele><time>2026-04-26T12:10:58.562Z</time></trkpt><trkpt lat="40.0589333" lon="9.0501367"><ele>574.0</ele><time>2026-04-26T12:10:59.552Z</time></trkpt><trkpt lat="40.0588933" lon="9.0503067"><ele>574.3333333333334</ele><time>2026-04-26T12:11:00.559Z</time></trkpt><trkpt lat="40.0588283" lon="9.0504733"><ele>574.6666666666666</ele><time>2026-04-26T12:11:01.621Z</time></trkpt><trkpt lat="40.058745" lon="9.0506383"><ele>575.0</ele><time>2026-04-26T12:11:02.562Z</time></trkpt><trkpt lat="40.0586517" lon="9.0508133"><ele>579.0</ele><time>2026-04-26T12:11:03.56Z</time></trkpt><trkpt lat="40.0585617" lon="9.051"><ele>583.0</ele><time>2026-04-26T12:11:04.565Z</time></trkpt><trkpt lat="40.058475" lon="9.0512033"><ele>587.0</ele><time>2026-04-26T12:11:05.56Z</time></trkpt><trkpt lat="40.058395" lon="9.05142"><ele>591.3333333333333</ele><time>2026-04-26T12:11:06.557Z</time></trkpt><trkpt lat="40.0583167" lon="9.0516417"><ele>595.6666666666666</ele><time>2026-04-26T12:11:07.596Z</time></trkpt><trkpt lat="40.0582383" lon="9.05186"><ele>600.0</ele><time>2026-04-26T12:11:08.558Z</time></trkpt><trkpt lat="40.0581483" lon="9.0520767"><ele>600.0</ele><time>2026-04-26T12:11:09.563Z</time></trkpt><trkpt lat="40.0580517" lon="9.0522733"><ele>600.0</ele><time>2026-04-26T12:11:10.567Z</time></trkpt><trkpt lat="40.0579533" lon="9.0524483"><ele>600.0</ele><time>2026-04-26T12:11:11.555Z</time></trkpt><trkpt lat="40.057865" lon="9.05262"><ele>604.6666666666666</ele><time>2026-04-26T12:11:12.564Z</time></trkpt><trkpt lat="40.057785" lon="9.0528033"><ele>609.3333333333333</ele><time>2026-04-26T12:11:13.6Z</time></trkpt><trkpt lat="40.0577267" lon="9.0530017"><ele>614.0</ele><time>2026-04-26T12:11:14.556Z</time></trkpt><trkpt lat="40.0576917" lon="9.0532167"><ele>614.6666666666666</ele><time>2026-04-26T12:11:15.559Z</time></trkpt><trkpt lat="40.057665" lon="9.0534417"><ele>615.3333333333334</ele><time>2026-04-26T12:11:16.565Z</time></trkpt><trkpt lat="40.05765" lon="9.0536783"><ele>616.0</ele><time>2026-04-26T12:11:17.558Z</time></trkpt><trkpt lat="40.0576217" lon="9.0539217"><ele>614.0</ele><time>2026-04-26T12:11:18.565Z</time></trkpt><trkpt lat="40.0575867" lon="9.0541683"><ele>612.0</ele><time>2026-04-26T12:11:19.599Z</time></trkpt><trkpt lat="40.0575467" lon="9.0544017"><ele>610.0</ele><time>2026-04-26T12:11:20.557Z</time></trkpt><trkpt lat="40.0575017" lon="9.054615"><ele>610.0</ele><time>2026-04-26T12:11:21.557Z</time></trkpt><trkpt lat="40.0574667" lon="9.05482"><ele>610.0</ele><time>2026-04-26T12:11:22.558Z</time></trkpt><trkpt lat="40.057445" lon="9.05502"><ele>610.0</ele><time>2026-04-26T12:11:23.569Z</time></trkpt><trkpt lat="40.057445" lon="9.0552233"><ele>607.6666666666667</ele><time>2026-04-26T12:11:24.555Z</time></trkpt><trkpt lat="40.0574633" lon="9.0554367"><ele>605.3333333333334</ele><time>2026-04-26T12:11:25.622Z</time></trkpt><trkpt lat="40.0575033" lon="9.0556533"><ele>603.0</ele><time>2026-04-26T12:11:26.549Z</time></trkpt><trkpt lat="40.0575617" lon="9.0558683"><ele>600.6666666666666</ele><time>2026-04-26T12:11:27.556Z</time></trkpt><trkpt lat="40.05764" lon="9.0560733"><ele>598.3333333333333</ele><time>2026-04-26T12:11:28.555Z</time></trkpt><trkpt lat="40.05774" lon="9.0562633"><ele>596.0</ele><time>2026-04-26T12:11:29.56Z</time></trkpt><trkpt lat="40.0578533" lon="9.0564433"><ele>596.0</ele><time>2026-04-26T12:11:30.558Z</time></trkpt><trkpt lat="40.0579783" lon="9.0566"><ele>596.0</ele><time>2026-04-26T12:11:31.616Z</time></trkpt><trkpt lat="40.05812" lon="9.056735"><ele>596.0</ele><time>2026-04-26T12:11:32.554Z</time></trkpt><trkpt lat="40.0582717" lon="9.0568533"><ele>595.6666666666666</ele><time>2026-04-26T12:11:33.562Z</time></trkpt><trkpt lat="40.05843" lon="9.056965"><ele>595.3333333333334</ele><time>2026-04-26T12:11:34.563Z</time></trkpt><trkpt lat="40.0585933" lon="9.057075"><ele>595.0</ele><time>2026-04-26T12:11:35.558Z</time></trkpt><trkpt lat="40.0587617" lon="9.057185"><ele>595.0</ele><time>2026-04-26T12:11:36.554Z</time></trkpt><trkpt lat="40.0589333" lon="9.0572983"><ele>595.0</ele><time>2026-04-26T12:11:37.595Z</time></trkpt><trkpt lat="40.0591033" lon="9.057415"><ele>595.0</ele><time>2026-04-26T12:11:38.559Z</time></trkpt><trkpt lat="40.0592717" lon="9.0575283"><ele>593.3333333333334</ele><time>2026-04-26T12:11:39.558Z</time></trkpt><trkpt lat="40.059435" lon="9.05764"><ele>591.6666666666666</ele><time>2026-04-26T12:11:40.559Z</time></trkpt><trkpt lat="40.059595" lon="9.0577533"><ele>590.0</ele><time>2026-04-26T12:11:41.558Z</time></trkpt><trkpt lat="40.059755" lon="9.05787"><ele>590.0</ele><time>2026-04-26T12:11:42.558Z</time></trkpt><trkpt lat="40.0599183" lon="9.0579867"><ele>590.0</ele><time>2026-04-26T12:11:43.598Z</time></trkpt><trkpt lat="40.0600817" lon="9.058105"><ele>590.0</ele><time>2026-04-26T12:11:44.557Z</time></trkpt><trkpt lat="40.0602417" lon="9.0582217"><ele>588.3333333333333</ele><time>2026-04-26T12:11:45.562Z</time></trkpt><trkpt lat="40.060405" lon="9.0583383"><ele>586.6666666666666</ele><time>2026-04-26T12:11:46.562Z</time></trkpt><trkpt lat="40.060565" lon="9.058445"><ele>585.0</ele><time>2026-04-26T12:11:47.558Z</time></trkpt><trkpt lat="40.0607333" lon="9.0585383"><ele>585.6666666666666</ele><time>2026-04-26T12:11:48.564Z</time></trkpt><trkpt lat="40.0609033" lon="9.0586267"><ele>586.3333333333333</ele><time>2026-04-26T12:11:49.592Z</time></trkpt><trkpt lat="40.061075" lon="9.0587117"><ele>587.0</ele><time>2026-04-26T12:11:50.559Z</time></trkpt><trkpt lat="40.0612483" lon="9.0587967"><ele>587.0</ele><time>2026-04-26T12:11:51.558Z</time></trkpt><trkpt lat="40.0614183" lon="9.0588817"><ele>587.0</ele><time>2026-04-26T12:11:52.555Z</time></trkpt><trkpt lat="40.0615883" lon="9.05897"><ele>587.0</ele><time>2026-04-26T12:11:53.562Z</time></trkpt><trkpt lat="40.0617583" lon="9.0590583"><ele>588.0</ele><time>2026-04-26T12:11:54.557Z</time></trkpt><trkpt lat="40.06193" lon="9.0591533"><ele>589.0</ele><time>2026-04-26T12:11:55.625Z</time></trkpt><trkpt lat="40.0621017" lon="9.0592483"><ele>590.0</ele><time>2026-04-26T12:11:56.559Z</time></trkpt><trkpt lat="40.0622767" lon="9.0593433"><ele>591.0</ele><time>2026-04-26T12:11:57.561Z</time></trkpt><trkpt lat="40.062455" lon="9.05944"><ele>592.0</ele><time>2026-04-26T12:11:58.555Z</time></trkpt><trkpt lat="40.06264" lon="9.0595367"><ele>593.0</ele><time>2026-04-26T12:11:59.559Z</time></trkpt><trkpt lat="40.06283" lon="9.0596283"><ele>593.0</ele><time>2026-04-26T12:12:00.558Z</time></trkpt><trkpt lat="40.063025" lon="9.0597083"><ele>593.0</ele><time>2026-04-26T12:12:01.621Z</time></trkpt><trkpt lat="40.0578533" lon="9.0564433"><ele>594.0</ele><time>2026-04-26T12:11:30.558Z</time></trkpt><trkpt lat="40.0579783" lon="9.0566"><ele>595.0</ele><time>2026-04-26T12:11:31.616Z</time></trkpt><trkpt lat="40.05812" lon="9.056735"><ele>596.0</ele><time>2026-04-26T12:11:32.554Z</time></trkpt><trkpt lat="40.0582717" lon="9.0568533"><ele>595.6666666666666</ele><time>2026-04-26T12:11:33.562Z</time></trkpt><trkpt lat="40.05843" lon="9.056965"><ele>595.3333333333334</ele><time>2026-04-26T12:11:34.563Z</time></trkpt><trkpt lat="40.0585933" lon="9.057075"><ele>595.0</ele><time>2026-04-26T12:11:35.558Z</time></trkpt><trkpt lat="40.0587617" lon="9.057185"><ele>595.0</ele><time>2026-04-26T12:11:36.554Z</time></trkpt><trkpt lat="40.0589333" lon="9.0572983"><ele>595.0</ele><time>2026-04-26T12:11:37.595Z</time></trkpt><trkpt lat="40.0591033" lon="9.057415"><ele>595.0</ele><time>2026-04-26T12:11:38.559Z</time></trkpt><trkpt lat="40.0592717" lon="9.0575283"><ele>593.3333333333334</ele><time>2026-04-26T12:11:39.558Z</time></trkpt><trkpt lat="40.059435" lon="9.05764"><ele>591.6666666666666</ele><time>2026-04-26T12:11:40.559Z</time></trkpt><trkpt lat="40.059595" lon="9.0577533"><ele>590.0</ele><time>2026-04-26T12:11:41.558Z</time></trkpt><trkpt lat="40.059755" lon="9.05787"><ele>590.0</ele><time>2026-04-26T12:11:42.558Z</time></trkpt><trkpt lat="40.0599183" lon="9.0579867"><ele>590.0</ele><time>2026-04-26T12:11:43.598Z</time></trkpt><trkpt lat="40.0600817" lon="9.058105"><ele>590.0</ele><time>2026-04-26T12:11:44.557Z</time></trkpt><trkpt lat="40.0602417" lon="9.0582217"><ele>588.3333333333333</ele><time>2026-04-26T12:11:45.562Z</time></trkpt><trkpt lat="40.060405" lon="9.0583383"><ele>586.6666666666666</ele><time>2026-04-26T12:11:46.562Z</time></trkpt><trkpt lat="40.060565" lon="9.058445"><ele>585.0</ele><time>2026-04-26T12:11:47.558Z</time></trkpt><trkpt lat="40.0607333" lon="9.0585383"><ele>585.6666666666666</ele><time>2026-04-26T12:11:48.564Z</time></trkpt><trkpt lat="40.0609033" lon="9.0586267"><ele>586.3333333333333</ele><time>2026-04-26T12:11:49.592Z</time></trkpt><trkpt lat="40.061075" lon="9.0587117"><ele>587.0</ele><time>2026-04-26T12:11:50.559Z</time></trkpt><trkpt lat="40.0612483" lon="9.0587967"><ele>587.0</ele><time>2026-04-26T12:11:51.558Z</time></trkpt><trkpt lat="40.0614183" lon="9.0588817"><ele>587.0</ele><time>2026-04-26T12:11:52.555Z</time></trkpt><trkpt lat="40.0615883" lon="9.05897"><ele>587.0</ele><time>2026-04-26T12:11:53.562Z</time></trkpt><trkpt lat="40.0617583" lon="9.0590583"><ele>588.0</ele><time>2026-04-26T12:11:54.557Z</time></trkpt><trkpt lat="40.06193" lon="9.0591533"><ele>589.0</ele><time>2026-04-26T12:11:55.625Z</time></trkpt><trkpt lat="40.0621017" lon="9.0592483"><ele>590.0</ele><time>2026-04-26T12:11:56.559Z</time></trkpt><trkpt lat="40.0622767" lon="9.0593433"><ele>591.0</ele><time>2026-04-26T12:11:57.561Z</time></trkpt><trkpt lat="40.062455" lon="9.05944"><ele>592.0</ele><time>2026-04-26T12:11:58.555Z</time></trkpt><trkpt lat="40.06264" lon="9.0595367"><ele>593.0</ele><time>2026-04-26T12:11:59.559Z</time></trkpt><trkpt lat="40.06283" lon="9.0596283"><ele>593.0</ele><time>2026-04-26T12:12:00.558Z</time></trkpt><trkpt lat="40.063025" lon="9.0597083"><ele>593.0</ele><time>2026-04-26T12:12:01.621Z</time></trkpt><trkpt lat="40.0632283" lon="9.0597683"><ele>593.0</ele><time>2026-04-26T12:12:02.565Z</time></trkpt><trkpt lat="40.0634367" lon="9.0598117"><ele>593.0</ele><time>2026-04-26T12:12:03.563Z</time></trkpt><trkpt lat="40.0636442" lon="9.0598415"><ele>593.0</ele><time>2026-04-26T12:12:04.56Z</time></trkpt><trkpt lat="40.0638401" lon="9.0598655"><ele>593.0</ele><time>2026-04-26T12:12:05.559Z</time></trkpt><trkpt lat="40.0640233" lon="9.0598923"><ele>593.3333333333333</ele><time>2026-04-26T12:12:06.558Z</time></trkpt><trkpt lat="40.0642024" lon="9.0599397"><ele>593.6666666666666</ele><time>2026-04-26T12:12:07.589Z</time></trkpt><trkpt lat="40.0643726" lon="9.0600179"><ele>594.0</ele><time>2026-04-26T12:12:08.558Z</time></trkpt><trkpt lat="40.0645417" lon="9.0601317"><ele>598.0</ele><time>2026-04-26T12:12:09.559Z</time></trkpt><trkpt lat="40.0646989" lon="9.0602759"><ele>602.0</ele><time>2026-04-26T12:12:10.558Z</time></trkpt><trkpt lat="40.0648477" lon="9.0604382"><ele>606.0</ele><time>2026-04-26T12:12:11.561Z</time></trkpt><trkpt lat="40.0649961" lon="9.0606027"><ele>606.0</ele><time>2026-04-26T12:12:12.558Z</time></trkpt><trkpt lat="40.0651545" lon="9.0607489"><ele>606.0</ele><time>2026-04-26T12:12:13.59Z</time></trkpt><trkpt lat="40.0653139" lon="9.0608577"><ele>606.0</ele><time>2026-04-26T12:12:14.553Z</time></trkpt><trkpt lat="40.0654959" lon="9.0608995"><ele>609.6666666666666</ele><time>2026-04-26T12:12:15.557Z</time></trkpt><trkpt lat="40.0656889" lon="9.0609018"><ele>613.3333333333333</ele><time>2026-04-26T12:12:16.559Z</time></trkpt><trkpt lat="40.0658756" lon="9.0609026"><ele>617.0</ele><time>2026-04-26T12:12:17.565Z</time></trkpt><trkpt lat="40.0660464" lon="9.0609247"><ele>618.6666666666666</ele><time>2026-04-26T12:12:18.554Z</time></trkpt><trkpt lat="40.0662066" lon="9.0609758"><ele>620.3333333333334</ele><time>2026-04-26T12:12:19.593Z</time></trkpt><trkpt lat="40.0663415" lon="9.0610607"><ele>622.0</ele><time>2026-04-26T12:12:20.554Z</time></trkpt><trkpt lat="40.0664277" lon="9.0612192"><ele>622.0</ele><time>2026-04-26T12:12:21.555Z</time></trkpt><trkpt lat="40.0664824" lon="9.061407"><ele>622.0</ele><time>2026-04-26T12:12:22.56Z</time></trkpt><trkpt lat="40.0665177" lon="9.0616054"><ele>622.0</ele><time>2026-04-26T12:12:23.556Z</time></trkpt><trkpt lat="40.0665263" lon="9.0618183"><ele>626.3333333333334</ele><time>2026-04-26T12:12:24.552Z</time></trkpt><trkpt lat="40.0665224" lon="9.0620494"><ele>630.6666666666666</ele><time>2026-04-26T12:12:25.621Z</time></trkpt><trkpt lat="40.0665116" lon="9.0622728"><ele>635.0</ele><time>2026-04-26T12:12:26.557Z</time></trkpt><trkpt lat="40.0664986" lon="9.0625002"><ele>638.0</ele><time>2026-04-26T12:12:27.564Z</time></trkpt><trkpt lat="40.0664743" lon="9.0627088"><ele>641.0</ele><time>2026-04-26T12:12:28.555Z</time></trkpt><trkpt lat="40.0664199" lon="9.0629016"><ele>644.0</ele><time>2026-04-26T12:12:29.56Z</time></trkpt><trkpt lat="40.0663205" lon="9.0630662"><ele>644.0</ele><time>2026-04-26T12:12:30.557Z</time></trkpt><trkpt lat="40.0662075" lon="9.0632227"><ele>644.0</ele><time>2026-04-26T12:12:31.614Z</time></trkpt><trkpt lat="40.0661134" lon="9.0633642"><ele>644.0</ele><time>2026-04-26T12:12:32.559Z</time></trkpt><trkpt lat="40.06603" lon="9.063515"><ele>644.0</ele><time>2026-04-26T12:12:33.557Z</time></trkpt><trkpt lat="40.06602" lon="9.063675"><ele>644.0</ele><time>2026-04-26T12:12:34.553Z</time></trkpt><trkpt lat="40.066045" lon="9.063825"><ele>644.0</ele><time>2026-04-26T12:12:35.56Z</time></trkpt><trkpt lat="40.0661217" lon="9.0639583"><ele>644.0</ele><time>2026-04-26T12:12:36.554Z</time></trkpt><trkpt lat="40.0662167" lon="9.064075"><ele>645.25</ele><time>2026-04-26T12:12:37.598Z</time></trkpt><trkpt lat="40.0663233" lon="9.06417"><ele>646.5</ele><time>2026-04-26T12:12:38.559Z</time></trkpt><trkpt lat="40.0664117" lon="9.064275"><ele>647.75</ele><time>2026-04-26T12:12:39.562Z</time></trkpt><trkpt lat="40.0664783" lon="9.0643933"><ele>649.0</ele><time>2026-04-26T12:12:40.564Z</time></trkpt><trkpt lat="40.06653" lon="9.0645283"><ele>649.0</ele><time>2026-04-26T12:12:41.56Z</time></trkpt><trkpt lat="40.0665517" lon="9.0646783"><ele>649.0</ele><time>2026-04-26T12:12:42.56Z</time></trkpt><trkpt lat="40.0665533" lon="9.0648583"><ele>649.0</ele><time>2026-04-26T12:12:43.596Z</time></trkpt><trkpt lat="40.0665583" lon="9.06506"><ele>649.0</ele><time>2026-04-26T12:12:44.558Z</time></trkpt><trkpt lat="40.0665767" lon="9.0652667"><ele>649.0</ele><time>2026-04-26T12:12:45.56Z</time></trkpt><trkpt lat="40.0666183" lon="9.0654733"><ele>649.0</ele><time>2026-04-26T12:12:46.561Z</time></trkpt><trkpt lat="40.0667033" lon="9.0656683"><ele>649.0</ele><time>2026-04-26T12:12:47.563Z</time></trkpt><trkpt lat="40.066815" lon="9.0658383"><ele>652.0</ele><time>2026-04-26T12:12:48.56Z</time></trkpt><trkpt lat="40.06695" lon="9.0659817"><ele>655.0</ele><time>2026-04-26T12:12:49.598Z</time></trkpt><trkpt lat="40.067085" lon="9.066095"><ele>658.0</ele><time>2026-04-26T12:12:50.561Z</time></trkpt><trkpt lat="40.067205" lon="9.06621"><ele>658.0</ele><time>2026-04-26T12:12:51.551Z</time></trkpt><trkpt lat="40.0672983" lon="9.0663367"><ele>658.0</ele><time>2026-04-26T12:12:52.552Z</time></trkpt><trkpt lat="40.0673683" lon="9.06649"><ele>658.0</ele><time>2026-04-26T12:12:53.555Z</time></trkpt><trkpt lat="40.0673533" lon="9.0666567"><ele>658.0</ele><time>2026-04-26T12:12:54.557Z</time></trkpt><trkpt lat="40.06731" lon="9.0668133"><ele>660.25</ele><time>2026-04-26T12:12:55.618Z</time></trkpt><trkpt lat="40.0672467" lon="9.0669633"><ele>662.5</ele><time>2026-04-26T12:12:56.553Z</time></trkpt><trkpt lat="40.0671633" lon="9.06712"><ele>664.75</ele><time>2026-04-26T12:12:57.564Z</time></trkpt><trkpt lat="40.0670767" lon="9.067285"><ele>667.0</ele><time>2026-04-26T12:12:58.557Z</time></trkpt><trkpt lat="40.0669867" lon="9.06747"><ele>667.6666666666667</ele><time>2026-04-26T12:12:59.561Z</time></trkpt><trkpt lat="40.0668983" lon="9.06766"><ele>668.3333333333334</ele><time>2026-04-26T12:13:00.557Z</time></trkpt><trkpt lat="40.066815" lon="9.0678433"><ele>669.0</ele><time>2026-04-26T12:13:01.622Z</time></trkpt><trkpt lat="40.066745" lon="9.06802"><ele>669.0</ele><time>2026-04-26T12:13:02.558Z</time></trkpt><trkpt lat="40.0667" lon="9.068195"><ele>669.0</ele><time>2026-04-26T12:13:03.571Z</time></trkpt><trkpt lat="40.06669" lon="9.06837"><ele>669.0</ele><time>2026-04-26T12:13:04.56Z</time></trkpt><trkpt lat="40.066715" lon="9.0685417"><ele>669.0</ele><time>2026-04-26T12:13:05.561Z</time></trkpt><trkpt lat="40.0667633" lon="9.0687033"><ele>669.75</ele><time>2026-04-26T12:13:06.559Z</time></trkpt><trkpt lat="40.0668383" lon="9.068845"><ele>670.5</ele><time>2026-04-26T12:13:07.59Z</time></trkpt><trkpt lat="40.06694" lon="9.0689667"><ele>671.25</ele><time>2026-04-26T12:13:08.555Z</time></trkpt><trkpt lat="40.0670383" lon="9.0690867"><ele>672.0</ele><time>2026-04-26T12:13:09.557Z</time></trkpt><trkpt lat="40.0671517" lon="9.0692167"><ele>674.6666666666666</ele><time>2026-04-26T12:13:10.551Z</time></trkpt><trkpt lat="40.06726" lon="9.0693517"><ele>677.3333333333333</ele><time>2026-04-26T12:13:11.566Z</time></trkpt><trkpt lat="40.0673667" lon="9.0694933"><ele>680.0</ele><time>2026-04-26T12:13:12.561Z</time></trkpt><trkpt lat="40.0674817" lon="9.069635"><ele>680.0</ele><time>2026-04-26T12:13:13.592Z</time></trkpt><trkpt lat="40.0676033" lon="9.0697733"><ele>680.0</ele><time>2026-04-26T12:13:14.556Z</time></trkpt><trkpt lat="40.067735" lon="9.0699083"><ele>680.0</ele><time>2026-04-26T12:13:15.566Z</time></trkpt><trkpt lat="40.0678683" lon="9.0700417"><ele>682.0</ele><time>2026-04-26T12:13:16.558Z</time></trkpt><trkpt lat="40.068" lon="9.0701633"><ele>684.0</ele><time>2026-04-26T12:13:17.557Z</time></trkpt><trkpt lat="40.0681317" lon="9.070275"><ele>686.0</ele><time>2026-04-26T12:13:18.556Z</time></trkpt><trkpt lat="40.06826" lon="9.07038"><ele>686.0</ele><time>2026-04-26T12:13:19.591Z</time></trkpt><trkpt lat="40.068375" lon="9.0704817"><ele>686.0</ele><time>2026-04-26T12:13:20.554Z</time></trkpt><trkpt lat="40.06847" lon="9.070585"><ele>686.0</ele><time>2026-04-26T12:13:21.555Z</time></trkpt><trkpt lat="40.0685417" lon="9.0707067"><ele>686.0</ele><time>2026-04-26T12:13:22.558Z</time></trkpt><trkpt lat="40.0685967" lon="9.0708417"><ele>686.75</ele><time>2026-04-26T12:13:23.558Z</time></trkpt><trkpt lat="40.068625" lon="9.0709983"><ele>687.5</ele><time>2026-04-26T12:13:24.559Z</time></trkpt><trkpt lat="40.0686283" lon="9.07117"><ele>688.25</ele><time>2026-04-26T12:13:25.601Z</time></trkpt><trkpt lat="40.0686017" lon="9.0713483"><ele>689.0</ele><time>2026-04-26T12:13:26.558Z</time></trkpt><trkpt lat="40.068545" lon="9.0715183"><ele>688.8000000000001</ele><time>2026-04-26T12:13:27.565Z</time></trkpt><trkpt lat="40.0684783" lon="9.0716683"><ele>688.6</ele><time>2026-04-26T12:13:28.563Z</time></trkpt><trkpt lat="40.0684183" lon="9.071805"><ele>688.4</ele><time>2026-04-26T12:13:29.561Z</time></trkpt><trkpt lat="40.0683667" lon="9.0719217"><ele>688.2</ele><time>2026-04-26T12:13:30.558Z</time></trkpt><trkpt lat="40.0683217" lon="9.07202"><ele>688.0</ele><time>2026-04-26T12:13:31.582Z</time></trkpt><trkpt lat="40.06828" lon="9.0720983"><ele>687.3333333333334</ele><time>2026-04-26T12:13:32.557Z</time></trkpt><trkpt lat="40.068235" lon="9.072175"><ele>686.6666666666667</ele><time>2026-04-26T12:13:33.556Z</time></trkpt><trkpt lat="40.0681833" lon="9.0722517"><ele>686.0</ele><time>2026-04-26T12:13:34.558Z</time></trkpt><trkpt lat="40.068135" lon="9.0723367"><ele>685.3333333333334</ele><time>2026-04-26T12:13:35.555Z</time></trkpt><trkpt lat="40.0680783" lon="9.0724317"><ele>684.6666666666666</ele><time>2026-04-26T12:13:36.559Z</time></trkpt><trkpt lat="40.0680233" lon="9.0725317"><ele>684.0</ele><time>2026-04-26T12:13:37.595Z</time></trkpt><trkpt lat="40.0679683" lon="9.0726317"><ele>684.0</ele><time>2026-04-26T12:13:38.555Z</time></trkpt><trkpt lat="40.0679117" lon="9.072725"><ele>684.0</ele><time>2026-04-26T12:13:39.556Z</time></trkpt><trkpt lat="40.0678683" lon="9.0728133"><ele>684.0</ele><time>2026-04-26T12:13:40.559Z</time></trkpt><trkpt lat="40.0678333" lon="9.0729017"><ele>684.0</ele><time>2026-04-26T12:13:41.556Z</time></trkpt><trkpt lat="40.0678083" lon="9.0729867"><ele>684.0</ele><time>2026-04-26T12:13:42.557Z</time></trkpt><trkpt lat="40.0677983" lon="9.0730717"><ele>684.0</ele><time>2026-04-26T12:13:43.588Z</time></trkpt><trkpt lat="40.0678117" lon="9.0731633"><ele>684.0</ele><time>2026-04-26T12:13:44.557Z</time></trkpt><trkpt lat="40.067845" lon="9.0732583"><ele>684.0</ele><time>2026-04-26T12:13:45.558Z</time></trkpt><trkpt lat="40.0678967" lon="9.0733583"><ele>684.0</ele><time>2026-04-26T12:13:46.556Z</time></trkpt><trkpt lat="40.06796" lon="9.0734533"><ele>684.0</ele><time>2026-04-26T12:13:47.565Z</time></trkpt><trkpt lat="40.0680267" lon="9.07354"><ele>684.0</ele><time>2026-04-26T12:13:48.558Z</time></trkpt><trkpt lat="40.0681017" lon="9.073625"><ele>684.3333333333334</ele><time>2026-04-26T12:13:49.601Z</time></trkpt><trkpt lat="40.0681767" lon="9.0737117"><ele>684.6666666666666</ele><time>2026-04-26T12:13:50.556Z</time></trkpt><trkpt lat="40.0682417" lon="9.0737983"><ele>685.0</ele><time>2026-04-26T12:13:51.562Z</time></trkpt><trkpt lat="40.0682967" lon="9.073885"><ele>685.3333333333333</ele><time>2026-04-26T12:13:52.557Z</time></trkpt><trkpt lat="40.0683383" lon="9.0739767"><ele>685.6666666666666</ele><time>2026-04-26T12:13:53.555Z</time></trkpt><trkpt lat="40.0683717" lon="9.07408"><ele>686.0</ele><time>2026-04-26T12:13:54.562Z</time></trkpt><trkpt lat="40.0683917" lon="9.074185"><ele>686.1999999999999</ele><time>2026-04-26T12:13:55.616Z</time></trkpt><trkpt lat="40.068405" lon="9.0742783"><ele>686.4</ele><time>2026-04-26T12:13:56.559Z</time></trkpt><trkpt lat="40.0683883" lon="9.0744333"><ele>686.6</ele><time>2026-04-26T12:13:58.559Z</time></trkpt><trkpt lat="40.0683517" lon="9.0745767"><ele>686.8</ele><time>2026-04-26T12:14:00.562Z</time></trkpt><trkpt lat="40.0683417" lon="9.074675"><ele>687.0</ele><time>2026-04-26T12:14:02.564Z</time></trkpt><trkpt lat="40.06841" lon="9.074665"><ele>687.0</ele><time>2026-04-26T12:14:05.552Z</time></trkpt><trkpt lat="40.0684767" lon="9.0745817"><ele>687.0</ele><time>2026-04-26T12:14:08.555Z</time></trkpt><trkpt lat="40.0685167" lon="9.0744783"><ele>687.0</ele><time>2026-04-26T12:14:11.56Z</time></trkpt><trkpt lat="40.068555" lon="9.0743967"><ele>687.0</ele><time>2026-04-26T12:14:15.557Z</time></trkpt><trkpt lat="40.0685883" lon="9.0743183"><ele>687.0</ele><time>2026-04-26T12:14:19.591Z</time></trkpt><trkpt lat="40.0685267" lon="9.0743683"><ele>687.0</ele><time>2026-04-26T12:14:39.564Z</time></trkpt><trkpt lat="40.068515" lon="9.07446"><ele>687.0</ele><time>2026-04-26T12:14:41.557Z</time></trkpt><trkpt lat="40.0684933" lon="9.0746"><ele>687.0</ele><time>2026-04-26T12:15:17.557Z</time></trkpt><trkpt lat="40.068435" lon="9.0746583"><ele>687.0</ele><time>2026-04-26T12:15:19.602Z</time></trkpt><trkpt lat="40.0683417" lon="9.074725"><ele>687.0</ele><time>2026-04-26T12:15:21.555Z</time></trkpt><trkpt lat="40.0682817" lon="9.07477"><ele>687.0</ele><time>2026-04-26T12:15:22.56Z</time></trkpt><trkpt lat="40.06821" lon="9.0748367"><ele>687.0</ele><time>2026-04-26T12:15:23.557Z</time></trkpt><trkpt lat="40.0681333" lon="9.07492"><ele>691.75</ele><time>2026-04-26T12:15:24.552Z</time></trkpt><trkpt lat="40.0680583" lon="9.0750133"><ele>696.5</ele><time>2026-04-26T12:15:25.622Z</time></trkpt><trkpt lat="40.06798" lon="9.0751217"><ele>701.25</ele><time>2026-04-26T12:15:26.562Z</time></trkpt><trkpt lat="40.0678933" lon="9.0752467"><ele>706.0</ele><time>2026-04-26T12:15:27.56Z</time></trkpt><trkpt lat="40.0678017" lon="9.0753767"><ele>706.0</ele><time>2026-04-26T12:15:28.56Z</time></trkpt><trkpt lat="40.067705" lon="9.0755167"><ele>706.0</ele><time>2026-04-26T12:15:29.561Z</time></trkpt><trkpt lat="40.0676133" lon="9.075675"><ele>706.0</ele><time>2026-04-26T12:15:30.557Z</time></trkpt><trkpt lat="40.0675383" lon="9.07586"><ele>704.6666666666667</ele><time>2026-04-26T12:15:31.613Z</time></trkpt><trkpt lat="40.0674783" lon="9.0760633"><ele>703.3333333333334</ele><time>2026-04-26T12:15:32.551Z</time></trkpt><trkpt lat="40.067435" lon="9.07628"><ele>702.0</ele><time>2026-04-26T12:15:33.554Z</time></trkpt><trkpt lat="40.0673933" lon="9.0764983"><ele>704.6666666666666</ele><time>2026-04-26T12:15:34.558Z</time></trkpt><trkpt lat="40.0673617" lon="9.0767183"><ele>707.3333333333333</ele><time>2026-04-26T12:15:35.564Z</time></trkpt><trkpt lat="40.0673383" lon="9.07693"><ele>710.0</ele><time>2026-04-26T12:15:36.562Z</time></trkpt><trkpt lat="40.06732" lon="9.07714"><ele>710.0</ele><time>2026-04-26T12:15:37.6Z</time></trkpt><trkpt lat="40.06731" lon="9.0773383"><ele>710.0</ele><time>2026-04-26T12:15:38.559Z</time></trkpt><trkpt lat="40.06731" lon="9.077535"><ele>710.0</ele><time>2026-04-26T12:15:39.564Z</time></trkpt><trkpt lat="40.0673267" lon="9.07773"><ele>708.3333333333333</ele><time>2026-04-26T12:15:40.558Z</time></trkpt><trkpt lat="40.0673517" lon="9.0779333"><ele>706.6666666666666</ele><time>2026-04-26T12:15:41.561Z</time></trkpt><trkpt lat="40.0673833" lon="9.0781433"><ele>705.0</ele><time>2026-04-26T12:15:42.561Z</time></trkpt><trkpt lat="40.0674183" lon="9.0783567"><ele>706.3333333333334</ele><time>2026-04-26T12:15:43.594Z</time></trkpt><trkpt lat="40.0674533" lon="9.0785783"><ele>707.6666666666667</ele><time>2026-04-26T12:15:44.56Z</time></trkpt><trkpt lat="40.0674883" lon="9.0788"><ele>709.0</ele><time>2026-04-26T12:15:45.561Z</time></trkpt><trkpt lat="40.0675233" lon="9.079025"><ele>708.3333333333334</ele><time>2026-04-26T12:15:46.562Z</time></trkpt><trkpt lat="40.0675617" lon="9.07924"><ele>707.6666666666666</ele><time>2026-04-26T12:15:47.555Z</time></trkpt><trkpt lat="40.0676017" lon="9.0794367"><ele>707.0</ele><time>2026-04-26T12:15:48.556Z</time></trkpt><trkpt lat="40.0676433" lon="9.0796267"><ele>707.0</ele><time>2026-04-26T12:15:49.592Z</time></trkpt><trkpt lat="40.0676817" lon="9.079815"><ele>707.0</ele><time>2026-04-26T12:15:50.555Z</time></trkpt><trkpt lat="40.0677233" lon="9.0800067"><ele>707.0</ele><time>2026-04-26T12:15:51.555Z</time></trkpt><trkpt lat="40.0677667" lon="9.0801983"><ele>707.0</ele><time>2026-04-26T12:15:52.561Z</time></trkpt><trkpt lat="40.0678133" lon="9.0803883"><ele>707.0</ele><time>2026-04-26T12:15:53.562Z</time></trkpt><trkpt lat="40.0678683" lon="9.0805717"><ele>707.0</ele><time>2026-04-26T12:15:54.553Z</time></trkpt><trkpt lat="40.0679333" lon="9.0807517"><ele>706.5</ele><time>2026-04-26T12:15:55.617Z</time></trkpt><trkpt lat="40.0680033" lon="9.0809267"><ele>706.0</ele><time>2026-04-26T12:15:56.556Z</time></trkpt><trkpt lat="40.06807" lon="9.0811017"><ele>705.5</ele><time>2026-04-26T12:15:57.552Z</time></trkpt><trkpt lat="40.068135" lon="9.081265"><ele>705.0</ele><time>2026-04-26T12:15:58.561Z</time></trkpt><trkpt lat="40.068205" lon="9.0814133"><ele>706.75</ele><time>2026-04-26T12:15:59.558Z</time></trkpt><trkpt lat="40.0682833" lon="9.0815483"><ele>708.5</ele><time>2026-04-26T12:16:00.561Z</time></trkpt><trkpt lat="40.0683783" lon="9.0816667"><ele>710.25</ele><time>2026-04-26T12:16:01.616Z</time></trkpt><trkpt lat="40.0684817" lon="9.0817717"><ele>712.0</ele><time>2026-04-26T12:16:02.554Z</time></trkpt><trkpt lat="40.0685983" lon="9.0818667"><ele>712.0</ele><time>2026-04-26T12:16:03.559Z</time></trkpt><trkpt lat="40.068725" lon="9.0819567"><ele>712.0</ele><time>2026-04-26T12:16:04.553Z</time></trkpt><trkpt lat="40.0688567" lon="9.0820483"><ele>712.0</ele><time>2026-04-26T12:16:05.558Z</time></trkpt><trkpt lat="40.0689867" lon="9.082145"><ele>712.0</ele><time>2026-04-26T12:16:06.559Z</time></trkpt><trkpt lat="40.0691183" lon="9.0822433"><ele>712.25</ele><time>2026-04-26T12:16:07.587Z</time></trkpt><trkpt lat="40.0692483" lon="9.0823433"><ele>712.5</ele><time>2026-04-26T12:16:08.561Z</time></trkpt><trkpt lat="40.0693767" lon="9.082445"><ele>712.75</ele><time>2026-04-26T12:16:09.559Z</time></trkpt><trkpt lat="40.0695033" lon="9.082545"><ele>713.0</ele><time>2026-04-26T12:16:10.554Z</time></trkpt><trkpt lat="40.0696233" lon="9.0826367"><ele>713.0</ele><time>2026-04-26T12:16:11.558Z</time></trkpt><trkpt lat="40.0697317" lon="9.08272"><ele>713.0</ele><time>2026-04-26T12:16:12.563Z</time></trkpt><trkpt lat="40.06983" lon="9.082805"><ele>713.0</ele><time>2026-04-26T12:16:13.591Z</time></trkpt><trkpt lat="40.06992" lon="9.0828883"><ele>713.0</ele><time>2026-04-26T12:16:14.556Z</time></trkpt><trkpt lat="40.069995" lon="9.082975"><ele>713.0</ele><time>2026-04-26T12:16:15.565Z</time></trkpt><trkpt lat="40.070055" lon="9.08307"><ele>713.0</ele><time>2026-04-26T12:16:16.558Z</time></trkpt><trkpt lat="40.0701283" lon="9.0832683"><ele>713.0</ele><time>2026-04-26T12:16:18.55Z</time></trkpt><trkpt lat="40.0701567" lon="9.0833683"><ele>713.0</ele><time>2026-04-26T12:16:19.591Z</time></trkpt><trkpt lat="40.0701983" lon="9.0837167"><ele>713.0</ele><time>2026-04-26T12:16:22.555Z</time></trkpt><trkpt lat="40.07021" lon="9.0838467"><ele>713.0</ele><time>2026-04-26T12:16:23.548Z</time></trkpt><trkpt lat="40.0702633" lon="9.0844567"><ele>712.0</ele><time>2026-04-26T12:16:28.553Z</time></trkpt><trkpt lat="40.0702717" lon="9.08456"><ele>711.0</ele><time>2026-04-26T12:16:29.559Z</time></trkpt><trkpt lat="40.0703267" lon="9.0851667"><ele>713.3333333333334</ele><time>2026-04-26T12:16:35.558Z</time></trkpt><trkpt lat="40.0703767" lon="9.0854383"><ele>715.6666666666667</ele><time>2026-04-26T12:16:38.553Z</time></trkpt><trkpt lat="40.0704533" lon="9.0856583"><ele>718.0</ele><time>2026-04-26T12:16:41.56Z</time></trkpt><trkpt lat="40.070485" lon="9.085745"><ele>720.5</ele><time>2026-04-26T12:16:42.553Z</time></trkpt><trkpt lat="40.0706467" lon="9.086235"><ele>723.0</ele><time>2026-04-26T12:16:47.558Z</time></trkpt><trkpt lat="40.0706817" lon="9.08633"><ele>723.5</ele><time>2026-04-26T12:16:48.556Z</time></trkpt><trkpt lat="40.0707983" lon="9.086835"><ele>724.0</ele><time>2026-04-26T12:16:54.558Z</time></trkpt><trkpt lat="40.070815" lon="9.0869867"><ele>724.0</ele><time>2026-04-26T12:16:57.552Z</time></trkpt><trkpt lat="40.0708133" lon="9.08714"><ele>724.0</ele><time>2026-04-26T12:17:00.552Z</time></trkpt><trkpt lat="40.070825" lon="9.0873167"><ele>724.0</ele><time>2026-04-26T12:17:03.555Z</time></trkpt><trkpt lat="40.0708083" lon="9.087605"><ele>733.0</ele><time>2026-04-26T12:17:15.555Z</time></trkpt><trkpt lat="40.0709667" lon="9.0883167"><ele>733.0</ele><time>2026-04-26T12:17:58.557Z</time></trkpt><trkpt lat="40.07098" lon="9.0884133"><ele>733.0</ele><time>2026-04-26T12:17:59.557Z</time></trkpt><trkpt lat="40.070985" lon="9.0885117"><ele>733.0</ele><time>2026-04-26T12:18:00.557Z</time></trkpt><trkpt lat="40.07098" lon="9.0886133"><ele>733.0</ele><time>2026-04-26T12:18:01.616Z</time></trkpt><trkpt lat="40.0709617" lon="9.0887133"><ele>733.0</ele><time>2026-04-26T12:18:02.553Z</time></trkpt><trkpt lat="40.0709367" lon="9.0888067"><ele>733.0</ele><time>2026-04-26T12:18:03.549Z</time></trkpt><trkpt lat="40.0708983" lon="9.0888983"><ele>733.0</ele><time>2026-04-26T12:18:04.554Z</time></trkpt><trkpt lat="40.07088" lon="9.0889817"><ele>733.0</ele><time>2026-04-26T12:18:05.557Z</time></trkpt><trkpt lat="40.0708683" lon="9.089065"><ele>733.0</ele><time>2026-04-26T12:18:06.559Z</time></trkpt><trkpt lat="40.0709083" lon="9.08923"><ele>733.0</ele><time>2026-04-26T12:18:08.556Z</time></trkpt><trkpt lat="40.07095" lon="9.08931"><ele>733.0</ele><time>2026-04-26T12:18:09.553Z</time></trkpt><trkpt lat="40.071" lon="9.0893883"><ele>733.0</ele><time>2026-04-26T12:18:10.557Z</time></trkpt><trkpt lat="40.0710517" lon="9.0894717"><ele>733.8333333333334</ele><time>2026-04-26T12:18:11.556Z</time></trkpt><trkpt lat="40.071095" lon="9.0895533"><ele>734.6666666666667</ele><time>2026-04-26T12:18:12.554Z</time></trkpt><trkpt lat="40.0711267" lon="9.08963"><ele>735.5</ele><time>2026-04-26T12:18:13.595Z</time></trkpt><trkpt lat="40.071155" lon="9.0897617"><ele>736.3333333333334</ele><time>2026-04-26T12:18:15.555Z</time></trkpt><trkpt lat="40.07116" lon="9.0898583"><ele>737.1666666666666</ele><time>2026-04-26T12:18:17.558Z</time></trkpt><trkpt lat="40.071155" lon="9.0899533"><ele>738.0</ele><time>2026-04-26T12:18:20.551Z</time></trkpt><trkpt lat="40.071155" lon="9.09006"><ele>738.6666666666666</ele><time>2026-04-26T12:18:22.555Z</time></trkpt><trkpt lat="40.0711517" lon="9.0902167"><ele>739.3333333333334</ele><time>2026-04-26T12:18:24.556Z</time></trkpt><trkpt lat="40.0711517" lon="9.0903067"><ele>740.0</ele><time>2026-04-26T12:18:25.61Z</time></trkpt><trkpt lat="40.0711467" lon="9.090405"><ele>740.6666666666667</ele><time>2026-04-26T12:18:26.554Z</time></trkpt><trkpt lat="40.0711417" lon="9.0905083"><ele>741.3333333333334</ele><time>2026-04-26T12:18:27.556Z</time></trkpt><trkpt lat="40.07113" lon="9.09061"><ele>742.0</ele><time>2026-04-26T12:18:28.556Z</time></trkpt><trkpt lat="40.071115" lon="9.09071"><ele>741.8333333333334</ele><time>2026-04-26T12:18:29.554Z</time></trkpt><trkpt lat="40.0711033" lon="9.0908133"><ele>741.6666666666667</ele><time>2026-04-26T12:18:30.561Z</time></trkpt><trkpt lat="40.0710983" lon="9.0909233"><ele>741.5</ele><time>2026-04-26T12:18:31.607Z</time></trkpt><trkpt lat="40.0710933" lon="9.0910367"><ele>741.3333333333334</ele><time>2026-04-26T12:18:32.556Z</time></trkpt><trkpt lat="40.0710883" lon="9.091155"><ele>741.1666666666666</ele><time>2026-04-26T12:18:33.557Z</time></trkpt><trkpt lat="40.0710817" lon="9.09127"><ele>741.0</ele><time>2026-04-26T12:18:34.553Z</time></trkpt><trkpt lat="40.0710717" lon="9.0913817"><ele>741.0</ele><time>2026-04-26T12:18:35.562Z</time></trkpt><trkpt lat="40.07106" lon="9.0914983"><ele>741.0</ele><time>2026-04-26T12:18:36.562Z</time></trkpt><trkpt lat="40.071045" lon="9.0916183"><ele>741.0</ele><time>2026-04-26T12:18:37.594Z</time></trkpt><trkpt lat="40.0710333" lon="9.0917433"><ele>741.0</ele><time>2026-04-26T12:18:38.552Z</time></trkpt><trkpt lat="40.0710233" lon="9.0918717"><ele>741.0</ele><time>2026-04-26T12:18:39.552Z</time></trkpt><trkpt lat="40.0710067" lon="9.092"><ele>741.4</ele><time>2026-04-26T12:18:40.558Z</time></trkpt><trkpt lat="40.0709817" lon="9.09213"><ele>741.8</ele><time>2026-04-26T12:18:41.56Z</time></trkpt><trkpt lat="40.07095" lon="9.0922617"><ele>742.1999999999999</ele><time>2026-04-26T12:18:42.554Z</time></trkpt><trkpt lat="40.0709167" lon="9.0923983"><ele>742.5999999999999</ele><time>2026-04-26T12:18:43.594Z</time></trkpt><trkpt lat="40.0708867" lon="9.0925383"><ele>743.0</ele><time>2026-04-26T12:18:44.555Z</time></trkpt><trkpt lat="40.0708617" lon="9.09268"><ele>744.25</ele><time>2026-04-26T12:18:45.564Z</time></trkpt><trkpt lat="40.07085" lon="9.092825"><ele>745.5</ele><time>2026-04-26T12:18:46.553Z</time></trkpt><trkpt lat="40.0708417" lon="9.0929733"><ele>746.75</ele><time>2026-04-26T12:18:47.562Z</time></trkpt><trkpt lat="40.0708367" lon="9.0931233"><ele>748.0</ele><time>2026-04-26T12:18:48.558Z</time></trkpt><trkpt lat="40.070835" lon="9.093275"><ele>749.0</ele><time>2026-04-26T12:18:49.597Z</time></trkpt><trkpt lat="40.0708383" lon="9.0934317"><ele>750.0</ele><time>2026-04-26T12:18:50.554Z</time></trkpt><trkpt lat="40.0708433" lon="9.09358"><ele>751.0</ele><time>2026-04-26T12:18:51.554Z</time></trkpt><trkpt lat="40.0708517" lon="9.0937233"><ele>752.0</ele><time>2026-04-26T12:18:52.551Z</time></trkpt><trkpt lat="40.0708617" lon="9.093855"><ele>753.0</ele><time>2026-04-26T12:18:53.56Z</time></trkpt><trkpt lat="40.0708683" lon="9.0939667"><ele>753.0</ele><time>2026-04-26T12:18:54.551Z</time></trkpt><trkpt lat="40.07087" lon="9.09406"><ele>753.0</ele><time>2026-04-26T12:18:55.614Z</time></trkpt><trkpt lat="40.07087" lon="9.0941567"><ele>753.0</ele><time>2026-04-26T12:18:56.558Z</time></trkpt><trkpt lat="40.070865" lon="9.09427"><ele>753.0</ele><time>2026-04-26T12:18:57.559Z</time></trkpt><trkpt lat="40.0708517" lon="9.0944017"><ele>753.0</ele><time>2026-04-26T12:18:58.557Z</time></trkpt><trkpt lat="40.0708283" lon="9.094545"><ele>753.0</ele><time>2026-04-26T12:18:59.554Z</time></trkpt><trkpt lat="40.0707933" lon="9.0946867"><ele>752.25</ele><time>2026-04-26T12:19:00.557Z</time></trkpt><trkpt lat="40.0707567" lon="9.09484"><ele>751.5</ele><time>2026-04-26T12:19:01.608Z</time></trkpt><trkpt lat="40.0707333" lon="9.0949967"><ele>750.75</ele><time>2026-04-26T12:19:02.552Z</time></trkpt><trkpt lat="40.0707433" lon="9.095155"><ele>750.0</ele><time>2026-04-26T12:19:03.56Z</time></trkpt><trkpt lat="40.0707833" lon="9.0953"><ele>751.5</ele><time>2026-04-26T12:19:04.554Z</time></trkpt><trkpt lat="40.0708517" lon="9.0954317"><ele>753.0</ele><time>2026-04-26T12:19:05.553Z</time></trkpt><trkpt lat="40.0709333" lon="9.09556"><ele>754.5</ele><time>2026-04-26T12:19:06.554Z</time></trkpt><trkpt lat="40.07103" lon="9.0956783"><ele>756.0</ele><time>2026-04-26T12:19:07.59Z</time></trkpt><trkpt lat="40.0711383" lon="9.0957817"><ele>756.0</ele><time>2026-04-26T12:19:08.553Z</time></trkpt><trkpt lat="40.0712633" lon="9.0958633"><ele>756.0</ele><time>2026-04-26T12:19:09.558Z</time></trkpt><trkpt lat="40.0713983" lon="9.09592"><ele>756.0</ele><time>2026-04-26T12:19:10.556Z</time></trkpt><trkpt lat="40.0715483" lon="9.095955"><ele>756.0</ele><time>2026-04-26T12:19:11.555Z</time></trkpt><trkpt lat="40.071705" lon="9.09597"><ele>759.6666666666666</ele><time>2026-04-26T12:19:12.549Z</time></trkpt><trkpt lat="40.0718717" lon="9.0959733"><ele>763.3333333333333</ele><time>2026-04-26T12:19:13.591Z</time></trkpt><trkpt lat="40.07204" lon="9.0959633"><ele>767.0</ele><time>2026-04-26T12:19:14.555Z</time></trkpt><trkpt lat="40.0722033" lon="9.095945"><ele>767.0</ele><time>2026-04-26T12:19:15.56Z</time></trkpt><trkpt lat="40.0723717" lon="9.0959233"><ele>767.0</ele><time>2026-04-26T12:19:16.556Z</time></trkpt><trkpt lat="40.0725383" lon="9.0959"><ele>767.0</ele><time>2026-04-26T12:19:17.557Z</time></trkpt><trkpt lat="40.0727033" lon="9.0958817"><ele>769.3333333333333</ele><time>2026-04-26T12:19:18.558Z</time></trkpt><trkpt lat="40.0728733" lon="9.095885"><ele>771.6666666666666</ele><time>2026-04-26T12:19:19.585Z</time></trkpt><trkpt lat="40.073035" lon="9.0959117"><ele>774.0</ele><time>2026-04-26T12:19:20.561Z</time></trkpt><trkpt lat="40.0731983" lon="9.0959683"><ele>775.3333333333333</ele><time>2026-04-26T12:19:21.558Z</time></trkpt><trkpt lat="40.07336" lon="9.0960433"><ele>776.6666666666666</ele><time>2026-04-26T12:19:22.559Z</time></trkpt><trkpt lat="40.0735233" lon="9.0961283"><ele>778.0</ele><time>2026-04-26T12:19:23.558Z</time></trkpt><trkpt lat="40.0736917" lon="9.096215"><ele>778.0</ele><time>2026-04-26T12:19:24.567Z</time></trkpt><trkpt lat="40.0738567" lon="9.0962967"><ele>778.0</ele><time>2026-04-26T12:19:25.608Z</time></trkpt><trkpt lat="40.0740117" lon="9.0963717"><ele>778.0</ele><time>2026-04-26T12:19:26.554Z</time></trkpt><trkpt lat="40.07416" lon="9.0964567"><ele>778.75</ele><time>2026-04-26T12:19:27.56Z</time></trkpt><trkpt lat="40.0742867" lon="9.0965617"><ele>779.5</ele><time>2026-04-26T12:19:28.55Z</time></trkpt><trkpt lat="40.0743883" lon="9.0966833"><ele>780.25</ele><time>2026-04-26T12:19:29.565Z</time></trkpt><trkpt lat="40.074445" lon="9.0968233"><ele>781.0</ele><time>2026-04-26T12:19:30.55Z</time></trkpt><trkpt lat="40.0744767" lon="9.0969967"><ele>781.0</ele><time>2026-04-26T12:19:31.615Z</time></trkpt><trkpt lat="40.0745017" lon="9.09717"><ele>781.0</ele><time>2026-04-26T12:19:32.552Z</time></trkpt><trkpt lat="40.0745017" lon="9.0973467"><ele>781.0</ele><time>2026-04-26T12:19:33.56Z</time></trkpt><trkpt lat="40.0744683" lon="9.0975183"><ele>781.0</ele><time>2026-04-26T12:19:34.558Z</time></trkpt><trkpt lat="40.0743867" lon="9.0976783"><ele>781.0</ele><time>2026-04-26T12:19:35.554Z</time></trkpt><trkpt lat="40.0742883" lon="9.0978217"><ele>781.0</ele><time>2026-04-26T12:19:36.552Z</time></trkpt><trkpt lat="40.07407" lon="9.09787"><ele>781.0</ele><time>2026-04-26T12:19:37.59Z</time></trkpt><trkpt lat="40.07394" lon="9.09792"><ele>781.0</ele><time>2026-04-26T12:19:38.551Z</time></trkpt><trkpt lat="40.0737983" lon="9.0979317"><ele>781.0</ele><time>2026-04-26T12:19:39.555Z</time></trkpt><trkpt lat="40.07365" lon="9.09793"><ele>781.0</ele><time>2026-04-26T12:19:40.556Z</time></trkpt><trkpt lat="40.0735" lon="9.0979417"><ele>781.0</ele><time>2026-04-26T12:19:41.559Z</time></trkpt><trkpt lat="40.0733433" lon="9.0979717"><ele>779.3333333333333</ele><time>2026-04-26T12:19:42.557Z</time></trkpt><trkpt lat="40.07319" lon="9.098025"><ele>777.6666666666667</ele><time>2026-04-26T12:19:43.593Z</time></trkpt><trkpt lat="40.0730467" lon="9.0980967"><ele>776.0</ele><time>2026-04-26T12:19:44.553Z</time></trkpt><trkpt lat="40.0729217" lon="9.0981917"><ele>779.0</ele><time>2026-04-26T12:19:45.552Z</time></trkpt><trkpt lat="40.07281" lon="9.0983033"><ele>782.0</ele><time>2026-04-26T12:19:46.557Z</time></trkpt><trkpt lat="40.0727267" lon="9.0984417"><ele>785.0</ele><time>2026-04-26T12:19:47.559Z</time></trkpt><trkpt lat="40.072685" lon="9.09861"><ele>788.0</ele><time>2026-04-26T12:19:48.551Z</time></trkpt><trkpt lat="40.072655" lon="9.09879"><ele>788.0</ele><time>2026-04-26T12:19:49.595Z</time></trkpt><trkpt lat="40.07265" lon="9.09899"><ele>788.0</ele><time>2026-04-26T12:19:50.559Z</time></trkpt><trkpt lat="40.0726633" lon="9.09919"><ele>788.0</ele><time>2026-04-26T12:19:51.556Z</time></trkpt><trkpt lat="40.072695" lon="9.0993817"><ele>790.25</ele><time>2026-04-26T12:19:52.552Z</time></trkpt><trkpt lat="40.07275" lon="9.0995583"><ele>792.5</ele><time>2026-04-26T12:19:53.557Z</time></trkpt><trkpt lat="40.072835" lon="9.0997233"><ele>794.75</ele><time>2026-04-26T12:19:54.559Z</time></trkpt><trkpt lat="40.072935" lon="9.0998717"><ele>797.0</ele><time>2026-04-26T12:19:55.609Z</time></trkpt><trkpt lat="40.0730633" lon="9.10001"><ele>798.3333333333334</ele><time>2026-04-26T12:19:56.556Z</time></trkpt><trkpt lat="40.0732167" lon="9.1001217"><ele>799.6666666666667</ele><time>2026-04-26T12:19:57.554Z</time></trkpt><trkpt lat="40.0733817" lon="9.1002083"><ele>801.0</ele><time>2026-04-26T12:19:58.558Z</time></trkpt><trkpt lat="40.073545" lon="9.1002867"><ele>801.0</ele><time>2026-04-26T12:19:59.554Z</time></trkpt><trkpt lat="40.07371" lon="9.1003667"><ele>801.0</ele><time>2026-04-26T12:20:00.555Z</time></trkpt><trkpt lat="40.0738717" lon="9.100445"><ele>801.0</ele><time>2026-04-26T12:20:01.614Z</time></trkpt><trkpt lat="40.0740333" lon="9.10054"><ele>800.3333333333333</ele><time>2026-04-26T12:20:02.554Z</time></trkpt><trkpt lat="40.0741933" lon="9.10066"><ele>799.6666666666666</ele><time>2026-04-26T12:20:03.558Z</time></trkpt><trkpt lat="40.0743433" lon="9.1007983"><ele>799.0</ele><time>2026-04-26T12:20:04.554Z</time></trkpt><trkpt lat="40.0744933" lon="9.1009583"><ele>799.3333333333333</ele><time>2026-04-26T12:20:05.553Z</time></trkpt><trkpt lat="40.0746483" lon="9.1011267"><ele>799.6666666666667</ele><time>2026-04-26T12:20:06.557Z</time></trkpt><trkpt lat="40.0747983" lon="9.1012933"><ele>800.0</ele><time>2026-04-26T12:20:07.603Z</time></trkpt><trkpt lat="40.0749417" lon="9.1014567"><ele>797.6666666666667</ele><time>2026-04-26T12:20:08.551Z</time></trkpt><trkpt lat="40.0750833" lon="9.101615"><ele>795.3333333333333</ele><time>2026-04-26T12:20:09.554Z</time></trkpt><trkpt lat="40.0752117" lon="9.101765"><ele>793.0</ele><time>2026-04-26T12:20:10.561Z</time></trkpt><trkpt lat="40.0753333" lon="9.1019083"><ele>793.0</ele><time>2026-04-26T12:20:11.552Z</time></trkpt><trkpt lat="40.0754433" lon="9.1020433"><ele>793.0</ele><time>2026-04-26T12:20:12.561Z</time></trkpt><trkpt lat="40.0755167" lon="9.1021867"><ele>793.0</ele><time>2026-04-26T12:20:13.594Z</time></trkpt><trkpt lat="40.0755683" lon="9.1023317"><ele>793.0</ele><time>2026-04-26T12:20:14.554Z</time></trkpt><trkpt lat="40.0755933" lon="9.1024967"><ele>791.5</ele><time>2026-04-26T12:20:15.559Z</time></trkpt><trkpt lat="40.0755917" lon="9.1026633"><ele>790.0</ele><time>2026-04-26T12:20:16.56Z</time></trkpt><trkpt lat="40.075565" lon="9.102825"><ele>788.5</ele><time>2026-04-26T12:20:17.549Z</time></trkpt><trkpt lat="40.0755117" lon="9.1029767"><ele>787.0</ele><time>2026-04-26T12:20:18.554Z</time></trkpt><trkpt lat="40.0754167" lon="9.1030917"><ele>787.0</ele><time>2026-04-26T12:20:19.591Z</time></trkpt><trkpt lat="40.07532" lon="9.1031933"><ele>787.0</ele><time>2026-04-26T12:20:20.55Z</time></trkpt><trkpt lat="40.075225" lon="9.1032917"><ele>787.0</ele><time>2026-04-26T12:20:21.56Z</time></trkpt><trkpt lat="40.0751517" lon="9.1034017"><ele>787.0</ele><time>2026-04-26T12:20:22.551Z</time></trkpt><trkpt lat="40.075115" lon="9.10353"><ele>787.8</ele><time>2026-04-26T12:20:23.555Z</time></trkpt><trkpt lat="40.0751" lon="9.103655"><ele>788.6</ele><time>2026-04-26T12:20:24.553Z</time></trkpt><trkpt lat="40.0751167" lon="9.1037783"><ele>789.4</ele><time>2026-04-26T12:20:25.612Z</time></trkpt><trkpt lat="40.0752017" lon="9.10388"><ele>790.1999999999999</ele><time>2026-04-26T12:20:26.556Z</time></trkpt><trkpt lat="40.0752933" lon="9.1039567"><ele>791.0</ele><time>2026-04-26T12:20:27.556Z</time></trkpt><trkpt lat="40.0754117" lon="9.1039567"><ele>791.0</ele><time>2026-04-26T12:20:28.553Z</time></trkpt><trkpt lat="40.075535" lon="9.1039333"><ele>791.0</ele><time>2026-04-26T12:20:29.56Z</time></trkpt><trkpt lat="40.0756667" lon="9.103895"><ele>791.0</ele><time>2026-04-26T12:20:30.551Z</time></trkpt><trkpt lat="40.0758067" lon="9.10386"><ele>791.0</ele><time>2026-04-26T12:20:31.611Z</time></trkpt><trkpt lat="40.075955" lon="9.1038333"><ele>795.0</ele><time>2026-04-26T12:20:32.557Z</time></trkpt><trkpt lat="40.07611" lon="9.1038267"><ele>799.0</ele><time>2026-04-26T12:20:33.555Z</time></trkpt><trkpt lat="40.0741933" lon="9.10066"><ele>797.0</ele><time>2026-04-26T12:20:03.558Z</time></trkpt><trkpt lat="40.0743433" lon="9.1007983"><ele>795.0</ele><time>2026-04-26T12:20:04.554Z</time></trkpt><trkpt lat="40.0744933" lon="9.1009583"><ele>793.0</ele><time>2026-04-26T12:20:05.553Z</time></trkpt><trkpt lat="40.0746483" lon="9.1011267"><ele>793.0</ele><time>2026-04-26T12:20:06.557Z</time></trkpt><trkpt lat="40.0747983" lon="9.1012933"><ele>793.0</ele><time>2026-04-26T12:20:07.603Z</time></trkpt><trkpt lat="40.0749417" lon="9.1014567"><ele>793.0</ele><time>2026-04-26T12:20:08.551Z</time></trkpt><trkpt lat="40.0750833" lon="9.101615"><ele>793.0</ele><time>2026-04-26T12:20:09.554Z</time></trkpt><trkpt lat="40.0752117" lon="9.101765"><ele>793.0</ele><time>2026-04-26T12:20:10.561Z</time></trkpt><trkpt lat="40.0753333" lon="9.1019083"><ele>793.0</ele><time>2026-04-26T12:20:11.552Z</time></trkpt><trkpt lat="40.0754433" lon="9.1020433"><ele>793.0</ele><time>2026-04-26T12:20:12.561Z</time></trkpt><trkpt lat="40.0755167" lon="9.1021867"><ele>793.0</ele><time>2026-04-26T12:20:13.594Z</time></trkpt><trkpt lat="40.0755683" lon="9.1023317"><ele>793.0</ele><time>2026-04-26T12:20:14.554Z</time></trkpt><trkpt lat="40.0755933" lon="9.1024967"><ele>793.0</ele><time>2026-04-26T12:20:15.559Z</time></trkpt><trkpt lat="40.0755917" lon="9.1026633"><ele>791.5</ele><time>2026-04-26T12:20:16.56Z</time></trkpt><trkpt lat="40.075565" lon="9.102825"><ele>790.0</ele><time>2026-04-26T12:20:17.549Z</time></trkpt><trkpt lat="40.0755117" lon="9.1029767"><ele>788.5</ele><time>2026-04-26T12:20:18.554Z</time></trkpt><trkpt lat="40.0754167" lon="9.1030917"><ele>787.0</ele><time>2026-04-26T12:20:19.591Z</time></trkpt><trkpt lat="40.07532" lon="9.1031933"><ele>787.8</ele><time>2026-04-26T12:20:20.55Z</time></trkpt><trkpt lat="40.075225" lon="9.1032917"><ele>788.6</ele><time>2026-04-26T12:20:21.56Z</time></trkpt><trkpt lat="40.0751517" lon="9.1034017"><ele>789.4</ele><time>2026-04-26T12:20:22.551Z</time></trkpt><trkpt lat="40.075115" lon="9.10353"><ele>790.1999999999999</ele><time>2026-04-26T12:20:23.555Z</time></trkpt><trkpt lat="40.0751" lon="9.103655"><ele>791.0</ele><time>2026-04-26T12:20:24.553Z</time></trkpt><trkpt lat="40.0751167" lon="9.1037783"><ele>791.0</ele><time>2026-04-26T12:20:25.612Z</time></trkpt><trkpt lat="40.0752017" lon="9.10388"><ele>791.0</ele><time>2026-04-26T12:20:26.556Z</time></trkpt><trkpt lat="40.0752933" lon="9.1039567"><ele>791.0</ele><time>2026-04-26T12:20:27.556Z</time></trkpt><trkpt lat="40.0754117" lon="9.1039567"><ele>791.0</ele><time>2026-04-26T12:20:28.553Z</time></trkpt><trkpt lat="40.075535" lon="9.1039333"><ele>791.0</ele><time>2026-04-26T12:20:29.56Z</time></trkpt><trkpt lat="40.0756667" lon="9.103895"><ele>791.0</ele><time>2026-04-26T12:20:30.551Z</time></trkpt><trkpt lat="40.0758067" lon="9.10386"><ele>791.0</ele><time>2026-04-26T12:20:31.611Z</time></trkpt><trkpt lat="40.075955" lon="9.1038333"><ele>791.0</ele><time>2026-04-26T12:20:32.557Z</time></trkpt><trkpt lat="40.07611" lon="9.1038267"><ele>794.6666666666667</ele><time>2026-04-26T12:20:33.555Z</time></trkpt><trkpt lat="40.0762767" lon="9.1038367"><ele>798.3333333333333</ele><time>2026-04-26T12:20:34.553Z</time></trkpt><trkpt lat="40.0764467" lon="9.1038583"><ele>802.0</ele><time>2026-04-26T12:20:35.558Z</time></trkpt><trkpt lat="40.0766217" lon="9.1038933"><ele>804.6666666666666</ele><time>2026-04-26T12:20:36.559Z</time></trkpt><trkpt lat="40.0767967" lon="9.1039267"><ele>807.3333333333333</ele><time>2026-04-26T12:20:37.592Z</time></trkpt><trkpt lat="40.076975" lon="9.1039617"><ele>810.0</ele><time>2026-04-26T12:20:38.556Z</time></trkpt><trkpt lat="40.077145" lon="9.103995"><ele>810.0</ele><time>2026-04-26T12:20:39.563Z</time></trkpt><trkpt lat="40.0773017" lon="9.1040433"><ele>810.0</ele><time>2026-04-26T12:20:40.557Z</time></trkpt><trkpt lat="40.077445" lon="9.104125"><ele>810.0</ele><time>2026-04-26T12:20:41.557Z</time></trkpt><trkpt lat="40.0775517" lon="9.1042733"><ele>810.6666666666667</ele><time>2026-04-26T12:20:42.559Z</time></trkpt><trkpt lat="40.0776233" lon="9.1044533"><ele>811.3333333333334</ele><time>2026-04-26T12:20:43.588Z</time></trkpt><trkpt lat="40.0776683" lon="9.1046533"><ele>812.0</ele><time>2026-04-26T12:20:44.555Z</time></trkpt><trkpt lat="40.0777083" lon="9.1048617"><ele>811.0</ele><time>2026-04-26T12:20:45.547Z</time></trkpt><trkpt lat="40.07776" lon="9.1050617"><ele>810.0</ele><time>2026-04-26T12:20:46.556Z</time></trkpt><trkpt lat="40.0778383" lon="9.1052617"><ele>809.0</ele><time>2026-04-26T12:20:47.556Z</time></trkpt><trkpt lat="40.077935" lon="9.1054383"><ele>809.0</ele><time>2026-04-26T12:20:48.551Z</time></trkpt><trkpt lat="40.0780633" lon="9.1055567"><ele>809.0</ele><time>2026-04-26T12:20:49.595Z</time></trkpt><trkpt lat="40.0782067" lon="9.1056267"><ele>809.0</ele><time>2026-04-26T12:20:50.554Z</time></trkpt><trkpt lat="40.0783683" lon="9.10562"><ele>813.6666666666667</ele><time>2026-04-26T12:20:51.557Z</time></trkpt><trkpt lat="40.0785317" lon="9.1055833"><ele>818.3333333333333</ele><time>2026-04-26T12:20:52.561Z</time></trkpt><trkpt lat="40.0787" lon="9.105545"><ele>823.0</ele><time>2026-04-26T12:20:53.553Z</time></trkpt><trkpt lat="40.07887" lon="9.1055183"><ele>823.0</ele><time>2026-04-26T12:20:54.558Z</time></trkpt><trkpt lat="40.07905" lon="9.1055133"><ele>823.0</ele><time>2026-04-26T12:20:55.613Z</time></trkpt><trkpt lat="40.0792367" lon="9.10553"><ele>823.0</ele><time>2026-04-26T12:20:56.551Z</time></trkpt><trkpt lat="40.0794283" lon="9.1055517"><ele>825.6666666666666</ele><time>2026-04-26T12:20:57.556Z</time></trkpt><trkpt lat="40.0796217" lon="9.105585"><ele>828.3333333333333</ele><time>2026-04-26T12:20:58.557Z</time></trkpt><trkpt lat="40.0798133" lon="9.1056233"><ele>831.0</ele><time>2026-04-26T12:20:59.556Z</time></trkpt><trkpt lat="40.080005" lon="9.1056633"><ele>832.0</ele><time>2026-04-26T12:21:00.557Z</time></trkpt><trkpt lat="40.0801933" lon="9.1056967"><ele>833.0</ele><time>2026-04-26T12:21:01.604Z</time></trkpt><trkpt lat="40.080375" lon="9.105735"><ele>834.0</ele><time>2026-04-26T12:21:02.553Z</time></trkpt><trkpt lat="40.0805567" lon="9.1057733"><ele>832.0</ele><time>2026-04-26T12:21:03.565Z</time></trkpt><trkpt lat="40.080725" lon="9.10584"><ele>830.0</ele><time>2026-04-26T12:21:04.551Z</time></trkpt><trkpt lat="40.080895" lon="9.105915"><ele>828.0</ele><time>2026-04-26T12:21:05.559Z</time></trkpt><trkpt lat="40.081065" lon="9.1059883"><ele>828.0</ele><time>2026-04-26T12:21:06.552Z</time></trkpt><trkpt lat="40.08123" lon="9.1060617"><ele>828.0</ele><time>2026-04-26T12:21:07.596Z</time></trkpt><trkpt lat="40.0813933" lon="9.1061367"><ele>828.0</ele><time>2026-04-26T12:21:08.557Z</time></trkpt><trkpt lat="40.0815517" lon="9.1062083"><ele>831.0</ele><time>2026-04-26T12:21:09.56Z</time></trkpt><trkpt lat="40.0817067" lon="9.1062783"><ele>834.0</ele><time>2026-04-26T12:21:10.557Z</time></trkpt><trkpt lat="40.0818633" lon="9.1063467"><ele>837.0</ele><time>2026-04-26T12:21:11.555Z</time></trkpt><trkpt lat="40.0820067" lon="9.1064183"><ele>837.0</ele><time>2026-04-26T12:21:12.556Z</time></trkpt><trkpt lat="40.0821567" lon="9.1064917"><ele>837.0</ele><time>2026-04-26T12:21:13.596Z</time></trkpt><trkpt lat="40.0823017" lon="9.1065717"><ele>837.0</ele><time>2026-04-26T12:21:14.563Z</time></trkpt><trkpt lat="40.08245" lon="9.1066467"><ele>833.6666666666667</ele><time>2026-04-26T12:21:15.56Z</time></trkpt><trkpt lat="40.082595" lon="9.1067233"><ele>830.3333333333334</ele><time>2026-04-26T12:21:16.552Z</time></trkpt><trkpt lat="40.08274" lon="9.1068017"><ele>827.0</ele><time>2026-04-26T12:21:17.554Z</time></trkpt><trkpt lat="40.0828833" lon="9.106885"><ele>827.0</ele><time>2026-04-26T12:21:18.555Z</time></trkpt><trkpt lat="40.083025" lon="9.106965"><ele>827.0</ele><time>2026-04-26T12:21:19.589Z</time></trkpt><trkpt lat="40.083165" lon="9.1070417"><ele>827.0</ele><time>2026-04-26T12:21:20.556Z</time></trkpt><trkpt lat="40.0832967" lon="9.1071217"><ele>827.5</ele><time>2026-04-26T12:21:21.552Z</time></trkpt><trkpt lat="40.0834133" lon="9.10721"><ele>828.0</ele><time>2026-04-26T12:21:22.556Z</time></trkpt><trkpt lat="40.0835183" lon="9.1073117"><ele>828.5</ele><time>2026-04-26T12:21:23.565Z</time></trkpt><trkpt lat="40.0836083" lon="9.1074333"><ele>829.0</ele><time>2026-04-26T12:21:24.553Z</time></trkpt><trkpt lat="40.083685" lon="9.10758"><ele>829.0</ele><time>2026-04-26T12:21:25.612Z</time></trkpt><trkpt lat="40.0837867" lon="9.1079117"><ele>829.0</ele><time>2026-04-26T12:21:27.553Z</time></trkpt><trkpt lat="40.0838067" lon="9.1080967"><ele>829.0</ele><time>2026-04-26T12:21:28.555Z</time></trkpt><trkpt lat="40.0836033" lon="9.1089683"><ele>835.0</ele><time>2026-04-26T12:21:33.547Z</time></trkpt><trkpt lat="40.0830517" lon="9.1095967"><ele>835.0</ele><time>2026-04-26T12:21:38.555Z</time></trkpt><trkpt lat="40.0829667" lon="9.1096983"><ele>835.0</ele><time>2026-04-26T12:21:39.551Z</time></trkpt><trkpt lat="40.0827417" lon="9.1101717"><ele>841.0</ele><time>2026-04-26T12:21:43.595Z</time></trkpt><trkpt lat="40.0828383" lon="9.1109517"><ele>851.0</ele><time>2026-04-26T12:21:48.548Z</time></trkpt><trkpt lat="40.083295" lon="9.111385"><ele>851.0</ele><time>2026-04-26T12:21:52.558Z</time></trkpt><trkpt lat="40.0834383" lon="9.1114467"><ele>851.0</ele><time>2026-04-26T12:21:53.551Z</time></trkpt><trkpt lat="40.0835867" lon="9.1115067"><ele>851.0</ele><time>2026-04-26T12:21:54.557Z</time></trkpt><trkpt lat="40.0842833" lon="9.1119017"><ele>848.0</ele><time>2026-04-26T12:21:59.552Z</time></trkpt><trkpt lat="40.0843883" lon="9.1120017"><ele>845.0</ele><time>2026-04-26T12:22:00.557Z</time></trkpt><trkpt lat="40.085485" lon="9.1125717"><ele>827.0</ele><time>2026-04-26T12:22:09.557Z</time></trkpt><trkpt lat="40.08598" lon="9.1129967"><ele>827.0</ele><time>2026-04-26T12:22:13.59Z</time></trkpt><trkpt lat="40.0860967" lon="9.1131367"><ele>827.0</ele><time>2026-04-26T12:22:14.556Z</time></trkpt><trkpt lat="40.08682" lon="9.113455"><ele>819.0</ele><time>2026-04-26T12:22:19.589Z</time></trkpt><trkpt lat="40.0875417" lon="9.1135717"><ele>819.0</ele><time>2026-04-26T12:22:23.558Z</time></trkpt><trkpt lat="40.087735" lon="9.1136"><ele>819.0</ele><time>2026-04-26T12:22:24.548Z</time></trkpt><trkpt lat="40.088265" lon="9.113665"><ele>814.0</ele><time>2026-04-26T12:22:27.549Z</time></trkpt><trkpt lat="40.0884167" lon="9.1136767"><ele>809.0</ele><time>2026-04-26T12:22:28.553Z</time></trkpt><trkpt lat="40.088815" lon="9.113695"><ele>809.0</ele><time>2026-04-26T12:22:31.617Z</time></trkpt><trkpt lat="40.08893" lon="9.11371"><ele>809.0</ele><time>2026-04-26T12:22:32.548Z</time></trkpt><trkpt lat="40.0893783" lon="9.114185"><ele>816.0</ele><time>2026-04-26T12:22:37.585Z</time></trkpt><trkpt lat="40.0898333" lon="9.1146583"><ele>811.0</ele><time>2026-04-26T12:22:42.549Z</time></trkpt><trkpt lat="40.0901683" lon="9.11504"><ele>806.0</ele><time>2026-04-26T12:22:46.552Z</time></trkpt><trkpt lat="40.0902283" lon="9.11516"><ele>806.0</ele><time>2026-04-26T12:22:47.551Z</time></trkpt><trkpt lat="40.09032" lon="9.1155283"><ele>806.0</ele><time>2026-04-26T12:22:50.552Z</time></trkpt><trkpt lat="40.09034" lon="9.1156383"><ele>806.0</ele><time>2026-04-26T12:22:51.559Z</time></trkpt><trkpt lat="40.090635" lon="9.1162317"><ele>784.0</ele><time>2026-04-26T12:22:57.544Z</time></trkpt><trkpt lat="40.0916767" lon="9.1162933"><ele>784.0</ele><time>2026-04-26T12:23:06.561Z</time></trkpt><trkpt lat="40.0921317" lon="9.1165233"><ele>781.0</ele><time>2026-04-26T12:23:10.559Z</time></trkpt><trkpt lat="40.0922433" lon="9.1166317"><ele>778.0</ele><time>2026-04-26T12:23:11.554Z</time></trkpt><trkpt lat="40.0926083" lon="9.117335"><ele>783.0</ele><time>2026-04-26T12:23:16.555Z</time></trkpt><trkpt lat="40.0930167" lon="9.1178433"><ele>783.0</ele><time>2026-04-26T12:23:21.549Z</time></trkpt><trkpt lat="40.09312" lon="9.11791"><ele>783.0</ele><time>2026-04-26T12:23:22.558Z</time></trkpt><trkpt lat="40.0934417" lon="9.1181717"><ele>780.0</ele><time>2026-04-26T12:23:26.549Z</time></trkpt><trkpt lat="40.093485" lon="9.11826"><ele>777.0</ele><time>2026-04-26T12:23:27.562Z</time></trkpt><trkpt lat="40.0935" lon="9.11871"><ele>774.0</ele><time>2026-04-26T12:23:32.553Z</time></trkpt><trkpt lat="40.09348" lon="9.1188167"><ele>776.5</ele><time>2026-04-26T12:23:33.551Z</time></trkpt><trkpt lat="40.093495" lon="9.11933"><ele>779.0</ele><time>2026-04-26T12:23:39.555Z</time></trkpt><trkpt lat="40.093935" lon="9.1192783"><ele>779.0</ele><time>2026-04-26T12:23:46.554Z</time></trkpt><trkpt lat="40.093965" lon="9.119175"><ele>779.0</ele><time>2026-04-26T12:23:47.551Z</time></trkpt><trkpt lat="40.0940167" lon="9.1186033"><ele>767.0</ele><time>2026-04-26T12:23:52.551Z</time></trkpt><trkpt lat="40.094115" lon="9.1180683"><ele>755.0</ele><time>2026-04-26T12:23:57.554Z</time></trkpt><trkpt lat="40.0941583" lon="9.1177283"><ele>756.0</ele><time>2026-04-26T12:24:01.616Z</time></trkpt><trkpt lat="40.0940033" lon="9.1173633"><ele>757.0</ele><time>2026-04-26T12:24:07.585Z</time></trkpt><trkpt lat="40.0937967" lon="9.1171983"><ele>757.0</ele><time>2026-04-26T12:24:11.556Z</time></trkpt><trkpt lat="40.0937333" lon="9.1171467"><ele>757.0</ele><time>2026-04-26T12:24:12.554Z</time></trkpt><trkpt lat="40.0934983" lon="9.11692"><ele>757.0</ele><time>2026-04-26T12:24:16.554Z</time></trkpt><trkpt lat="40.09345" lon="9.1168583"><ele>757.0</ele><time>2026-04-26T12:24:17.552Z</time></trkpt><trkpt lat="40.0932733" lon="9.1165683"><ele>765.0</ele><time>2026-04-26T12:24:21.554Z</time></trkpt><trkpt lat="40.0932317" lon="9.1164633"><ele>773.0</ele><time>2026-04-26T12:24:22.553Z</time></trkpt><trkpt lat="40.0932283" lon="9.1158933"><ele>773.0</ele><time>2026-04-26T12:24:27.557Z</time></trkpt><trkpt lat="40.0932533" lon="9.11579"><ele>773.0</ele><time>2026-04-26T12:24:28.554Z</time></trkpt><trkpt lat="40.0933967" lon="9.1152383"><ele>765.6666666666667</ele><time>2026-04-26T12:24:33.555Z</time></trkpt><trkpt lat="40.0934283" lon="9.1151333"><ele>758.3333333333334</ele><time>2026-04-26T12:24:34.555Z</time></trkpt><trkpt lat="40.0935917" lon="9.1147383"><ele>751.0</ele><time>2026-04-26T12:24:39.555Z</time></trkpt><trkpt lat="40.0939767" lon="9.1148367"><ele>751.0</ele><time>2026-04-26T12:24:45.555Z</time></trkpt><trkpt lat="40.09392" lon="9.1152783"><ele>751.0</ele><time>2026-04-26T12:24:49.588Z</time></trkpt><trkpt lat="40.0937567" lon="9.1156417"><ele>751.0</ele><time>2026-04-26T12:24:53.558Z</time></trkpt><trkpt lat="40.0937867" lon="9.1158883"><ele>751.0</ele><time>2026-04-26T12:24:56.548Z</time></trkpt><trkpt lat="40.0938217" lon="9.11597"><ele>751.0</ele><time>2026-04-26T12:24:57.552Z</time></trkpt><trkpt lat="40.0942233" lon="9.11622"><ele>746.6666666666667</ele><time>2026-04-26T12:25:02.555Z</time></trkpt><trkpt lat="40.09442" lon="9.1162417"><ele>742.3333333333334</ele><time>2026-04-26T12:25:04.553Z</time></trkpt><trkpt lat="40.0945183" lon="9.116255"><ele>738.0</ele><time>2026-04-26T12:25:05.549Z</time></trkpt><trkpt lat="40.09469" lon="9.1162783"><ele>738.0</ele><time>2026-04-26T12:25:07.603Z</time></trkpt><trkpt lat="40.0947817" lon="9.11629"><ele>738.0</ele><time>2026-04-26T12:25:08.552Z</time></trkpt><trkpt lat="40.0950383" lon="9.1164267"><ele>738.0</ele><time>2026-04-26T12:25:11.557Z</time></trkpt><trkpt lat="40.095145" lon="9.1165983"><ele>736.0</ele><time>2026-04-26T12:25:13.587Z</time></trkpt><trkpt lat="40.09528" lon="9.1168383"><ele>734.0</ele><time>2026-04-26T12:25:16.55Z</time></trkpt><trkpt lat="40.095385" lon="9.1169317"><ele>732.0</ele><time>2026-04-26T12:25:19.589Z</time></trkpt><trkpt lat="40.09544" lon="9.1169833"><ele>730.0</ele><time>2026-04-26T12:25:22.554Z</time></trkpt><trkpt lat="40.0955" lon="9.1170167"><ele>730.0</ele><time>2026-04-26T12:25:27.55Z</time></trkpt><trkpt lat="40.09558" lon="9.1170217"><ele>730.0</ele><time>2026-04-26T12:25:30.551Z</time></trkpt><trkpt lat="40.0956467" lon="9.1170417"><ele>730.0</ele><time>2026-04-26T12:25:34.557Z</time></trkpt><trkpt lat="40.0957167" lon="9.1170667"><ele>730.0</ele><time>2026-04-26T12:25:38.558Z</time></trkpt><trkpt lat="40.09586" lon="9.1171167"><ele>730.0</ele><time>2026-04-26T12:25:44.552Z</time></trkpt><trkpt lat="40.09603" lon="9.1172233"><ele>729.0</ele><time>2026-04-26T12:25:47.559Z</time></trkpt><trkpt lat="40.0962" lon="9.11741"><ele>728.0</ele><time>2026-04-26T12:25:50.549Z</time></trkpt><trkpt lat="40.0963" lon="9.1175933"><ele>727.0</ele><time>2026-04-26T12:25:52.55Z</time></trkpt><trkpt lat="40.0963333" lon="9.1177"><ele>727.0</ele><time>2026-04-26T12:25:53.555Z</time></trkpt><trkpt lat="40.0963617" lon="9.11792"><ele>727.0</ele><time>2026-04-26T12:25:55.58Z</time></trkpt><trkpt lat="40.0963583" lon="9.1180317"><ele>727.0</ele><time>2026-04-26T12:25:56.55Z</time></trkpt><trkpt lat="40.096345" lon="9.1184333"><ele>728.3333333333334</ele><time>2026-04-26T12:26:00.553Z</time></trkpt><trkpt lat="40.0963283" lon="9.1187433"><ele>729.6666666666666</ele><time>2026-04-26T12:26:03.55Z</time></trkpt><trkpt lat="40.096345" lon="9.118955"><ele>731.0</ele><time>2026-04-26T12:26:05.563Z</time></trkpt><trkpt lat="40.0963733" lon="9.119065"><ele>730.6666666666666</ele><time>2026-04-26T12:26:06.556Z</time></trkpt><trkpt lat="40.096455" lon="9.1194"><ele>730.3333333333334</ele><time>2026-04-26T12:26:09.554Z</time></trkpt><trkpt lat="40.0964683" lon="9.1195067"><ele>730.0</ele><time>2026-04-26T12:26:10.552Z</time></trkpt><trkpt lat="40.0965117" lon="9.1199333"><ele>727.5</ele><time>2026-04-26T12:26:15.544Z</time></trkpt><trkpt lat="40.0964583" lon="9.12024"><ele>725.0</ele><time>2026-04-26T12:26:19.582Z</time></trkpt><trkpt lat="40.096245" lon="9.1205433"><ele>725.0</ele><time>2026-04-26T12:26:23.555Z</time></trkpt><trkpt lat="40.0962" lon="9.1206133"><ele>725.0</ele><time>2026-04-26T12:26:24.551Z</time></trkpt><trkpt lat="40.0959833" lon="9.1211933"><ele>722.8</ele><time>2026-04-26T12:26:32.548Z</time></trkpt><trkpt lat="40.0959583" lon="9.121335"><ele>720.6</ele><time>2026-04-26T12:26:34.55Z</time></trkpt><trkpt lat="40.095995" lon="9.12143"><ele>718.4000000000001</ele><time>2026-04-26T12:26:36.554Z</time></trkpt><trkpt lat="40.0960533" lon="9.12152"><ele>716.2</ele><time>2026-04-26T12:26:38.554Z</time></trkpt><trkpt lat="40.09613" lon="9.1216333"><ele>714.0</ele><time>2026-04-26T12:26:40.557Z</time></trkpt><trkpt lat="40.0961617" lon="9.1217133"><ele>713.0</ele><time>2026-04-26T12:26:41.553Z</time></trkpt><trkpt lat="40.0961917" lon="9.1217983"><ele>712.0</ele><time>2026-04-26T12:26:42.556Z</time></trkpt><trkpt lat="40.0962067" lon="9.1218917"><ele>711.0</ele><time>2026-04-26T12:26:43.593Z</time></trkpt><trkpt lat="40.09622" lon="9.12199"><ele>710.0</ele><time>2026-04-26T12:26:44.556Z</time></trkpt><trkpt lat="40.0962283" lon="9.1220883"><ele>709.0</ele><time>2026-04-26T12:26:45.556Z</time></trkpt><trkpt lat="40.096235" lon="9.1221767"><ele>708.0</ele><time>2026-04-26T12:26:46.55Z</time></trkpt><trkpt lat="40.0962467" lon="9.1222667"><ele>707.0</ele><time>2026-04-26T12:26:47.546Z</time></trkpt><trkpt lat="40.0962633" lon="9.122355"><ele>708.0</ele><time>2026-04-26T12:26:48.554Z</time></trkpt><trkpt lat="40.0962767" lon="9.1224467"><ele>709.0</ele><time>2026-04-26T12:26:49.593Z</time></trkpt><trkpt lat="40.0962833" lon="9.1225417"><ele>710.0</ele><time>2026-04-26T12:26:50.554Z</time></trkpt><trkpt lat="40.0962917" lon="9.12264"><ele>711.0</ele><time>2026-04-26T12:26:51.56Z</time></trkpt><trkpt lat="40.0963033" lon="9.12274"><ele>712.0</ele><time>2026-04-26T12:26:52.552Z</time></trkpt><trkpt lat="40.0963217" lon="9.122845"><ele>713.0</ele><time>2026-04-26T12:26:53.551Z</time></trkpt><trkpt lat="40.0963433" lon="9.1229483"><ele>713.0</ele><time>2026-04-26T12:26:54.553Z</time></trkpt><trkpt lat="40.0963683" lon="9.1230567"><ele>713.0</ele><time>2026-04-26T12:26:55.604Z</time></trkpt><trkpt lat="40.0965033" lon="9.1234867"><ele>713.0</ele><time>2026-04-26T12:26:59.554Z</time></trkpt><trkpt lat="40.0966717" lon="9.124075"><ele>702.5</ele><time>2026-04-26T12:27:04.556Z</time></trkpt><trkpt lat="40.09685" lon="9.1245183"><ele>692.0</ele><time>2026-04-26T12:27:08.548Z</time></trkpt><trkpt lat="40.09698" lon="9.1252483"><ele>688.0</ele><time>2026-04-26T12:27:14.556Z</time></trkpt><trkpt lat="40.0968717" lon="9.1259233"><ele>688.0</ele><time>2026-04-26T12:27:19.592Z</time></trkpt><trkpt lat="40.0969167" lon="9.1260633"><ele>688.0</ele><time>2026-04-26T12:27:20.549Z</time></trkpt><trkpt lat="40.0970583" lon="9.1266583"><ele>689.3333333333334</ele><time>2026-04-26T12:27:24.545Z</time></trkpt><trkpt lat="40.09709" lon="9.1268033"><ele>690.6666666666666</ele><time>2026-04-26T12:27:25.606Z</time></trkpt><trkpt lat="40.0971833" lon="9.1271917"><ele>692.0</ele><time>2026-04-26T12:27:28.563Z</time></trkpt><trkpt lat="40.097225" lon="9.127315"><ele>692.0</ele><time>2026-04-26T12:27:29.552Z</time></trkpt><trkpt lat="40.0974" lon="9.12775"><ele>682.0</ele><time>2026-04-26T12:27:33.547Z</time></trkpt></trkseg></trk></gpx>